<?xml version="1.0" encoding="UTF-8" standalone="no" ?>
<gpx xmlns="http://www.topografix.com/GPX/1/1" xmlns:xsi="http://www.w3.org/2001/XMLSchema-instance" xsi:schemaLocation="http://www.topografix.com/GPX/1/1 http://www.topografix.com/GPX/1/1/gpx.xsd" version="1.1" creator="VisuGPX - https://www.visugpx.com">
  <metadata>
    <name>Pornichet 17/07/2022</name>
    <desc><![CDATA[Sortie dimanche 17 juillet 2022]]></desc>
  </metadata>
  <trk>
    <name><![CDATA[Pornichet Cyclisme]]></name>
    <trkseg>
      <trkpt lat="47.26403" lon="-2.31588">
        <ele>9.5</ele>
        <time>2022-07-17T06:59:33.000Z</time>
      </trkpt>
      <trkpt lat="47.26404" lon="-2.3161">
        <ele>9.5</ele>
        <time>2022-07-17T06:59:37.000Z</time>
      </trkpt>
      <trkpt lat="47.26404" lon="-2.31616">
        <ele>1</ele>
        <time>2022-07-17T06:59:38.000Z</time>
      </trkpt>
      <trkpt lat="47.26405" lon="-2.31622">
        <ele>1.7999999523163</ele>
        <time>2022-07-17T06:59:39.000Z</time>
      </trkpt>
      <trkpt lat="47.26405" lon="-2.31629">
        <ele>2.5999999046326</ele>
        <time>2022-07-17T06:59:40.000Z</time>
      </trkpt>
      <trkpt lat="47.26406" lon="-2.31642">
        <ele>2.5999999046326</ele>
        <time>2022-07-17T06:59:42.000Z</time>
      </trkpt>
      <trkpt lat="47.26406" lon="-2.31658">
        <ele>2.5999999046326</ele>
        <time>2022-07-17T06:59:44.000Z</time>
      </trkpt>
      <trkpt lat="47.26406" lon="-2.31658">
        <ele>2.5999999046326</ele>
        <time>2022-07-17T06:59:45.000Z</time>
      </trkpt>
      <trkpt lat="47.26405" lon="-2.31661">
        <ele>2.5999999046326</ele>
        <time>2022-07-17T06:59:46.000Z</time>
      </trkpt>
      <trkpt lat="47.26398" lon="-2.31665">
        <ele>2.5999999046326</ele>
        <time>2022-07-17T06:59:48.000Z</time>
      </trkpt>
      <trkpt lat="47.26386" lon="-2.31671">
        <ele>2.5999999046326</ele>
        <time>2022-07-17T06:59:51.000Z</time>
      </trkpt>
      <trkpt lat="47.26381" lon="-2.31674">
        <ele>2.5999999046326</ele>
        <time>2022-07-17T06:59:52.000Z</time>
      </trkpt>
      <trkpt lat="47.26361" lon="-2.31686">
        <ele>1.6000000238419</ele>
        <time>2022-07-17T06:59:56.000Z</time>
      </trkpt>
      <trkpt lat="47.26356" lon="-2.31689">
        <ele>0.80000001192093</ele>
        <time>2022-07-17T06:59:57.000Z</time>
      </trkpt>
      <trkpt lat="47.2635" lon="-2.31692">
        <ele>-0.20000000298023</ele>
        <time>2022-07-17T06:59:58.000Z</time>
      </trkpt>
      <trkpt lat="47.26345" lon="-2.31695">
        <ele>-1</ele>
        <time>2022-07-17T06:59:59.000Z</time>
      </trkpt>
      <trkpt lat="47.26339" lon="-2.31698">
        <ele>-2</ele>
        <time>2022-07-17T07:00:00.000Z</time>
      </trkpt>
      <trkpt lat="47.26333" lon="-2.31701">
        <ele>-2</ele>
        <time>2022-07-17T07:00:01.000Z</time>
      </trkpt>
      <trkpt lat="47.26321" lon="-2.31706">
        <ele>-2</ele>
        <time>2022-07-17T07:00:03.000Z</time>
      </trkpt>
      <trkpt lat="47.26305" lon="-2.31716">
        <ele>-2.4000000953674</ele>
        <time>2022-07-17T07:00:06.000Z</time>
      </trkpt>
      <trkpt lat="47.26302" lon="-2.3172">
        <ele>-2.7999999523163</ele>
        <time>2022-07-17T07:00:07.000Z</time>
      </trkpt>
      <trkpt lat="47.263" lon="-2.31726">
        <ele>-3.2000000476837</ele>
        <time>2022-07-17T07:00:08.000Z</time>
      </trkpt>
      <trkpt lat="47.26298" lon="-2.31732">
        <ele>-3.5999999046326</ele>
        <time>2022-07-17T07:00:09.000Z</time>
      </trkpt>
      <trkpt lat="47.26298" lon="-2.31737">
        <ele>-4</ele>
        <time>2022-07-17T07:00:10.000Z</time>
      </trkpt>
      <trkpt lat="47.263" lon="-2.31751">
        <ele>-4</ele>
        <time>2022-07-17T07:00:13.000Z</time>
      </trkpt>
      <trkpt lat="47.26301" lon="-2.31757">
        <ele>-4</ele>
        <time>2022-07-17T07:00:14.000Z</time>
      </trkpt>
      <trkpt lat="47.26302" lon="-2.31763">
        <ele>-4</ele>
        <time>2022-07-17T07:00:15.000Z</time>
      </trkpt>
      <trkpt lat="47.26301" lon="-2.31794">
        <ele>-4</ele>
        <time>2022-07-17T07:00:20.000Z</time>
      </trkpt>
      <trkpt lat="47.26299" lon="-2.31837">
        <ele>-4</ele>
        <time>2022-07-17T07:00:27.000Z</time>
      </trkpt>
      <trkpt lat="47.26298" lon="-2.31844">
        <ele>-4</ele>
        <time>2022-07-17T07:00:28.000Z</time>
      </trkpt>
      <trkpt lat="47.26299" lon="-2.31865">
        <ele>-4</ele>
        <time>2022-07-17T07:00:31.000Z</time>
      </trkpt>
      <trkpt lat="47.26298" lon="-2.31871">
        <ele>-4</ele>
        <time>2022-07-17T07:00:32.000Z</time>
      </trkpt>
      <trkpt lat="47.26291" lon="-2.31886">
        <ele>-4</ele>
        <time>2022-07-17T07:00:35.000Z</time>
      </trkpt>
      <trkpt lat="47.26287" lon="-2.3189">
        <ele>-4</ele>
        <time>2022-07-17T07:00:36.000Z</time>
      </trkpt>
      <trkpt lat="47.26281" lon="-2.31899">
        <ele>-4</ele>
        <time>2022-07-17T07:00:38.000Z</time>
      </trkpt>
      <trkpt lat="47.26276" lon="-2.3191">
        <ele>-4</ele>
        <time>2022-07-17T07:00:40.000Z</time>
      </trkpt>
      <trkpt lat="47.26259" lon="-2.3194">
        <ele>-4</ele>
        <time>2022-07-17T07:00:46.000Z</time>
      </trkpt>
      <trkpt lat="47.26253" lon="-2.31951">
        <ele>-4</ele>
        <time>2022-07-17T07:00:48.000Z</time>
      </trkpt>
      <trkpt lat="47.26246" lon="-2.31959">
        <ele>-4</ele>
        <time>2022-07-17T07:00:50.000Z</time>
      </trkpt>
      <trkpt lat="47.26239" lon="-2.31966">
        <ele>-4</ele>
        <time>2022-07-17T07:00:52.000Z</time>
      </trkpt>
      <trkpt lat="47.26231" lon="-2.31976">
        <ele>-4</ele>
        <time>2022-07-17T07:00:55.000Z</time>
      </trkpt>
      <trkpt lat="47.26212" lon="-2.31996">
        <ele>-4</ele>
        <time>2022-07-17T07:01:01.000Z</time>
      </trkpt>
      <trkpt lat="47.26209" lon="-2.32">
        <ele>-4</ele>
        <time>2022-07-17T07:01:02.000Z</time>
      </trkpt>
      <trkpt lat="47.26207" lon="-2.32009">
        <ele>-4</ele>
        <time>2022-07-17T07:01:04.000Z</time>
      </trkpt>
      <trkpt lat="47.26206" lon="-2.32013">
        <ele>-4.4000000953674</ele>
        <time>2022-07-17T07:01:05.000Z</time>
      </trkpt>
      <trkpt lat="47.26205" lon="-2.32017">
        <ele>-4.8000001907349</ele>
        <time>2022-07-17T07:01:06.000Z</time>
      </trkpt>
      <trkpt lat="47.26204" lon="-2.3202">
        <ele>-5.5999999046326</ele>
        <time>2022-07-17T07:01:07.000Z</time>
      </trkpt>
      <trkpt lat="47.26202" lon="-2.32022">
        <ele>-6</ele>
        <time>2022-07-17T07:01:08.000Z</time>
      </trkpt>
      <trkpt lat="47.26191" lon="-2.32023">
        <ele>-6</ele>
        <time>2022-07-17T07:01:12.000Z</time>
      </trkpt>
      <trkpt lat="47.26188" lon="-2.32023">
        <ele>-6</ele>
        <time>2022-07-17T07:01:13.000Z</time>
      </trkpt>
      <trkpt lat="47.2617" lon="-2.32033">
        <ele>-6</ele>
        <time>2022-07-17T07:01:18.000Z</time>
      </trkpt>
      <trkpt lat="47.26164" lon="-2.32041">
        <ele>-6</ele>
        <time>2022-07-17T07:01:20.000Z</time>
      </trkpt>
      <trkpt lat="47.26157" lon="-2.32057">
        <ele>-6</ele>
        <time>2022-07-17T07:01:23.000Z</time>
      </trkpt>
      <trkpt lat="47.26154" lon="-2.32068">
        <ele>-6</ele>
        <time>2022-07-17T07:01:25.000Z</time>
      </trkpt>
      <trkpt lat="47.26149" lon="-2.32085">
        <ele>-6</ele>
        <time>2022-07-17T07:01:28.000Z</time>
      </trkpt>
      <trkpt lat="47.26137" lon="-2.32128">
        <ele>-6</ele>
        <time>2022-07-17T07:01:35.000Z</time>
      </trkpt>
      <trkpt lat="47.26125" lon="-2.3216">
        <ele>-6</ele>
        <time>2022-07-17T07:01:41.000Z</time>
      </trkpt>
      <trkpt lat="47.26109" lon="-2.32197">
        <ele>-6</ele>
        <time>2022-07-17T07:01:48.000Z</time>
      </trkpt>
      <trkpt lat="47.26102" lon="-2.32212">
        <ele>-6</ele>
        <time>2022-07-17T07:01:51.000Z</time>
      </trkpt>
      <trkpt lat="47.26092" lon="-2.32227">
        <ele>-6</ele>
        <time>2022-07-17T07:01:54.000Z</time>
      </trkpt>
      <trkpt lat="47.26067" lon="-2.32257">
        <ele>-6</ele>
        <time>2022-07-17T07:02:01.000Z</time>
      </trkpt>
      <trkpt lat="47.2604" lon="-2.32288">
        <ele>-6</ele>
        <time>2022-07-17T07:02:08.000Z</time>
      </trkpt>
      <trkpt lat="47.26013" lon="-2.32322">
        <ele>-6</ele>
        <time>2022-07-17T07:02:15.000Z</time>
      </trkpt>
      <trkpt lat="47.2599" lon="-2.32352">
        <ele>-6</ele>
        <time>2022-07-17T07:02:21.000Z</time>
      </trkpt>
      <trkpt lat="47.25952" lon="-2.324">
        <ele>-6</ele>
        <time>2022-07-17T07:02:31.000Z</time>
      </trkpt>
      <trkpt lat="47.25925" lon="-2.32434">
        <ele>-6</ele>
        <time>2022-07-17T07:02:38.000Z</time>
      </trkpt>
      <trkpt lat="47.25911" lon="-2.32449">
        <ele>-6</ele>
        <time>2022-07-17T07:02:42.000Z</time>
      </trkpt>
      <trkpt lat="47.25904" lon="-2.32458">
        <ele>-6</ele>
        <time>2022-07-17T07:02:44.000Z</time>
      </trkpt>
      <trkpt lat="47.25884" lon="-2.32474">
        <ele>-6</ele>
        <time>2022-07-17T07:02:49.000Z</time>
      </trkpt>
      <trkpt lat="47.25879" lon="-2.32475">
        <ele>-6</ele>
        <time>2022-07-17T07:02:50.000Z</time>
      </trkpt>
      <trkpt lat="47.2585" lon="-2.32478">
        <ele>-6</ele>
        <time>2022-07-17T07:02:56.000Z</time>
      </trkpt>
      <trkpt lat="47.25841" lon="-2.32476">
        <ele>-6</ele>
        <time>2022-07-17T07:02:58.000Z</time>
      </trkpt>
      <trkpt lat="47.25827" lon="-2.3247">
        <ele>-6</ele>
        <time>2022-07-17T07:03:01.000Z</time>
      </trkpt>
      <trkpt lat="47.25823" lon="-2.32468">
        <ele>-6</ele>
        <time>2022-07-17T07:03:02.000Z</time>
      </trkpt>
      <trkpt lat="47.25802" lon="-2.32459">
        <ele>-6</ele>
        <time>2022-07-17T07:03:08.000Z</time>
      </trkpt>
      <trkpt lat="47.2579" lon="-2.3246">
        <ele>-6</ele>
        <time>2022-07-17T07:03:13.000Z</time>
      </trkpt>
      <trkpt lat="47.25784" lon="-2.32458">
        <ele>-6</ele>
        <time>2022-07-17T07:03:15.000Z</time>
      </trkpt>
      <trkpt lat="47.25782" lon="-2.32454">
        <ele>-6</ele>
        <time>2022-07-17T07:03:16.000Z</time>
      </trkpt>
      <trkpt lat="47.25767" lon="-2.32434">
        <ele>-6</ele>
        <time>2022-07-17T07:03:21.000Z</time>
      </trkpt>
      <trkpt lat="47.25763" lon="-2.32431">
        <ele>-6</ele>
        <time>2022-07-17T07:03:22.000Z</time>
      </trkpt>
      <trkpt lat="47.25748" lon="-2.3243">
        <ele>-6</ele>
        <time>2022-07-17T07:03:25.000Z</time>
      </trkpt>
      <trkpt lat="47.25743" lon="-2.3243">
        <ele>-6</ele>
        <time>2022-07-17T07:03:26.000Z</time>
      </trkpt>
      <trkpt lat="47.25708" lon="-2.32428">
        <ele>-6</ele>
        <time>2022-07-17T07:03:33.000Z</time>
      </trkpt>
      <trkpt lat="47.2568" lon="-2.32426">
        <ele>-6</ele>
        <time>2022-07-17T07:03:39.000Z</time>
      </trkpt>
      <trkpt lat="47.25668" lon="-2.32428">
        <ele>-6</ele>
        <time>2022-07-17T07:03:42.000Z</time>
      </trkpt>
      <trkpt lat="47.25665" lon="-2.32431">
        <ele>-6</ele>
        <time>2022-07-17T07:03:43.000Z</time>
      </trkpt>
      <trkpt lat="47.25664" lon="-2.32449">
        <ele>-6</ele>
        <time>2022-07-17T07:03:46.000Z</time>
      </trkpt>
      <trkpt lat="47.25666" lon="-2.32456">
        <ele>-6</ele>
        <time>2022-07-17T07:03:47.000Z</time>
      </trkpt>
      <trkpt lat="47.2567" lon="-2.32474">
        <ele>-5.4000000953674</ele>
        <time>2022-07-17T07:03:50.000Z</time>
      </trkpt>
      <trkpt lat="47.25671" lon="-2.3248">
        <ele>-5</ele>
        <time>2022-07-17T07:03:51.000Z</time>
      </trkpt>
      <trkpt lat="47.25673" lon="-2.32486">
        <ele>-4.5999999046326</ele>
        <time>2022-07-17T07:03:52.000Z</time>
      </trkpt>
      <trkpt lat="47.25675" lon="-2.32492">
        <ele>-4.1999998092651</ele>
        <time>2022-07-17T07:03:53.000Z</time>
      </trkpt>
      <trkpt lat="47.25677" lon="-2.32497">
        <ele>-3.7999999523163</ele>
        <time>2022-07-17T07:03:54.000Z</time>
      </trkpt>
      <trkpt lat="47.25691" lon="-2.32538">
        <ele>-3.7999999523163</ele>
        <time>2022-07-17T07:04:01.000Z</time>
      </trkpt>
      <trkpt lat="47.25697" lon="-2.32555">
        <ele>-3.4000000953674</ele>
        <time>2022-07-17T07:04:04.000Z</time>
      </trkpt>
      <trkpt lat="47.25699" lon="-2.3256">
        <ele>-3</ele>
        <time>2022-07-17T07:04:05.000Z</time>
      </trkpt>
      <trkpt lat="47.257" lon="-2.32565">
        <ele>-2.5999999046326</ele>
        <time>2022-07-17T07:04:06.000Z</time>
      </trkpt>
      <trkpt lat="47.25702" lon="-2.32571">
        <ele>-2</ele>
        <time>2022-07-17T07:04:07.000Z</time>
      </trkpt>
      <trkpt lat="47.25704" lon="-2.32576">
        <ele>-1.6000000238419</ele>
        <time>2022-07-17T07:04:08.000Z</time>
      </trkpt>
      <trkpt lat="47.25705" lon="-2.32581">
        <ele>-1.6000000238419</ele>
        <time>2022-07-17T07:04:09.000Z</time>
      </trkpt>
      <trkpt lat="47.25711" lon="-2.32611">
        <ele>-1.6000000238419</ele>
        <time>2022-07-17T07:04:14.000Z</time>
      </trkpt>
      <trkpt lat="47.25711" lon="-2.32617">
        <ele>-1.6000000238419</ele>
        <time>2022-07-17T07:04:15.000Z</time>
      </trkpt>
      <trkpt lat="47.25701" lon="-2.32627">
        <ele>-1.6000000238419</ele>
        <time>2022-07-17T07:04:18.000Z</time>
      </trkpt>
      <trkpt lat="47.25697" lon="-2.32629">
        <ele>-1.6000000238419</ele>
        <time>2022-07-17T07:04:19.000Z</time>
      </trkpt>
      <trkpt lat="47.25677" lon="-2.32638">
        <ele>-1.2000000476837</ele>
        <time>2022-07-17T07:04:24.000Z</time>
      </trkpt>
      <trkpt lat="47.25673" lon="-2.3264">
        <ele>-0.40000000596046</ele>
        <time>2022-07-17T07:04:25.000Z</time>
      </trkpt>
      <trkpt lat="47.25669" lon="-2.32642">
        <ele>0.20000000298023</ele>
        <time>2022-07-17T07:04:26.000Z</time>
      </trkpt>
      <trkpt lat="47.25665" lon="-2.32644">
        <ele>0.60000002384186</ele>
        <time>2022-07-17T07:04:27.000Z</time>
      </trkpt>
      <trkpt lat="47.25645" lon="-2.32652">
        <ele>0.60000002384186</ele>
        <time>2022-07-17T07:04:32.000Z</time>
      </trkpt>
      <trkpt lat="47.25623" lon="-2.32662">
        <ele>0.60000002384186</ele>
        <time>2022-07-17T07:04:38.000Z</time>
      </trkpt>
      <trkpt lat="47.25615" lon="-2.32665">
        <ele>1</ele>
        <time>2022-07-17T07:04:40.000Z</time>
      </trkpt>
      <trkpt lat="47.25611" lon="-2.32667">
        <ele>1.3999999761581</ele>
        <time>2022-07-17T07:04:41.000Z</time>
      </trkpt>
      <trkpt lat="47.25607" lon="-2.32668">
        <ele>1.7999999523163</ele>
        <time>2022-07-17T07:04:42.000Z</time>
      </trkpt>
      <trkpt lat="47.25603" lon="-2.32669">
        <ele>2.4000000953674</ele>
        <time>2022-07-17T07:04:43.000Z</time>
      </trkpt>
      <trkpt lat="47.25599" lon="-2.32671">
        <ele>2.7999999523163</ele>
        <time>2022-07-17T07:04:44.000Z</time>
      </trkpt>
      <trkpt lat="47.25591" lon="-2.32674">
        <ele>2.7999999523163</ele>
        <time>2022-07-17T07:04:46.000Z</time>
      </trkpt>
      <trkpt lat="47.2556" lon="-2.32686">
        <ele>2.7999999523163</ele>
        <time>2022-07-17T07:04:53.000Z</time>
      </trkpt>
      <trkpt lat="47.25533" lon="-2.32698">
        <ele>2.7999999523163</ele>
        <time>2022-07-17T07:04:59.000Z</time>
      </trkpt>
      <trkpt lat="47.25519" lon="-2.32703">
        <ele>2.7999999523163</ele>
        <time>2022-07-17T07:05:02.000Z</time>
      </trkpt>
      <trkpt lat="47.25503" lon="-2.32704">
        <ele>2.7999999523163</ele>
        <time>2022-07-17T07:05:05.000Z</time>
      </trkpt>
      <trkpt lat="47.25499" lon="-2.32704">
        <ele>2.7999999523163</ele>
        <time>2022-07-17T07:05:06.000Z</time>
      </trkpt>
      <trkpt lat="47.2548" lon="-2.32713">
        <ele>2.7999999523163</ele>
        <time>2022-07-17T07:05:10.000Z</time>
      </trkpt>
      <trkpt lat="47.25472" lon="-2.32722">
        <ele>2.7999999523163</ele>
        <time>2022-07-17T07:05:12.000Z</time>
      </trkpt>
      <trkpt lat="47.25459" lon="-2.32736">
        <ele>2.7999999523163</ele>
        <time>2022-07-17T07:05:15.000Z</time>
      </trkpt>
      <trkpt lat="47.25438" lon="-2.32767">
        <ele>2.7999999523163</ele>
        <time>2022-07-17T07:05:21.000Z</time>
      </trkpt>
      <trkpt lat="47.25436" lon="-2.32774">
        <ele>2.7999999523163</ele>
        <time>2022-07-17T07:05:24.000Z</time>
      </trkpt>
      <trkpt lat="47.25431" lon="-2.32788">
        <ele>2.7999999523163</ele>
        <time>2022-07-17T07:05:28.000Z</time>
      </trkpt>
      <trkpt lat="47.25414" lon="-2.32812">
        <ele>2.4000000953674</ele>
        <time>2022-07-17T07:05:33.000Z</time>
      </trkpt>
      <trkpt lat="47.2541" lon="-2.32817">
        <ele>2</ele>
        <time>2022-07-17T07:05:34.000Z</time>
      </trkpt>
      <trkpt lat="47.25406" lon="-2.32823">
        <ele>1.3999999761581</ele>
        <time>2022-07-17T07:05:35.000Z</time>
      </trkpt>
      <trkpt lat="47.25402" lon="-2.32829">
        <ele>1</ele>
        <time>2022-07-17T07:05:36.000Z</time>
      </trkpt>
      <trkpt lat="47.25397" lon="-2.32834">
        <ele>0.60000002384186</ele>
        <time>2022-07-17T07:05:37.000Z</time>
      </trkpt>
      <trkpt lat="47.2538" lon="-2.32854">
        <ele>0.60000002384186</ele>
        <time>2022-07-17T07:05:41.000Z</time>
      </trkpt>
      <trkpt lat="47.2535" lon="-2.32884">
        <ele>0.60000002384186</ele>
        <time>2022-07-17T07:05:48.000Z</time>
      </trkpt>
      <trkpt lat="47.25318" lon="-2.32914">
        <ele>0.60000002384186</ele>
        <time>2022-07-17T07:05:55.000Z</time>
      </trkpt>
      <trkpt lat="47.25314" lon="-2.32919">
        <ele>0.60000002384186</ele>
        <time>2022-07-17T07:05:56.000Z</time>
      </trkpt>
      <trkpt lat="47.25309" lon="-2.3294">
        <ele>0.60000002384186</ele>
        <time>2022-07-17T07:05:59.000Z</time>
      </trkpt>
      <trkpt lat="47.25314" lon="-2.32961">
        <ele>0.60000002384186</ele>
        <time>2022-07-17T07:06:02.000Z</time>
      </trkpt>
      <trkpt lat="47.2533" lon="-2.33001">
        <ele>0.60000002384186</ele>
        <time>2022-07-17T07:06:08.000Z</time>
      </trkpt>
      <trkpt lat="47.25338" lon="-2.33022">
        <ele>0.60000002384186</ele>
        <time>2022-07-17T07:06:11.000Z</time>
      </trkpt>
      <trkpt lat="47.25349" lon="-2.33049">
        <ele>0.60000002384186</ele>
        <time>2022-07-17T07:06:15.000Z</time>
      </trkpt>
      <trkpt lat="47.25367" lon="-2.33093">
        <ele>0.60000002384186</ele>
        <time>2022-07-17T07:06:22.000Z</time>
      </trkpt>
      <trkpt lat="47.25372" lon="-2.33108">
        <ele>0.20000000298023</ele>
        <time>2022-07-17T07:06:25.000Z</time>
      </trkpt>
      <trkpt lat="47.25373" lon="-2.33111">
        <ele>-0.20000000298023</ele>
        <time>2022-07-17T07:06:26.000Z</time>
      </trkpt>
      <trkpt lat="47.25374" lon="-2.33113">
        <ele>-0.60000002384186</ele>
        <time>2022-07-17T07:06:27.000Z</time>
      </trkpt>
      <trkpt lat="47.25374" lon="-2.33115">
        <ele>-1.3999999761581</ele>
        <time>2022-07-17T07:06:28.000Z</time>
      </trkpt>
      <trkpt lat="47.25374" lon="-2.33117">
        <ele>-1.3999999761581</ele>
        <time>2022-07-17T07:06:30.000Z</time>
      </trkpt>
      <trkpt lat="47.25374" lon="-2.33117">
        <ele>-1.3999999761581</ele>
        <time>2022-07-17T07:06:31.000Z</time>
      </trkpt>
      <trkpt lat="47.25374" lon="-2.33122">
        <ele>-1.3999999761581</ele>
        <time>2022-07-17T07:07:59.000Z</time>
      </trkpt>
      <trkpt lat="47.25376" lon="-2.33126">
        <ele>-1.3999999761581</ele>
        <time>2022-07-17T07:08:01.000Z</time>
      </trkpt>
      <trkpt lat="47.25376" lon="-2.33145">
        <ele>-1.3999999761581</ele>
        <time>2022-07-17T07:08:06.000Z</time>
      </trkpt>
      <trkpt lat="47.25368" lon="-2.33164">
        <ele>-1.3999999761581</ele>
        <time>2022-07-17T07:08:11.000Z</time>
      </trkpt>
      <trkpt lat="47.25355" lon="-2.33183">
        <ele>-1.3999999761581</ele>
        <time>2022-07-17T07:08:17.000Z</time>
      </trkpt>
      <trkpt lat="47.25338" lon="-2.33206">
        <ele>-1.3999999761581</ele>
        <time>2022-07-17T07:08:23.000Z</time>
      </trkpt>
      <trkpt lat="47.25318" lon="-2.33227">
        <ele>-1.3999999761581</ele>
        <time>2022-07-17T07:08:30.000Z</time>
      </trkpt>
      <trkpt lat="47.2531" lon="-2.33218">
        <ele>-1.3999999761581</ele>
        <time>2022-07-17T07:08:33.000Z</time>
      </trkpt>
      <trkpt lat="47.25305" lon="-2.33209">
        <ele>-1.3999999761581</ele>
        <time>2022-07-17T07:08:35.000Z</time>
      </trkpt>
      <trkpt lat="47.25294" lon="-2.33189">
        <ele>-1.3999999761581</ele>
        <time>2022-07-17T07:08:39.000Z</time>
      </trkpt>
      <trkpt lat="47.25285" lon="-2.33173">
        <ele>-1.3999999761581</ele>
        <time>2022-07-17T07:08:42.000Z</time>
      </trkpt>
      <trkpt lat="47.25275" lon="-2.33154">
        <ele>-1.3999999761581</ele>
        <time>2022-07-17T07:08:46.000Z</time>
      </trkpt>
      <trkpt lat="47.2526" lon="-2.33129">
        <ele>-1.3999999761581</ele>
        <time>2022-07-17T07:08:52.000Z</time>
      </trkpt>
      <trkpt lat="47.25248" lon="-2.33107">
        <ele>-1.3999999761581</ele>
        <time>2022-07-17T07:08:57.000Z</time>
      </trkpt>
      <trkpt lat="47.25235" lon="-2.33082">
        <ele>-1.3999999761581</ele>
        <time>2022-07-17T07:09:02.000Z</time>
      </trkpt>
      <trkpt lat="47.25211" lon="-2.33036">
        <ele>-1.3999999761581</ele>
        <time>2022-07-17T07:09:11.000Z</time>
      </trkpt>
      <trkpt lat="47.25203" lon="-2.33026">
        <ele>-1.3999999761581</ele>
        <time>2022-07-17T07:09:15.000Z</time>
      </trkpt>
      <trkpt lat="47.25194" lon="-2.33033">
        <ele>-1.3999999761581</ele>
        <time>2022-07-17T07:09:18.000Z</time>
      </trkpt>
      <trkpt lat="47.2519" lon="-2.33037">
        <ele>-1.3999999761581</ele>
        <time>2022-07-17T07:09:19.000Z</time>
      </trkpt>
      <trkpt lat="47.25186" lon="-2.33042">
        <ele>-1.3999999761581</ele>
        <time>2022-07-17T07:09:20.000Z</time>
      </trkpt>
      <trkpt lat="47.25173" lon="-2.33056">
        <ele>-1.3999999761581</ele>
        <time>2022-07-17T07:09:23.000Z</time>
      </trkpt>
      <trkpt lat="47.2515" lon="-2.33073">
        <ele>-1.3999999761581</ele>
        <time>2022-07-17T07:09:28.000Z</time>
      </trkpt>
      <trkpt lat="47.25128" lon="-2.33083">
        <ele>-1.3999999761581</ele>
        <time>2022-07-17T07:09:34.000Z</time>
      </trkpt>
      <trkpt lat="47.25118" lon="-2.33086">
        <ele>-1.3999999761581</ele>
        <time>2022-07-17T07:09:38.000Z</time>
      </trkpt>
      <trkpt lat="47.25116" lon="-2.33085">
        <ele>-1.3999999761581</ele>
        <time>2022-07-17T07:09:39.000Z</time>
      </trkpt>
      <trkpt lat="47.25113" lon="-2.3307">
        <ele>-1.3999999761581</ele>
        <time>2022-07-17T07:09:43.000Z</time>
      </trkpt>
      <trkpt lat="47.25114" lon="-2.33064">
        <ele>-1.3999999761581</ele>
        <time>2022-07-17T07:09:44.000Z</time>
      </trkpt>
      <trkpt lat="47.25116" lon="-2.33059">
        <ele>-1.3999999761581</ele>
        <time>2022-07-17T07:09:45.000Z</time>
      </trkpt>
      <trkpt lat="47.25121" lon="-2.33046">
        <ele>-1.3999999761581</ele>
        <time>2022-07-17T07:09:47.000Z</time>
      </trkpt>
      <trkpt lat="47.25132" lon="-2.33022">
        <ele>-1.3999999761581</ele>
        <time>2022-07-17T07:09:51.000Z</time>
      </trkpt>
      <trkpt lat="47.25134" lon="-2.33016">
        <ele>-1.3999999761581</ele>
        <time>2022-07-17T07:09:52.000Z</time>
      </trkpt>
      <trkpt lat="47.2513" lon="-2.32998">
        <ele>-1.3999999761581</ele>
        <time>2022-07-17T07:09:55.000Z</time>
      </trkpt>
      <trkpt lat="47.25127" lon="-2.32993">
        <ele>-1.3999999761581</ele>
        <time>2022-07-17T07:09:56.000Z</time>
      </trkpt>
      <trkpt lat="47.25123" lon="-2.32987">
        <ele>-1.3999999761581</ele>
        <time>2022-07-17T07:09:57.000Z</time>
      </trkpt>
      <trkpt lat="47.25112" lon="-2.32969">
        <ele>-1.3999999761581</ele>
        <time>2022-07-17T07:10:00.000Z</time>
      </trkpt>
      <trkpt lat="47.25096" lon="-2.3294">
        <ele>-1.3999999761581</ele>
        <time>2022-07-17T07:10:05.000Z</time>
      </trkpt>
      <trkpt lat="47.25094" lon="-2.32933">
        <ele>-1.3999999761581</ele>
        <time>2022-07-17T07:10:06.000Z</time>
      </trkpt>
      <trkpt lat="47.25088" lon="-2.32912">
        <ele>-1.3999999761581</ele>
        <time>2022-07-17T07:10:09.000Z</time>
      </trkpt>
      <trkpt lat="47.25086" lon="-2.32902">
        <ele>-2.2000000476837</ele>
        <time>2022-07-17T07:10:11.000Z</time>
      </trkpt>
      <trkpt lat="47.25084" lon="-2.32899">
        <ele>-2.5999999046326</ele>
        <time>2022-07-17T07:10:12.000Z</time>
      </trkpt>
      <trkpt lat="47.25082" lon="-2.32897">
        <ele>-3</ele>
        <time>2022-07-17T07:10:13.000Z</time>
      </trkpt>
      <trkpt lat="47.25081" lon="-2.32896">
        <ele>-3.4000000953674</ele>
        <time>2022-07-17T07:10:14.000Z</time>
      </trkpt>
      <trkpt lat="47.25077" lon="-2.32884">
        <ele>-3.4000000953674</ele>
        <time>2022-07-17T07:10:18.000Z</time>
      </trkpt>
      <trkpt lat="47.25076" lon="-2.3288">
        <ele>-3.4000000953674</ele>
        <time>2022-07-17T07:10:19.000Z</time>
      </trkpt>
      <trkpt lat="47.25075" lon="-2.32856">
        <ele>-3.4000000953674</ele>
        <time>2022-07-17T07:10:24.000Z</time>
      </trkpt>
      <trkpt lat="47.25072" lon="-2.32852">
        <ele>-3.4000000953674</ele>
        <time>2022-07-17T07:10:25.000Z</time>
      </trkpt>
      <trkpt lat="47.25065" lon="-2.32843">
        <ele>-3.4000000953674</ele>
        <time>2022-07-17T07:10:27.000Z</time>
      </trkpt>
      <trkpt lat="47.25058" lon="-2.32833">
        <ele>-3.4000000953674</ele>
        <time>2022-07-17T07:10:29.000Z</time>
      </trkpt>
      <trkpt lat="47.25051" lon="-2.32823">
        <ele>-3.4000000953674</ele>
        <time>2022-07-17T07:10:31.000Z</time>
      </trkpt>
      <trkpt lat="47.25046" lon="-2.32811">
        <ele>-3.4000000953674</ele>
        <time>2022-07-17T07:10:33.000Z</time>
      </trkpt>
      <trkpt lat="47.25045" lon="-2.32804">
        <ele>-3.4000000953674</ele>
        <time>2022-07-17T07:10:34.000Z</time>
      </trkpt>
      <trkpt lat="47.25042" lon="-2.32792">
        <ele>-2.5999999046326</ele>
        <time>2022-07-17T07:10:36.000Z</time>
      </trkpt>
      <trkpt lat="47.2504" lon="-2.32785">
        <ele>-2</ele>
        <time>2022-07-17T07:10:37.000Z</time>
      </trkpt>
      <trkpt lat="47.25038" lon="-2.32779">
        <ele>-1.6000000238419</ele>
        <time>2022-07-17T07:10:38.000Z</time>
      </trkpt>
      <trkpt lat="47.25035" lon="-2.32774">
        <ele>-1</ele>
        <time>2022-07-17T07:10:39.000Z</time>
      </trkpt>
      <trkpt lat="47.25033" lon="-2.3277">
        <ele>-1</ele>
        <time>2022-07-17T07:10:40.000Z</time>
      </trkpt>
      <trkpt lat="47.2503" lon="-2.32764">
        <ele>-1</ele>
        <time>2022-07-17T07:10:41.000Z</time>
      </trkpt>
      <trkpt lat="47.25026" lon="-2.32755">
        <ele>-1</ele>
        <time>2022-07-17T07:10:43.000Z</time>
      </trkpt>
      <trkpt lat="47.25029" lon="-2.32744">
        <ele>-1</ele>
        <time>2022-07-17T07:10:46.000Z</time>
      </trkpt>
      <trkpt lat="47.25038" lon="-2.32735">
        <ele>-1</ele>
        <time>2022-07-17T07:10:49.000Z</time>
      </trkpt>
      <trkpt lat="47.25042" lon="-2.32732">
        <ele>-1</ele>
        <time>2022-07-17T07:10:50.000Z</time>
      </trkpt>
      <trkpt lat="47.25061" lon="-2.32715">
        <ele>-1</ele>
        <time>2022-07-17T07:10:56.000Z</time>
      </trkpt>
      <trkpt lat="47.2508" lon="-2.32695">
        <ele>-1</ele>
        <time>2022-07-17T07:11:02.000Z</time>
      </trkpt>
      <trkpt lat="47.25081" lon="-2.32684">
        <ele>-0.60000002384186</ele>
        <time>2022-07-17T07:11:04.000Z</time>
      </trkpt>
      <trkpt lat="47.2508" lon="-2.32678">
        <ele>-0.20000000298023</ele>
        <time>2022-07-17T07:11:05.000Z</time>
      </trkpt>
      <trkpt lat="47.25078" lon="-2.32673">
        <ele>0.20000000298023</ele>
        <time>2022-07-17T07:11:06.000Z</time>
      </trkpt>
      <trkpt lat="47.25076" lon="-2.32668">
        <ele>0.60000002384186</ele>
        <time>2022-07-17T07:11:07.000Z</time>
      </trkpt>
      <trkpt lat="47.25073" lon="-2.32663">
        <ele>1</ele>
        <time>2022-07-17T07:11:08.000Z</time>
      </trkpt>
      <trkpt lat="47.2507" lon="-2.32658">
        <ele>1</ele>
        <time>2022-07-17T07:11:09.000Z</time>
      </trkpt>
      <trkpt lat="47.25054" lon="-2.32621">
        <ele>1</ele>
        <time>2022-07-17T07:11:16.000Z</time>
      </trkpt>
      <trkpt lat="47.25052" lon="-2.32616">
        <ele>1</ele>
        <time>2022-07-17T07:11:17.000Z</time>
      </trkpt>
      <trkpt lat="47.25042" lon="-2.32595">
        <ele>1.3999999761581</ele>
        <time>2022-07-17T07:11:21.000Z</time>
      </trkpt>
      <trkpt lat="47.2504" lon="-2.32589">
        <ele>1.7999999523163</ele>
        <time>2022-07-17T07:11:22.000Z</time>
      </trkpt>
      <trkpt lat="47.25037" lon="-2.32584">
        <ele>2.2000000476837</ele>
        <time>2022-07-17T07:11:23.000Z</time>
      </trkpt>
      <trkpt lat="47.25035" lon="-2.32579">
        <ele>2.5999999046326</ele>
        <time>2022-07-17T07:11:24.000Z</time>
      </trkpt>
      <trkpt lat="47.25032" lon="-2.32574">
        <ele>3</ele>
        <time>2022-07-17T07:11:25.000Z</time>
      </trkpt>
      <trkpt lat="47.25026" lon="-2.32558">
        <ele>3</ele>
        <time>2022-07-17T07:11:28.000Z</time>
      </trkpt>
      <trkpt lat="47.25024" lon="-2.32552">
        <ele>3</ele>
        <time>2022-07-17T07:11:29.000Z</time>
      </trkpt>
      <trkpt lat="47.25024" lon="-2.32534">
        <ele>3</ele>
        <time>2022-07-17T07:11:32.000Z</time>
      </trkpt>
      <trkpt lat="47.25027" lon="-2.32524">
        <ele>3.4000000953674</ele>
        <time>2022-07-17T07:11:34.000Z</time>
      </trkpt>
      <trkpt lat="47.25029" lon="-2.3252">
        <ele>4</ele>
        <time>2022-07-17T07:11:35.000Z</time>
      </trkpt>
      <trkpt lat="47.25032" lon="-2.32516">
        <ele>4.4000000953674</ele>
        <time>2022-07-17T07:11:36.000Z</time>
      </trkpt>
      <trkpt lat="47.25035" lon="-2.32513">
        <ele>4.8000001907349</ele>
        <time>2022-07-17T07:11:37.000Z</time>
      </trkpt>
      <trkpt lat="47.25038" lon="-2.3251">
        <ele>5.1999998092651</ele>
        <time>2022-07-17T07:11:38.000Z</time>
      </trkpt>
      <trkpt lat="47.25049" lon="-2.32502">
        <ele>5.1999998092651</ele>
        <time>2022-07-17T07:11:41.000Z</time>
      </trkpt>
      <trkpt lat="47.25074" lon="-2.32491">
        <ele>5.5999999046326</ele>
        <time>2022-07-17T07:11:47.000Z</time>
      </trkpt>
      <trkpt lat="47.25079" lon="-2.32489">
        <ele>6</ele>
        <time>2022-07-17T07:11:48.000Z</time>
      </trkpt>
      <trkpt lat="47.25083" lon="-2.32487">
        <ele>6.4000000953674</ele>
        <time>2022-07-17T07:11:49.000Z</time>
      </trkpt>
      <trkpt lat="47.25087" lon="-2.32485">
        <ele>7.4000000953674</ele>
        <time>2022-07-17T07:11:50.000Z</time>
      </trkpt>
      <trkpt lat="47.25092" lon="-2.32481">
        <ele>7.4000000953674</ele>
        <time>2022-07-17T07:11:51.000Z</time>
      </trkpt>
      <trkpt lat="47.25098" lon="-2.32472">
        <ele>7.4000000953674</ele>
        <time>2022-07-17T07:11:53.000Z</time>
      </trkpt>
      <trkpt lat="47.25105" lon="-2.32449">
        <ele>7.4000000953674</ele>
        <time>2022-07-17T07:11:57.000Z</time>
      </trkpt>
      <trkpt lat="47.25105" lon="-2.32442">
        <ele>7.4000000953674</ele>
        <time>2022-07-17T07:11:58.000Z</time>
      </trkpt>
      <trkpt lat="47.25105" lon="-2.32425">
        <ele>7.4000000953674</ele>
        <time>2022-07-17T07:12:01.000Z</time>
      </trkpt>
      <trkpt lat="47.25103" lon="-2.32395">
        <ele>7.4000000953674</ele>
        <time>2022-07-17T07:12:06.000Z</time>
      </trkpt>
      <trkpt lat="47.25102" lon="-2.32384">
        <ele>7.8000001907349</ele>
        <time>2022-07-17T07:12:08.000Z</time>
      </trkpt>
      <trkpt lat="47.25102" lon="-2.32378">
        <ele>8.1999998092651</ele>
        <time>2022-07-17T07:12:09.000Z</time>
      </trkpt>
      <trkpt lat="47.25103" lon="-2.32372">
        <ele>8.6000003814697</ele>
        <time>2022-07-17T07:12:10.000Z</time>
      </trkpt>
      <trkpt lat="47.25103" lon="-2.32366">
        <ele>9</ele>
        <time>2022-07-17T07:12:11.000Z</time>
      </trkpt>
      <trkpt lat="47.25104" lon="-2.32361">
        <ele>9.3999996185303</ele>
        <time>2022-07-17T07:12:12.000Z</time>
      </trkpt>
      <trkpt lat="47.25112" lon="-2.32334">
        <ele>9.3999996185303</ele>
        <time>2022-07-17T07:12:17.000Z</time>
      </trkpt>
      <trkpt lat="47.25114" lon="-2.32329">
        <ele>9.3999996185303</ele>
        <time>2022-07-17T07:12:18.000Z</time>
      </trkpt>
      <trkpt lat="47.25117" lon="-2.3232">
        <ele>9.8000001907349</ele>
        <time>2022-07-17T07:12:20.000Z</time>
      </trkpt>
      <trkpt lat="47.25118" lon="-2.32316">
        <ele>10.199999809265</ele>
        <time>2022-07-17T07:12:21.000Z</time>
      </trkpt>
      <trkpt lat="47.2512" lon="-2.32311">
        <ele>10.60000038147</ele>
        <time>2022-07-17T07:12:22.000Z</time>
      </trkpt>
      <trkpt lat="47.25121" lon="-2.32308">
        <ele>11</ele>
        <time>2022-07-17T07:12:23.000Z</time>
      </trkpt>
      <trkpt lat="47.25124" lon="-2.32305">
        <ele>11.39999961853</ele>
        <time>2022-07-17T07:12:24.000Z</time>
      </trkpt>
      <trkpt lat="47.25128" lon="-2.32291">
        <ele>11.39999961853</ele>
        <time>2022-07-17T07:12:27.000Z</time>
      </trkpt>
      <trkpt lat="47.25128" lon="-2.32285">
        <ele>11.39999961853</ele>
        <time>2022-07-17T07:12:28.000Z</time>
      </trkpt>
      <trkpt lat="47.25128" lon="-2.32272">
        <ele>11.39999961853</ele>
        <time>2022-07-17T07:12:30.000Z</time>
      </trkpt>
      <trkpt lat="47.25125" lon="-2.32252">
        <ele>11.39999961853</ele>
        <time>2022-07-17T07:12:33.000Z</time>
      </trkpt>
      <trkpt lat="47.25123" lon="-2.32233">
        <ele>11.39999961853</ele>
        <time>2022-07-17T07:12:36.000Z</time>
      </trkpt>
      <trkpt lat="47.25122" lon="-2.32214">
        <ele>11.39999961853</ele>
        <time>2022-07-17T07:12:39.000Z</time>
      </trkpt>
      <trkpt lat="47.25121" lon="-2.32201">
        <ele>11.39999961853</ele>
        <time>2022-07-17T07:12:41.000Z</time>
      </trkpt>
      <trkpt lat="47.25118" lon="-2.32175">
        <ele>11.39999961853</ele>
        <time>2022-07-17T07:12:45.000Z</time>
      </trkpt>
      <trkpt lat="47.25116" lon="-2.32155">
        <ele>11.800000190735</ele>
        <time>2022-07-17T07:12:48.000Z</time>
      </trkpt>
      <trkpt lat="47.25116" lon="-2.32149">
        <ele>12.199999809265</ele>
        <time>2022-07-17T07:12:49.000Z</time>
      </trkpt>
      <trkpt lat="47.25116" lon="-2.32143">
        <ele>12.60000038147</ele>
        <time>2022-07-17T07:12:50.000Z</time>
      </trkpt>
      <trkpt lat="47.25116" lon="-2.32137">
        <ele>13.199999809265</ele>
        <time>2022-07-17T07:12:51.000Z</time>
      </trkpt>
      <trkpt lat="47.25116" lon="-2.3213">
        <ele>13.60000038147</ele>
        <time>2022-07-17T07:12:52.000Z</time>
      </trkpt>
      <trkpt lat="47.25114" lon="-2.32111">
        <ele>13.60000038147</ele>
        <time>2022-07-17T07:12:55.000Z</time>
      </trkpt>
      <trkpt lat="47.25113" lon="-2.321">
        <ele>13.60000038147</ele>
        <time>2022-07-17T07:12:57.000Z</time>
      </trkpt>
      <trkpt lat="47.25111" lon="-2.32058">
        <ele>13.60000038147</ele>
        <time>2022-07-17T07:13:04.000Z</time>
      </trkpt>
      <trkpt lat="47.25109" lon="-2.32016">
        <ele>13.60000038147</ele>
        <time>2022-07-17T07:13:11.000Z</time>
      </trkpt>
      <trkpt lat="47.25105" lon="-2.31991">
        <ele>13.60000038147</ele>
        <time>2022-07-17T07:13:15.000Z</time>
      </trkpt>
      <trkpt lat="47.25104" lon="-2.31985">
        <ele>13.60000038147</ele>
        <time>2022-07-17T07:13:16.000Z</time>
      </trkpt>
      <trkpt lat="47.25102" lon="-2.31964">
        <ele>13.60000038147</ele>
        <time>2022-07-17T07:13:19.000Z</time>
      </trkpt>
      <trkpt lat="47.25102" lon="-2.31957">
        <ele>13.60000038147</ele>
        <time>2022-07-17T07:13:20.000Z</time>
      </trkpt>
      <trkpt lat="47.25098" lon="-2.31912">
        <ele>13.60000038147</ele>
        <time>2022-07-17T07:13:27.000Z</time>
      </trkpt>
      <trkpt lat="47.25093" lon="-2.31873">
        <ele>13.60000038147</ele>
        <time>2022-07-17T07:13:33.000Z</time>
      </trkpt>
      <trkpt lat="47.25087" lon="-2.31828">
        <ele>13.60000038147</ele>
        <time>2022-07-17T07:13:40.000Z</time>
      </trkpt>
      <trkpt lat="47.25077" lon="-2.31784">
        <ele>13.60000038147</ele>
        <time>2022-07-17T07:13:47.000Z</time>
      </trkpt>
      <trkpt lat="47.25069" lon="-2.31753">
        <ele>14</ele>
        <time>2022-07-17T07:13:52.000Z</time>
      </trkpt>
      <trkpt lat="47.25067" lon="-2.31747">
        <ele>14.800000190735</ele>
        <time>2022-07-17T07:13:53.000Z</time>
      </trkpt>
      <trkpt lat="47.25066" lon="-2.31741">
        <ele>15.199999809265</ele>
        <time>2022-07-17T07:13:54.000Z</time>
      </trkpt>
      <trkpt lat="47.25064" lon="-2.31734">
        <ele>15.60000038147</ele>
        <time>2022-07-17T07:13:55.000Z</time>
      </trkpt>
      <trkpt lat="47.25053" lon="-2.31691">
        <ele>15.60000038147</ele>
        <time>2022-07-17T07:14:02.000Z</time>
      </trkpt>
      <trkpt lat="47.25048" lon="-2.31666">
        <ele>15.60000038147</ele>
        <time>2022-07-17T07:14:06.000Z</time>
      </trkpt>
      <trkpt lat="47.25044" lon="-2.31651">
        <ele>15.60000038147</ele>
        <time>2022-07-17T07:14:09.000Z</time>
      </trkpt>
      <trkpt lat="47.25034" lon="-2.31651">
        <ele>15.60000038147</ele>
        <time>2022-07-17T07:14:12.000Z</time>
      </trkpt>
      <trkpt lat="47.25027" lon="-2.31658">
        <ele>15.60000038147</ele>
        <time>2022-07-17T07:14:14.000Z</time>
      </trkpt>
      <trkpt lat="47.25024" lon="-2.31662">
        <ele>15.60000038147</ele>
        <time>2022-07-17T07:14:15.000Z</time>
      </trkpt>
      <trkpt lat="47.25017" lon="-2.31671">
        <ele>15.60000038147</ele>
        <time>2022-07-17T07:14:17.000Z</time>
      </trkpt>
      <trkpt lat="47.24989" lon="-2.31696">
        <ele>15.60000038147</ele>
        <time>2022-07-17T07:14:24.000Z</time>
      </trkpt>
      <trkpt lat="47.24985" lon="-2.317">
        <ele>15.60000038147</ele>
        <time>2022-07-17T07:14:25.000Z</time>
      </trkpt>
      <trkpt lat="47.2497" lon="-2.31719">
        <ele>15.60000038147</ele>
        <time>2022-07-17T07:14:30.000Z</time>
      </trkpt>
      <trkpt lat="47.24967" lon="-2.31723">
        <ele>15.60000038147</ele>
        <time>2022-07-17T07:14:31.000Z</time>
      </trkpt>
      <trkpt lat="47.24954" lon="-2.31733">
        <ele>15.60000038147</ele>
        <time>2022-07-17T07:14:34.000Z</time>
      </trkpt>
      <trkpt lat="47.24923" lon="-2.31761">
        <ele>15.60000038147</ele>
        <time>2022-07-17T07:14:41.000Z</time>
      </trkpt>
      <trkpt lat="47.24881" lon="-2.31796">
        <ele>15.60000038147</ele>
        <time>2022-07-17T07:14:50.000Z</time>
      </trkpt>
      <trkpt lat="47.24868" lon="-2.31809">
        <ele>15.60000038147</ele>
        <time>2022-07-17T07:14:53.000Z</time>
      </trkpt>
      <trkpt lat="47.2486" lon="-2.31818">
        <ele>15.60000038147</ele>
        <time>2022-07-17T07:14:55.000Z</time>
      </trkpt>
      <trkpt lat="47.24856" lon="-2.31822">
        <ele>15.60000038147</ele>
        <time>2022-07-17T07:14:56.000Z</time>
      </trkpt>
      <trkpt lat="47.24824" lon="-2.31848">
        <ele>15.60000038147</ele>
        <time>2022-07-17T07:15:03.000Z</time>
      </trkpt>
      <trkpt lat="47.24807" lon="-2.31862">
        <ele>15.199999809265</ele>
        <time>2022-07-17T07:15:07.000Z</time>
      </trkpt>
      <trkpt lat="47.24802" lon="-2.31864">
        <ele>14.800000190735</ele>
        <time>2022-07-17T07:15:08.000Z</time>
      </trkpt>
      <trkpt lat="47.24797" lon="-2.31863">
        <ele>14.39999961853</ele>
        <time>2022-07-17T07:15:09.000Z</time>
      </trkpt>
      <trkpt lat="47.24793" lon="-2.3186">
        <ele>14</ele>
        <time>2022-07-17T07:15:10.000Z</time>
      </trkpt>
      <trkpt lat="47.2479" lon="-2.31856">
        <ele>13.60000038147</ele>
        <time>2022-07-17T07:15:11.000Z</time>
      </trkpt>
      <trkpt lat="47.24786" lon="-2.31851">
        <ele>13.60000038147</ele>
        <time>2022-07-17T07:15:12.000Z</time>
      </trkpt>
      <trkpt lat="47.24769" lon="-2.31827">
        <ele>13.60000038147</ele>
        <time>2022-07-17T07:15:17.000Z</time>
      </trkpt>
      <trkpt lat="47.24765" lon="-2.31822">
        <ele>13.60000038147</ele>
        <time>2022-07-17T07:15:18.000Z</time>
      </trkpt>
      <trkpt lat="47.24741" lon="-2.31789">
        <ele>13.60000038147</ele>
        <time>2022-07-17T07:15:25.000Z</time>
      </trkpt>
      <trkpt lat="47.24732" lon="-2.31779">
        <ele>13.60000038147</ele>
        <time>2022-07-17T07:15:29.000Z</time>
      </trkpt>
      <trkpt lat="47.2472" lon="-2.3176">
        <ele>13.60000038147</ele>
        <time>2022-07-17T07:15:34.000Z</time>
      </trkpt>
      <trkpt lat="47.24715" lon="-2.3175">
        <ele>13.60000038147</ele>
        <time>2022-07-17T07:15:36.000Z</time>
      </trkpt>
      <trkpt lat="47.24703" lon="-2.31732">
        <ele>13.60000038147</ele>
        <time>2022-07-17T07:15:40.000Z</time>
      </trkpt>
      <trkpt lat="47.24679" lon="-2.31697">
        <ele>13.60000038147</ele>
        <time>2022-07-17T07:15:47.000Z</time>
      </trkpt>
      <trkpt lat="47.24656" lon="-2.31662">
        <ele>13.60000038147</ele>
        <time>2022-07-17T07:15:54.000Z</time>
      </trkpt>
      <trkpt lat="47.24653" lon="-2.31656">
        <ele>13.60000038147</ele>
        <time>2022-07-17T07:15:55.000Z</time>
      </trkpt>
      <trkpt lat="47.24642" lon="-2.3164">
        <ele>13.60000038147</ele>
        <time>2022-07-17T07:15:58.000Z</time>
      </trkpt>
      <trkpt lat="47.24635" lon="-2.31629">
        <ele>13.60000038147</ele>
        <time>2022-07-17T07:16:00.000Z</time>
      </trkpt>
      <trkpt lat="47.24612" lon="-2.31592">
        <ele>13.60000038147</ele>
        <time>2022-07-17T07:16:07.000Z</time>
      </trkpt>
      <trkpt lat="47.24608" lon="-2.31587">
        <ele>13.60000038147</ele>
        <time>2022-07-17T07:16:08.000Z</time>
      </trkpt>
      <trkpt lat="47.24595" lon="-2.31564">
        <ele>13.60000038147</ele>
        <time>2022-07-17T07:16:12.000Z</time>
      </trkpt>
      <trkpt lat="47.24588" lon="-2.31533">
        <ele>13.60000038147</ele>
        <time>2022-07-17T07:16:16.000Z</time>
      </trkpt>
      <trkpt lat="47.24587" lon="-2.31526">
        <ele>13.60000038147</ele>
        <time>2022-07-17T07:16:17.000Z</time>
      </trkpt>
      <trkpt lat="47.24577" lon="-2.31458">
        <ele>13.60000038147</ele>
        <time>2022-07-17T07:16:26.000Z</time>
      </trkpt>
      <trkpt lat="47.24573" lon="-2.31418">
        <ele>13.60000038147</ele>
        <time>2022-07-17T07:16:32.000Z</time>
      </trkpt>
      <trkpt lat="47.24569" lon="-2.31392">
        <ele>13.60000038147</ele>
        <time>2022-07-17T07:16:37.000Z</time>
      </trkpt>
      <trkpt lat="47.24563" lon="-2.31389">
        <ele>13.60000038147</ele>
        <time>2022-07-17T07:16:40.000Z</time>
      </trkpt>
      <trkpt lat="47.2456" lon="-2.31391">
        <ele>13.60000038147</ele>
        <time>2022-07-17T07:16:41.000Z</time>
      </trkpt>
      <trkpt lat="47.24549" lon="-2.31393">
        <ele>13.60000038147</ele>
        <time>2022-07-17T07:16:44.000Z</time>
      </trkpt>
      <trkpt lat="47.2454" lon="-2.31391">
        <ele>13.60000038147</ele>
        <time>2022-07-17T07:16:46.000Z</time>
      </trkpt>
      <trkpt lat="47.2453" lon="-2.31387">
        <ele>13.60000038147</ele>
        <time>2022-07-17T07:16:48.000Z</time>
      </trkpt>
      <trkpt lat="47.24517" lon="-2.3138">
        <ele>13.60000038147</ele>
        <time>2022-07-17T07:16:51.000Z</time>
      </trkpt>
      <trkpt lat="47.24509" lon="-2.31372">
        <ele>13.60000038147</ele>
        <time>2022-07-17T07:16:53.000Z</time>
      </trkpt>
      <trkpt lat="47.24497" lon="-2.31354">
        <ele>13.199999809265</ele>
        <time>2022-07-17T07:16:56.000Z</time>
      </trkpt>
      <trkpt lat="47.24494" lon="-2.31347">
        <ele>12.60000038147</ele>
        <time>2022-07-17T07:16:57.000Z</time>
      </trkpt>
      <trkpt lat="47.24491" lon="-2.31339">
        <ele>12.199999809265</ele>
        <time>2022-07-17T07:16:58.000Z</time>
      </trkpt>
      <trkpt lat="47.24488" lon="-2.31332">
        <ele>11.800000190735</ele>
        <time>2022-07-17T07:16:59.000Z</time>
      </trkpt>
      <trkpt lat="47.24486" lon="-2.31325">
        <ele>11.199999809265</ele>
        <time>2022-07-17T07:17:00.000Z</time>
      </trkpt>
      <trkpt lat="47.24483" lon="-2.31318">
        <ele>11.199999809265</ele>
        <time>2022-07-17T07:17:01.000Z</time>
      </trkpt>
      <trkpt lat="47.24476" lon="-2.31303">
        <ele>10.800000190735</ele>
        <time>2022-07-17T07:17:03.000Z</time>
      </trkpt>
      <trkpt lat="47.24473" lon="-2.31295">
        <ele>10.39999961853</ele>
        <time>2022-07-17T07:17:04.000Z</time>
      </trkpt>
      <trkpt lat="47.24469" lon="-2.31285">
        <ele>10</ele>
        <time>2022-07-17T07:17:05.000Z</time>
      </trkpt>
      <trkpt lat="47.24465" lon="-2.31277">
        <ele>9.6000003814697</ele>
        <time>2022-07-17T07:17:06.000Z</time>
      </trkpt>
      <trkpt lat="47.24461" lon="-2.31269">
        <ele>9.1999998092651</ele>
        <time>2022-07-17T07:17:07.000Z</time>
      </trkpt>
      <trkpt lat="47.24455" lon="-2.31254">
        <ele>9.1999998092651</ele>
        <time>2022-07-17T07:17:09.000Z</time>
      </trkpt>
      <trkpt lat="47.24453" lon="-2.31247">
        <ele>9.1999998092651</ele>
        <time>2022-07-17T07:17:10.000Z</time>
      </trkpt>
      <trkpt lat="47.24449" lon="-2.31234">
        <ele>9.1999998092651</ele>
        <time>2022-07-17T07:17:12.000Z</time>
      </trkpt>
      <trkpt lat="47.24446" lon="-2.31228">
        <ele>8.6000003814697</ele>
        <time>2022-07-17T07:17:13.000Z</time>
      </trkpt>
      <trkpt lat="47.24443" lon="-2.31225">
        <ele>8.1999998092651</ele>
        <time>2022-07-17T07:17:14.000Z</time>
      </trkpt>
      <trkpt lat="47.24441" lon="-2.31222">
        <ele>7.8000001907349</ele>
        <time>2022-07-17T07:17:15.000Z</time>
      </trkpt>
      <trkpt lat="47.24437" lon="-2.31221">
        <ele>7.1999998092651</ele>
        <time>2022-07-17T07:17:16.000Z</time>
      </trkpt>
      <trkpt lat="47.24434" lon="-2.31223">
        <ele>6.8000001907349</ele>
        <time>2022-07-17T07:17:17.000Z</time>
      </trkpt>
      <trkpt lat="47.2443" lon="-2.31224">
        <ele>6.8000001907349</ele>
        <time>2022-07-17T07:17:18.000Z</time>
      </trkpt>
      <trkpt lat="47.24427" lon="-2.31222">
        <ele>6.4000000953674</ele>
        <time>2022-07-17T07:17:19.000Z</time>
      </trkpt>
      <trkpt lat="47.24425" lon="-2.31219">
        <ele>5.8000001907349</ele>
        <time>2022-07-17T07:17:20.000Z</time>
      </trkpt>
      <trkpt lat="47.24423" lon="-2.31216">
        <ele>5.4000000953674</ele>
        <time>2022-07-17T07:17:21.000Z</time>
      </trkpt>
      <trkpt lat="47.24422" lon="-2.31211">
        <ele>4.8000001907349</ele>
        <time>2022-07-17T07:17:22.000Z</time>
      </trkpt>
      <trkpt lat="47.2442" lon="-2.31206">
        <ele>4.4000000953674</ele>
        <time>2022-07-17T07:17:23.000Z</time>
      </trkpt>
      <trkpt lat="47.24413" lon="-2.31196">
        <ele>4.4000000953674</ele>
        <time>2022-07-17T07:17:26.000Z</time>
      </trkpt>
      <trkpt lat="47.24411" lon="-2.31191">
        <ele>4.8000001907349</ele>
        <time>2022-07-17T07:17:28.000Z</time>
      </trkpt>
      <trkpt lat="47.2441" lon="-2.31187">
        <ele>5.1999998092651</ele>
        <time>2022-07-17T07:17:29.000Z</time>
      </trkpt>
      <trkpt lat="47.24409" lon="-2.31182">
        <ele>5.8000001907349</ele>
        <time>2022-07-17T07:17:30.000Z</time>
      </trkpt>
      <trkpt lat="47.24409" lon="-2.31176">
        <ele>6.1999998092651</ele>
        <time>2022-07-17T07:17:31.000Z</time>
      </trkpt>
      <trkpt lat="47.24408" lon="-2.31171">
        <ele>6.8000001907349</ele>
        <time>2022-07-17T07:17:32.000Z</time>
      </trkpt>
      <trkpt lat="47.24407" lon="-2.31156">
        <ele>7.8000001907349</ele>
        <time>2022-07-17T07:17:35.000Z</time>
      </trkpt>
      <trkpt lat="47.24406" lon="-2.31151">
        <ele>8.1999998092651</ele>
        <time>2022-07-17T07:17:36.000Z</time>
      </trkpt>
      <trkpt lat="47.24406" lon="-2.31146">
        <ele>8.8000001907349</ele>
        <time>2022-07-17T07:17:37.000Z</time>
      </trkpt>
      <trkpt lat="47.24406" lon="-2.31141">
        <ele>9.1999998092651</ele>
        <time>2022-07-17T07:17:38.000Z</time>
      </trkpt>
      <trkpt lat="47.24406" lon="-2.31136">
        <ele>9.1999998092651</ele>
        <time>2022-07-17T07:17:39.000Z</time>
      </trkpt>
      <trkpt lat="47.24405" lon="-2.31131">
        <ele>9.8000001907349</ele>
        <time>2022-07-17T07:17:40.000Z</time>
      </trkpt>
      <trkpt lat="47.24405" lon="-2.31127">
        <ele>10.199999809265</ele>
        <time>2022-07-17T07:17:41.000Z</time>
      </trkpt>
      <trkpt lat="47.24404" lon="-2.31122">
        <ele>10.60000038147</ele>
        <time>2022-07-17T07:17:42.000Z</time>
      </trkpt>
      <trkpt lat="47.24404" lon="-2.31117">
        <ele>11</ele>
        <time>2022-07-17T07:17:43.000Z</time>
      </trkpt>
      <trkpt lat="47.24404" lon="-2.31112">
        <ele>11.39999961853</ele>
        <time>2022-07-17T07:17:44.000Z</time>
      </trkpt>
      <trkpt lat="47.24404" lon="-2.31107">
        <ele>11.39999961853</ele>
        <time>2022-07-17T07:17:45.000Z</time>
      </trkpt>
      <trkpt lat="47.24404" lon="-2.31085">
        <ele>11.800000190735</ele>
        <time>2022-07-17T07:17:49.000Z</time>
      </trkpt>
      <trkpt lat="47.24403" lon="-2.3108">
        <ele>12.199999809265</ele>
        <time>2022-07-17T07:17:50.000Z</time>
      </trkpt>
      <trkpt lat="47.24403" lon="-2.31075">
        <ele>12.800000190735</ele>
        <time>2022-07-17T07:17:51.000Z</time>
      </trkpt>
      <trkpt lat="47.24403" lon="-2.31069">
        <ele>13.199999809265</ele>
        <time>2022-07-17T07:17:52.000Z</time>
      </trkpt>
      <trkpt lat="47.24403" lon="-2.31064">
        <ele>13.60000038147</ele>
        <time>2022-07-17T07:17:53.000Z</time>
      </trkpt>
      <trkpt lat="47.24402" lon="-2.3104">
        <ele>13.60000038147</ele>
        <time>2022-07-17T07:17:57.000Z</time>
      </trkpt>
      <trkpt lat="47.244" lon="-2.31022">
        <ele>13.60000038147</ele>
        <time>2022-07-17T07:18:00.000Z</time>
      </trkpt>
      <trkpt lat="47.244" lon="-2.31004">
        <ele>13.60000038147</ele>
        <time>2022-07-17T07:18:03.000Z</time>
      </trkpt>
      <trkpt lat="47.24399" lon="-2.30962">
        <ele>13.60000038147</ele>
        <time>2022-07-17T07:18:09.000Z</time>
      </trkpt>
      <trkpt lat="47.24408" lon="-2.30948">
        <ele>13.60000038147</ele>
        <time>2022-07-17T07:18:12.000Z</time>
      </trkpt>
      <trkpt lat="47.24411" lon="-2.30944">
        <ele>13.60000038147</ele>
        <time>2022-07-17T07:18:13.000Z</time>
      </trkpt>
      <trkpt lat="47.24422" lon="-2.30925">
        <ele>13.60000038147</ele>
        <time>2022-07-17T07:18:17.000Z</time>
      </trkpt>
      <trkpt lat="47.24425" lon="-2.30919">
        <ele>13.60000038147</ele>
        <time>2022-07-17T07:18:18.000Z</time>
      </trkpt>
      <trkpt lat="47.24429" lon="-2.30907">
        <ele>13.60000038147</ele>
        <time>2022-07-17T07:18:20.000Z</time>
      </trkpt>
      <trkpt lat="47.2443" lon="-2.30895">
        <ele>14</ele>
        <time>2022-07-17T07:18:22.000Z</time>
      </trkpt>
      <trkpt lat="47.24431" lon="-2.3089">
        <ele>14.39999961853</ele>
        <time>2022-07-17T07:18:23.000Z</time>
      </trkpt>
      <trkpt lat="47.24432" lon="-2.30883">
        <ele>14.800000190735</ele>
        <time>2022-07-17T07:18:24.000Z</time>
      </trkpt>
      <trkpt lat="47.24432" lon="-2.30877">
        <ele>15.199999809265</ele>
        <time>2022-07-17T07:18:25.000Z</time>
      </trkpt>
      <trkpt lat="47.24433" lon="-2.3087">
        <ele>15.800000190735</ele>
        <time>2022-07-17T07:18:26.000Z</time>
      </trkpt>
      <trkpt lat="47.24432" lon="-2.3085">
        <ele>15.800000190735</ele>
        <time>2022-07-17T07:18:29.000Z</time>
      </trkpt>
      <trkpt lat="47.24432" lon="-2.30832">
        <ele>15.800000190735</ele>
        <time>2022-07-17T07:18:32.000Z</time>
      </trkpt>
      <trkpt lat="47.24432" lon="-2.3082">
        <ele>15.800000190735</ele>
        <time>2022-07-17T07:18:34.000Z</time>
      </trkpt>
      <trkpt lat="47.24431" lon="-2.30779">
        <ele>16.200000762939</ele>
        <time>2022-07-17T07:18:41.000Z</time>
      </trkpt>
      <trkpt lat="47.24431" lon="-2.30774">
        <ele>16.60000038147</ele>
        <time>2022-07-17T07:18:42.000Z</time>
      </trkpt>
      <trkpt lat="47.24432" lon="-2.30768">
        <ele>17</ele>
        <time>2022-07-17T07:18:43.000Z</time>
      </trkpt>
      <trkpt lat="47.24432" lon="-2.30762">
        <ele>17.39999961853</ele>
        <time>2022-07-17T07:18:44.000Z</time>
      </trkpt>
      <trkpt lat="47.24433" lon="-2.30757">
        <ele>17.799999237061</ele>
        <time>2022-07-17T07:18:45.000Z</time>
      </trkpt>
      <trkpt lat="47.24433" lon="-2.30744">
        <ele>17.799999237061</ele>
        <time>2022-07-17T07:18:47.000Z</time>
      </trkpt>
      <trkpt lat="47.24434" lon="-2.30715">
        <ele>17.799999237061</ele>
        <time>2022-07-17T07:18:52.000Z</time>
      </trkpt>
      <trkpt lat="47.24437" lon="-2.30687">
        <ele>17.799999237061</ele>
        <time>2022-07-17T07:18:57.000Z</time>
      </trkpt>
      <trkpt lat="47.24441" lon="-2.30669">
        <ele>17.799999237061</ele>
        <time>2022-07-17T07:19:00.000Z</time>
      </trkpt>
      <trkpt lat="47.24445" lon="-2.30656">
        <ele>17.799999237061</ele>
        <time>2022-07-17T07:19:02.000Z</time>
      </trkpt>
      <trkpt lat="47.24451" lon="-2.30632">
        <ele>17.799999237061</ele>
        <time>2022-07-17T07:19:06.000Z</time>
      </trkpt>
      <trkpt lat="47.24454" lon="-2.30618">
        <ele>17.799999237061</ele>
        <time>2022-07-17T07:19:08.000Z</time>
      </trkpt>
      <trkpt lat="47.24458" lon="-2.30596">
        <ele>17.799999237061</ele>
        <time>2022-07-17T07:19:11.000Z</time>
      </trkpt>
      <trkpt lat="47.24458" lon="-2.3058">
        <ele>17.799999237061</ele>
        <time>2022-07-17T07:19:13.000Z</time>
      </trkpt>
      <trkpt lat="47.24459" lon="-2.30573">
        <ele>17.799999237061</ele>
        <time>2022-07-17T07:19:14.000Z</time>
      </trkpt>
      <trkpt lat="47.24461" lon="-2.30566">
        <ele>17.39999961853</ele>
        <time>2022-07-17T07:19:15.000Z</time>
      </trkpt>
      <trkpt lat="47.24463" lon="-2.3056">
        <ele>17</ele>
        <time>2022-07-17T07:19:16.000Z</time>
      </trkpt>
      <trkpt lat="47.24465" lon="-2.30554">
        <ele>16.39999961853</ele>
        <time>2022-07-17T07:19:17.000Z</time>
      </trkpt>
      <trkpt lat="47.24466" lon="-2.30549">
        <ele>16</ele>
        <time>2022-07-17T07:19:18.000Z</time>
      </trkpt>
      <trkpt lat="47.24465" lon="-2.30545">
        <ele>15.60000038147</ele>
        <time>2022-07-17T07:19:19.000Z</time>
      </trkpt>
      <trkpt lat="47.24462" lon="-2.30545">
        <ele>15.60000038147</ele>
        <time>2022-07-17T07:19:21.000Z</time>
      </trkpt>
      <trkpt lat="47.24456" lon="-2.30551">
        <ele>15.199999809265</ele>
        <time>2022-07-17T07:19:23.000Z</time>
      </trkpt>
      <trkpt lat="47.24452" lon="-2.30555">
        <ele>14.800000190735</ele>
        <time>2022-07-17T07:19:24.000Z</time>
      </trkpt>
      <trkpt lat="47.24448" lon="-2.3056">
        <ele>14.39999961853</ele>
        <time>2022-07-17T07:19:25.000Z</time>
      </trkpt>
      <trkpt lat="47.24444" lon="-2.30565">
        <ele>13.800000190735</ele>
        <time>2022-07-17T07:19:26.000Z</time>
      </trkpt>
      <trkpt lat="47.24441" lon="-2.30569">
        <ele>13.39999961853</ele>
        <time>2022-07-17T07:19:27.000Z</time>
      </trkpt>
      <trkpt lat="47.24436" lon="-2.30573">
        <ele>13.39999961853</ele>
        <time>2022-07-17T07:19:28.000Z</time>
      </trkpt>
      <trkpt lat="47.24427" lon="-2.30579">
        <ele>13.39999961853</ele>
        <time>2022-07-17T07:19:30.000Z</time>
      </trkpt>
      <trkpt lat="47.2442" lon="-2.30581">
        <ele>13</ele>
        <time>2022-07-17T07:19:31.000Z</time>
      </trkpt>
      <trkpt lat="47.24414" lon="-2.30583">
        <ele>12.60000038147</ele>
        <time>2022-07-17T07:19:32.000Z</time>
      </trkpt>
      <trkpt lat="47.24409" lon="-2.30582">
        <ele>12.199999809265</ele>
        <time>2022-07-17T07:19:33.000Z</time>
      </trkpt>
      <trkpt lat="47.24404" lon="-2.30581">
        <ele>11.60000038147</ele>
        <time>2022-07-17T07:19:34.000Z</time>
      </trkpt>
      <trkpt lat="47.244" lon="-2.30578">
        <ele>11.199999809265</ele>
        <time>2022-07-17T07:19:35.000Z</time>
      </trkpt>
      <trkpt lat="47.24395" lon="-2.30576">
        <ele>11.199999809265</ele>
        <time>2022-07-17T07:19:36.000Z</time>
      </trkpt>
      <trkpt lat="47.24385" lon="-2.30569">
        <ele>11.199999809265</ele>
        <time>2022-07-17T07:19:38.000Z</time>
      </trkpt>
      <trkpt lat="47.2438" lon="-2.30564">
        <ele>11.199999809265</ele>
        <time>2022-07-17T07:19:39.000Z</time>
      </trkpt>
      <trkpt lat="47.24367" lon="-2.30537">
        <ele>11.199999809265</ele>
        <time>2022-07-17T07:19:43.000Z</time>
      </trkpt>
      <trkpt lat="47.24366" lon="-2.30532">
        <ele>11.199999809265</ele>
        <time>2022-07-17T07:19:44.000Z</time>
      </trkpt>
      <trkpt lat="47.24364" lon="-2.30521">
        <ele>11.199999809265</ele>
        <time>2022-07-17T07:19:46.000Z</time>
      </trkpt>
      <trkpt lat="47.24364" lon="-2.30512">
        <ele>11.199999809265</ele>
        <time>2022-07-17T07:19:48.000Z</time>
      </trkpt>
      <trkpt lat="47.24367" lon="-2.30499">
        <ele>11.60000038147</ele>
        <time>2022-07-17T07:19:51.000Z</time>
      </trkpt>
      <trkpt lat="47.24368" lon="-2.30495">
        <ele>12</ele>
        <time>2022-07-17T07:19:52.000Z</time>
      </trkpt>
      <trkpt lat="47.24369" lon="-2.3049">
        <ele>12.39999961853</ele>
        <time>2022-07-17T07:19:53.000Z</time>
      </trkpt>
      <trkpt lat="47.2437" lon="-2.30485">
        <ele>12.800000190735</ele>
        <time>2022-07-17T07:19:54.000Z</time>
      </trkpt>
      <trkpt lat="47.24372" lon="-2.3048">
        <ele>13.199999809265</ele>
        <time>2022-07-17T07:19:55.000Z</time>
      </trkpt>
      <trkpt lat="47.24375" lon="-2.30458">
        <ele>13.199999809265</ele>
        <time>2022-07-17T07:19:59.000Z</time>
      </trkpt>
      <trkpt lat="47.24375" lon="-2.30454">
        <ele>13.800000190735</ele>
        <time>2022-07-17T07:20:00.000Z</time>
      </trkpt>
      <trkpt lat="47.24374" lon="-2.30451">
        <ele>14.60000038147</ele>
        <time>2022-07-17T07:20:01.000Z</time>
      </trkpt>
      <trkpt lat="47.24372" lon="-2.30451">
        <ele>15</ele>
        <time>2022-07-17T07:20:02.000Z</time>
      </trkpt>
      <trkpt lat="47.2437" lon="-2.30453">
        <ele>15.39999961853</ele>
        <time>2022-07-17T07:20:03.000Z</time>
      </trkpt>
      <trkpt lat="47.2436" lon="-2.30455">
        <ele>15.39999961853</ele>
        <time>2022-07-17T07:20:06.000Z</time>
      </trkpt>
      <trkpt lat="47.24356" lon="-2.30455">
        <ele>15.39999961853</ele>
        <time>2022-07-17T07:20:07.000Z</time>
      </trkpt>
      <trkpt lat="47.24342" lon="-2.3045">
        <ele>15.39999961853</ele>
        <time>2022-07-17T07:20:11.000Z</time>
      </trkpt>
      <trkpt lat="47.24318" lon="-2.30435">
        <ele>15.800000190735</ele>
        <time>2022-07-17T07:20:17.000Z</time>
      </trkpt>
      <trkpt lat="47.24316" lon="-2.30433">
        <ele>16.200000762939</ele>
        <time>2022-07-17T07:20:18.000Z</time>
      </trkpt>
      <trkpt lat="47.24313" lon="-2.30432">
        <ele>16.60000038147</ele>
        <time>2022-07-17T07:20:19.000Z</time>
      </trkpt>
      <trkpt lat="47.24311" lon="-2.3043">
        <ele>17</ele>
        <time>2022-07-17T07:20:20.000Z</time>
      </trkpt>
      <trkpt lat="47.24308" lon="-2.30428">
        <ele>17.39999961853</ele>
        <time>2022-07-17T07:20:21.000Z</time>
      </trkpt>
      <trkpt lat="47.24305" lon="-2.30425">
        <ele>17.39999961853</ele>
        <time>2022-07-17T07:20:22.000Z</time>
      </trkpt>
      <trkpt lat="47.2429" lon="-2.3041">
        <ele>17.39999961853</ele>
        <time>2022-07-17T07:20:27.000Z</time>
      </trkpt>
      <trkpt lat="47.24275" lon="-2.30392">
        <ele>17.39999961853</ele>
        <time>2022-07-17T07:20:31.000Z</time>
      </trkpt>
      <trkpt lat="47.24257" lon="-2.30362">
        <ele>17.39999961853</ele>
        <time>2022-07-17T07:20:37.000Z</time>
      </trkpt>
      <trkpt lat="47.24238" lon="-2.3033">
        <ele>17.39999961853</ele>
        <time>2022-07-17T07:20:43.000Z</time>
      </trkpt>
      <trkpt lat="47.24225" lon="-2.30328">
        <ele>17.39999961853</ele>
        <time>2022-07-17T07:20:46.000Z</time>
      </trkpt>
      <trkpt lat="47.24216" lon="-2.30332">
        <ele>17.39999961853</ele>
        <time>2022-07-17T07:20:48.000Z</time>
      </trkpt>
      <trkpt lat="47.24208" lon="-2.30333">
        <ele>16.39999961853</ele>
        <time>2022-07-17T07:20:50.000Z</time>
      </trkpt>
      <trkpt lat="47.24205" lon="-2.30331">
        <ele>16</ele>
        <time>2022-07-17T07:20:51.000Z</time>
      </trkpt>
      <trkpt lat="47.24204" lon="-2.30328">
        <ele>15.39999961853</ele>
        <time>2022-07-17T07:20:52.000Z</time>
      </trkpt>
      <trkpt lat="47.24202" lon="-2.30323">
        <ele>14.800000190735</ele>
        <time>2022-07-17T07:20:53.000Z</time>
      </trkpt>
      <trkpt lat="47.24199" lon="-2.30308">
        <ele>14.39999961853</ele>
        <time>2022-07-17T07:20:55.000Z</time>
      </trkpt>
      <trkpt lat="47.24197" lon="-2.303">
        <ele>14</ele>
        <time>2022-07-17T07:20:56.000Z</time>
      </trkpt>
      <trkpt lat="47.24195" lon="-2.30293">
        <ele>13.60000038147</ele>
        <time>2022-07-17T07:20:57.000Z</time>
      </trkpt>
      <trkpt lat="47.24194" lon="-2.30285">
        <ele>13.199999809265</ele>
        <time>2022-07-17T07:20:58.000Z</time>
      </trkpt>
      <trkpt lat="47.24192" lon="-2.30278">
        <ele>12.800000190735</ele>
        <time>2022-07-17T07:20:59.000Z</time>
      </trkpt>
      <trkpt lat="47.24188" lon="-2.30255">
        <ele>12.800000190735</ele>
        <time>2022-07-17T07:21:02.000Z</time>
      </trkpt>
      <trkpt lat="47.24186" lon="-2.30241">
        <ele>12.800000190735</ele>
        <time>2022-07-17T07:21:04.000Z</time>
      </trkpt>
      <trkpt lat="47.24188" lon="-2.30234">
        <ele>12.800000190735</ele>
        <time>2022-07-17T07:21:06.000Z</time>
      </trkpt>
      <trkpt lat="47.242" lon="-2.30226">
        <ele>12.800000190735</ele>
        <time>2022-07-17T07:21:10.000Z</time>
      </trkpt>
      <trkpt lat="47.24212" lon="-2.30219">
        <ele>13.199999809265</ele>
        <time>2022-07-17T07:21:14.000Z</time>
      </trkpt>
      <trkpt lat="47.24215" lon="-2.30217">
        <ele>14</ele>
        <time>2022-07-17T07:21:15.000Z</time>
      </trkpt>
      <trkpt lat="47.24217" lon="-2.30214">
        <ele>14.39999961853</ele>
        <time>2022-07-17T07:21:16.000Z</time>
      </trkpt>
      <trkpt lat="47.2422" lon="-2.30211">
        <ele>14.800000190735</ele>
        <time>2022-07-17T07:21:17.000Z</time>
      </trkpt>
      <trkpt lat="47.24229" lon="-2.30194">
        <ele>14.800000190735</ele>
        <time>2022-07-17T07:21:21.000Z</time>
      </trkpt>
      <trkpt lat="47.24234" lon="-2.30181">
        <ele>15.199999809265</ele>
        <time>2022-07-17T07:21:24.000Z</time>
      </trkpt>
      <trkpt lat="47.24236" lon="-2.30177">
        <ele>15.60000038147</ele>
        <time>2022-07-17T07:21:25.000Z</time>
      </trkpt>
      <trkpt lat="47.24238" lon="-2.30173">
        <ele>16</ele>
        <time>2022-07-17T07:21:26.000Z</time>
      </trkpt>
      <trkpt lat="47.24241" lon="-2.30169">
        <ele>16.39999961853</ele>
        <time>2022-07-17T07:21:27.000Z</time>
      </trkpt>
      <trkpt lat="47.24244" lon="-2.30165">
        <ele>16.799999237061</ele>
        <time>2022-07-17T07:21:28.000Z</time>
      </trkpt>
      <trkpt lat="47.24253" lon="-2.30155">
        <ele>16.799999237061</ele>
        <time>2022-07-17T07:21:31.000Z</time>
      </trkpt>
      <trkpt lat="47.24262" lon="-2.30146">
        <ele>17.200000762939</ele>
        <time>2022-07-17T07:21:34.000Z</time>
      </trkpt>
      <trkpt lat="47.24264" lon="-2.30142">
        <ele>17.60000038147</ele>
        <time>2022-07-17T07:21:35.000Z</time>
      </trkpt>
      <trkpt lat="47.24267" lon="-2.3014">
        <ele>18</ele>
        <time>2022-07-17T07:21:36.000Z</time>
      </trkpt>
      <trkpt lat="47.2427" lon="-2.30137">
        <ele>18.60000038147</ele>
        <time>2022-07-17T07:21:37.000Z</time>
      </trkpt>
      <trkpt lat="47.24273" lon="-2.30134">
        <ele>19</ele>
        <time>2022-07-17T07:21:38.000Z</time>
      </trkpt>
      <trkpt lat="47.24288" lon="-2.30121">
        <ele>19</ele>
        <time>2022-07-17T07:21:43.000Z</time>
      </trkpt>
      <trkpt lat="47.24302" lon="-2.30122">
        <ele>19</ele>
        <time>2022-07-17T07:21:47.000Z</time>
      </trkpt>
      <trkpt lat="47.24306" lon="-2.30124">
        <ele>19</ele>
        <time>2022-07-17T07:21:48.000Z</time>
      </trkpt>
      <trkpt lat="47.24322" lon="-2.30131">
        <ele>19</ele>
        <time>2022-07-17T07:21:52.000Z</time>
      </trkpt>
      <trkpt lat="47.24326" lon="-2.30128">
        <ele>19</ele>
        <time>2022-07-17T07:21:53.000Z</time>
      </trkpt>
      <trkpt lat="47.24338" lon="-2.30119">
        <ele>19.39999961853</ele>
        <time>2022-07-17T07:21:56.000Z</time>
      </trkpt>
      <trkpt lat="47.24341" lon="-2.30114">
        <ele>19.799999237061</ele>
        <time>2022-07-17T07:21:57.000Z</time>
      </trkpt>
      <trkpt lat="47.24345" lon="-2.3011">
        <ele>20.200000762939</ele>
        <time>2022-07-17T07:21:58.000Z</time>
      </trkpt>
      <trkpt lat="47.24349" lon="-2.30107">
        <ele>20.60000038147</ele>
        <time>2022-07-17T07:21:59.000Z</time>
      </trkpt>
      <trkpt lat="47.24352" lon="-2.30103">
        <ele>21</ele>
        <time>2022-07-17T07:22:00.000Z</time>
      </trkpt>
      <trkpt lat="47.2436" lon="-2.30096">
        <ele>21</ele>
        <time>2022-07-17T07:22:02.000Z</time>
      </trkpt>
      <trkpt lat="47.24376" lon="-2.30088">
        <ele>21</ele>
        <time>2022-07-17T07:22:06.000Z</time>
      </trkpt>
      <trkpt lat="47.2438" lon="-2.30088">
        <ele>21</ele>
        <time>2022-07-17T07:22:07.000Z</time>
      </trkpt>
      <trkpt lat="47.24391" lon="-2.301">
        <ele>21</ele>
        <time>2022-07-17T07:22:10.000Z</time>
      </trkpt>
      <trkpt lat="47.244" lon="-2.30123">
        <ele>21</ele>
        <time>2022-07-17T07:22:14.000Z</time>
      </trkpt>
      <trkpt lat="47.24402" lon="-2.30129">
        <ele>21</ele>
        <time>2022-07-17T07:22:15.000Z</time>
      </trkpt>
      <trkpt lat="47.24412" lon="-2.30143">
        <ele>21</ele>
        <time>2022-07-17T07:22:18.000Z</time>
      </trkpt>
      <trkpt lat="47.2442" lon="-2.30148">
        <ele>21</ele>
        <time>2022-07-17T07:22:20.000Z</time>
      </trkpt>
      <trkpt lat="47.24439" lon="-2.30164">
        <ele>21</ele>
        <time>2022-07-17T07:22:25.000Z</time>
      </trkpt>
      <trkpt lat="47.24448" lon="-2.30184">
        <ele>21</ele>
        <time>2022-07-17T07:22:29.000Z</time>
      </trkpt>
      <trkpt lat="47.24452" lon="-2.30187">
        <ele>21</ele>
        <time>2022-07-17T07:22:30.000Z</time>
      </trkpt>
      <trkpt lat="47.24464" lon="-2.30196">
        <ele>21</ele>
        <time>2022-07-17T07:22:33.000Z</time>
      </trkpt>
      <trkpt lat="47.24471" lon="-2.30205">
        <ele>21</ele>
        <time>2022-07-17T07:22:35.000Z</time>
      </trkpt>
      <trkpt lat="47.24487" lon="-2.30239">
        <ele>21</ele>
        <time>2022-07-17T07:22:40.000Z</time>
      </trkpt>
      <trkpt lat="47.24494" lon="-2.30248">
        <ele>21</ele>
        <time>2022-07-17T07:22:42.000Z</time>
      </trkpt>
      <trkpt lat="47.24499" lon="-2.30247">
        <ele>21</ele>
        <time>2022-07-17T07:22:43.000Z</time>
      </trkpt>
      <trkpt lat="47.24511" lon="-2.30238">
        <ele>21</ele>
        <time>2022-07-17T07:22:46.000Z</time>
      </trkpt>
      <trkpt lat="47.24541" lon="-2.30209">
        <ele>21</ele>
        <time>2022-07-17T07:22:53.000Z</time>
      </trkpt>
      <trkpt lat="47.24564" lon="-2.30179">
        <ele>21</ele>
        <time>2022-07-17T07:22:59.000Z</time>
      </trkpt>
      <trkpt lat="47.2459" lon="-2.30136">
        <ele>21</ele>
        <time>2022-07-17T07:23:07.000Z</time>
      </trkpt>
      <trkpt lat="47.24601" lon="-2.30123">
        <ele>21.39999961853</ele>
        <time>2022-07-17T07:23:10.000Z</time>
      </trkpt>
      <trkpt lat="47.24605" lon="-2.30119">
        <ele>21.799999237061</ele>
        <time>2022-07-17T07:23:11.000Z</time>
      </trkpt>
      <trkpt lat="47.24609" lon="-2.30115">
        <ele>22.200000762939</ele>
        <time>2022-07-17T07:23:12.000Z</time>
      </trkpt>
      <trkpt lat="47.24612" lon="-2.30112">
        <ele>22.60000038147</ele>
        <time>2022-07-17T07:23:13.000Z</time>
      </trkpt>
      <trkpt lat="47.24616" lon="-2.30109">
        <ele>23</ele>
        <time>2022-07-17T07:23:14.000Z</time>
      </trkpt>
      <trkpt lat="47.24636" lon="-2.3009">
        <ele>23</ele>
        <time>2022-07-17T07:23:20.000Z</time>
      </trkpt>
      <trkpt lat="47.24642" lon="-2.30082">
        <ele>23</ele>
        <time>2022-07-17T07:23:24.000Z</time>
      </trkpt>
      <trkpt lat="47.24642" lon="-2.30082">
        <ele>23</ele>
        <time>2022-07-17T07:23:27.000Z</time>
      </trkpt>
      <trkpt lat="47.24643" lon="-2.30081">
        <ele>23</ele>
        <time>2022-07-17T07:23:30.000Z</time>
      </trkpt>
      <trkpt lat="47.24655" lon="-2.30073">
        <ele>23</ele>
        <time>2022-07-17T07:23:34.000Z</time>
      </trkpt>
      <trkpt lat="47.24667" lon="-2.30065">
        <ele>23</ele>
        <time>2022-07-17T07:23:37.000Z</time>
      </trkpt>
      <trkpt lat="47.24681" lon="-2.30054">
        <ele>23</ele>
        <time>2022-07-17T07:23:41.000Z</time>
      </trkpt>
      <trkpt lat="47.24711" lon="-2.30026">
        <ele>23</ele>
        <time>2022-07-17T07:23:49.000Z</time>
      </trkpt>
      <trkpt lat="47.24715" lon="-2.30022">
        <ele>23.39999961853</ele>
        <time>2022-07-17T07:23:50.000Z</time>
      </trkpt>
      <trkpt lat="47.24719" lon="-2.30018">
        <ele>23.799999237061</ele>
        <time>2022-07-17T07:23:51.000Z</time>
      </trkpt>
      <trkpt lat="47.24722" lon="-2.30014">
        <ele>24.200000762939</ele>
        <time>2022-07-17T07:23:52.000Z</time>
      </trkpt>
      <trkpt lat="47.24726" lon="-2.30009">
        <ele>24.60000038147</ele>
        <time>2022-07-17T07:23:53.000Z</time>
      </trkpt>
      <trkpt lat="47.24729" lon="-2.30004">
        <ele>25</ele>
        <time>2022-07-17T07:23:54.000Z</time>
      </trkpt>
      <trkpt lat="47.24734" lon="-2.29994">
        <ele>25</ele>
        <time>2022-07-17T07:23:56.000Z</time>
      </trkpt>
      <trkpt lat="47.24736" lon="-2.29988">
        <ele>25</ele>
        <time>2022-07-17T07:23:57.000Z</time>
      </trkpt>
      <trkpt lat="47.24743" lon="-2.29963">
        <ele>25</ele>
        <time>2022-07-17T07:24:01.000Z</time>
      </trkpt>
      <trkpt lat="47.24745" lon="-2.29924">
        <ele>25</ele>
        <time>2022-07-17T07:24:07.000Z</time>
      </trkpt>
      <trkpt lat="47.24747" lon="-2.29894">
        <ele>25</ele>
        <time>2022-07-17T07:24:13.000Z</time>
      </trkpt>
      <trkpt lat="47.2475" lon="-2.2989">
        <ele>25</ele>
        <time>2022-07-17T07:24:14.000Z</time>
      </trkpt>
      <trkpt lat="47.24757" lon="-2.29883">
        <ele>25</ele>
        <time>2022-07-17T07:24:16.000Z</time>
      </trkpt>
      <trkpt lat="47.24765" lon="-2.29876">
        <ele>25.39999961853</ele>
        <time>2022-07-17T07:24:18.000Z</time>
      </trkpt>
      <trkpt lat="47.24769" lon="-2.29873">
        <ele>26</ele>
        <time>2022-07-17T07:24:19.000Z</time>
      </trkpt>
      <trkpt lat="47.24773" lon="-2.29871">
        <ele>26.39999961853</ele>
        <time>2022-07-17T07:24:20.000Z</time>
      </trkpt>
      <trkpt lat="47.24778" lon="-2.29868">
        <ele>26.799999237061</ele>
        <time>2022-07-17T07:24:21.000Z</time>
      </trkpt>
      <trkpt lat="47.24782" lon="-2.29865">
        <ele>27.200000762939</ele>
        <time>2022-07-17T07:24:22.000Z</time>
      </trkpt>
      <trkpt lat="47.24814" lon="-2.29848">
        <ele>27.200000762939</ele>
        <time>2022-07-17T07:24:29.000Z</time>
      </trkpt>
      <trkpt lat="47.24847" lon="-2.29839">
        <ele>27.200000762939</ele>
        <time>2022-07-17T07:24:36.000Z</time>
      </trkpt>
      <trkpt lat="47.24862" lon="-2.29833">
        <ele>27.200000762939</ele>
        <time>2022-07-17T07:24:41.000Z</time>
      </trkpt>
      <trkpt lat="47.24866" lon="-2.29847">
        <ele>27.200000762939</ele>
        <time>2022-07-17T07:24:44.000Z</time>
      </trkpt>
      <trkpt lat="47.24867" lon="-2.29854">
        <ele>27.200000762939</ele>
        <time>2022-07-17T07:24:45.000Z</time>
      </trkpt>
      <trkpt lat="47.24869" lon="-2.2986">
        <ele>27.200000762939</ele>
        <time>2022-07-17T07:24:46.000Z</time>
      </trkpt>
      <trkpt lat="47.24873" lon="-2.29881">
        <ele>27.200000762939</ele>
        <time>2022-07-17T07:24:49.000Z</time>
      </trkpt>
      <trkpt lat="47.24877" lon="-2.29924">
        <ele>27.200000762939</ele>
        <time>2022-07-17T07:24:54.000Z</time>
      </trkpt>
      <trkpt lat="47.24878" lon="-2.29931">
        <ele>27.200000762939</ele>
        <time>2022-07-17T07:24:55.000Z</time>
      </trkpt>
      <trkpt lat="47.24885" lon="-2.29956">
        <ele>27.200000762939</ele>
        <time>2022-07-17T07:24:58.000Z</time>
      </trkpt>
      <trkpt lat="47.24901" lon="-2.30019">
        <ele>27.200000762939</ele>
        <time>2022-07-17T07:25:06.000Z</time>
      </trkpt>
      <trkpt lat="47.24902" lon="-2.30042">
        <ele>27.200000762939</ele>
        <time>2022-07-17T07:25:09.000Z</time>
      </trkpt>
      <trkpt lat="47.24904" lon="-2.30054">
        <ele>27.200000762939</ele>
        <time>2022-07-17T07:25:11.000Z</time>
      </trkpt>
      <trkpt lat="47.24911" lon="-2.30056">
        <ele>27.200000762939</ele>
        <time>2022-07-17T07:25:13.000Z</time>
      </trkpt>
      <trkpt lat="47.24919" lon="-2.30055">
        <ele>27.200000762939</ele>
        <time>2022-07-17T07:25:15.000Z</time>
      </trkpt>
      <trkpt lat="47.24929" lon="-2.30055">
        <ele>27.200000762939</ele>
        <time>2022-07-17T07:25:17.000Z</time>
      </trkpt>
      <trkpt lat="47.24963" lon="-2.30056">
        <ele>27.200000762939</ele>
        <time>2022-07-17T07:25:23.000Z</time>
      </trkpt>
      <trkpt lat="47.24999" lon="-2.30052">
        <ele>27.200000762939</ele>
        <time>2022-07-17T07:25:29.000Z</time>
      </trkpt>
      <trkpt lat="47.2503" lon="-2.30053">
        <ele>27.200000762939</ele>
        <time>2022-07-17T07:25:35.000Z</time>
      </trkpt>
      <trkpt lat="47.25064" lon="-2.30057">
        <ele>27.200000762939</ele>
        <time>2022-07-17T07:25:42.000Z</time>
      </trkpt>
      <trkpt lat="47.25066" lon="-2.30057">
        <ele>26.60000038147</ele>
        <time>2022-07-17T07:25:43.000Z</time>
      </trkpt>
      <trkpt lat="47.25067" lon="-2.30057">
        <ele>26.200000762939</ele>
        <time>2022-07-17T07:25:44.000Z</time>
      </trkpt>
      <trkpt lat="47.25068" lon="-2.30058">
        <ele>25.799999237061</ele>
        <time>2022-07-17T07:25:45.000Z</time>
      </trkpt>
      <trkpt lat="47.25067" lon="-2.30058">
        <ele>24.799999237061</ele>
        <time>2022-07-17T07:25:46.000Z</time>
      </trkpt>
      <trkpt lat="47.25068" lon="-2.30061">
        <ele>24.799999237061</ele>
        <time>2022-07-17T07:25:56.000Z</time>
      </trkpt>
      <trkpt lat="47.25069" lon="-2.30063">
        <ele>24.799999237061</ele>
        <time>2022-07-17T07:25:57.000Z</time>
      </trkpt>
      <trkpt lat="47.25067" lon="-2.30084">
        <ele>24.799999237061</ele>
        <time>2022-07-17T07:26:01.000Z</time>
      </trkpt>
      <trkpt lat="47.25066" lon="-2.30121">
        <ele>24.799999237061</ele>
        <time>2022-07-17T07:26:07.000Z</time>
      </trkpt>
      <trkpt lat="47.25072" lon="-2.30134">
        <ele>24.799999237061</ele>
        <time>2022-07-17T07:26:10.000Z</time>
      </trkpt>
      <trkpt lat="47.25086" lon="-2.30133">
        <ele>24.799999237061</ele>
        <time>2022-07-17T07:26:13.000Z</time>
      </trkpt>
      <trkpt lat="47.25117" lon="-2.30127">
        <ele>24.799999237061</ele>
        <time>2022-07-17T07:26:19.000Z</time>
      </trkpt>
      <trkpt lat="47.25142" lon="-2.30123">
        <ele>24.799999237061</ele>
        <time>2022-07-17T07:26:23.000Z</time>
      </trkpt>
      <trkpt lat="47.25163" lon="-2.30117">
        <ele>24.39999961853</ele>
        <time>2022-07-17T07:26:26.000Z</time>
      </trkpt>
      <trkpt lat="47.2517" lon="-2.30116">
        <ele>24</ele>
        <time>2022-07-17T07:26:27.000Z</time>
      </trkpt>
      <trkpt lat="47.25176" lon="-2.30118">
        <ele>23.60000038147</ele>
        <time>2022-07-17T07:26:28.000Z</time>
      </trkpt>
      <trkpt lat="47.2518" lon="-2.30122">
        <ele>23.200000762939</ele>
        <time>2022-07-17T07:26:29.000Z</time>
      </trkpt>
      <trkpt lat="47.25185" lon="-2.30129">
        <ele>22.799999237061</ele>
        <time>2022-07-17T07:26:30.000Z</time>
      </trkpt>
      <trkpt lat="47.25189" lon="-2.30136">
        <ele>22.799999237061</ele>
        <time>2022-07-17T07:26:31.000Z</time>
      </trkpt>
      <trkpt lat="47.25204" lon="-2.30155">
        <ele>22.799999237061</ele>
        <time>2022-07-17T07:26:34.000Z</time>
      </trkpt>
      <trkpt lat="47.2521" lon="-2.30161">
        <ele>22.799999237061</ele>
        <time>2022-07-17T07:26:35.000Z</time>
      </trkpt>
      <trkpt lat="47.25222" lon="-2.30173">
        <ele>22.39999961853</ele>
        <time>2022-07-17T07:26:37.000Z</time>
      </trkpt>
      <trkpt lat="47.25228" lon="-2.30177">
        <ele>22</ele>
        <time>2022-07-17T07:26:38.000Z</time>
      </trkpt>
      <trkpt lat="47.25235" lon="-2.30178">
        <ele>21.60000038147</ele>
        <time>2022-07-17T07:26:39.000Z</time>
      </trkpt>
      <trkpt lat="47.25241" lon="-2.3018">
        <ele>21.200000762939</ele>
        <time>2022-07-17T07:26:40.000Z</time>
      </trkpt>
      <trkpt lat="47.25248" lon="-2.30183">
        <ele>20.799999237061</ele>
        <time>2022-07-17T07:26:41.000Z</time>
      </trkpt>
      <trkpt lat="47.25267" lon="-2.30191">
        <ele>20.799999237061</ele>
        <time>2022-07-17T07:26:44.000Z</time>
      </trkpt>
      <trkpt lat="47.25301" lon="-2.30208">
        <ele>20.39999961853</ele>
        <time>2022-07-17T07:26:50.000Z</time>
      </trkpt>
      <trkpt lat="47.25303" lon="-2.30208">
        <ele>19.799999237061</ele>
        <time>2022-07-17T07:26:51.000Z</time>
      </trkpt>
      <trkpt lat="47.25305" lon="-2.30205">
        <ele>19.39999961853</ele>
        <time>2022-07-17T07:26:52.000Z</time>
      </trkpt>
      <trkpt lat="47.25306" lon="-2.30202">
        <ele>19</ele>
        <time>2022-07-17T07:26:53.000Z</time>
      </trkpt>
      <trkpt lat="47.25308" lon="-2.302">
        <ele>18.60000038147</ele>
        <time>2022-07-17T07:26:54.000Z</time>
      </trkpt>
      <trkpt lat="47.25319" lon="-2.30204">
        <ele>18.60000038147</ele>
        <time>2022-07-17T07:26:57.000Z</time>
      </trkpt>
      <trkpt lat="47.2533" lon="-2.30205">
        <ele>18.60000038147</ele>
        <time>2022-07-17T07:26:59.000Z</time>
      </trkpt>
      <trkpt lat="47.25341" lon="-2.30205">
        <ele>18.60000038147</ele>
        <time>2022-07-17T07:27:01.000Z</time>
      </trkpt>
      <trkpt lat="47.25368" lon="-2.30209">
        <ele>18.60000038147</ele>
        <time>2022-07-17T07:27:06.000Z</time>
      </trkpt>
      <trkpt lat="47.25373" lon="-2.3021">
        <ele>18.60000038147</ele>
        <time>2022-07-17T07:27:07.000Z</time>
      </trkpt>
      <trkpt lat="47.25389" lon="-2.30216">
        <ele>18.200000762939</ele>
        <time>2022-07-17T07:27:10.000Z</time>
      </trkpt>
      <trkpt lat="47.25395" lon="-2.30218">
        <ele>17.799999237061</ele>
        <time>2022-07-17T07:27:11.000Z</time>
      </trkpt>
      <trkpt lat="47.254" lon="-2.30221">
        <ele>17.200000762939</ele>
        <time>2022-07-17T07:27:12.000Z</time>
      </trkpt>
      <trkpt lat="47.25407" lon="-2.30224">
        <ele>16.799999237061</ele>
        <time>2022-07-17T07:27:13.000Z</time>
      </trkpt>
      <trkpt lat="47.25413" lon="-2.30224">
        <ele>16.39999961853</ele>
        <time>2022-07-17T07:27:14.000Z</time>
      </trkpt>
      <trkpt lat="47.25425" lon="-2.30229">
        <ele>16.39999961853</ele>
        <time>2022-07-17T07:27:16.000Z</time>
      </trkpt>
      <trkpt lat="47.25442" lon="-2.30236">
        <ele>16.39999961853</ele>
        <time>2022-07-17T07:27:19.000Z</time>
      </trkpt>
      <trkpt lat="47.25458" lon="-2.30243">
        <ele>16.39999961853</ele>
        <time>2022-07-17T07:27:22.000Z</time>
      </trkpt>
      <trkpt lat="47.25469" lon="-2.30246">
        <ele>15.60000038147</ele>
        <time>2022-07-17T07:27:24.000Z</time>
      </trkpt>
      <trkpt lat="47.25472" lon="-2.30245">
        <ele>15.199999809265</ele>
        <time>2022-07-17T07:27:25.000Z</time>
      </trkpt>
      <trkpt lat="47.25475" lon="-2.3024">
        <ele>14.800000190735</ele>
        <time>2022-07-17T07:27:26.000Z</time>
      </trkpt>
      <trkpt lat="47.25477" lon="-2.30236">
        <ele>14.199999809265</ele>
        <time>2022-07-17T07:27:27.000Z</time>
      </trkpt>
      <trkpt lat="47.2549" lon="-2.30213">
        <ele>14.199999809265</ele>
        <time>2022-07-17T07:27:31.000Z</time>
      </trkpt>
      <trkpt lat="47.25501" lon="-2.30199">
        <ele>14.199999809265</ele>
        <time>2022-07-17T07:27:34.000Z</time>
      </trkpt>
      <trkpt lat="47.25509" lon="-2.302">
        <ele>14.199999809265</ele>
        <time>2022-07-17T07:27:36.000Z</time>
      </trkpt>
      <trkpt lat="47.2552" lon="-2.302">
        <ele>14.199999809265</ele>
        <time>2022-07-17T07:27:39.000Z</time>
      </trkpt>
      <trkpt lat="47.25531" lon="-2.30196">
        <ele>14.199999809265</ele>
        <time>2022-07-17T07:27:41.000Z</time>
      </trkpt>
      <trkpt lat="47.25536" lon="-2.30193">
        <ele>14.199999809265</ele>
        <time>2022-07-17T07:27:42.000Z</time>
      </trkpt>
      <trkpt lat="47.25557" lon="-2.30184">
        <ele>14.199999809265</ele>
        <time>2022-07-17T07:27:47.000Z</time>
      </trkpt>
      <trkpt lat="47.2556" lon="-2.30178">
        <ele>14.199999809265</ele>
        <time>2022-07-17T07:27:48.000Z</time>
      </trkpt>
      <trkpt lat="47.25561" lon="-2.30168">
        <ele>14.199999809265</ele>
        <time>2022-07-17T07:27:50.000Z</time>
      </trkpt>
      <trkpt lat="47.25567" lon="-2.30155">
        <ele>14.199999809265</ele>
        <time>2022-07-17T07:27:52.000Z</time>
      </trkpt>
      <trkpt lat="47.25568" lon="-2.30144">
        <ele>14.199999809265</ele>
        <time>2022-07-17T07:27:54.000Z</time>
      </trkpt>
      <trkpt lat="47.25572" lon="-2.30106">
        <ele>14.199999809265</ele>
        <time>2022-07-17T07:28:00.000Z</time>
      </trkpt>
      <trkpt lat="47.25575" lon="-2.301">
        <ele>14.199999809265</ele>
        <time>2022-07-17T07:28:01.000Z</time>
      </trkpt>
      <trkpt lat="47.25589" lon="-2.30081">
        <ele>14.199999809265</ele>
        <time>2022-07-17T07:28:05.000Z</time>
      </trkpt>
      <trkpt lat="47.25608" lon="-2.30054">
        <ele>14.199999809265</ele>
        <time>2022-07-17T07:28:10.000Z</time>
      </trkpt>
      <trkpt lat="47.25611" lon="-2.30047">
        <ele>14.199999809265</ele>
        <time>2022-07-17T07:28:11.000Z</time>
      </trkpt>
      <trkpt lat="47.25613" lon="-2.30028">
        <ele>14.199999809265</ele>
        <time>2022-07-17T07:28:14.000Z</time>
      </trkpt>
      <trkpt lat="47.25613" lon="-2.30022">
        <ele>14.199999809265</ele>
        <time>2022-07-17T07:28:15.000Z</time>
      </trkpt>
      <trkpt lat="47.25604" lon="-2.30001">
        <ele>14.199999809265</ele>
        <time>2022-07-17T07:28:19.000Z</time>
      </trkpt>
      <trkpt lat="47.2559" lon="-2.29979">
        <ele>14.60000038147</ele>
        <time>2022-07-17T07:28:23.000Z</time>
      </trkpt>
      <trkpt lat="47.25587" lon="-2.29974">
        <ele>15</ele>
        <time>2022-07-17T07:28:24.000Z</time>
      </trkpt>
      <trkpt lat="47.25584" lon="-2.29968">
        <ele>15.39999961853</ele>
        <time>2022-07-17T07:28:25.000Z</time>
      </trkpt>
      <trkpt lat="47.25581" lon="-2.29963">
        <ele>15.800000190735</ele>
        <time>2022-07-17T07:28:26.000Z</time>
      </trkpt>
      <trkpt lat="47.25578" lon="-2.29957">
        <ele>16.39999961853</ele>
        <time>2022-07-17T07:28:27.000Z</time>
      </trkpt>
      <trkpt lat="47.25553" lon="-2.29918">
        <ele>16.39999961853</ele>
        <time>2022-07-17T07:28:34.000Z</time>
      </trkpt>
      <trkpt lat="47.2555" lon="-2.29913">
        <ele>16.799999237061</ele>
        <time>2022-07-17T07:28:35.000Z</time>
      </trkpt>
      <trkpt lat="47.25548" lon="-2.29909">
        <ele>17.200000762939</ele>
        <time>2022-07-17T07:28:36.000Z</time>
      </trkpt>
      <trkpt lat="47.25545" lon="-2.29905">
        <ele>17.60000038147</ele>
        <time>2022-07-17T07:28:37.000Z</time>
      </trkpt>
      <trkpt lat="47.25542" lon="-2.299">
        <ele>18</ele>
        <time>2022-07-17T07:28:38.000Z</time>
      </trkpt>
      <trkpt lat="47.2554" lon="-2.29896">
        <ele>18.39999961853</ele>
        <time>2022-07-17T07:28:39.000Z</time>
      </trkpt>
      <trkpt lat="47.25537" lon="-2.29892">
        <ele>18.39999961853</ele>
        <time>2022-07-17T07:28:40.000Z</time>
      </trkpt>
      <trkpt lat="47.25534" lon="-2.29884">
        <ele>18.39999961853</ele>
        <time>2022-07-17T07:28:42.000Z</time>
      </trkpt>
      <trkpt lat="47.25536" lon="-2.29874">
        <ele>18.39999961853</ele>
        <time>2022-07-17T07:28:44.000Z</time>
      </trkpt>
      <trkpt lat="47.25542" lon="-2.29865">
        <ele>18.39999961853</ele>
        <time>2022-07-17T07:28:46.000Z</time>
      </trkpt>
      <trkpt lat="47.25549" lon="-2.29855">
        <ele>18.39999961853</ele>
        <time>2022-07-17T07:28:48.000Z</time>
      </trkpt>
      <trkpt lat="47.25576" lon="-2.29821">
        <ele>18.39999961853</ele>
        <time>2022-07-17T07:28:55.000Z</time>
      </trkpt>
      <trkpt lat="47.25579" lon="-2.29817">
        <ele>18.39999961853</ele>
        <time>2022-07-17T07:28:56.000Z</time>
      </trkpt>
      <trkpt lat="47.25582" lon="-2.29802">
        <ele>18.39999961853</ele>
        <time>2022-07-17T07:28:59.000Z</time>
      </trkpt>
      <trkpt lat="47.25576" lon="-2.29791">
        <ele>18</ele>
        <time>2022-07-17T07:29:01.000Z</time>
      </trkpt>
      <trkpt lat="47.25572" lon="-2.29786">
        <ele>17.60000038147</ele>
        <time>2022-07-17T07:29:02.000Z</time>
      </trkpt>
      <trkpt lat="47.25568" lon="-2.2978">
        <ele>17.200000762939</ele>
        <time>2022-07-17T07:29:03.000Z</time>
      </trkpt>
      <trkpt lat="47.25564" lon="-2.29775">
        <ele>16.39999961853</ele>
        <time>2022-07-17T07:29:04.000Z</time>
      </trkpt>
      <trkpt lat="47.25556" lon="-2.29767">
        <ele>16.39999961853</ele>
        <time>2022-07-17T07:29:06.000Z</time>
      </trkpt>
      <trkpt lat="47.25545" lon="-2.29755">
        <ele>16.39999961853</ele>
        <time>2022-07-17T07:29:09.000Z</time>
      </trkpt>
      <trkpt lat="47.25538" lon="-2.29749">
        <ele>16.799999237061</ele>
        <time>2022-07-17T07:29:11.000Z</time>
      </trkpt>
      <trkpt lat="47.25534" lon="-2.29746">
        <ele>17.200000762939</ele>
        <time>2022-07-17T07:29:12.000Z</time>
      </trkpt>
      <trkpt lat="47.25532" lon="-2.29743">
        <ele>17.60000038147</ele>
        <time>2022-07-17T07:29:13.000Z</time>
      </trkpt>
      <trkpt lat="47.25532" lon="-2.29737">
        <ele>18</ele>
        <time>2022-07-17T07:29:14.000Z</time>
      </trkpt>
      <trkpt lat="47.25534" lon="-2.29734">
        <ele>18.39999961853</ele>
        <time>2022-07-17T07:29:15.000Z</time>
      </trkpt>
      <trkpt lat="47.25544" lon="-2.29726">
        <ele>18.39999961853</ele>
        <time>2022-07-17T07:29:18.000Z</time>
      </trkpt>
      <trkpt lat="47.25573" lon="-2.29712">
        <ele>18.39999961853</ele>
        <time>2022-07-17T07:29:24.000Z</time>
      </trkpt>
      <trkpt lat="47.25608" lon="-2.29705">
        <ele>18</ele>
        <time>2022-07-17T07:29:30.000Z</time>
      </trkpt>
      <trkpt lat="47.25614" lon="-2.29704">
        <ele>17.60000038147</ele>
        <time>2022-07-17T07:29:31.000Z</time>
      </trkpt>
      <trkpt lat="47.2562" lon="-2.29703">
        <ele>17.200000762939</ele>
        <time>2022-07-17T07:29:32.000Z</time>
      </trkpt>
      <trkpt lat="47.25625" lon="-2.29703">
        <ele>16.60000038147</ele>
        <time>2022-07-17T07:29:33.000Z</time>
      </trkpt>
      <trkpt lat="47.25631" lon="-2.29702">
        <ele>16.200000762939</ele>
        <time>2022-07-17T07:29:34.000Z</time>
      </trkpt>
      <trkpt lat="47.25643" lon="-2.297">
        <ele>16.200000762939</ele>
        <time>2022-07-17T07:29:36.000Z</time>
      </trkpt>
      <trkpt lat="47.2566" lon="-2.297">
        <ele>15.800000190735</ele>
        <time>2022-07-17T07:29:39.000Z</time>
      </trkpt>
      <trkpt lat="47.25667" lon="-2.297">
        <ele>15.39999961853</ele>
        <time>2022-07-17T07:29:40.000Z</time>
      </trkpt>
      <trkpt lat="47.25673" lon="-2.297">
        <ele>15</ele>
        <time>2022-07-17T07:29:41.000Z</time>
      </trkpt>
      <trkpt lat="47.25679" lon="-2.29701">
        <ele>14.60000038147</ele>
        <time>2022-07-17T07:29:42.000Z</time>
      </trkpt>
      <trkpt lat="47.25686" lon="-2.297">
        <ele>14.199999809265</ele>
        <time>2022-07-17T07:29:43.000Z</time>
      </trkpt>
      <trkpt lat="47.25712" lon="-2.29698">
        <ele>14.199999809265</ele>
        <time>2022-07-17T07:29:47.000Z</time>
      </trkpt>
      <trkpt lat="47.2574" lon="-2.29685">
        <ele>13.800000190735</ele>
        <time>2022-07-17T07:29:51.000Z</time>
      </trkpt>
      <trkpt lat="47.25746" lon="-2.29682">
        <ele>13.39999961853</ele>
        <time>2022-07-17T07:29:52.000Z</time>
      </trkpt>
      <trkpt lat="47.25753" lon="-2.29678">
        <ele>12.60000038147</ele>
        <time>2022-07-17T07:29:53.000Z</time>
      </trkpt>
      <trkpt lat="47.25759" lon="-2.29676">
        <ele>12</ele>
        <time>2022-07-17T07:29:54.000Z</time>
      </trkpt>
      <trkpt lat="47.25778" lon="-2.29668">
        <ele>12</ele>
        <time>2022-07-17T07:29:57.000Z</time>
      </trkpt>
      <trkpt lat="47.25816" lon="-2.2965">
        <ele>12</ele>
        <time>2022-07-17T07:30:03.000Z</time>
      </trkpt>
      <trkpt lat="47.2585" lon="-2.29635">
        <ele>12</ele>
        <time>2022-07-17T07:30:09.000Z</time>
      </trkpt>
      <trkpt lat="47.25869" lon="-2.29626">
        <ele>12</ele>
        <time>2022-07-17T07:30:13.000Z</time>
      </trkpt>
      <trkpt lat="47.25879" lon="-2.29622">
        <ele>12</ele>
        <time>2022-07-17T07:30:15.000Z</time>
      </trkpt>
      <trkpt lat="47.2589" lon="-2.29615">
        <ele>12</ele>
        <time>2022-07-17T07:30:18.000Z</time>
      </trkpt>
      <trkpt lat="47.25904" lon="-2.29598">
        <ele>12</ele>
        <time>2022-07-17T07:30:23.000Z</time>
      </trkpt>
      <trkpt lat="47.25904" lon="-2.29593">
        <ele>12</ele>
        <time>2022-07-17T07:30:24.000Z</time>
      </trkpt>
      <trkpt lat="47.25906" lon="-2.29579">
        <ele>12</ele>
        <time>2022-07-17T07:30:26.000Z</time>
      </trkpt>
      <trkpt lat="47.2591" lon="-2.29536">
        <ele>12.60000038147</ele>
        <time>2022-07-17T07:30:32.000Z</time>
      </trkpt>
      <trkpt lat="47.25911" lon="-2.29528">
        <ele>13</ele>
        <time>2022-07-17T07:30:33.000Z</time>
      </trkpt>
      <trkpt lat="47.25912" lon="-2.2952">
        <ele>13.39999961853</ele>
        <time>2022-07-17T07:30:34.000Z</time>
      </trkpt>
      <trkpt lat="47.25913" lon="-2.29512">
        <ele>13.800000190735</ele>
        <time>2022-07-17T07:30:35.000Z</time>
      </trkpt>
      <trkpt lat="47.25914" lon="-2.29504">
        <ele>14.199999809265</ele>
        <time>2022-07-17T07:30:36.000Z</time>
      </trkpt>
      <trkpt lat="47.25915" lon="-2.29489">
        <ele>14.199999809265</ele>
        <time>2022-07-17T07:30:38.000Z</time>
      </trkpt>
      <trkpt lat="47.25917" lon="-2.29467">
        <ele>14.60000038147</ele>
        <time>2022-07-17T07:30:41.000Z</time>
      </trkpt>
      <trkpt lat="47.25918" lon="-2.29452">
        <ele>15.60000038147</ele>
        <time>2022-07-17T07:30:43.000Z</time>
      </trkpt>
      <trkpt lat="47.25919" lon="-2.29445">
        <ele>16</ele>
        <time>2022-07-17T07:30:44.000Z</time>
      </trkpt>
      <trkpt lat="47.25921" lon="-2.29438">
        <ele>16.39999961853</ele>
        <time>2022-07-17T07:30:45.000Z</time>
      </trkpt>
      <trkpt lat="47.25923" lon="-2.29416">
        <ele>16.39999961853</ele>
        <time>2022-07-17T07:30:48.000Z</time>
      </trkpt>
      <trkpt lat="47.25926" lon="-2.29387">
        <ele>16.39999961853</ele>
        <time>2022-07-17T07:30:52.000Z</time>
      </trkpt>
      <trkpt lat="47.25928" lon="-2.2938">
        <ele>16.799999237061</ele>
        <time>2022-07-17T07:30:53.000Z</time>
      </trkpt>
      <trkpt lat="47.25928" lon="-2.29372">
        <ele>17.200000762939</ele>
        <time>2022-07-17T07:30:54.000Z</time>
      </trkpt>
      <trkpt lat="47.25929" lon="-2.29365">
        <ele>17.60000038147</ele>
        <time>2022-07-17T07:30:55.000Z</time>
      </trkpt>
      <trkpt lat="47.2593" lon="-2.29358">
        <ele>18</ele>
        <time>2022-07-17T07:30:56.000Z</time>
      </trkpt>
      <trkpt lat="47.25931" lon="-2.29351">
        <ele>18.60000038147</ele>
        <time>2022-07-17T07:30:57.000Z</time>
      </trkpt>
      <trkpt lat="47.25932" lon="-2.29337">
        <ele>18.60000038147</ele>
        <time>2022-07-17T07:30:59.000Z</time>
      </trkpt>
      <trkpt lat="47.25937" lon="-2.29289">
        <ele>19</ele>
        <time>2022-07-17T07:31:06.000Z</time>
      </trkpt>
      <trkpt lat="47.25938" lon="-2.29283">
        <ele>19.799999237061</ele>
        <time>2022-07-17T07:31:07.000Z</time>
      </trkpt>
      <trkpt lat="47.25939" lon="-2.29276">
        <ele>20.200000762939</ele>
        <time>2022-07-17T07:31:08.000Z</time>
      </trkpt>
      <trkpt lat="47.2594" lon="-2.29269">
        <ele>20.60000038147</ele>
        <time>2022-07-17T07:31:09.000Z</time>
      </trkpt>
      <trkpt lat="47.25944" lon="-2.29231">
        <ele>21</ele>
        <time>2022-07-17T07:31:15.000Z</time>
      </trkpt>
      <trkpt lat="47.25945" lon="-2.29224">
        <ele>21.39999961853</ele>
        <time>2022-07-17T07:31:16.000Z</time>
      </trkpt>
      <trkpt lat="47.25946" lon="-2.29218">
        <ele>21.799999237061</ele>
        <time>2022-07-17T07:31:17.000Z</time>
      </trkpt>
      <trkpt lat="47.25946" lon="-2.29211">
        <ele>22.200000762939</ele>
        <time>2022-07-17T07:31:18.000Z</time>
      </trkpt>
      <trkpt lat="47.25946" lon="-2.29205">
        <ele>22.60000038147</ele>
        <time>2022-07-17T07:31:19.000Z</time>
      </trkpt>
      <trkpt lat="47.25948" lon="-2.29173">
        <ele>22.60000038147</ele>
        <time>2022-07-17T07:31:24.000Z</time>
      </trkpt>
      <trkpt lat="47.25948" lon="-2.29166">
        <ele>22.60000038147</ele>
        <time>2022-07-17T07:31:25.000Z</time>
      </trkpt>
      <trkpt lat="47.25949" lon="-2.29148">
        <ele>22.60000038147</ele>
        <time>2022-07-17T07:31:28.000Z</time>
      </trkpt>
      <trkpt lat="47.25948" lon="-2.29142">
        <ele>23</ele>
        <time>2022-07-17T07:31:29.000Z</time>
      </trkpt>
      <trkpt lat="47.25948" lon="-2.29136">
        <ele>23.60000038147</ele>
        <time>2022-07-17T07:31:30.000Z</time>
      </trkpt>
      <trkpt lat="47.25949" lon="-2.2913">
        <ele>24</ele>
        <time>2022-07-17T07:31:31.000Z</time>
      </trkpt>
      <trkpt lat="47.25949" lon="-2.29124">
        <ele>24.799999237061</ele>
        <time>2022-07-17T07:31:32.000Z</time>
      </trkpt>
      <trkpt lat="47.25949" lon="-2.29071">
        <ele>24.799999237061</ele>
        <time>2022-07-17T07:31:41.000Z</time>
      </trkpt>
      <trkpt lat="47.25947" lon="-2.29035">
        <ele>25.200000762939</ele>
        <time>2022-07-17T07:31:47.000Z</time>
      </trkpt>
      <trkpt lat="47.25947" lon="-2.29029">
        <ele>25.60000038147</ele>
        <time>2022-07-17T07:31:48.000Z</time>
      </trkpt>
      <trkpt lat="47.25946" lon="-2.29022">
        <ele>26.200000762939</ele>
        <time>2022-07-17T07:31:49.000Z</time>
      </trkpt>
      <trkpt lat="47.25946" lon="-2.29016">
        <ele>26.60000038147</ele>
        <time>2022-07-17T07:31:50.000Z</time>
      </trkpt>
      <trkpt lat="47.25945" lon="-2.2901">
        <ele>27</ele>
        <time>2022-07-17T07:31:51.000Z</time>
      </trkpt>
      <trkpt lat="47.25942" lon="-2.28981">
        <ele>27</ele>
        <time>2022-07-17T07:31:56.000Z</time>
      </trkpt>
      <trkpt lat="47.25939" lon="-2.28946">
        <ele>27</ele>
        <time>2022-07-17T07:32:02.000Z</time>
      </trkpt>
      <trkpt lat="47.25933" lon="-2.28897">
        <ele>27</ele>
        <time>2022-07-17T07:32:10.000Z</time>
      </trkpt>
      <trkpt lat="47.25929" lon="-2.28861">
        <ele>27.39999961853</ele>
        <time>2022-07-17T07:32:16.000Z</time>
      </trkpt>
      <trkpt lat="47.25929" lon="-2.28855">
        <ele>28</ele>
        <time>2022-07-17T07:32:17.000Z</time>
      </trkpt>
      <trkpt lat="47.25929" lon="-2.28848">
        <ele>28.39999961853</ele>
        <time>2022-07-17T07:32:18.000Z</time>
      </trkpt>
      <trkpt lat="47.25928" lon="-2.28842">
        <ele>28.799999237061</ele>
        <time>2022-07-17T07:32:19.000Z</time>
      </trkpt>
      <trkpt lat="47.25928" lon="-2.28836">
        <ele>29.200000762939</ele>
        <time>2022-07-17T07:32:20.000Z</time>
      </trkpt>
      <trkpt lat="47.25927" lon="-2.2879">
        <ele>29.200000762939</ele>
        <time>2022-07-17T07:32:27.000Z</time>
      </trkpt>
      <trkpt lat="47.25928" lon="-2.28737">
        <ele>29.200000762939</ele>
        <time>2022-07-17T07:32:35.000Z</time>
      </trkpt>
      <trkpt lat="47.25927" lon="-2.28716">
        <ele>29.200000762939</ele>
        <time>2022-07-17T07:32:38.000Z</time>
      </trkpt>
      <trkpt lat="47.25928" lon="-2.28694">
        <ele>29.200000762939</ele>
        <time>2022-07-17T07:32:41.000Z</time>
      </trkpt>
      <trkpt lat="47.2593" lon="-2.28631">
        <ele>29.200000762939</ele>
        <time>2022-07-17T07:32:50.000Z</time>
      </trkpt>
      <trkpt lat="47.25933" lon="-2.28561">
        <ele>29.200000762939</ele>
        <time>2022-07-17T07:33:00.000Z</time>
      </trkpt>
      <trkpt lat="47.25934" lon="-2.28505">
        <ele>29.200000762939</ele>
        <time>2022-07-17T07:33:08.000Z</time>
      </trkpt>
      <trkpt lat="47.25934" lon="-2.28482">
        <ele>29.60000038147</ele>
        <time>2022-07-17T07:33:11.000Z</time>
      </trkpt>
      <trkpt lat="47.25934" lon="-2.28475">
        <ele>30.200000762939</ele>
        <time>2022-07-17T07:33:12.000Z</time>
      </trkpt>
      <trkpt lat="47.25934" lon="-2.28468">
        <ele>30.60000038147</ele>
        <time>2022-07-17T07:33:13.000Z</time>
      </trkpt>
      <trkpt lat="47.25934" lon="-2.28461">
        <ele>31</ele>
        <time>2022-07-17T07:33:14.000Z</time>
      </trkpt>
      <trkpt lat="47.25934" lon="-2.28453">
        <ele>31.39999961853</ele>
        <time>2022-07-17T07:33:15.000Z</time>
      </trkpt>
      <trkpt lat="47.25935" lon="-2.28446">
        <ele>31.39999961853</ele>
        <time>2022-07-17T07:33:16.000Z</time>
      </trkpt>
      <trkpt lat="47.25935" lon="-2.28384">
        <ele>31.39999961853</ele>
        <time>2022-07-17T07:33:25.000Z</time>
      </trkpt>
      <trkpt lat="47.25934" lon="-2.28315">
        <ele>31.39999961853</ele>
        <time>2022-07-17T07:33:35.000Z</time>
      </trkpt>
      <trkpt lat="47.2593" lon="-2.28276">
        <ele>31.39999961853</ele>
        <time>2022-07-17T07:33:41.000Z</time>
      </trkpt>
      <trkpt lat="47.25928" lon="-2.2827">
        <ele>31.39999961853</ele>
        <time>2022-07-17T07:33:42.000Z</time>
      </trkpt>
      <trkpt lat="47.25914" lon="-2.28251">
        <ele>31.39999961853</ele>
        <time>2022-07-17T07:33:46.000Z</time>
      </trkpt>
      <trkpt lat="47.25911" lon="-2.28245">
        <ele>31.39999961853</ele>
        <time>2022-07-17T07:33:47.000Z</time>
      </trkpt>
      <trkpt lat="47.25907" lon="-2.28217">
        <ele>31.39999961853</ele>
        <time>2022-07-17T07:33:51.000Z</time>
      </trkpt>
      <trkpt lat="47.25906" lon="-2.28211">
        <ele>31.39999961853</ele>
        <time>2022-07-17T07:33:52.000Z</time>
      </trkpt>
      <trkpt lat="47.25906" lon="-2.28204">
        <ele>31.39999961853</ele>
        <time>2022-07-17T07:33:53.000Z</time>
      </trkpt>
      <trkpt lat="47.2591" lon="-2.28191">
        <ele>31.39999961853</ele>
        <time>2022-07-17T07:33:55.000Z</time>
      </trkpt>
      <trkpt lat="47.25922" lon="-2.28182">
        <ele>31.39999961853</ele>
        <time>2022-07-17T07:33:58.000Z</time>
      </trkpt>
      <trkpt lat="47.25936" lon="-2.28177">
        <ele>31.39999961853</ele>
        <time>2022-07-17T07:34:01.000Z</time>
      </trkpt>
      <trkpt lat="47.25946" lon="-2.28177">
        <ele>31.39999961853</ele>
        <time>2022-07-17T07:34:03.000Z</time>
      </trkpt>
      <trkpt lat="47.25959" lon="-2.28187">
        <ele>31.39999961853</ele>
        <time>2022-07-17T07:34:06.000Z</time>
      </trkpt>
      <trkpt lat="47.25971" lon="-2.28215">
        <ele>31.39999961853</ele>
        <time>2022-07-17T07:34:10.000Z</time>
      </trkpt>
      <trkpt lat="47.25985" lon="-2.28237">
        <ele>31.39999961853</ele>
        <time>2022-07-17T07:34:14.000Z</time>
      </trkpt>
      <trkpt lat="47.25997" lon="-2.28241">
        <ele>31.39999961853</ele>
        <time>2022-07-17T07:34:16.000Z</time>
      </trkpt>
      <trkpt lat="47.26009" lon="-2.28246">
        <ele>31.39999961853</ele>
        <time>2022-07-17T07:34:18.000Z</time>
      </trkpt>
      <trkpt lat="47.26042" lon="-2.28267">
        <ele>31.39999961853</ele>
        <time>2022-07-17T07:34:24.000Z</time>
      </trkpt>
      <trkpt lat="47.26073" lon="-2.28291">
        <ele>31.39999961853</ele>
        <time>2022-07-17T07:34:30.000Z</time>
      </trkpt>
      <trkpt lat="47.26103" lon="-2.28318">
        <ele>31.39999961853</ele>
        <time>2022-07-17T07:34:36.000Z</time>
      </trkpt>
      <trkpt lat="47.26108" lon="-2.28323">
        <ele>31</ele>
        <time>2022-07-17T07:34:37.000Z</time>
      </trkpt>
      <trkpt lat="47.26113" lon="-2.28328">
        <ele>30.60000038147</ele>
        <time>2022-07-17T07:34:38.000Z</time>
      </trkpt>
      <trkpt lat="47.26118" lon="-2.28332">
        <ele>30.200000762939</ele>
        <time>2022-07-17T07:34:39.000Z</time>
      </trkpt>
      <trkpt lat="47.26123" lon="-2.28337">
        <ele>29.799999237061</ele>
        <time>2022-07-17T07:34:40.000Z</time>
      </trkpt>
      <trkpt lat="47.26128" lon="-2.28341">
        <ele>29.39999961853</ele>
        <time>2022-07-17T07:34:41.000Z</time>
      </trkpt>
      <trkpt lat="47.26147" lon="-2.28359">
        <ele>29.39999961853</ele>
        <time>2022-07-17T07:34:45.000Z</time>
      </trkpt>
      <trkpt lat="47.26179" lon="-2.28394">
        <ele>29.39999961853</ele>
        <time>2022-07-17T07:34:53.000Z</time>
      </trkpt>
      <trkpt lat="47.2621" lon="-2.28423">
        <ele>29.39999961853</ele>
        <time>2022-07-17T07:35:00.000Z</time>
      </trkpt>
      <trkpt lat="47.26238" lon="-2.28445">
        <ele>29.39999961853</ele>
        <time>2022-07-17T07:35:06.000Z</time>
      </trkpt>
      <trkpt lat="47.26271" lon="-2.28469">
        <ele>29.39999961853</ele>
        <time>2022-07-17T07:35:13.000Z</time>
      </trkpt>
      <trkpt lat="47.26302" lon="-2.28489">
        <ele>29.39999961853</ele>
        <time>2022-07-17T07:35:20.000Z</time>
      </trkpt>
      <trkpt lat="47.26307" lon="-2.28492">
        <ele>29.39999961853</ele>
        <time>2022-07-17T07:35:21.000Z</time>
      </trkpt>
      <trkpt lat="47.26325" lon="-2.2851">
        <ele>29</ele>
        <time>2022-07-17T07:35:25.000Z</time>
      </trkpt>
      <trkpt lat="47.2633" lon="-2.28514">
        <ele>28.60000038147</ele>
        <time>2022-07-17T07:35:26.000Z</time>
      </trkpt>
      <trkpt lat="47.26335" lon="-2.28519">
        <ele>28.200000762939</ele>
        <time>2022-07-17T07:35:27.000Z</time>
      </trkpt>
      <trkpt lat="47.26341" lon="-2.28523">
        <ele>27.799999237061</ele>
        <time>2022-07-17T07:35:28.000Z</time>
      </trkpt>
      <trkpt lat="47.26346" lon="-2.28527">
        <ele>27.39999961853</ele>
        <time>2022-07-17T07:35:29.000Z</time>
      </trkpt>
      <trkpt lat="47.26357" lon="-2.28534">
        <ele>27.39999961853</ele>
        <time>2022-07-17T07:35:31.000Z</time>
      </trkpt>
      <trkpt lat="47.2639" lon="-2.28555">
        <ele>27.39999961853</ele>
        <time>2022-07-17T07:35:37.000Z</time>
      </trkpt>
      <trkpt lat="47.2643" lon="-2.28579">
        <ele>27.39999961853</ele>
        <time>2022-07-17T07:35:44.000Z</time>
      </trkpt>
      <trkpt lat="47.26465" lon="-2.28594">
        <ele>27.39999961853</ele>
        <time>2022-07-17T07:35:50.000Z</time>
      </trkpt>
      <trkpt lat="47.26501" lon="-2.28614">
        <ele>27.39999961853</ele>
        <time>2022-07-17T07:35:57.000Z</time>
      </trkpt>
      <trkpt lat="47.26525" lon="-2.28642">
        <ele>27.39999961853</ele>
        <time>2022-07-17T07:36:02.000Z</time>
      </trkpt>
      <trkpt lat="47.26536" lon="-2.28657">
        <ele>26.39999961853</ele>
        <time>2022-07-17T07:36:04.000Z</time>
      </trkpt>
      <trkpt lat="47.26541" lon="-2.28665">
        <ele>26</ele>
        <time>2022-07-17T07:36:05.000Z</time>
      </trkpt>
      <trkpt lat="47.26547" lon="-2.28672">
        <ele>25.60000038147</ele>
        <time>2022-07-17T07:36:06.000Z</time>
      </trkpt>
      <trkpt lat="47.26552" lon="-2.28677">
        <ele>25.200000762939</ele>
        <time>2022-07-17T07:36:07.000Z</time>
      </trkpt>
      <trkpt lat="47.26578" lon="-2.28703">
        <ele>24.799999237061</ele>
        <time>2022-07-17T07:36:12.000Z</time>
      </trkpt>
      <trkpt lat="47.26583" lon="-2.28709">
        <ele>24.39999961853</ele>
        <time>2022-07-17T07:36:13.000Z</time>
      </trkpt>
      <trkpt lat="47.26588" lon="-2.28715">
        <ele>24</ele>
        <time>2022-07-17T07:36:14.000Z</time>
      </trkpt>
      <trkpt lat="47.26593" lon="-2.28721">
        <ele>23.60000038147</ele>
        <time>2022-07-17T07:36:15.000Z</time>
      </trkpt>
      <trkpt lat="47.26598" lon="-2.28726">
        <ele>23.200000762939</ele>
        <time>2022-07-17T07:36:16.000Z</time>
      </trkpt>
      <trkpt lat="47.26603" lon="-2.28731">
        <ele>23.200000762939</ele>
        <time>2022-07-17T07:36:17.000Z</time>
      </trkpt>
      <trkpt lat="47.2663" lon="-2.28757">
        <ele>23.200000762939</ele>
        <time>2022-07-17T07:36:22.000Z</time>
      </trkpt>
      <trkpt lat="47.26668" lon="-2.28796">
        <ele>23.200000762939</ele>
        <time>2022-07-17T07:36:29.000Z</time>
      </trkpt>
      <trkpt lat="47.26691" lon="-2.28819">
        <ele>22.799999237061</ele>
        <time>2022-07-17T07:36:33.000Z</time>
      </trkpt>
      <trkpt lat="47.26697" lon="-2.28824">
        <ele>22.200000762939</ele>
        <time>2022-07-17T07:36:34.000Z</time>
      </trkpt>
      <trkpt lat="47.26702" lon="-2.2883">
        <ele>21.799999237061</ele>
        <time>2022-07-17T07:36:35.000Z</time>
      </trkpt>
      <trkpt lat="47.26707" lon="-2.28836">
        <ele>21.39999961853</ele>
        <time>2022-07-17T07:36:36.000Z</time>
      </trkpt>
      <trkpt lat="47.26713" lon="-2.28841">
        <ele>21</ele>
        <time>2022-07-17T07:36:37.000Z</time>
      </trkpt>
      <trkpt lat="47.26735" lon="-2.28859">
        <ele>21</ele>
        <time>2022-07-17T07:36:41.000Z</time>
      </trkpt>
      <trkpt lat="47.26774" lon="-2.28893">
        <ele>21</ele>
        <time>2022-07-17T07:36:48.000Z</time>
      </trkpt>
      <trkpt lat="47.26805" lon="-2.28913">
        <ele>21</ele>
        <time>2022-07-17T07:36:53.000Z</time>
      </trkpt>
      <trkpt lat="47.26843" lon="-2.28935">
        <ele>21</ele>
        <time>2022-07-17T07:36:59.000Z</time>
      </trkpt>
      <trkpt lat="47.26868" lon="-2.28949">
        <ele>20.60000038147</ele>
        <time>2022-07-17T07:37:03.000Z</time>
      </trkpt>
      <trkpt lat="47.26875" lon="-2.28953">
        <ele>20.200000762939</ele>
        <time>2022-07-17T07:37:04.000Z</time>
      </trkpt>
      <trkpt lat="47.26881" lon="-2.28957">
        <ele>19.799999237061</ele>
        <time>2022-07-17T07:37:05.000Z</time>
      </trkpt>
      <trkpt lat="47.26887" lon="-2.2896">
        <ele>19.39999961853</ele>
        <time>2022-07-17T07:37:06.000Z</time>
      </trkpt>
      <trkpt lat="47.26893" lon="-2.28963">
        <ele>19</ele>
        <time>2022-07-17T07:37:07.000Z</time>
      </trkpt>
      <trkpt lat="47.26905" lon="-2.28969">
        <ele>19</ele>
        <time>2022-07-17T07:37:09.000Z</time>
      </trkpt>
      <trkpt lat="47.26945" lon="-2.28989">
        <ele>19</ele>
        <time>2022-07-17T07:37:15.000Z</time>
      </trkpt>
      <trkpt lat="47.26996" lon="-2.29003">
        <ele>19</ele>
        <time>2022-07-17T07:37:22.000Z</time>
      </trkpt>
      <trkpt lat="47.27025" lon="-2.29012">
        <ele>19</ele>
        <time>2022-07-17T07:37:27.000Z</time>
      </trkpt>
      <trkpt lat="47.27034" lon="-2.29016">
        <ele>19</ele>
        <time>2022-07-17T07:37:29.000Z</time>
      </trkpt>
      <trkpt lat="47.2704" lon="-2.29024">
        <ele>19</ele>
        <time>2022-07-17T07:37:31.000Z</time>
      </trkpt>
      <trkpt lat="47.27047" lon="-2.29042">
        <ele>19</ele>
        <time>2022-07-17T07:37:34.000Z</time>
      </trkpt>
      <trkpt lat="47.2705" lon="-2.29047">
        <ele>19</ele>
        <time>2022-07-17T07:37:35.000Z</time>
      </trkpt>
      <trkpt lat="47.27063" lon="-2.29058">
        <ele>19</ele>
        <time>2022-07-17T07:37:38.000Z</time>
      </trkpt>
      <trkpt lat="47.27069" lon="-2.2906">
        <ele>19</ele>
        <time>2022-07-17T07:37:39.000Z</time>
      </trkpt>
      <trkpt lat="47.27094" lon="-2.29069">
        <ele>19</ele>
        <time>2022-07-17T07:37:43.000Z</time>
      </trkpt>
      <trkpt lat="47.27105" lon="-2.29075">
        <ele>18.60000038147</ele>
        <time>2022-07-17T07:37:45.000Z</time>
      </trkpt>
      <trkpt lat="47.27111" lon="-2.29078">
        <ele>18.200000762939</ele>
        <time>2022-07-17T07:37:46.000Z</time>
      </trkpt>
      <trkpt lat="47.27118" lon="-2.29081">
        <ele>17.799999237061</ele>
        <time>2022-07-17T07:37:47.000Z</time>
      </trkpt>
      <trkpt lat="47.27124" lon="-2.29084">
        <ele>17.39999961853</ele>
        <time>2022-07-17T07:37:48.000Z</time>
      </trkpt>
      <trkpt lat="47.27131" lon="-2.29087">
        <ele>17</ele>
        <time>2022-07-17T07:37:49.000Z</time>
      </trkpt>
      <trkpt lat="47.27143" lon="-2.29093">
        <ele>17</ele>
        <time>2022-07-17T07:37:51.000Z</time>
      </trkpt>
      <trkpt lat="47.27174" lon="-2.2911">
        <ele>17</ele>
        <time>2022-07-17T07:37:56.000Z</time>
      </trkpt>
      <trkpt lat="47.27179" lon="-2.29112">
        <ele>17</ele>
        <time>2022-07-17T07:37:57.000Z</time>
      </trkpt>
      <trkpt lat="47.27188" lon="-2.2911">
        <ele>17</ele>
        <time>2022-07-17T07:37:59.000Z</time>
      </trkpt>
      <trkpt lat="47.27206" lon="-2.29095">
        <ele>17</ele>
        <time>2022-07-17T07:38:03.000Z</time>
      </trkpt>
      <trkpt lat="47.27211" lon="-2.2909">
        <ele>17</ele>
        <time>2022-07-17T07:38:04.000Z</time>
      </trkpt>
      <trkpt lat="47.27226" lon="-2.29074">
        <ele>17</ele>
        <time>2022-07-17T07:38:07.000Z</time>
      </trkpt>
      <trkpt lat="47.27238" lon="-2.29065">
        <ele>17</ele>
        <time>2022-07-17T07:38:09.000Z</time>
      </trkpt>
      <trkpt lat="47.27248" lon="-2.29057">
        <ele>17</ele>
        <time>2022-07-17T07:38:11.000Z</time>
      </trkpt>
      <trkpt lat="47.27265" lon="-2.29037">
        <ele>17</ele>
        <time>2022-07-17T07:38:15.000Z</time>
      </trkpt>
      <trkpt lat="47.27269" lon="-2.2903">
        <ele>17</ele>
        <time>2022-07-17T07:38:16.000Z</time>
      </trkpt>
      <trkpt lat="47.27278" lon="-2.2901">
        <ele>17</ele>
        <time>2022-07-17T07:38:19.000Z</time>
      </trkpt>
      <trkpt lat="47.27285" lon="-2.28999">
        <ele>17</ele>
        <time>2022-07-17T07:38:21.000Z</time>
      </trkpt>
      <trkpt lat="47.27296" lon="-2.28984">
        <ele>17</ele>
        <time>2022-07-17T07:38:24.000Z</time>
      </trkpt>
      <trkpt lat="47.27302" lon="-2.28975">
        <ele>16.60000038147</ele>
        <time>2022-07-17T07:38:26.000Z</time>
      </trkpt>
      <trkpt lat="47.27305" lon="-2.2897">
        <ele>16.200000762939</ele>
        <time>2022-07-17T07:38:27.000Z</time>
      </trkpt>
      <trkpt lat="47.27306" lon="-2.28965">
        <ele>15.800000190735</ele>
        <time>2022-07-17T07:38:28.000Z</time>
      </trkpt>
      <trkpt lat="47.27308" lon="-2.28961">
        <ele>15.39999961853</ele>
        <time>2022-07-17T07:38:29.000Z</time>
      </trkpt>
      <trkpt lat="47.2731" lon="-2.28956">
        <ele>15</ele>
        <time>2022-07-17T07:38:30.000Z</time>
      </trkpt>
      <trkpt lat="47.27318" lon="-2.28953">
        <ele>15</ele>
        <time>2022-07-17T07:38:32.000Z</time>
      </trkpt>
      <trkpt lat="47.27331" lon="-2.28965">
        <ele>15</ele>
        <time>2022-07-17T07:38:35.000Z</time>
      </trkpt>
      <trkpt lat="47.27333" lon="-2.28971">
        <ele>15</ele>
        <time>2022-07-17T07:38:36.000Z</time>
      </trkpt>
      <trkpt lat="47.27335" lon="-2.28983">
        <ele>15</ele>
        <time>2022-07-17T07:38:38.000Z</time>
      </trkpt>
      <trkpt lat="47.27338" lon="-2.28999">
        <ele>15</ele>
        <time>2022-07-17T07:38:41.000Z</time>
      </trkpt>
      <trkpt lat="47.27337" lon="-2.29006">
        <ele>15</ele>
        <time>2022-07-17T07:38:43.000Z</time>
      </trkpt>
      <trkpt lat="47.2734" lon="-2.29026">
        <ele>15</ele>
        <time>2022-07-17T07:38:48.000Z</time>
      </trkpt>
      <trkpt lat="47.27345" lon="-2.29035">
        <ele>15</ele>
        <time>2022-07-17T07:38:50.000Z</time>
      </trkpt>
      <trkpt lat="47.27353" lon="-2.2904">
        <ele>15</ele>
        <time>2022-07-17T07:38:52.000Z</time>
      </trkpt>
      <trkpt lat="47.27363" lon="-2.29042">
        <ele>15</ele>
        <time>2022-07-17T07:38:54.000Z</time>
      </trkpt>
      <trkpt lat="47.27379" lon="-2.29043">
        <ele>15</ele>
        <time>2022-07-17T07:38:57.000Z</time>
      </trkpt>
      <trkpt lat="47.27395" lon="-2.29043">
        <ele>15</ele>
        <time>2022-07-17T07:39:00.000Z</time>
      </trkpt>
      <trkpt lat="47.27406" lon="-2.2904">
        <ele>15</ele>
        <time>2022-07-17T07:39:02.000Z</time>
      </trkpt>
      <trkpt lat="47.27418" lon="-2.29037">
        <ele>15</ele>
        <time>2022-07-17T07:39:04.000Z</time>
      </trkpt>
      <trkpt lat="47.27428" lon="-2.2903">
        <ele>15</ele>
        <time>2022-07-17T07:39:06.000Z</time>
      </trkpt>
      <trkpt lat="47.27444" lon="-2.29003">
        <ele>15</ele>
        <time>2022-07-17T07:39:10.000Z</time>
      </trkpt>
      <trkpt lat="47.2746" lon="-2.28962">
        <ele>15</ele>
        <time>2022-07-17T07:39:15.000Z</time>
      </trkpt>
      <trkpt lat="47.27465" lon="-2.28954">
        <ele>15</ele>
        <time>2022-07-17T07:39:16.000Z</time>
      </trkpt>
      <trkpt lat="47.27487" lon="-2.2893">
        <ele>15</ele>
        <time>2022-07-17T07:39:20.000Z</time>
      </trkpt>
      <trkpt lat="47.27499" lon="-2.28922">
        <ele>15</ele>
        <time>2022-07-17T07:39:22.000Z</time>
      </trkpt>
      <trkpt lat="47.27523" lon="-2.28907">
        <ele>15</ele>
        <time>2022-07-17T07:39:26.000Z</time>
      </trkpt>
      <trkpt lat="47.27541" lon="-2.28896">
        <ele>15</ele>
        <time>2022-07-17T07:39:29.000Z</time>
      </trkpt>
      <trkpt lat="47.27552" lon="-2.28889">
        <ele>15</ele>
        <time>2022-07-17T07:39:31.000Z</time>
      </trkpt>
      <trkpt lat="47.27581" lon="-2.28869">
        <ele>15</ele>
        <time>2022-07-17T07:39:36.000Z</time>
      </trkpt>
      <trkpt lat="47.27613" lon="-2.28856">
        <ele>15</ele>
        <time>2022-07-17T07:39:41.000Z</time>
      </trkpt>
      <trkpt lat="47.27625" lon="-2.28855">
        <ele>15</ele>
        <time>2022-07-17T07:39:43.000Z</time>
      </trkpt>
      <trkpt lat="47.27645" lon="-2.28848">
        <ele>15</ele>
        <time>2022-07-17T07:39:46.000Z</time>
      </trkpt>
      <trkpt lat="47.27685" lon="-2.28833">
        <ele>15</ele>
        <time>2022-07-17T07:39:52.000Z</time>
      </trkpt>
      <trkpt lat="47.27716" lon="-2.28821">
        <ele>15</ele>
        <time>2022-07-17T07:39:57.000Z</time>
      </trkpt>
      <trkpt lat="47.27728" lon="-2.28816">
        <ele>14.60000038147</ele>
        <time>2022-07-17T07:39:59.000Z</time>
      </trkpt>
      <trkpt lat="47.27734" lon="-2.28814">
        <ele>14.199999809265</ele>
        <time>2022-07-17T07:40:00.000Z</time>
      </trkpt>
      <trkpt lat="47.2774" lon="-2.28812">
        <ele>13.800000190735</ele>
        <time>2022-07-17T07:40:01.000Z</time>
      </trkpt>
      <trkpt lat="47.27746" lon="-2.28811">
        <ele>13.39999961853</ele>
        <time>2022-07-17T07:40:02.000Z</time>
      </trkpt>
      <trkpt lat="47.27753" lon="-2.28809">
        <ele>13</ele>
        <time>2022-07-17T07:40:03.000Z</time>
      </trkpt>
      <trkpt lat="47.27774" lon="-2.28803">
        <ele>13</ele>
        <time>2022-07-17T07:40:07.000Z</time>
      </trkpt>
      <trkpt lat="47.27784" lon="-2.28803">
        <ele>13</ele>
        <time>2022-07-17T07:40:09.000Z</time>
      </trkpt>
      <trkpt lat="47.27811" lon="-2.28798">
        <ele>13</ele>
        <time>2022-07-17T07:40:15.000Z</time>
      </trkpt>
      <trkpt lat="47.27816" lon="-2.28798">
        <ele>13</ele>
        <time>2022-07-17T07:40:16.000Z</time>
      </trkpt>
      <trkpt lat="47.27834" lon="-2.28802">
        <ele>13</ele>
        <time>2022-07-17T07:40:20.000Z</time>
      </trkpt>
      <trkpt lat="47.27852" lon="-2.28813">
        <ele>13</ele>
        <time>2022-07-17T07:40:25.000Z</time>
      </trkpt>
      <trkpt lat="47.27855" lon="-2.28815">
        <ele>13</ele>
        <time>2022-07-17T07:40:26.000Z</time>
      </trkpt>
      <trkpt lat="47.27864" lon="-2.28815">
        <ele>13</ele>
        <time>2022-07-17T07:40:29.000Z</time>
      </trkpt>
      <trkpt lat="47.27866" lon="-2.28813">
        <ele>13</ele>
        <time>2022-07-17T07:40:30.000Z</time>
      </trkpt>
      <trkpt lat="47.27869" lon="-2.28804">
        <ele>13</ele>
        <time>2022-07-17T07:40:32.000Z</time>
      </trkpt>
      <trkpt lat="47.27873" lon="-2.28786">
        <ele>13</ele>
        <time>2022-07-17T07:40:35.000Z</time>
      </trkpt>
      <trkpt lat="47.27875" lon="-2.28781">
        <ele>13</ele>
        <time>2022-07-17T07:40:36.000Z</time>
      </trkpt>
      <trkpt lat="47.27877" lon="-2.28776">
        <ele>13</ele>
        <time>2022-07-17T07:40:37.000Z</time>
      </trkpt>
      <trkpt lat="47.27889" lon="-2.28769">
        <ele>13</ele>
        <time>2022-07-17T07:40:40.000Z</time>
      </trkpt>
      <trkpt lat="47.27894" lon="-2.28768">
        <ele>13</ele>
        <time>2022-07-17T07:40:41.000Z</time>
      </trkpt>
      <trkpt lat="47.27924" lon="-2.28759">
        <ele>13</ele>
        <time>2022-07-17T07:40:47.000Z</time>
      </trkpt>
      <trkpt lat="47.27961" lon="-2.28748">
        <ele>13</ele>
        <time>2022-07-17T07:40:54.000Z</time>
      </trkpt>
      <trkpt lat="47.27967" lon="-2.28747">
        <ele>13</ele>
        <time>2022-07-17T07:40:55.000Z</time>
      </trkpt>
      <trkpt lat="47.27992" lon="-2.28749">
        <ele>13</ele>
        <time>2022-07-17T07:40:59.000Z</time>
      </trkpt>
      <trkpt lat="47.28039" lon="-2.28759">
        <ele>13</ele>
        <time>2022-07-17T07:41:07.000Z</time>
      </trkpt>
      <trkpt lat="47.28074" lon="-2.2877">
        <ele>13</ele>
        <time>2022-07-17T07:41:13.000Z</time>
      </trkpt>
      <trkpt lat="47.28101" lon="-2.28783">
        <ele>13</ele>
        <time>2022-07-17T07:41:18.000Z</time>
      </trkpt>
      <trkpt lat="47.28111" lon="-2.28789">
        <ele>13</ele>
        <time>2022-07-17T07:41:20.000Z</time>
      </trkpt>
      <trkpt lat="47.2814" lon="-2.2881">
        <ele>13.39999961853</ele>
        <time>2022-07-17T07:41:26.000Z</time>
      </trkpt>
      <trkpt lat="47.28145" lon="-2.28813">
        <ele>13.800000190735</ele>
        <time>2022-07-17T07:41:27.000Z</time>
      </trkpt>
      <trkpt lat="47.28149" lon="-2.28817">
        <ele>14.199999809265</ele>
        <time>2022-07-17T07:41:28.000Z</time>
      </trkpt>
      <trkpt lat="47.28154" lon="-2.28821">
        <ele>14.60000038147</ele>
        <time>2022-07-17T07:41:29.000Z</time>
      </trkpt>
      <trkpt lat="47.28159" lon="-2.28825">
        <ele>15</ele>
        <time>2022-07-17T07:41:30.000Z</time>
      </trkpt>
      <trkpt lat="47.28168" lon="-2.28833">
        <ele>15</ele>
        <time>2022-07-17T07:41:32.000Z</time>
      </trkpt>
      <trkpt lat="47.2818" lon="-2.28846">
        <ele>15</ele>
        <time>2022-07-17T07:41:35.000Z</time>
      </trkpt>
      <trkpt lat="47.28188" lon="-2.28855">
        <ele>15.39999961853</ele>
        <time>2022-07-17T07:41:37.000Z</time>
      </trkpt>
      <trkpt lat="47.28193" lon="-2.2886">
        <ele>15.800000190735</ele>
        <time>2022-07-17T07:41:38.000Z</time>
      </trkpt>
      <trkpt lat="47.28198" lon="-2.28864">
        <ele>16.39999961853</ele>
        <time>2022-07-17T07:41:39.000Z</time>
      </trkpt>
      <trkpt lat="47.28203" lon="-2.28867">
        <ele>16.799999237061</ele>
        <time>2022-07-17T07:41:40.000Z</time>
      </trkpt>
      <trkpt lat="47.28208" lon="-2.2887">
        <ele>17.200000762939</ele>
        <time>2022-07-17T07:41:41.000Z</time>
      </trkpt>
      <trkpt lat="47.28218" lon="-2.28871">
        <ele>17.200000762939</ele>
        <time>2022-07-17T07:41:43.000Z</time>
      </trkpt>
      <trkpt lat="47.28229" lon="-2.28856">
        <ele>17.200000762939</ele>
        <time>2022-07-17T07:41:46.000Z</time>
      </trkpt>
      <trkpt lat="47.28236" lon="-2.28822">
        <ele>17.200000762939</ele>
        <time>2022-07-17T07:41:50.000Z</time>
      </trkpt>
      <trkpt lat="47.28237" lon="-2.28814">
        <ele>17.200000762939</ele>
        <time>2022-07-17T07:41:51.000Z</time>
      </trkpt>
      <trkpt lat="47.28244" lon="-2.28773">
        <ele>17.200000762939</ele>
        <time>2022-07-17T07:41:56.000Z</time>
      </trkpt>
      <trkpt lat="47.28254" lon="-2.28714">
        <ele>17.200000762939</ele>
        <time>2022-07-17T07:42:03.000Z</time>
      </trkpt>
      <trkpt lat="47.28266" lon="-2.28656">
        <ele>17.200000762939</ele>
        <time>2022-07-17T07:42:10.000Z</time>
      </trkpt>
      <trkpt lat="47.28278" lon="-2.28598">
        <ele>17.200000762939</ele>
        <time>2022-07-17T07:42:17.000Z</time>
      </trkpt>
      <trkpt lat="47.28287" lon="-2.28545">
        <ele>17.200000762939</ele>
        <time>2022-07-17T07:42:23.000Z</time>
      </trkpt>
      <trkpt lat="47.28294" lon="-2.28496">
        <ele>17.200000762939</ele>
        <time>2022-07-17T07:42:29.000Z</time>
      </trkpt>
      <trkpt lat="47.28303" lon="-2.2845">
        <ele>17.200000762939</ele>
        <time>2022-07-17T07:42:35.000Z</time>
      </trkpt>
      <trkpt lat="47.28311" lon="-2.2842">
        <ele>18</ele>
        <time>2022-07-17T07:42:39.000Z</time>
      </trkpt>
      <trkpt lat="47.28314" lon="-2.28412">
        <ele>18.39999961853</ele>
        <time>2022-07-17T07:42:40.000Z</time>
      </trkpt>
      <trkpt lat="47.28316" lon="-2.28405">
        <ele>18.799999237061</ele>
        <time>2022-07-17T07:42:41.000Z</time>
      </trkpt>
      <trkpt lat="47.28318" lon="-2.28397">
        <ele>19.200000762939</ele>
        <time>2022-07-17T07:42:42.000Z</time>
      </trkpt>
      <trkpt lat="47.2832" lon="-2.28382">
        <ele>19.200000762939</ele>
        <time>2022-07-17T07:42:44.000Z</time>
      </trkpt>
      <trkpt lat="47.28323" lon="-2.28358">
        <ele>19.200000762939</ele>
        <time>2022-07-17T07:42:47.000Z</time>
      </trkpt>
      <trkpt lat="47.28325" lon="-2.28318">
        <ele>19.200000762939</ele>
        <time>2022-07-17T07:42:52.000Z</time>
      </trkpt>
      <trkpt lat="47.28325" lon="-2.28303">
        <ele>19.200000762939</ele>
        <time>2022-07-17T07:42:54.000Z</time>
      </trkpt>
      <trkpt lat="47.28325" lon="-2.2825">
        <ele>19.200000762939</ele>
        <time>2022-07-17T07:43:00.000Z</time>
      </trkpt>
      <trkpt lat="47.28325" lon="-2.28211">
        <ele>18.39999961853</ele>
        <time>2022-07-17T07:43:04.000Z</time>
      </trkpt>
      <trkpt lat="47.28325" lon="-2.28201">
        <ele>18</ele>
        <time>2022-07-17T07:43:05.000Z</time>
      </trkpt>
      <trkpt lat="47.28325" lon="-2.28191">
        <ele>17.39999961853</ele>
        <time>2022-07-17T07:43:06.000Z</time>
      </trkpt>
      <trkpt lat="47.28325" lon="-2.28181">
        <ele>17</ele>
        <time>2022-07-17T07:43:07.000Z</time>
      </trkpt>
      <trkpt lat="47.28324" lon="-2.2817">
        <ele>16.60000038147</ele>
        <time>2022-07-17T07:43:08.000Z</time>
      </trkpt>
      <trkpt lat="47.28324" lon="-2.28159">
        <ele>16.200000762939</ele>
        <time>2022-07-17T07:43:09.000Z</time>
      </trkpt>
      <trkpt lat="47.28324" lon="-2.28148">
        <ele>15.800000190735</ele>
        <time>2022-07-17T07:43:10.000Z</time>
      </trkpt>
      <trkpt lat="47.28324" lon="-2.28136">
        <ele>15.39999961853</ele>
        <time>2022-07-17T07:43:11.000Z</time>
      </trkpt>
      <trkpt lat="47.28324" lon="-2.28124">
        <ele>14.800000190735</ele>
        <time>2022-07-17T07:43:12.000Z</time>
      </trkpt>
      <trkpt lat="47.28325" lon="-2.28113">
        <ele>14.199999809265</ele>
        <time>2022-07-17T07:43:13.000Z</time>
      </trkpt>
      <trkpt lat="47.28326" lon="-2.28102">
        <ele>13.60000038147</ele>
        <time>2022-07-17T07:43:14.000Z</time>
      </trkpt>
      <trkpt lat="47.28326" lon="-2.28093">
        <ele>13</ele>
        <time>2022-07-17T07:43:15.000Z</time>
      </trkpt>
      <trkpt lat="47.28326" lon="-2.28082">
        <ele>12.39999961853</ele>
        <time>2022-07-17T07:43:16.000Z</time>
      </trkpt>
      <trkpt lat="47.28327" lon="-2.28073">
        <ele>12.39999961853</ele>
        <time>2022-07-17T07:43:17.000Z</time>
      </trkpt>
      <trkpt lat="47.28326" lon="-2.28056">
        <ele>12.39999961853</ele>
        <time>2022-07-17T07:43:19.000Z</time>
      </trkpt>
      <trkpt lat="47.28326" lon="-2.28032">
        <ele>12.39999961853</ele>
        <time>2022-07-17T07:43:22.000Z</time>
      </trkpt>
      <trkpt lat="47.28328" lon="-2.28007">
        <ele>12.39999961853</ele>
        <time>2022-07-17T07:43:26.000Z</time>
      </trkpt>
      <trkpt lat="47.28327" lon="-2.28001">
        <ele>13</ele>
        <time>2022-07-17T07:43:27.000Z</time>
      </trkpt>
      <trkpt lat="47.28325" lon="-2.27997">
        <ele>13.39999961853</ele>
        <time>2022-07-17T07:43:28.000Z</time>
      </trkpt>
      <trkpt lat="47.28323" lon="-2.27991">
        <ele>14.199999809265</ele>
        <time>2022-07-17T07:43:29.000Z</time>
      </trkpt>
      <trkpt lat="47.28322" lon="-2.27986">
        <ele>14.800000190735</ele>
        <time>2022-07-17T07:43:30.000Z</time>
      </trkpt>
      <trkpt lat="47.28324" lon="-2.27972">
        <ele>15.199999809265</ele>
        <time>2022-07-17T07:43:33.000Z</time>
      </trkpt>
      <trkpt lat="47.28324" lon="-2.27966">
        <ele>15.60000038147</ele>
        <time>2022-07-17T07:43:34.000Z</time>
      </trkpt>
      <trkpt lat="47.28325" lon="-2.2796">
        <ele>16.200000762939</ele>
        <time>2022-07-17T07:43:35.000Z</time>
      </trkpt>
      <trkpt lat="47.28325" lon="-2.27953">
        <ele>16.60000038147</ele>
        <time>2022-07-17T07:43:36.000Z</time>
      </trkpt>
      <trkpt lat="47.28325" lon="-2.27946">
        <ele>17.200000762939</ele>
        <time>2022-07-17T07:43:37.000Z</time>
      </trkpt>
      <trkpt lat="47.28328" lon="-2.27887">
        <ele>17.200000762939</ele>
        <time>2022-07-17T07:43:45.000Z</time>
      </trkpt>
      <trkpt lat="47.28329" lon="-2.27856">
        <ele>17.200000762939</ele>
        <time>2022-07-17T07:43:49.000Z</time>
      </trkpt>
      <trkpt lat="47.28331" lon="-2.2784">
        <ele>17.200000762939</ele>
        <time>2022-07-17T07:43:51.000Z</time>
      </trkpt>
      <trkpt lat="47.28336" lon="-2.27783">
        <ele>17.200000762939</ele>
        <time>2022-07-17T07:43:58.000Z</time>
      </trkpt>
      <trkpt lat="47.2834" lon="-2.27724">
        <ele>17.200000762939</ele>
        <time>2022-07-17T07:44:05.000Z</time>
      </trkpt>
      <trkpt lat="47.28343" lon="-2.27694">
        <ele>17.200000762939</ele>
        <time>2022-07-17T07:44:09.000Z</time>
      </trkpt>
      <trkpt lat="47.28344" lon="-2.27688">
        <ele>17.200000762939</ele>
        <time>2022-07-17T07:44:10.000Z</time>
      </trkpt>
      <trkpt lat="47.28346" lon="-2.2767">
        <ele>17.200000762939</ele>
        <time>2022-07-17T07:44:13.000Z</time>
      </trkpt>
      <trkpt lat="47.28347" lon="-2.27658">
        <ele>17.200000762939</ele>
        <time>2022-07-17T07:44:15.000Z</time>
      </trkpt>
      <trkpt lat="47.2835" lon="-2.27625">
        <ele>17.200000762939</ele>
        <time>2022-07-17T07:44:21.000Z</time>
      </trkpt>
      <trkpt lat="47.2835" lon="-2.27619">
        <ele>17.60000038147</ele>
        <time>2022-07-17T07:44:22.000Z</time>
      </trkpt>
      <trkpt lat="47.2835" lon="-2.27613">
        <ele>18</ele>
        <time>2022-07-17T07:44:23.000Z</time>
      </trkpt>
      <trkpt lat="47.2835" lon="-2.27607">
        <ele>18.39999961853</ele>
        <time>2022-07-17T07:44:24.000Z</time>
      </trkpt>
      <trkpt lat="47.28351" lon="-2.27601">
        <ele>18.799999237061</ele>
        <time>2022-07-17T07:44:25.000Z</time>
      </trkpt>
      <trkpt lat="47.28351" lon="-2.27594">
        <ele>19.200000762939</ele>
        <time>2022-07-17T07:44:26.000Z</time>
      </trkpt>
      <trkpt lat="47.2835" lon="-2.27588">
        <ele>19.200000762939</ele>
        <time>2022-07-17T07:44:27.000Z</time>
      </trkpt>
      <trkpt lat="47.28352" lon="-2.27571">
        <ele>19.200000762939</ele>
        <time>2022-07-17T07:44:30.000Z</time>
      </trkpt>
      <trkpt lat="47.28353" lon="-2.27564">
        <ele>19.200000762939</ele>
        <time>2022-07-17T07:44:31.000Z</time>
      </trkpt>
      <trkpt lat="47.28358" lon="-2.27538">
        <ele>19.200000762939</ele>
        <time>2022-07-17T07:44:35.000Z</time>
      </trkpt>
      <trkpt lat="47.2836" lon="-2.27531">
        <ele>19.200000762939</ele>
        <time>2022-07-17T07:44:36.000Z</time>
      </trkpt>
      <trkpt lat="47.28367" lon="-2.27485">
        <ele>19.200000762939</ele>
        <time>2022-07-17T07:44:42.000Z</time>
      </trkpt>
      <trkpt lat="47.28373" lon="-2.27428">
        <ele>19.200000762939</ele>
        <time>2022-07-17T07:44:49.000Z</time>
      </trkpt>
      <trkpt lat="47.28381" lon="-2.27377">
        <ele>18.799999237061</ele>
        <time>2022-07-17T07:44:55.000Z</time>
      </trkpt>
      <trkpt lat="47.28382" lon="-2.27369">
        <ele>18.200000762939</ele>
        <time>2022-07-17T07:44:56.000Z</time>
      </trkpt>
      <trkpt lat="47.28382" lon="-2.27362">
        <ele>17.799999237061</ele>
        <time>2022-07-17T07:44:57.000Z</time>
      </trkpt>
      <trkpt lat="47.28384" lon="-2.27357">
        <ele>17.39999961853</ele>
        <time>2022-07-17T07:44:58.000Z</time>
      </trkpt>
      <trkpt lat="47.28385" lon="-2.27353">
        <ele>16.799999237061</ele>
        <time>2022-07-17T07:44:59.000Z</time>
      </trkpt>
      <trkpt lat="47.28388" lon="-2.2735">
        <ele>16.200000762939</ele>
        <time>2022-07-17T07:45:00.000Z</time>
      </trkpt>
      <trkpt lat="47.28391" lon="-2.27351">
        <ele>15.60000038147</ele>
        <time>2022-07-17T07:45:01.000Z</time>
      </trkpt>
      <trkpt lat="47.28395" lon="-2.2735">
        <ele>15</ele>
        <time>2022-07-17T07:45:02.000Z</time>
      </trkpt>
      <trkpt lat="47.28398" lon="-2.27349">
        <ele>14.39999961853</ele>
        <time>2022-07-17T07:45:03.000Z</time>
      </trkpt>
      <trkpt lat="47.28403" lon="-2.27349">
        <ele>14.39999961853</ele>
        <time>2022-07-17T07:45:04.000Z</time>
      </trkpt>
      <trkpt lat="47.28416" lon="-2.27348">
        <ele>14.39999961853</ele>
        <time>2022-07-17T07:45:07.000Z</time>
      </trkpt>
      <trkpt lat="47.28421" lon="-2.27348">
        <ele>14.39999961853</ele>
        <time>2022-07-17T07:45:08.000Z</time>
      </trkpt>
      <trkpt lat="47.28452" lon="-2.27349">
        <ele>14.39999961853</ele>
        <time>2022-07-17T07:45:13.000Z</time>
      </trkpt>
      <trkpt lat="47.28458" lon="-2.27351">
        <ele>14.39999961853</ele>
        <time>2022-07-17T07:45:14.000Z</time>
      </trkpt>
      <trkpt lat="47.28478" lon="-2.27356">
        <ele>14</ele>
        <time>2022-07-17T07:45:17.000Z</time>
      </trkpt>
      <trkpt lat="47.28485" lon="-2.27358">
        <ele>13.60000038147</ele>
        <time>2022-07-17T07:45:18.000Z</time>
      </trkpt>
      <trkpt lat="47.28492" lon="-2.2736">
        <ele>13</ele>
        <time>2022-07-17T07:45:19.000Z</time>
      </trkpt>
      <trkpt lat="47.28498" lon="-2.27361">
        <ele>12.60000038147</ele>
        <time>2022-07-17T07:45:20.000Z</time>
      </trkpt>
      <trkpt lat="47.28505" lon="-2.27362">
        <ele>12.199999809265</ele>
        <time>2022-07-17T07:45:21.000Z</time>
      </trkpt>
      <trkpt lat="47.28547" lon="-2.27364">
        <ele>12.199999809265</ele>
        <time>2022-07-17T07:45:27.000Z</time>
      </trkpt>
      <trkpt lat="47.28555" lon="-2.27363">
        <ele>11.800000190735</ele>
        <time>2022-07-17T07:45:28.000Z</time>
      </trkpt>
      <trkpt lat="47.28562" lon="-2.27362">
        <ele>11.39999961853</ele>
        <time>2022-07-17T07:45:29.000Z</time>
      </trkpt>
      <trkpt lat="47.28569" lon="-2.27359">
        <ele>11</ele>
        <time>2022-07-17T07:45:30.000Z</time>
      </trkpt>
      <trkpt lat="47.28575" lon="-2.27355">
        <ele>10.39999961853</ele>
        <time>2022-07-17T07:45:31.000Z</time>
      </trkpt>
      <trkpt lat="47.28581" lon="-2.27351">
        <ele>10</ele>
        <time>2022-07-17T07:45:32.000Z</time>
      </trkpt>
      <trkpt lat="47.28593" lon="-2.27346">
        <ele>10</ele>
        <time>2022-07-17T07:45:34.000Z</time>
      </trkpt>
      <trkpt lat="47.28604" lon="-2.27347">
        <ele>10</ele>
        <time>2022-07-17T07:45:36.000Z</time>
      </trkpt>
      <trkpt lat="47.28617" lon="-2.27364">
        <ele>10</ele>
        <time>2022-07-17T07:45:39.000Z</time>
      </trkpt>
      <trkpt lat="47.28621" lon="-2.2737">
        <ele>10</ele>
        <time>2022-07-17T07:45:40.000Z</time>
      </trkpt>
      <trkpt lat="47.28636" lon="-2.274">
        <ele>10</ele>
        <time>2022-07-17T07:45:44.000Z</time>
      </trkpt>
      <trkpt lat="47.28645" lon="-2.27414">
        <ele>10</ele>
        <time>2022-07-17T07:45:46.000Z</time>
      </trkpt>
      <trkpt lat="47.28652" lon="-2.27427">
        <ele>9.6000003814697</ele>
        <time>2022-07-17T07:45:48.000Z</time>
      </trkpt>
      <trkpt lat="47.28654" lon="-2.27433">
        <ele>9.1999998092651</ele>
        <time>2022-07-17T07:45:49.000Z</time>
      </trkpt>
      <trkpt lat="47.28654" lon="-2.2744">
        <ele>8.8000001907349</ele>
        <time>2022-07-17T07:45:50.000Z</time>
      </trkpt>
      <trkpt lat="47.28651" lon="-2.27445">
        <ele>8.3999996185303</ele>
        <time>2022-07-17T07:45:51.000Z</time>
      </trkpt>
      <trkpt lat="47.28647" lon="-2.27449">
        <ele>8</ele>
        <time>2022-07-17T07:45:52.000Z</time>
      </trkpt>
      <trkpt lat="47.28637" lon="-2.27456">
        <ele>8</ele>
        <time>2022-07-17T07:45:54.000Z</time>
      </trkpt>
      <trkpt lat="47.28609" lon="-2.27477">
        <ele>8</ele>
        <time>2022-07-17T07:45:59.000Z</time>
      </trkpt>
      <trkpt lat="47.28604" lon="-2.2748">
        <ele>8</ele>
        <time>2022-07-17T07:46:00.000Z</time>
      </trkpt>
      <trkpt lat="47.28596" lon="-2.27486">
        <ele>8</ele>
        <time>2022-07-17T07:46:02.000Z</time>
      </trkpt>
      <trkpt lat="47.28594" lon="-2.27489">
        <ele>8</ele>
        <time>2022-07-17T07:46:03.000Z</time>
      </trkpt>
      <trkpt lat="47.28595" lon="-2.27504">
        <ele>8</ele>
        <time>2022-07-17T07:46:06.000Z</time>
      </trkpt>
      <trkpt lat="47.28596" lon="-2.27509">
        <ele>8</ele>
        <time>2022-07-17T07:46:07.000Z</time>
      </trkpt>
      <trkpt lat="47.28602" lon="-2.27534">
        <ele>8</ele>
        <time>2022-07-17T07:46:10.000Z</time>
      </trkpt>
      <trkpt lat="47.28613" lon="-2.27579">
        <ele>8</ele>
        <time>2022-07-17T07:46:15.000Z</time>
      </trkpt>
      <trkpt lat="47.28623" lon="-2.27641">
        <ele>8</ele>
        <time>2022-07-17T07:46:22.000Z</time>
      </trkpt>
      <trkpt lat="47.28623" lon="-2.27705">
        <ele>8</ele>
        <time>2022-07-17T07:46:29.000Z</time>
      </trkpt>
      <trkpt lat="47.28614" lon="-2.27741">
        <ele>8</ele>
        <time>2022-07-17T07:46:33.000Z</time>
      </trkpt>
      <trkpt lat="47.28611" lon="-2.27749">
        <ele>8</ele>
        <time>2022-07-17T07:46:34.000Z</time>
      </trkpt>
      <trkpt lat="47.28601" lon="-2.27798">
        <ele>8</ele>
        <time>2022-07-17T07:46:40.000Z</time>
      </trkpt>
      <trkpt lat="47.28599" lon="-2.27838">
        <ele>8</ele>
        <time>2022-07-17T07:46:45.000Z</time>
      </trkpt>
      <trkpt lat="47.28608" lon="-2.27857">
        <ele>8</ele>
        <time>2022-07-17T07:46:48.000Z</time>
      </trkpt>
      <trkpt lat="47.28615" lon="-2.27868">
        <ele>8</ele>
        <time>2022-07-17T07:46:50.000Z</time>
      </trkpt>
      <trkpt lat="47.28619" lon="-2.27873">
        <ele>8</ele>
        <time>2022-07-17T07:46:51.000Z</time>
      </trkpt>
      <trkpt lat="47.28626" lon="-2.27875">
        <ele>8</ele>
        <time>2022-07-17T07:46:53.000Z</time>
      </trkpt>
      <trkpt lat="47.28634" lon="-2.27865">
        <ele>8</ele>
        <time>2022-07-17T07:46:56.000Z</time>
      </trkpt>
      <trkpt lat="47.28637" lon="-2.27846">
        <ele>8</ele>
        <time>2022-07-17T07:46:59.000Z</time>
      </trkpt>
      <trkpt lat="47.28638" lon="-2.27839">
        <ele>8</ele>
        <time>2022-07-17T07:47:00.000Z</time>
      </trkpt>
      <trkpt lat="47.28647" lon="-2.278">
        <ele>8</ele>
        <time>2022-07-17T07:47:05.000Z</time>
      </trkpt>
      <trkpt lat="47.28651" lon="-2.27783">
        <ele>8</ele>
        <time>2022-07-17T07:47:07.000Z</time>
      </trkpt>
      <trkpt lat="47.28659" lon="-2.27761">
        <ele>8</ele>
        <time>2022-07-17T07:47:10.000Z</time>
      </trkpt>
      <trkpt lat="47.28678" lon="-2.27723">
        <ele>8</ele>
        <time>2022-07-17T07:47:15.000Z</time>
      </trkpt>
      <trkpt lat="47.287" lon="-2.27686">
        <ele>7.5999999046326</ele>
        <time>2022-07-17T07:47:20.000Z</time>
      </trkpt>
      <trkpt lat="47.28705" lon="-2.27678">
        <ele>7.1999998092651</ele>
        <time>2022-07-17T07:47:21.000Z</time>
      </trkpt>
      <trkpt lat="47.2871" lon="-2.27671">
        <ele>6.8000001907349</ele>
        <time>2022-07-17T07:47:22.000Z</time>
      </trkpt>
      <trkpt lat="47.28714" lon="-2.27663">
        <ele>6.4000000953674</ele>
        <time>2022-07-17T07:47:23.000Z</time>
      </trkpt>
      <trkpt lat="47.28719" lon="-2.27655">
        <ele>6</ele>
        <time>2022-07-17T07:47:24.000Z</time>
      </trkpt>
      <trkpt lat="47.28743" lon="-2.27616">
        <ele>6</ele>
        <time>2022-07-17T07:47:30.000Z</time>
      </trkpt>
      <trkpt lat="47.28768" lon="-2.27585">
        <ele>6</ele>
        <time>2022-07-17T07:47:36.000Z</time>
      </trkpt>
      <trkpt lat="47.28789" lon="-2.27559">
        <ele>6</ele>
        <time>2022-07-17T07:47:41.000Z</time>
      </trkpt>
      <trkpt lat="47.28792" lon="-2.27551">
        <ele>6</ele>
        <time>2022-07-17T07:47:42.000Z</time>
      </trkpt>
      <trkpt lat="47.28807" lon="-2.27539">
        <ele>6</ele>
        <time>2022-07-17T07:47:45.000Z</time>
      </trkpt>
      <trkpt lat="47.28827" lon="-2.27536">
        <ele>6</ele>
        <time>2022-07-17T07:47:48.000Z</time>
      </trkpt>
      <trkpt lat="47.28833" lon="-2.27535">
        <ele>6</ele>
        <time>2022-07-17T07:47:49.000Z</time>
      </trkpt>
      <trkpt lat="47.28846" lon="-2.27535">
        <ele>6</ele>
        <time>2022-07-17T07:47:51.000Z</time>
      </trkpt>
      <trkpt lat="47.28864" lon="-2.27533">
        <ele>6</ele>
        <time>2022-07-17T07:47:54.000Z</time>
      </trkpt>
      <trkpt lat="47.28892" lon="-2.27529">
        <ele>6</ele>
        <time>2022-07-17T07:47:59.000Z</time>
      </trkpt>
      <trkpt lat="47.28904" lon="-2.27528">
        <ele>6</ele>
        <time>2022-07-17T07:48:01.000Z</time>
      </trkpt>
      <trkpt lat="47.28941" lon="-2.27525">
        <ele>6</ele>
        <time>2022-07-17T07:48:07.000Z</time>
      </trkpt>
      <trkpt lat="47.28977" lon="-2.27522">
        <ele>6</ele>
        <time>2022-07-17T07:48:13.000Z</time>
      </trkpt>
      <trkpt lat="47.29021" lon="-2.27521">
        <ele>6</ele>
        <time>2022-07-17T07:48:20.000Z</time>
      </trkpt>
      <trkpt lat="47.29052" lon="-2.27523">
        <ele>6</ele>
        <time>2022-07-17T07:48:25.000Z</time>
      </trkpt>
      <trkpt lat="47.29082" lon="-2.27527">
        <ele>6</ele>
        <time>2022-07-17T07:48:31.000Z</time>
      </trkpt>
      <trkpt lat="47.291" lon="-2.27525">
        <ele>6</ele>
        <time>2022-07-17T07:48:36.000Z</time>
      </trkpt>
      <trkpt lat="47.29102" lon="-2.27521">
        <ele>6</ele>
        <time>2022-07-17T07:48:37.000Z</time>
      </trkpt>
      <trkpt lat="47.29104" lon="-2.27504">
        <ele>6</ele>
        <time>2022-07-17T07:48:40.000Z</time>
      </trkpt>
      <trkpt lat="47.29104" lon="-2.27496">
        <ele>6</ele>
        <time>2022-07-17T07:48:41.000Z</time>
      </trkpt>
      <trkpt lat="47.29107" lon="-2.27448">
        <ele>6</ele>
        <time>2022-07-17T07:48:47.000Z</time>
      </trkpt>
      <trkpt lat="47.29109" lon="-2.27429">
        <ele>6</ele>
        <time>2022-07-17T07:48:49.000Z</time>
      </trkpt>
      <trkpt lat="47.29106" lon="-2.27402">
        <ele>6</ele>
        <time>2022-07-17T07:48:52.000Z</time>
      </trkpt>
      <trkpt lat="47.29104" lon="-2.27394">
        <ele>6</ele>
        <time>2022-07-17T07:48:53.000Z</time>
      </trkpt>
      <trkpt lat="47.29102" lon="-2.27386">
        <ele>5.4000000953674</ele>
        <time>2022-07-17T07:48:54.000Z</time>
      </trkpt>
      <trkpt lat="47.29101" lon="-2.27379">
        <ele>5</ele>
        <time>2022-07-17T07:48:55.000Z</time>
      </trkpt>
      <trkpt lat="47.291" lon="-2.27371">
        <ele>4.5999999046326</ele>
        <time>2022-07-17T07:48:56.000Z</time>
      </trkpt>
      <trkpt lat="47.29098" lon="-2.27364">
        <ele>4.1999998092651</ele>
        <time>2022-07-17T07:48:57.000Z</time>
      </trkpt>
      <trkpt lat="47.29096" lon="-2.27359">
        <ele>3.7999999523163</ele>
        <time>2022-07-17T07:48:58.000Z</time>
      </trkpt>
      <trkpt lat="47.2909" lon="-2.27348">
        <ele>3.7999999523163</ele>
        <time>2022-07-17T07:49:01.000Z</time>
      </trkpt>
      <trkpt lat="47.29094" lon="-2.27325">
        <ele>3.7999999523163</ele>
        <time>2022-07-17T07:49:05.000Z</time>
      </trkpt>
      <trkpt lat="47.29097" lon="-2.27315">
        <ele>3.7999999523163</ele>
        <time>2022-07-17T07:49:07.000Z</time>
      </trkpt>
      <trkpt lat="47.291" lon="-2.27305">
        <ele>3.7999999523163</ele>
        <time>2022-07-17T07:49:09.000Z</time>
      </trkpt>
      <trkpt lat="47.29104" lon="-2.2728">
        <ele>3.7999999523163</ele>
        <time>2022-07-17T07:49:14.000Z</time>
      </trkpt>
      <trkpt lat="47.29104" lon="-2.27275">
        <ele>3.7999999523163</ele>
        <time>2022-07-17T07:49:15.000Z</time>
      </trkpt>
      <trkpt lat="47.29104" lon="-2.27259">
        <ele>3.7999999523163</ele>
        <time>2022-07-17T07:49:18.000Z</time>
      </trkpt>
      <trkpt lat="47.29106" lon="-2.27234">
        <ele>3.7999999523163</ele>
        <time>2022-07-17T07:49:23.000Z</time>
      </trkpt>
      <trkpt lat="47.2911" lon="-2.27223">
        <ele>3.7999999523163</ele>
        <time>2022-07-17T07:49:28.000Z</time>
      </trkpt>
      <trkpt lat="47.29112" lon="-2.27211">
        <ele>3.7999999523163</ele>
        <time>2022-07-17T07:49:33.000Z</time>
      </trkpt>
      <trkpt lat="47.29112" lon="-2.27209">
        <ele>3.2000000476837</ele>
        <time>2022-07-17T07:49:34.000Z</time>
      </trkpt>
      <trkpt lat="47.29112" lon="-2.27209">
        <ele>2.7999999523163</ele>
        <time>2022-07-17T07:49:35.000Z</time>
      </trkpt>
      <trkpt lat="47.2911" lon="-2.27208">
        <ele>2.2000000476837</ele>
        <time>2022-07-17T07:49:36.000Z</time>
      </trkpt>
      <trkpt lat="47.29108" lon="-2.27207">
        <ele>1.7999999523163</ele>
        <time>2022-07-17T07:49:37.000Z</time>
      </trkpt>
      <trkpt lat="47.29106" lon="-2.27207">
        <ele>1.2000000476837</ele>
        <time>2022-07-17T07:49:38.000Z</time>
      </trkpt>
      <trkpt lat="47.29094" lon="-2.27207">
        <ele>1.2000000476837</ele>
        <time>2022-07-17T07:49:42.000Z</time>
      </trkpt>
      <trkpt lat="47.29085" lon="-2.27204">
        <ele>1.2000000476837</ele>
        <time>2022-07-17T07:49:45.000Z</time>
      </trkpt>
      <trkpt lat="47.29082" lon="-2.27201">
        <ele>1.2000000476837</ele>
        <time>2022-07-17T07:49:46.000Z</time>
      </trkpt>
      <trkpt lat="47.29073" lon="-2.27194">
        <ele>1.7999999523163</ele>
        <time>2022-07-17T07:49:49.000Z</time>
      </trkpt>
      <trkpt lat="47.29072" lon="-2.27192">
        <ele>2.4000000953674</ele>
        <time>2022-07-17T07:49:50.000Z</time>
      </trkpt>
      <trkpt lat="47.29071" lon="-2.27189">
        <ele>2.7999999523163</ele>
        <time>2022-07-17T07:49:51.000Z</time>
      </trkpt>
      <trkpt lat="47.29069" lon="-2.27185">
        <ele>3.4000000953674</ele>
        <time>2022-07-17T07:49:52.000Z</time>
      </trkpt>
      <trkpt lat="47.29068" lon="-2.27182">
        <ele>3.7999999523163</ele>
        <time>2022-07-17T07:49:53.000Z</time>
      </trkpt>
      <trkpt lat="47.29063" lon="-2.27174">
        <ele>3.7999999523163</ele>
        <time>2022-07-17T07:49:55.000Z</time>
      </trkpt>
      <trkpt lat="47.29046" lon="-2.27155">
        <ele>3.7999999523163</ele>
        <time>2022-07-17T07:50:00.000Z</time>
      </trkpt>
      <trkpt lat="47.29042" lon="-2.27151">
        <ele>3.7999999523163</ele>
        <time>2022-07-17T07:50:01.000Z</time>
      </trkpt>
      <trkpt lat="47.29034" lon="-2.27136">
        <ele>3.7999999523163</ele>
        <time>2022-07-17T07:50:04.000Z</time>
      </trkpt>
      <trkpt lat="47.29031" lon="-2.2713">
        <ele>3.7999999523163</ele>
        <time>2022-07-17T07:50:05.000Z</time>
      </trkpt>
      <trkpt lat="47.29029" lon="-2.27111">
        <ele>3.7999999523163</ele>
        <time>2022-07-17T07:50:08.000Z</time>
      </trkpt>
      <trkpt lat="47.2904" lon="-2.27099">
        <ele>3.7999999523163</ele>
        <time>2022-07-17T07:50:12.000Z</time>
      </trkpt>
      <trkpt lat="47.29047" lon="-2.27083">
        <ele>3.7999999523163</ele>
        <time>2022-07-17T07:50:15.000Z</time>
      </trkpt>
      <trkpt lat="47.29049" lon="-2.27076">
        <ele>3.7999999523163</ele>
        <time>2022-07-17T07:50:16.000Z</time>
      </trkpt>
      <trkpt lat="47.29058" lon="-2.27046">
        <ele>3.7999999523163</ele>
        <time>2022-07-17T07:50:21.000Z</time>
      </trkpt>
      <trkpt lat="47.2906" lon="-2.27043">
        <ele>3.7999999523163</ele>
        <time>2022-07-17T07:50:22.000Z</time>
      </trkpt>
      <trkpt lat="47.29063" lon="-2.2704">
        <ele>3.7999999523163</ele>
        <time>2022-07-17T07:50:24.000Z</time>
      </trkpt>
      <trkpt lat="47.29066" lon="-2.27039">
        <ele>3.7999999523163</ele>
        <time>2022-07-17T07:50:25.000Z</time>
      </trkpt>
      <trkpt lat="47.29068" lon="-2.27035">
        <ele>3.7999999523163</ele>
        <time>2022-07-17T07:51:21.000Z</time>
      </trkpt>
      <trkpt lat="47.29072" lon="-2.27027">
        <ele>3.7999999523163</ele>
        <time>2022-07-17T07:51:23.000Z</time>
      </trkpt>
      <trkpt lat="47.29076" lon="-2.27009">
        <ele>3.7999999523163</ele>
        <time>2022-07-17T07:51:27.000Z</time>
      </trkpt>
      <trkpt lat="47.29077" lon="-2.26998">
        <ele>3.7999999523163</ele>
        <time>2022-07-17T07:51:29.000Z</time>
      </trkpt>
      <trkpt lat="47.29078" lon="-2.26983">
        <ele>3.7999999523163</ele>
        <time>2022-07-17T07:51:32.000Z</time>
      </trkpt>
      <trkpt lat="47.2908" lon="-2.2695">
        <ele>3.7999999523163</ele>
        <time>2022-07-17T07:51:38.000Z</time>
      </trkpt>
      <trkpt lat="47.29081" lon="-2.26932">
        <ele>3.7999999523163</ele>
        <time>2022-07-17T07:51:42.000Z</time>
      </trkpt>
      <trkpt lat="47.29078" lon="-2.26917">
        <ele>3.7999999523163</ele>
        <time>2022-07-17T07:51:46.000Z</time>
      </trkpt>
      <trkpt lat="47.2907" lon="-2.26902">
        <ele>3.7999999523163</ele>
        <time>2022-07-17T07:51:50.000Z</time>
      </trkpt>
      <trkpt lat="47.29068" lon="-2.26899">
        <ele>3.7999999523163</ele>
        <time>2022-07-17T07:51:51.000Z</time>
      </trkpt>
      <trkpt lat="47.29061" lon="-2.26881">
        <ele>3.7999999523163</ele>
        <time>2022-07-17T07:51:55.000Z</time>
      </trkpt>
      <trkpt lat="47.29058" lon="-2.26842">
        <ele>3.7999999523163</ele>
        <time>2022-07-17T07:52:01.000Z</time>
      </trkpt>
      <trkpt lat="47.29059" lon="-2.26784">
        <ele>3.7999999523163</ele>
        <time>2022-07-17T07:52:07.000Z</time>
      </trkpt>
      <trkpt lat="47.29057" lon="-2.26758">
        <ele>4.1999998092651</ele>
        <time>2022-07-17T07:52:10.000Z</time>
      </trkpt>
      <trkpt lat="47.29056" lon="-2.2675">
        <ele>4.5999999046326</ele>
        <time>2022-07-17T07:52:11.000Z</time>
      </trkpt>
      <trkpt lat="47.29055" lon="-2.26743">
        <ele>5</ele>
        <time>2022-07-17T07:52:12.000Z</time>
      </trkpt>
      <trkpt lat="47.29055" lon="-2.26736">
        <ele>5.4000000953674</ele>
        <time>2022-07-17T07:52:13.000Z</time>
      </trkpt>
      <trkpt lat="47.29054" lon="-2.26729">
        <ele>5.8000001907349</ele>
        <time>2022-07-17T07:52:14.000Z</time>
      </trkpt>
      <trkpt lat="47.29052" lon="-2.26716">
        <ele>5.8000001907349</ele>
        <time>2022-07-17T07:52:16.000Z</time>
      </trkpt>
      <trkpt lat="47.29051" lon="-2.2671">
        <ele>6.4000000953674</ele>
        <time>2022-07-17T07:52:17.000Z</time>
      </trkpt>
      <trkpt lat="47.29051" lon="-2.26704">
        <ele>6.8000001907349</ele>
        <time>2022-07-17T07:52:18.000Z</time>
      </trkpt>
      <trkpt lat="47.2905" lon="-2.26697">
        <ele>7.1999998092651</ele>
        <time>2022-07-17T07:52:19.000Z</time>
      </trkpt>
      <trkpt lat="47.2905" lon="-2.26691">
        <ele>7.5999999046326</ele>
        <time>2022-07-17T07:52:20.000Z</time>
      </trkpt>
      <trkpt lat="47.29049" lon="-2.26685">
        <ele>8</ele>
        <time>2022-07-17T07:52:21.000Z</time>
      </trkpt>
      <trkpt lat="47.29047" lon="-2.26667">
        <ele>8.3999996185303</ele>
        <time>2022-07-17T07:52:24.000Z</time>
      </trkpt>
      <trkpt lat="47.29047" lon="-2.26661">
        <ele>8.8000001907349</ele>
        <time>2022-07-17T07:52:25.000Z</time>
      </trkpt>
      <trkpt lat="47.29046" lon="-2.26655">
        <ele>9.1999998092651</ele>
        <time>2022-07-17T07:52:26.000Z</time>
      </trkpt>
      <trkpt lat="47.29046" lon="-2.26649">
        <ele>9.6000003814697</ele>
        <time>2022-07-17T07:52:27.000Z</time>
      </trkpt>
      <trkpt lat="47.29045" lon="-2.26643">
        <ele>10</ele>
        <time>2022-07-17T07:52:28.000Z</time>
      </trkpt>
      <trkpt lat="47.29044" lon="-2.26615">
        <ele>10</ele>
        <time>2022-07-17T07:52:33.000Z</time>
      </trkpt>
      <trkpt lat="47.29043" lon="-2.26599">
        <ele>10.39999961853</ele>
        <time>2022-07-17T07:52:36.000Z</time>
      </trkpt>
      <trkpt lat="47.29042" lon="-2.26594">
        <ele>11</ele>
        <time>2022-07-17T07:52:37.000Z</time>
      </trkpt>
      <trkpt lat="47.29042" lon="-2.26589">
        <ele>11.39999961853</ele>
        <time>2022-07-17T07:52:38.000Z</time>
      </trkpt>
      <trkpt lat="47.29041" lon="-2.26583">
        <ele>11.800000190735</ele>
        <time>2022-07-17T07:52:39.000Z</time>
      </trkpt>
      <trkpt lat="47.29041" lon="-2.26578">
        <ele>12.199999809265</ele>
        <time>2022-07-17T07:52:40.000Z</time>
      </trkpt>
      <trkpt lat="47.2904" lon="-2.26572">
        <ele>12.199999809265</ele>
        <time>2022-07-17T07:52:41.000Z</time>
      </trkpt>
      <trkpt lat="47.29032" lon="-2.26535">
        <ele>12.199999809265</ele>
        <time>2022-07-17T07:52:47.000Z</time>
      </trkpt>
      <trkpt lat="47.29028" lon="-2.26531">
        <ele>12.199999809265</ele>
        <time>2022-07-17T07:52:48.000Z</time>
      </trkpt>
      <trkpt lat="47.29021" lon="-2.26529">
        <ele>12.199999809265</ele>
        <time>2022-07-17T07:52:51.000Z</time>
      </trkpt>
      <trkpt lat="47.29021" lon="-2.26527">
        <ele>12.199999809265</ele>
        <time>2022-07-17T07:52:52.000Z</time>
      </trkpt>
      <trkpt lat="47.29021" lon="-2.26526">
        <ele>12.199999809265</ele>
        <time>2022-07-17T07:52:53.000Z</time>
      </trkpt>
      <trkpt lat="47.29022" lon="-2.26524">
        <ele>12.199999809265</ele>
        <time>2022-07-17T07:52:54.000Z</time>
      </trkpt>
      <trkpt lat="47.29022" lon="-2.26521">
        <ele>12.199999809265</ele>
        <time>2022-07-17T07:52:57.000Z</time>
      </trkpt>
      <trkpt lat="47.29022" lon="-2.26518">
        <ele>12.199999809265</ele>
        <time>2022-07-17T07:52:58.000Z</time>
      </trkpt>
      <trkpt lat="47.2902" lon="-2.26499">
        <ele>12.199999809265</ele>
        <time>2022-07-17T07:53:02.000Z</time>
      </trkpt>
      <trkpt lat="47.29019" lon="-2.26494">
        <ele>12.199999809265</ele>
        <time>2022-07-17T07:53:03.000Z</time>
      </trkpt>
      <trkpt lat="47.29018" lon="-2.26465">
        <ele>12.199999809265</ele>
        <time>2022-07-17T07:53:08.000Z</time>
      </trkpt>
      <trkpt lat="47.29012" lon="-2.26424">
        <ele>12.199999809265</ele>
        <time>2022-07-17T07:53:14.000Z</time>
      </trkpt>
      <trkpt lat="47.29011" lon="-2.26419">
        <ele>12.60000038147</ele>
        <time>2022-07-17T07:53:15.000Z</time>
      </trkpt>
      <trkpt lat="47.29011" lon="-2.26414">
        <ele>13</ele>
        <time>2022-07-17T07:53:16.000Z</time>
      </trkpt>
      <trkpt lat="47.2901" lon="-2.26409">
        <ele>13.39999961853</ele>
        <time>2022-07-17T07:53:17.000Z</time>
      </trkpt>
      <trkpt lat="47.29009" lon="-2.26404">
        <ele>13.800000190735</ele>
        <time>2022-07-17T07:53:18.000Z</time>
      </trkpt>
      <trkpt lat="47.29009" lon="-2.264">
        <ele>14.199999809265</ele>
        <time>2022-07-17T07:53:19.000Z</time>
      </trkpt>
      <trkpt lat="47.2901" lon="-2.26391">
        <ele>14.199999809265</ele>
        <time>2022-07-17T07:53:21.000Z</time>
      </trkpt>
      <trkpt lat="47.29021" lon="-2.26366">
        <ele>14.199999809265</ele>
        <time>2022-07-17T07:53:26.000Z</time>
      </trkpt>
      <trkpt lat="47.29031" lon="-2.26354">
        <ele>14.199999809265</ele>
        <time>2022-07-17T07:53:29.000Z</time>
      </trkpt>
      <trkpt lat="47.29043" lon="-2.26342">
        <ele>14.199999809265</ele>
        <time>2022-07-17T07:53:32.000Z</time>
      </trkpt>
      <trkpt lat="47.29051" lon="-2.26334">
        <ele>14.199999809265</ele>
        <time>2022-07-17T07:53:34.000Z</time>
      </trkpt>
      <trkpt lat="47.29061" lon="-2.26318">
        <ele>14.199999809265</ele>
        <time>2022-07-17T07:53:37.000Z</time>
      </trkpt>
      <trkpt lat="47.2907" lon="-2.26293">
        <ele>14.199999809265</ele>
        <time>2022-07-17T07:53:41.000Z</time>
      </trkpt>
      <trkpt lat="47.29072" lon="-2.26286">
        <ele>14.199999809265</ele>
        <time>2022-07-17T07:53:42.000Z</time>
      </trkpt>
      <trkpt lat="47.29077" lon="-2.26265">
        <ele>14.199999809265</ele>
        <time>2022-07-17T07:53:45.000Z</time>
      </trkpt>
      <trkpt lat="47.2908" lon="-2.26251">
        <ele>14.199999809265</ele>
        <time>2022-07-17T07:53:47.000Z</time>
      </trkpt>
      <trkpt lat="47.29082" lon="-2.26237">
        <ele>14.199999809265</ele>
        <time>2022-07-17T07:53:49.000Z</time>
      </trkpt>
      <trkpt lat="47.29089" lon="-2.26201">
        <ele>14.199999809265</ele>
        <time>2022-07-17T07:53:54.000Z</time>
      </trkpt>
      <trkpt lat="47.2909" lon="-2.26194">
        <ele>14.199999809265</ele>
        <time>2022-07-17T07:53:55.000Z</time>
      </trkpt>
      <trkpt lat="47.29097" lon="-2.26141">
        <ele>14.199999809265</ele>
        <time>2022-07-17T07:54:03.000Z</time>
      </trkpt>
      <trkpt lat="47.29103" lon="-2.26111">
        <ele>14.199999809265</ele>
        <time>2022-07-17T07:54:09.000Z</time>
      </trkpt>
      <trkpt lat="47.29103" lon="-2.26105">
        <ele>14.199999809265</ele>
        <time>2022-07-17T07:54:13.000Z</time>
      </trkpt>
      <trkpt lat="47.29104" lon="-2.26104">
        <ele>14.199999809265</ele>
        <time>2022-07-17T07:54:16.000Z</time>
      </trkpt>
      <trkpt lat="47.29105" lon="-2.26102">
        <ele>14.199999809265</ele>
        <time>2022-07-17T07:54:18.000Z</time>
      </trkpt>
      <trkpt lat="47.29105" lon="-2.26098">
        <ele>14.199999809265</ele>
        <time>2022-07-17T07:54:19.000Z</time>
      </trkpt>
      <trkpt lat="47.29105" lon="-2.26089">
        <ele>14.199999809265</ele>
        <time>2022-07-17T07:54:21.000Z</time>
      </trkpt>
      <trkpt lat="47.29105" lon="-2.26078">
        <ele>14.199999809265</ele>
        <time>2022-07-17T07:54:23.000Z</time>
      </trkpt>
      <trkpt lat="47.29104" lon="-2.26072">
        <ele>14.199999809265</ele>
        <time>2022-07-17T07:54:24.000Z</time>
      </trkpt>
      <trkpt lat="47.29099" lon="-2.26054">
        <ele>14.199999809265</ele>
        <time>2022-07-17T07:54:27.000Z</time>
      </trkpt>
      <trkpt lat="47.29098" lon="-2.26048">
        <ele>14.199999809265</ele>
        <time>2022-07-17T07:54:28.000Z</time>
      </trkpt>
      <trkpt lat="47.29092" lon="-2.2603">
        <ele>14.199999809265</ele>
        <time>2022-07-17T07:54:31.000Z</time>
      </trkpt>
      <trkpt lat="47.2909" lon="-2.26024">
        <ele>14.199999809265</ele>
        <time>2022-07-17T07:54:32.000Z</time>
      </trkpt>
      <trkpt lat="47.29084" lon="-2.26007">
        <ele>14.199999809265</ele>
        <time>2022-07-17T07:54:35.000Z</time>
      </trkpt>
      <trkpt lat="47.29083" lon="-2.26">
        <ele>14.199999809265</ele>
        <time>2022-07-17T07:54:37.000Z</time>
      </trkpt>
      <trkpt lat="47.29085" lon="-2.25993">
        <ele>14.199999809265</ele>
        <time>2022-07-17T07:54:39.000Z</time>
      </trkpt>
      <trkpt lat="47.29094" lon="-2.25985">
        <ele>14.199999809265</ele>
        <time>2022-07-17T07:54:41.000Z</time>
      </trkpt>
      <trkpt lat="47.29111" lon="-2.25974">
        <ele>14.199999809265</ele>
        <time>2022-07-17T07:54:46.000Z</time>
      </trkpt>
      <trkpt lat="47.29119" lon="-2.25974">
        <ele>13.800000190735</ele>
        <time>2022-07-17T07:54:48.000Z</time>
      </trkpt>
      <trkpt lat="47.29123" lon="-2.25973">
        <ele>13.39999961853</ele>
        <time>2022-07-17T07:54:49.000Z</time>
      </trkpt>
      <trkpt lat="47.29127" lon="-2.25973">
        <ele>13</ele>
        <time>2022-07-17T07:54:50.000Z</time>
      </trkpt>
      <trkpt lat="47.29131" lon="-2.25973">
        <ele>12.60000038147</ele>
        <time>2022-07-17T07:54:51.000Z</time>
      </trkpt>
      <trkpt lat="47.29135" lon="-2.25974">
        <ele>12.199999809265</ele>
        <time>2022-07-17T07:54:52.000Z</time>
      </trkpt>
      <trkpt lat="47.2916" lon="-2.25977">
        <ele>12.199999809265</ele>
        <time>2022-07-17T07:54:58.000Z</time>
      </trkpt>
      <trkpt lat="47.29179" lon="-2.25976">
        <ele>12.199999809265</ele>
        <time>2022-07-17T07:55:03.000Z</time>
      </trkpt>
      <trkpt lat="47.29199" lon="-2.25973">
        <ele>12.199999809265</ele>
        <time>2022-07-17T07:55:09.000Z</time>
      </trkpt>
      <trkpt lat="47.29212" lon="-2.2597">
        <ele>12.199999809265</ele>
        <time>2022-07-17T07:55:12.000Z</time>
      </trkpt>
      <trkpt lat="47.29224" lon="-2.25962">
        <ele>12.199999809265</ele>
        <time>2022-07-17T07:55:15.000Z</time>
      </trkpt>
      <trkpt lat="47.29256" lon="-2.25946">
        <ele>12.199999809265</ele>
        <time>2022-07-17T07:55:22.000Z</time>
      </trkpt>
      <trkpt lat="47.29279" lon="-2.25935">
        <ele>12.199999809265</ele>
        <time>2022-07-17T07:55:27.000Z</time>
      </trkpt>
      <trkpt lat="47.29297" lon="-2.25925">
        <ele>12.199999809265</ele>
        <time>2022-07-17T07:55:32.000Z</time>
      </trkpt>
      <trkpt lat="47.29306" lon="-2.25919">
        <ele>12.199999809265</ele>
        <time>2022-07-17T07:55:37.000Z</time>
      </trkpt>
      <trkpt lat="47.29312" lon="-2.25903">
        <ele>12.199999809265</ele>
        <time>2022-07-17T07:55:42.000Z</time>
      </trkpt>
      <trkpt lat="47.29306" lon="-2.25893">
        <ele>12.199999809265</ele>
        <time>2022-07-17T07:55:45.000Z</time>
      </trkpt>
      <trkpt lat="47.29296" lon="-2.25878">
        <ele>12.199999809265</ele>
        <time>2022-07-17T07:55:49.000Z</time>
      </trkpt>
      <trkpt lat="47.29295" lon="-2.25859">
        <ele>12.199999809265</ele>
        <time>2022-07-17T07:55:53.000Z</time>
      </trkpt>
      <trkpt lat="47.29296" lon="-2.25861">
        <ele>12.199999809265</ele>
        <time>2022-07-17T07:55:55.000Z</time>
      </trkpt>
      <trkpt lat="47.29298" lon="-2.25864">
        <ele>12.199999809265</ele>
        <time>2022-07-17T07:55:56.000Z</time>
      </trkpt>
      <trkpt lat="47.29306" lon="-2.25872">
        <ele>12.199999809265</ele>
        <time>2022-07-17T07:55:59.000Z</time>
      </trkpt>
      <trkpt lat="47.2931" lon="-2.25877">
        <ele>12.199999809265</ele>
        <time>2022-07-17T07:56:01.000Z</time>
      </trkpt>
      <trkpt lat="47.2932" lon="-2.25881">
        <ele>12.199999809265</ele>
        <time>2022-07-17T07:56:06.000Z</time>
      </trkpt>
      <trkpt lat="47.29319" lon="-2.25878">
        <ele>12.199999809265</ele>
        <time>2022-07-17T07:56:08.000Z</time>
      </trkpt>
      <trkpt lat="47.29317" lon="-2.25875">
        <ele>12.199999809265</ele>
        <time>2022-07-17T07:56:10.000Z</time>
      </trkpt>
      <trkpt lat="47.29313" lon="-2.2587">
        <ele>12.199999809265</ele>
        <time>2022-07-17T07:56:12.000Z</time>
      </trkpt>
      <trkpt lat="47.2931" lon="-2.25865">
        <ele>12.199999809265</ele>
        <time>2022-07-17T07:56:14.000Z</time>
      </trkpt>
      <trkpt lat="47.29309" lon="-2.25853">
        <ele>12.199999809265</ele>
        <time>2022-07-17T07:56:17.000Z</time>
      </trkpt>
      <trkpt lat="47.2931" lon="-2.2585">
        <ele>12.199999809265</ele>
        <time>2022-07-17T07:56:18.000Z</time>
      </trkpt>
      <trkpt lat="47.29318" lon="-2.25849">
        <ele>12.199999809265</ele>
        <time>2022-07-17T07:56:21.000Z</time>
      </trkpt>
      <trkpt lat="47.2932" lon="-2.2585">
        <ele>12.199999809265</ele>
        <time>2022-07-17T07:56:22.000Z</time>
      </trkpt>
      <trkpt lat="47.29324" lon="-2.25852">
        <ele>12.199999809265</ele>
        <time>2022-07-17T07:56:24.000Z</time>
      </trkpt>
      <trkpt lat="47.29328" lon="-2.25858">
        <ele>12.199999809265</ele>
        <time>2022-07-17T07:56:27.000Z</time>
      </trkpt>
      <trkpt lat="47.29338" lon="-2.25878">
        <ele>12.199999809265</ele>
        <time>2022-07-17T07:56:32.000Z</time>
      </trkpt>
      <trkpt lat="47.29342" lon="-2.2588">
        <ele>12.199999809265</ele>
        <time>2022-07-17T07:56:34.000Z</time>
      </trkpt>
      <trkpt lat="47.29344" lon="-2.25881">
        <ele>12.199999809265</ele>
        <time>2022-07-17T07:56:35.000Z</time>
      </trkpt>
      <trkpt lat="47.29351" lon="-2.2589">
        <ele>12.199999809265</ele>
        <time>2022-07-17T07:56:39.000Z</time>
      </trkpt>
      <trkpt lat="47.29349" lon="-2.25892">
        <ele>12.199999809265</ele>
        <time>2022-07-17T07:56:40.000Z</time>
      </trkpt>
      <trkpt lat="47.29344" lon="-2.25916">
        <ele>12.199999809265</ele>
        <time>2022-07-17T07:56:44.000Z</time>
      </trkpt>
      <trkpt lat="47.29337" lon="-2.25938">
        <ele>12.199999809265</ele>
        <time>2022-07-17T07:56:48.000Z</time>
      </trkpt>
      <trkpt lat="47.29328" lon="-2.25952">
        <ele>12.199999809265</ele>
        <time>2022-07-17T07:56:51.000Z</time>
      </trkpt>
      <trkpt lat="47.29326" lon="-2.25958">
        <ele>12.199999809265</ele>
        <time>2022-07-17T07:56:52.000Z</time>
      </trkpt>
      <trkpt lat="47.29312" lon="-2.25976">
        <ele>12.199999809265</ele>
        <time>2022-07-17T07:56:57.000Z</time>
      </trkpt>
      <trkpt lat="47.29294" lon="-2.25979">
        <ele>12.199999809265</ele>
        <time>2022-07-17T07:57:02.000Z</time>
      </trkpt>
      <trkpt lat="47.29277" lon="-2.25987">
        <ele>12.199999809265</ele>
        <time>2022-07-17T07:57:07.000Z</time>
      </trkpt>
      <trkpt lat="47.29272" lon="-2.25992">
        <ele>12.199999809265</ele>
        <time>2022-07-17T07:57:09.000Z</time>
      </trkpt>
      <trkpt lat="47.29271" lon="-2.25999">
        <ele>12.199999809265</ele>
        <time>2022-07-17T07:57:11.000Z</time>
      </trkpt>
      <trkpt lat="47.29272" lon="-2.2601">
        <ele>12.199999809265</ele>
        <time>2022-07-17T07:57:13.000Z</time>
      </trkpt>
      <trkpt lat="47.29276" lon="-2.26022">
        <ele>12.199999809265</ele>
        <time>2022-07-17T07:57:15.000Z</time>
      </trkpt>
      <trkpt lat="47.29285" lon="-2.26044">
        <ele>12.199999809265</ele>
        <time>2022-07-17T07:57:20.000Z</time>
      </trkpt>
      <trkpt lat="47.29289" lon="-2.2606">
        <ele>12.199999809265</ele>
        <time>2022-07-17T07:57:25.000Z</time>
      </trkpt>
      <trkpt lat="47.29283" lon="-2.26071">
        <ele>12.199999809265</ele>
        <time>2022-07-17T07:57:30.000Z</time>
      </trkpt>
      <trkpt lat="47.29272" lon="-2.26075">
        <ele>12.60000038147</ele>
        <time>2022-07-17T07:57:32.000Z</time>
      </trkpt>
      <trkpt lat="47.29268" lon="-2.26076">
        <ele>13</ele>
        <time>2022-07-17T07:57:33.000Z</time>
      </trkpt>
      <trkpt lat="47.29264" lon="-2.26077">
        <ele>13.60000038147</ele>
        <time>2022-07-17T07:57:34.000Z</time>
      </trkpt>
      <trkpt lat="47.2926" lon="-2.26079">
        <ele>14</ele>
        <time>2022-07-17T07:57:35.000Z</time>
      </trkpt>
      <trkpt lat="47.29257" lon="-2.2608">
        <ele>14.39999961853</ele>
        <time>2022-07-17T07:57:36.000Z</time>
      </trkpt>
      <trkpt lat="47.29247" lon="-2.26092">
        <ele>14.39999961853</ele>
        <time>2022-07-17T07:57:39.000Z</time>
      </trkpt>
      <trkpt lat="47.29247" lon="-2.261">
        <ele>14.39999961853</ele>
        <time>2022-07-17T07:57:41.000Z</time>
      </trkpt>
      <trkpt lat="47.29249" lon="-2.26105">
        <ele>14.39999961853</ele>
        <time>2022-07-17T07:57:42.000Z</time>
      </trkpt>
      <trkpt lat="47.29253" lon="-2.26117">
        <ele>14.39999961853</ele>
        <time>2022-07-17T07:57:44.000Z</time>
      </trkpt>
      <trkpt lat="47.29257" lon="-2.26127">
        <ele>14.39999961853</ele>
        <time>2022-07-17T07:57:46.000Z</time>
      </trkpt>
      <trkpt lat="47.29267" lon="-2.26155">
        <ele>14.39999961853</ele>
        <time>2022-07-17T07:57:51.000Z</time>
      </trkpt>
      <trkpt lat="47.29268" lon="-2.26161">
        <ele>14.39999961853</ele>
        <time>2022-07-17T07:57:52.000Z</time>
      </trkpt>
      <trkpt lat="47.29271" lon="-2.26166">
        <ele>14.39999961853</ele>
        <time>2022-07-17T07:57:53.000Z</time>
      </trkpt>
      <trkpt lat="47.29275" lon="-2.2617">
        <ele>14.39999961853</ele>
        <time>2022-07-17T07:57:55.000Z</time>
      </trkpt>
      <trkpt lat="47.29292" lon="-2.26174">
        <ele>14.39999961853</ele>
        <time>2022-07-17T07:58:00.000Z</time>
      </trkpt>
      <trkpt lat="47.29311" lon="-2.2618">
        <ele>14.39999961853</ele>
        <time>2022-07-17T07:58:06.000Z</time>
      </trkpt>
      <trkpt lat="47.29313" lon="-2.26179">
        <ele>14.39999961853</ele>
        <time>2022-07-17T07:58:07.000Z</time>
      </trkpt>
      <trkpt lat="47.29315" lon="-2.26176">
        <ele>14.39999961853</ele>
        <time>2022-07-17T07:58:09.000Z</time>
      </trkpt>
      <trkpt lat="47.29316" lon="-2.26164">
        <ele>14.39999961853</ele>
        <time>2022-07-17T07:58:14.000Z</time>
      </trkpt>
      <trkpt lat="47.29317" lon="-2.26167">
        <ele>14.39999961853</ele>
        <time>2022-07-17T07:58:16.000Z</time>
      </trkpt>
      <trkpt lat="47.29318" lon="-2.26169">
        <ele>14.39999961853</ele>
        <time>2022-07-17T07:58:17.000Z</time>
      </trkpt>
      <trkpt lat="47.29324" lon="-2.26168">
        <ele>14.39999961853</ele>
        <time>2022-07-17T07:58:21.000Z</time>
      </trkpt>
      <trkpt lat="47.29327" lon="-2.26168">
        <ele>14</ele>
        <time>2022-07-17T07:58:22.000Z</time>
      </trkpt>
      <trkpt lat="47.2933" lon="-2.26169">
        <ele>13.60000038147</ele>
        <time>2022-07-17T07:58:23.000Z</time>
      </trkpt>
      <trkpt lat="47.29333" lon="-2.26168">
        <ele>13.199999809265</ele>
        <time>2022-07-17T07:58:24.000Z</time>
      </trkpt>
      <trkpt lat="47.2934" lon="-2.26164">
        <ele>12.800000190735</ele>
        <time>2022-07-17T07:58:25.000Z</time>
      </trkpt>
      <trkpt lat="47.29345" lon="-2.26161">
        <ele>12.39999961853</ele>
        <time>2022-07-17T07:58:26.000Z</time>
      </trkpt>
      <trkpt lat="47.2935" lon="-2.26158">
        <ele>12.39999961853</ele>
        <time>2022-07-17T07:58:27.000Z</time>
      </trkpt>
      <trkpt lat="47.29356" lon="-2.26159">
        <ele>12.39999961853</ele>
        <time>2022-07-17T07:58:28.000Z</time>
      </trkpt>
      <trkpt lat="47.29361" lon="-2.26162">
        <ele>12.39999961853</ele>
        <time>2022-07-17T07:58:29.000Z</time>
      </trkpt>
      <trkpt lat="47.29381" lon="-2.26164">
        <ele>12.39999961853</ele>
        <time>2022-07-17T07:58:32.000Z</time>
      </trkpt>
      <trkpt lat="47.29387" lon="-2.26163">
        <ele>11.800000190735</ele>
        <time>2022-07-17T07:58:33.000Z</time>
      </trkpt>
      <trkpt lat="47.29391" lon="-2.26159">
        <ele>11.39999961853</ele>
        <time>2022-07-17T07:58:34.000Z</time>
      </trkpt>
      <trkpt lat="47.29395" lon="-2.26156">
        <ele>11</ele>
        <time>2022-07-17T07:58:35.000Z</time>
      </trkpt>
      <trkpt lat="47.29398" lon="-2.2615">
        <ele>10.60000038147</ele>
        <time>2022-07-17T07:58:36.000Z</time>
      </trkpt>
      <trkpt lat="47.294" lon="-2.26145">
        <ele>10</ele>
        <time>2022-07-17T07:58:37.000Z</time>
      </trkpt>
      <trkpt lat="47.29402" lon="-2.26139">
        <ele>9.6000003814697</ele>
        <time>2022-07-17T07:58:38.000Z</time>
      </trkpt>
      <trkpt lat="47.29404" lon="-2.26133">
        <ele>9</ele>
        <time>2022-07-17T07:58:39.000Z</time>
      </trkpt>
      <trkpt lat="47.29405" lon="-2.26127">
        <ele>8.3999996185303</ele>
        <time>2022-07-17T07:58:40.000Z</time>
      </trkpt>
      <trkpt lat="47.29407" lon="-2.26121">
        <ele>8</ele>
        <time>2022-07-17T07:58:41.000Z</time>
      </trkpt>
      <trkpt lat="47.29408" lon="-2.26108">
        <ele>8</ele>
        <time>2022-07-17T07:58:43.000Z</time>
      </trkpt>
      <trkpt lat="47.29408" lon="-2.26101">
        <ele>7.5999999046326</ele>
        <time>2022-07-17T07:58:44.000Z</time>
      </trkpt>
      <trkpt lat="47.29407" lon="-2.26094">
        <ele>7</ele>
        <time>2022-07-17T07:58:45.000Z</time>
      </trkpt>
      <trkpt lat="47.29405" lon="-2.26087">
        <ele>6.5999999046326</ele>
        <time>2022-07-17T07:58:46.000Z</time>
      </trkpt>
      <trkpt lat="47.29404" lon="-2.26082">
        <ele>6.1999998092651</ele>
        <time>2022-07-17T07:58:47.000Z</time>
      </trkpt>
      <trkpt lat="47.29402" lon="-2.26077">
        <ele>5.8000001907349</ele>
        <time>2022-07-17T07:58:48.000Z</time>
      </trkpt>
      <trkpt lat="47.29397" lon="-2.26064">
        <ele>5.8000001907349</ele>
        <time>2022-07-17T07:58:50.000Z</time>
      </trkpt>
      <trkpt lat="47.29391" lon="-2.26046">
        <ele>5.8000001907349</ele>
        <time>2022-07-17T07:58:53.000Z</time>
      </trkpt>
      <trkpt lat="47.2939" lon="-2.26039">
        <ele>5.8000001907349</ele>
        <time>2022-07-17T07:58:54.000Z</time>
      </trkpt>
      <trkpt lat="47.29392" lon="-2.26021">
        <ele>5.8000001907349</ele>
        <time>2022-07-17T07:58:57.000Z</time>
      </trkpt>
      <trkpt lat="47.29393" lon="-2.26015">
        <ele>5.8000001907349</ele>
        <time>2022-07-17T07:58:58.000Z</time>
      </trkpt>
      <trkpt lat="47.29395" lon="-2.25988">
        <ele>5.8000001907349</ele>
        <time>2022-07-17T07:59:02.000Z</time>
      </trkpt>
      <trkpt lat="47.29393" lon="-2.25974">
        <ele>6.1999998092651</ele>
        <time>2022-07-17T07:59:05.000Z</time>
      </trkpt>
      <trkpt lat="47.29394" lon="-2.25969">
        <ele>6.5999999046326</ele>
        <time>2022-07-17T07:59:06.000Z</time>
      </trkpt>
      <trkpt lat="47.29394" lon="-2.25965">
        <ele>7</ele>
        <time>2022-07-17T07:59:07.000Z</time>
      </trkpt>
      <trkpt lat="47.29395" lon="-2.25964">
        <ele>7.8000001907349</ele>
        <time>2022-07-17T07:59:08.000Z</time>
      </trkpt>
      <trkpt lat="47.29398" lon="-2.25966">
        <ele>7.8000001907349</ele>
        <time>2022-07-17T07:59:10.000Z</time>
      </trkpt>
      <trkpt lat="47.29408" lon="-2.25956">
        <ele>7.8000001907349</ele>
        <time>2022-07-17T07:59:14.000Z</time>
      </trkpt>
      <trkpt lat="47.29412" lon="-2.25953">
        <ele>7.8000001907349</ele>
        <time>2022-07-17T07:59:15.000Z</time>
      </trkpt>
      <trkpt lat="47.29425" lon="-2.25944">
        <ele>7.8000001907349</ele>
        <time>2022-07-17T07:59:19.000Z</time>
      </trkpt>
      <trkpt lat="47.29428" lon="-2.25937">
        <ele>7.4000000953674</ele>
        <time>2022-07-17T07:59:20.000Z</time>
      </trkpt>
      <trkpt lat="47.2943" lon="-2.25929">
        <ele>7</ele>
        <time>2022-07-17T07:59:21.000Z</time>
      </trkpt>
      <trkpt lat="47.2943" lon="-2.25921">
        <ele>6.5999999046326</ele>
        <time>2022-07-17T07:59:22.000Z</time>
      </trkpt>
      <trkpt lat="47.2943" lon="-2.25915">
        <ele>6.1999998092651</ele>
        <time>2022-07-17T07:59:23.000Z</time>
      </trkpt>
      <trkpt lat="47.29429" lon="-2.25908">
        <ele>5.8000001907349</ele>
        <time>2022-07-17T07:59:24.000Z</time>
      </trkpt>
      <trkpt lat="47.29428" lon="-2.25902">
        <ele>5.8000001907349</ele>
        <time>2022-07-17T07:59:25.000Z</time>
      </trkpt>
      <trkpt lat="47.29424" lon="-2.25882">
        <ele>5.8000001907349</ele>
        <time>2022-07-17T07:59:28.000Z</time>
      </trkpt>
      <trkpt lat="47.2942" lon="-2.25872">
        <ele>5.8000001907349</ele>
        <time>2022-07-17T07:59:30.000Z</time>
      </trkpt>
      <trkpt lat="47.29416" lon="-2.25868">
        <ele>5.8000001907349</ele>
        <time>2022-07-17T07:59:32.000Z</time>
      </trkpt>
      <trkpt lat="47.29414" lon="-2.25868">
        <ele>6.5999999046326</ele>
        <time>2022-07-17T07:59:33.000Z</time>
      </trkpt>
      <trkpt lat="47.29412" lon="-2.25868">
        <ele>7</ele>
        <time>2022-07-17T07:59:34.000Z</time>
      </trkpt>
      <trkpt lat="47.2941" lon="-2.25868">
        <ele>7.4000000953674</ele>
        <time>2022-07-17T07:59:35.000Z</time>
      </trkpt>
      <trkpt lat="47.29409" lon="-2.25868">
        <ele>7.8000001907349</ele>
        <time>2022-07-17T07:59:36.000Z</time>
      </trkpt>
      <trkpt lat="47.29393" lon="-2.25866">
        <ele>7.8000001907349</ele>
        <time>2022-07-17T07:59:41.000Z</time>
      </trkpt>
      <trkpt lat="47.29385" lon="-2.25869">
        <ele>7.8000001907349</ele>
        <time>2022-07-17T07:59:45.000Z</time>
      </trkpt>
      <trkpt lat="47.2937" lon="-2.25863">
        <ele>7.8000001907349</ele>
        <time>2022-07-17T07:59:50.000Z</time>
      </trkpt>
      <trkpt lat="47.29368" lon="-2.25857">
        <ele>8.1999998092651</ele>
        <time>2022-07-17T07:59:53.000Z</time>
      </trkpt>
      <trkpt lat="47.29367" lon="-2.25855">
        <ele>8.6000003814697</ele>
        <time>2022-07-17T07:59:54.000Z</time>
      </trkpt>
      <trkpt lat="47.29366" lon="-2.25852">
        <ele>9.1999998092651</ele>
        <time>2022-07-17T07:59:55.000Z</time>
      </trkpt>
      <trkpt lat="47.29364" lon="-2.25851">
        <ele>9.6000003814697</ele>
        <time>2022-07-17T07:59:56.000Z</time>
      </trkpt>
      <trkpt lat="47.29362" lon="-2.25851">
        <ele>10</ele>
        <time>2022-07-17T07:59:57.000Z</time>
      </trkpt>
      <trkpt lat="47.29358" lon="-2.25853">
        <ele>10</ele>
        <time>2022-07-17T07:59:59.000Z</time>
      </trkpt>
      <trkpt lat="47.29356" lon="-2.25853">
        <ele>10</ele>
        <time>2022-07-17T08:00:00.000Z</time>
      </trkpt>
      <trkpt lat="47.29348" lon="-2.25857">
        <ele>10</ele>
        <time>2022-07-17T08:00:06.000Z</time>
      </trkpt>
      <trkpt lat="47.29344" lon="-2.25862">
        <ele>10</ele>
        <time>2022-07-17T08:00:11.000Z</time>
      </trkpt>
      <trkpt lat="47.29339" lon="-2.25862">
        <ele>10</ele>
        <time>2022-07-17T08:00:14.000Z</time>
      </trkpt>
      <trkpt lat="47.29338" lon="-2.25862">
        <ele>10</ele>
        <time>2022-07-17T08:00:15.000Z</time>
      </trkpt>
      <trkpt lat="47.29331" lon="-2.25855">
        <ele>10</ele>
        <time>2022-07-17T08:00:20.000Z</time>
      </trkpt>
      <trkpt lat="47.29329" lon="-2.25853">
        <ele>10.39999961853</ele>
        <time>2022-07-17T08:00:21.000Z</time>
      </trkpt>
      <trkpt lat="47.29327" lon="-2.25851">
        <ele>10.800000190735</ele>
        <time>2022-07-17T08:00:22.000Z</time>
      </trkpt>
      <trkpt lat="47.29326" lon="-2.25851">
        <ele>11.60000038147</ele>
        <time>2022-07-17T08:00:23.000Z</time>
      </trkpt>
      <trkpt lat="47.29324" lon="-2.2585">
        <ele>12.199999809265</ele>
        <time>2022-07-17T08:00:24.000Z</time>
      </trkpt>
      <trkpt lat="47.29322" lon="-2.25849">
        <ele>12.199999809265</ele>
        <time>2022-07-17T08:00:25.000Z</time>
      </trkpt>
      <trkpt lat="47.29316" lon="-2.25849">
        <ele>12.199999809265</ele>
        <time>2022-07-17T08:00:29.000Z</time>
      </trkpt>
      <trkpt lat="47.29316" lon="-2.25851">
        <ele>12.199999809265</ele>
        <time>2022-07-17T08:00:30.000Z</time>
      </trkpt>
      <trkpt lat="47.29317" lon="-2.25859">
        <ele>12.199999809265</ele>
        <time>2022-07-17T08:00:33.000Z</time>
      </trkpt>
      <trkpt lat="47.29318" lon="-2.25861">
        <ele>12.199999809265</ele>
        <time>2022-07-17T08:00:34.000Z</time>
      </trkpt>
      <trkpt lat="47.29327" lon="-2.2588">
        <ele>12.199999809265</ele>
        <time>2022-07-17T08:00:40.000Z</time>
      </trkpt>
      <trkpt lat="47.29325" lon="-2.25889">
        <ele>12.199999809265</ele>
        <time>2022-07-17T08:00:44.000Z</time>
      </trkpt>
      <trkpt lat="47.29325" lon="-2.2589">
        <ele>12.199999809265</ele>
        <time>2022-07-17T08:00:45.000Z</time>
      </trkpt>
      <trkpt lat="47.29324" lon="-2.25889">
        <ele>12.199999809265</ele>
        <time>2022-07-17T08:00:46.000Z</time>
      </trkpt>
      <trkpt lat="47.29319" lon="-2.25885">
        <ele>12.199999809265</ele>
        <time>2022-07-17T08:00:48.000Z</time>
      </trkpt>
      <trkpt lat="47.29305" lon="-2.25873">
        <ele>12.199999809265</ele>
        <time>2022-07-17T08:00:53.000Z</time>
      </trkpt>
      <trkpt lat="47.29302" lon="-2.25866">
        <ele>12.199999809265</ele>
        <time>2022-07-17T08:00:55.000Z</time>
      </trkpt>
      <trkpt lat="47.29302" lon="-2.25859">
        <ele>12.199999809265</ele>
        <time>2022-07-17T08:00:57.000Z</time>
      </trkpt>
      <trkpt lat="47.29303" lon="-2.25856">
        <ele>12.199999809265</ele>
        <time>2022-07-17T08:00:59.000Z</time>
      </trkpt>
      <trkpt lat="47.29306" lon="-2.25858">
        <ele>12.199999809265</ele>
        <time>2022-07-17T08:01:01.000Z</time>
      </trkpt>
      <trkpt lat="47.29312" lon="-2.2587">
        <ele>12.199999809265</ele>
        <time>2022-07-17T08:01:05.000Z</time>
      </trkpt>
      <trkpt lat="47.29314" lon="-2.25873">
        <ele>12.199999809265</ele>
        <time>2022-07-17T08:01:06.000Z</time>
      </trkpt>
      <trkpt lat="47.29324" lon="-2.2589">
        <ele>12.199999809265</ele>
        <time>2022-07-17T08:01:10.000Z</time>
      </trkpt>
      <trkpt lat="47.29325" lon="-2.259">
        <ele>11.199999809265</ele>
        <time>2022-07-17T08:01:12.000Z</time>
      </trkpt>
      <trkpt lat="47.29325" lon="-2.25905">
        <ele>10.800000190735</ele>
        <time>2022-07-17T08:01:13.000Z</time>
      </trkpt>
      <trkpt lat="47.29327" lon="-2.2591">
        <ele>10.39999961853</ele>
        <time>2022-07-17T08:01:14.000Z</time>
      </trkpt>
      <trkpt lat="47.2933" lon="-2.25915">
        <ele>10</ele>
        <time>2022-07-17T08:01:15.000Z</time>
      </trkpt>
      <trkpt lat="47.29331" lon="-2.25926">
        <ele>10</ele>
        <time>2022-07-17T08:01:17.000Z</time>
      </trkpt>
      <trkpt lat="47.29335" lon="-2.25959">
        <ele>10</ele>
        <time>2022-07-17T08:01:22.000Z</time>
      </trkpt>
      <trkpt lat="47.29338" lon="-2.25964">
        <ele>10</ele>
        <time>2022-07-17T08:01:23.000Z</time>
      </trkpt>
      <trkpt lat="47.29348" lon="-2.25974">
        <ele>10</ele>
        <time>2022-07-17T08:01:26.000Z</time>
      </trkpt>
      <trkpt lat="47.29361" lon="-2.25969">
        <ele>10</ele>
        <time>2022-07-17T08:01:29.000Z</time>
      </trkpt>
      <trkpt lat="47.29367" lon="-2.25962">
        <ele>10</ele>
        <time>2022-07-17T08:01:32.000Z</time>
      </trkpt>
      <trkpt lat="47.2937" lon="-2.25958">
        <ele>10</ele>
        <time>2022-07-17T08:01:33.000Z</time>
      </trkpt>
      <trkpt lat="47.29383" lon="-2.2595">
        <ele>10</ele>
        <time>2022-07-17T08:01:37.000Z</time>
      </trkpt>
      <trkpt lat="47.29387" lon="-2.2595">
        <ele>10</ele>
        <time>2022-07-17T08:01:38.000Z</time>
      </trkpt>
      <trkpt lat="47.29402" lon="-2.25957">
        <ele>9.6000003814697</ele>
        <time>2022-07-17T08:01:42.000Z</time>
      </trkpt>
      <trkpt lat="47.29405" lon="-2.25958">
        <ele>9</ele>
        <time>2022-07-17T08:01:43.000Z</time>
      </trkpt>
      <trkpt lat="47.29407" lon="-2.25962">
        <ele>8.6000003814697</ele>
        <time>2022-07-17T08:01:44.000Z</time>
      </trkpt>
      <trkpt lat="47.29409" lon="-2.25967">
        <ele>8.1999998092651</ele>
        <time>2022-07-17T08:01:45.000Z</time>
      </trkpt>
      <trkpt lat="47.2941" lon="-2.2597">
        <ele>7.8000001907349</ele>
        <time>2022-07-17T08:01:46.000Z</time>
      </trkpt>
      <trkpt lat="47.29412" lon="-2.25985">
        <ele>7.1999998092651</ele>
        <time>2022-07-17T08:01:49.000Z</time>
      </trkpt>
      <trkpt lat="47.29413" lon="-2.25991">
        <ele>6.8000001907349</ele>
        <time>2022-07-17T08:01:50.000Z</time>
      </trkpt>
      <trkpt lat="47.29413" lon="-2.25996">
        <ele>6.4000000953674</ele>
        <time>2022-07-17T08:01:51.000Z</time>
      </trkpt>
      <trkpt lat="47.29413" lon="-2.26002">
        <ele>6</ele>
        <time>2022-07-17T08:01:52.000Z</time>
      </trkpt>
      <trkpt lat="47.29414" lon="-2.26007">
        <ele>5.5999999046326</ele>
        <time>2022-07-17T08:01:53.000Z</time>
      </trkpt>
      <trkpt lat="47.29419" lon="-2.26035">
        <ele>5.5999999046326</ele>
        <time>2022-07-17T08:01:56.000Z</time>
      </trkpt>
      <trkpt lat="47.29417" lon="-2.26072">
        <ele>5.5999999046326</ele>
        <time>2022-07-17T08:02:00.000Z</time>
      </trkpt>
      <trkpt lat="47.29417" lon="-2.26108">
        <ele>5.5999999046326</ele>
        <time>2022-07-17T08:02:05.000Z</time>
      </trkpt>
      <trkpt lat="47.29416" lon="-2.26136">
        <ele>5.5999999046326</ele>
        <time>2022-07-17T08:02:10.000Z</time>
      </trkpt>
      <trkpt lat="47.29417" lon="-2.26139">
        <ele>5.5999999046326</ele>
        <time>2022-07-17T08:02:11.000Z</time>
      </trkpt>
      <trkpt lat="47.29418" lon="-2.26147">
        <ele>6</ele>
        <time>2022-07-17T08:02:13.000Z</time>
      </trkpt>
      <trkpt lat="47.29417" lon="-2.26151">
        <ele>6.4000000953674</ele>
        <time>2022-07-17T08:02:14.000Z</time>
      </trkpt>
      <trkpt lat="47.29417" lon="-2.26154">
        <ele>7</ele>
        <time>2022-07-17T08:02:15.000Z</time>
      </trkpt>
      <trkpt lat="47.29417" lon="-2.26156">
        <ele>7.4000000953674</ele>
        <time>2022-07-17T08:02:16.000Z</time>
      </trkpt>
      <trkpt lat="47.29417" lon="-2.26157">
        <ele>7.8000001907349</ele>
        <time>2022-07-17T08:02:17.000Z</time>
      </trkpt>
      <trkpt lat="47.2941" lon="-2.26159">
        <ele>7.8000001907349</ele>
        <time>2022-07-17T08:02:19.000Z</time>
      </trkpt>
      <trkpt lat="47.29405" lon="-2.26158">
        <ele>7.8000001907349</ele>
        <time>2022-07-17T08:02:20.000Z</time>
      </trkpt>
      <trkpt lat="47.29401" lon="-2.26157">
        <ele>8.1999998092651</ele>
        <time>2022-07-17T08:02:21.000Z</time>
      </trkpt>
      <trkpt lat="47.29398" lon="-2.26156">
        <ele>8.6000003814697</ele>
        <time>2022-07-17T08:02:22.000Z</time>
      </trkpt>
      <trkpt lat="47.29394" lon="-2.26153">
        <ele>9</ele>
        <time>2022-07-17T08:02:23.000Z</time>
      </trkpt>
      <trkpt lat="47.2939" lon="-2.26151">
        <ele>9.3999996185303</ele>
        <time>2022-07-17T08:02:24.000Z</time>
      </trkpt>
      <trkpt lat="47.29386" lon="-2.26148">
        <ele>9.8000001907349</ele>
        <time>2022-07-17T08:02:25.000Z</time>
      </trkpt>
      <trkpt lat="47.29382" lon="-2.26144">
        <ele>9.8000001907349</ele>
        <time>2022-07-17T08:02:26.000Z</time>
      </trkpt>
      <trkpt lat="47.2936" lon="-2.26121">
        <ele>9.8000001907349</ele>
        <time>2022-07-17T08:02:32.000Z</time>
      </trkpt>
      <trkpt lat="47.29351" lon="-2.26107">
        <ele>9.8000001907349</ele>
        <time>2022-07-17T08:02:35.000Z</time>
      </trkpt>
      <trkpt lat="47.29346" lon="-2.26098">
        <ele>9.8000001907349</ele>
        <time>2022-07-17T08:02:37.000Z</time>
      </trkpt>
      <trkpt lat="47.29336" lon="-2.26074">
        <ele>9.8000001907349</ele>
        <time>2022-07-17T08:02:43.000Z</time>
      </trkpt>
      <trkpt lat="47.29341" lon="-2.26061">
        <ele>9.8000001907349</ele>
        <time>2022-07-17T08:02:48.000Z</time>
      </trkpt>
      <trkpt lat="47.29342" lon="-2.26058">
        <ele>9.8000001907349</ele>
        <time>2022-07-17T08:02:50.000Z</time>
      </trkpt>
      <trkpt lat="47.29343" lon="-2.26054">
        <ele>9.8000001907349</ele>
        <time>2022-07-17T08:02:54.000Z</time>
      </trkpt>
      <trkpt lat="47.29344" lon="-2.26041">
        <ele>9</ele>
        <time>2022-07-17T08:03:00.000Z</time>
      </trkpt>
      <trkpt lat="47.29346" lon="-2.26038">
        <ele>8.6000003814697</ele>
        <time>2022-07-17T08:03:01.000Z</time>
      </trkpt>
      <trkpt lat="47.29346" lon="-2.26037">
        <ele>8.1999998092651</ele>
        <time>2022-07-17T08:03:02.000Z</time>
      </trkpt>
      <trkpt lat="47.29347" lon="-2.26033">
        <ele>7.8000001907349</ele>
        <time>2022-07-17T08:03:03.000Z</time>
      </trkpt>
      <trkpt lat="47.29349" lon="-2.26028">
        <ele>7.8000001907349</ele>
        <time>2022-07-17T08:03:05.000Z</time>
      </trkpt>
      <trkpt lat="47.29357" lon="-2.2602">
        <ele>7.8000001907349</ele>
        <time>2022-07-17T08:03:10.000Z</time>
      </trkpt>
      <trkpt lat="47.29363" lon="-2.26022">
        <ele>7.8000001907349</ele>
        <time>2022-07-17T08:03:16.000Z</time>
      </trkpt>
      <trkpt lat="47.29364" lon="-2.26022">
        <ele>7.8000001907349</ele>
        <time>2022-07-17T08:03:17.000Z</time>
      </trkpt>
      <trkpt lat="47.29374" lon="-2.26029">
        <ele>7.8000001907349</ele>
        <time>2022-07-17T08:03:29.000Z</time>
      </trkpt>
      <trkpt lat="47.29377" lon="-2.26029">
        <ele>7.8000001907349</ele>
        <time>2022-07-17T08:03:31.000Z</time>
      </trkpt>
      <trkpt lat="47.29379" lon="-2.26028">
        <ele>7.4000000953674</ele>
        <time>2022-07-17T08:03:32.000Z</time>
      </trkpt>
      <trkpt lat="47.2938" lon="-2.26027">
        <ele>7</ele>
        <time>2022-07-17T08:03:33.000Z</time>
      </trkpt>
      <trkpt lat="47.29381" lon="-2.26026">
        <ele>6.5999999046326</ele>
        <time>2022-07-17T08:03:34.000Z</time>
      </trkpt>
      <trkpt lat="47.29383" lon="-2.26025">
        <ele>6.1999998092651</ele>
        <time>2022-07-17T08:03:35.000Z</time>
      </trkpt>
      <trkpt lat="47.29385" lon="-2.26024">
        <ele>5.5999999046326</ele>
        <time>2022-07-17T08:03:36.000Z</time>
      </trkpt>
      <trkpt lat="47.29386" lon="-2.26022">
        <ele>5.5999999046326</ele>
        <time>2022-07-17T08:03:37.000Z</time>
      </trkpt>
      <trkpt lat="47.29387" lon="-2.26011">
        <ele>5.5999999046326</ele>
        <time>2022-07-17T08:03:40.000Z</time>
      </trkpt>
      <trkpt lat="47.29391" lon="-2.2599">
        <ele>5.5999999046326</ele>
        <time>2022-07-17T08:03:44.000Z</time>
      </trkpt>
      <trkpt lat="47.29391" lon="-2.25984">
        <ele>5.5999999046326</ele>
        <time>2022-07-17T08:03:45.000Z</time>
      </trkpt>
      <trkpt lat="47.29387" lon="-2.25964">
        <ele>5.5999999046326</ele>
        <time>2022-07-17T08:03:49.000Z</time>
      </trkpt>
      <trkpt lat="47.29388" lon="-2.25961">
        <ele>6.1999998092651</ele>
        <time>2022-07-17T08:03:50.000Z</time>
      </trkpt>
      <trkpt lat="47.2939" lon="-2.25961">
        <ele>6.5999999046326</ele>
        <time>2022-07-17T08:03:51.000Z</time>
      </trkpt>
      <trkpt lat="47.29392" lon="-2.25962">
        <ele>7</ele>
        <time>2022-07-17T08:03:52.000Z</time>
      </trkpt>
      <trkpt lat="47.29393" lon="-2.25964">
        <ele>7.4000000953674</ele>
        <time>2022-07-17T08:03:53.000Z</time>
      </trkpt>
      <trkpt lat="47.29396" lon="-2.25965">
        <ele>7.8000001907349</ele>
        <time>2022-07-17T08:03:54.000Z</time>
      </trkpt>
      <trkpt lat="47.29399" lon="-2.25962">
        <ele>7.8000001907349</ele>
        <time>2022-07-17T08:03:55.000Z</time>
      </trkpt>
      <trkpt lat="47.29407" lon="-2.25958">
        <ele>7.8000001907349</ele>
        <time>2022-07-17T08:03:57.000Z</time>
      </trkpt>
      <trkpt lat="47.29427" lon="-2.25944">
        <ele>7.8000001907349</ele>
        <time>2022-07-17T08:04:02.000Z</time>
      </trkpt>
      <trkpt lat="47.29429" lon="-2.25938">
        <ele>7.4000000953674</ele>
        <time>2022-07-17T08:04:03.000Z</time>
      </trkpt>
      <trkpt lat="47.29431" lon="-2.25932">
        <ele>6.4000000953674</ele>
        <time>2022-07-17T08:04:04.000Z</time>
      </trkpt>
      <trkpt lat="47.29432" lon="-2.25927">
        <ele>6</ele>
        <time>2022-07-17T08:04:05.000Z</time>
      </trkpt>
      <trkpt lat="47.29432" lon="-2.2592">
        <ele>5.5999999046326</ele>
        <time>2022-07-17T08:04:06.000Z</time>
      </trkpt>
      <trkpt lat="47.2943" lon="-2.25908">
        <ele>5.5999999046326</ele>
        <time>2022-07-17T08:04:08.000Z</time>
      </trkpt>
      <trkpt lat="47.29429" lon="-2.25902">
        <ele>5.5999999046326</ele>
        <time>2022-07-17T08:04:09.000Z</time>
      </trkpt>
      <trkpt lat="47.29428" lon="-2.25896">
        <ele>5.5999999046326</ele>
        <time>2022-07-17T08:04:10.000Z</time>
      </trkpt>
      <trkpt lat="47.29424" lon="-2.25878">
        <ele>5.5999999046326</ele>
        <time>2022-07-17T08:04:13.000Z</time>
      </trkpt>
      <trkpt lat="47.29422" lon="-2.25874">
        <ele>5.5999999046326</ele>
        <time>2022-07-17T08:04:14.000Z</time>
      </trkpt>
      <trkpt lat="47.29423" lon="-2.25858">
        <ele>5.5999999046326</ele>
        <time>2022-07-17T08:04:18.000Z</time>
      </trkpt>
      <trkpt lat="47.29429" lon="-2.25833">
        <ele>5.5999999046326</ele>
        <time>2022-07-17T08:04:22.000Z</time>
      </trkpt>
      <trkpt lat="47.29429" lon="-2.25826">
        <ele>5.5999999046326</ele>
        <time>2022-07-17T08:04:23.000Z</time>
      </trkpt>
      <trkpt lat="47.29427" lon="-2.25815">
        <ele>5.5999999046326</ele>
        <time>2022-07-17T08:04:25.000Z</time>
      </trkpt>
      <trkpt lat="47.29426" lon="-2.25811">
        <ele>5.5999999046326</ele>
        <time>2022-07-17T08:04:26.000Z</time>
      </trkpt>
      <trkpt lat="47.29428" lon="-2.25794">
        <ele>5.5999999046326</ele>
        <time>2022-07-17T08:04:30.000Z</time>
      </trkpt>
      <trkpt lat="47.29426" lon="-2.25788">
        <ele>5.5999999046326</ele>
        <time>2022-07-17T08:04:32.000Z</time>
      </trkpt>
      <trkpt lat="47.29424" lon="-2.25784">
        <ele>5.5999999046326</ele>
        <time>2022-07-17T08:04:34.000Z</time>
      </trkpt>
      <trkpt lat="47.29423" lon="-2.25781">
        <ele>5.5999999046326</ele>
        <time>2022-07-17T08:04:35.000Z</time>
      </trkpt>
      <trkpt lat="47.29419" lon="-2.25771">
        <ele>5.5999999046326</ele>
        <time>2022-07-17T08:04:38.000Z</time>
      </trkpt>
      <trkpt lat="47.29417" lon="-2.25769">
        <ele>6.1999998092651</ele>
        <time>2022-07-17T08:04:39.000Z</time>
      </trkpt>
      <trkpt lat="47.29415" lon="-2.25767">
        <ele>6.5999999046326</ele>
        <time>2022-07-17T08:04:40.000Z</time>
      </trkpt>
      <trkpt lat="47.29413" lon="-2.25765">
        <ele>7</ele>
        <time>2022-07-17T08:04:41.000Z</time>
      </trkpt>
      <trkpt lat="47.2941" lon="-2.25764">
        <ele>7.4000000953674</ele>
        <time>2022-07-17T08:04:42.000Z</time>
      </trkpt>
      <trkpt lat="47.29407" lon="-2.25764">
        <ele>7.8000001907349</ele>
        <time>2022-07-17T08:04:43.000Z</time>
      </trkpt>
      <trkpt lat="47.29402" lon="-2.2576">
        <ele>7.8000001907349</ele>
        <time>2022-07-17T08:04:45.000Z</time>
      </trkpt>
      <trkpt lat="47.29398" lon="-2.25758">
        <ele>7.8000001907349</ele>
        <time>2022-07-17T08:04:47.000Z</time>
      </trkpt>
      <trkpt lat="47.29385" lon="-2.25761">
        <ele>7.8000001907349</ele>
        <time>2022-07-17T08:04:52.000Z</time>
      </trkpt>
      <trkpt lat="47.29372" lon="-2.25764">
        <ele>7.8000001907349</ele>
        <time>2022-07-17T08:04:57.000Z</time>
      </trkpt>
      <trkpt lat="47.2937" lon="-2.25769">
        <ele>7.8000001907349</ele>
        <time>2022-07-17T08:04:59.000Z</time>
      </trkpt>
      <trkpt lat="47.2937" lon="-2.25771">
        <ele>7.8000001907349</ele>
        <time>2022-07-17T08:05:00.000Z</time>
      </trkpt>
      <trkpt lat="47.2937" lon="-2.25774">
        <ele>8.1999998092651</ele>
        <time>2022-07-17T08:05:01.000Z</time>
      </trkpt>
      <trkpt lat="47.29369" lon="-2.25776">
        <ele>8.6000003814697</ele>
        <time>2022-07-17T08:05:02.000Z</time>
      </trkpt>
      <trkpt lat="47.2937" lon="-2.25779">
        <ele>9</ele>
        <time>2022-07-17T08:05:03.000Z</time>
      </trkpt>
      <trkpt lat="47.29371" lon="-2.25781">
        <ele>9.3999996185303</ele>
        <time>2022-07-17T08:05:04.000Z</time>
      </trkpt>
      <trkpt lat="47.29371" lon="-2.25783">
        <ele>9.8000001907349</ele>
        <time>2022-07-17T08:05:05.000Z</time>
      </trkpt>
      <trkpt lat="47.29371" lon="-2.25785">
        <ele>9.8000001907349</ele>
        <time>2022-07-17T08:05:06.000Z</time>
      </trkpt>
      <trkpt lat="47.29368" lon="-2.25788">
        <ele>9.8000001907349</ele>
        <time>2022-07-17T08:05:08.000Z</time>
      </trkpt>
      <trkpt lat="47.29357" lon="-2.2579">
        <ele>9.8000001907349</ele>
        <time>2022-07-17T08:05:13.000Z</time>
      </trkpt>
      <trkpt lat="47.29339" lon="-2.25789">
        <ele>9.8000001907349</ele>
        <time>2022-07-17T08:05:20.000Z</time>
      </trkpt>
      <trkpt lat="47.29339" lon="-2.25789">
        <ele>10.39999961853</ele>
        <time>2022-07-17T08:05:21.000Z</time>
      </trkpt>
      <trkpt lat="47.29338" lon="-2.25786">
        <ele>12</ele>
        <time>2022-07-17T08:05:36.000Z</time>
      </trkpt>
      <trkpt lat="47.2934" lon="-2.25781">
        <ele>12</ele>
        <time>2022-07-17T08:05:38.000Z</time>
      </trkpt>
      <trkpt lat="47.29348" lon="-2.25768">
        <ele>12</ele>
        <time>2022-07-17T08:05:43.000Z</time>
      </trkpt>
      <trkpt lat="47.29361" lon="-2.25749">
        <ele>12</ele>
        <time>2022-07-17T08:05:49.000Z</time>
      </trkpt>
      <trkpt lat="47.29374" lon="-2.25723">
        <ele>12</ele>
        <time>2022-07-17T08:05:54.000Z</time>
      </trkpt>
      <trkpt lat="47.29381" lon="-2.25694">
        <ele>12</ele>
        <time>2022-07-17T08:05:58.000Z</time>
      </trkpt>
      <trkpt lat="47.29382" lon="-2.25686">
        <ele>12</ele>
        <time>2022-07-17T08:05:59.000Z</time>
      </trkpt>
      <trkpt lat="47.29383" lon="-2.25678">
        <ele>12</ele>
        <time>2022-07-17T08:06:00.000Z</time>
      </trkpt>
      <trkpt lat="47.29388" lon="-2.25655">
        <ele>12</ele>
        <time>2022-07-17T08:06:03.000Z</time>
      </trkpt>
      <trkpt lat="47.29403" lon="-2.25634">
        <ele>12</ele>
        <time>2022-07-17T08:06:07.000Z</time>
      </trkpt>
      <trkpt lat="47.29408" lon="-2.2563">
        <ele>12</ele>
        <time>2022-07-17T08:06:08.000Z</time>
      </trkpt>
      <trkpt lat="47.29425" lon="-2.25622">
        <ele>12</ele>
        <time>2022-07-17T08:06:11.000Z</time>
      </trkpt>
      <trkpt lat="47.29469" lon="-2.25602">
        <ele>12</ele>
        <time>2022-07-17T08:06:18.000Z</time>
      </trkpt>
      <trkpt lat="47.29518" lon="-2.25573">
        <ele>12</ele>
        <time>2022-07-17T08:06:26.000Z</time>
      </trkpt>
      <trkpt lat="47.29565" lon="-2.25538">
        <ele>12</ele>
        <time>2022-07-17T08:06:34.000Z</time>
      </trkpt>
      <trkpt lat="47.2957" lon="-2.25532">
        <ele>12</ele>
        <time>2022-07-17T08:06:35.000Z</time>
      </trkpt>
      <trkpt lat="47.29582" lon="-2.25509">
        <ele>12</ele>
        <time>2022-07-17T08:06:38.000Z</time>
      </trkpt>
      <trkpt lat="47.29585" lon="-2.25483">
        <ele>11.60000038147</ele>
        <time>2022-07-17T08:06:41.000Z</time>
      </trkpt>
      <trkpt lat="47.29584" lon="-2.25473">
        <ele>11.199999809265</ele>
        <time>2022-07-17T08:06:42.000Z</time>
      </trkpt>
      <trkpt lat="47.29584" lon="-2.25464">
        <ele>10.800000190735</ele>
        <time>2022-07-17T08:06:43.000Z</time>
      </trkpt>
      <trkpt lat="47.29583" lon="-2.25455">
        <ele>10.39999961853</ele>
        <time>2022-07-17T08:06:44.000Z</time>
      </trkpt>
      <trkpt lat="47.29583" lon="-2.25446">
        <ele>10</ele>
        <time>2022-07-17T08:06:45.000Z</time>
      </trkpt>
      <trkpt lat="47.2958" lon="-2.2541">
        <ele>10</ele>
        <time>2022-07-17T08:06:49.000Z</time>
      </trkpt>
      <trkpt lat="47.29579" lon="-2.25401">
        <ele>10</ele>
        <time>2022-07-17T08:06:50.000Z</time>
      </trkpt>
      <trkpt lat="47.2957" lon="-2.25366">
        <ele>10</ele>
        <time>2022-07-17T08:06:54.000Z</time>
      </trkpt>
      <trkpt lat="47.29567" lon="-2.25358">
        <ele>10</ele>
        <time>2022-07-17T08:06:55.000Z</time>
      </trkpt>
      <trkpt lat="47.29564" lon="-2.2535">
        <ele>9.3999996185303</ele>
        <time>2022-07-17T08:06:56.000Z</time>
      </trkpt>
      <trkpt lat="47.2956" lon="-2.25342">
        <ele>8.6000003814697</ele>
        <time>2022-07-17T08:06:57.000Z</time>
      </trkpt>
      <trkpt lat="47.29557" lon="-2.25334">
        <ele>8</ele>
        <time>2022-07-17T08:06:58.000Z</time>
      </trkpt>
      <trkpt lat="47.29553" lon="-2.25326">
        <ele>7.5999999046326</ele>
        <time>2022-07-17T08:06:59.000Z</time>
      </trkpt>
      <trkpt lat="47.29543" lon="-2.25302">
        <ele>7.5999999046326</ele>
        <time>2022-07-17T08:07:02.000Z</time>
      </trkpt>
      <trkpt lat="47.29539" lon="-2.25284">
        <ele>7.5999999046326</ele>
        <time>2022-07-17T08:07:04.000Z</time>
      </trkpt>
      <trkpt lat="47.29538" lon="-2.25246">
        <ele>7.1999998092651</ele>
        <time>2022-07-17T08:07:08.000Z</time>
      </trkpt>
      <trkpt lat="47.29539" lon="-2.25237">
        <ele>6.8000001907349</ele>
        <time>2022-07-17T08:07:09.000Z</time>
      </trkpt>
      <trkpt lat="47.2954" lon="-2.25229">
        <ele>6.1999998092651</ele>
        <time>2022-07-17T08:07:10.000Z</time>
      </trkpt>
      <trkpt lat="47.29542" lon="-2.25221">
        <ele>5.8000001907349</ele>
        <time>2022-07-17T08:07:11.000Z</time>
      </trkpt>
      <trkpt lat="47.29544" lon="-2.25213">
        <ele>5.4000000953674</ele>
        <time>2022-07-17T08:07:12.000Z</time>
      </trkpt>
      <trkpt lat="47.29548" lon="-2.252">
        <ele>5.4000000953674</ele>
        <time>2022-07-17T08:07:14.000Z</time>
      </trkpt>
      <trkpt lat="47.29548" lon="-2.25183">
        <ele>5.4000000953674</ele>
        <time>2022-07-17T08:07:17.000Z</time>
      </trkpt>
      <trkpt lat="47.29537" lon="-2.25179">
        <ele>5.4000000953674</ele>
        <time>2022-07-17T08:07:20.000Z</time>
      </trkpt>
      <trkpt lat="47.29528" lon="-2.25181">
        <ele>5.4000000953674</ele>
        <time>2022-07-17T08:07:22.000Z</time>
      </trkpt>
      <trkpt lat="47.29513" lon="-2.25185">
        <ele>5.4000000953674</ele>
        <time>2022-07-17T08:07:25.000Z</time>
      </trkpt>
      <trkpt lat="47.2949" lon="-2.25194">
        <ele>5.4000000953674</ele>
        <time>2022-07-17T08:07:29.000Z</time>
      </trkpt>
      <trkpt lat="47.29484" lon="-2.25198">
        <ele>5.4000000953674</ele>
        <time>2022-07-17T08:07:30.000Z</time>
      </trkpt>
      <trkpt lat="47.29472" lon="-2.25202">
        <ele>5</ele>
        <time>2022-07-17T08:07:32.000Z</time>
      </trkpt>
      <trkpt lat="47.29466" lon="-2.25203">
        <ele>4.5999999046326</ele>
        <time>2022-07-17T08:07:33.000Z</time>
      </trkpt>
      <trkpt lat="47.2946" lon="-2.25204">
        <ele>4.1999998092651</ele>
        <time>2022-07-17T08:07:34.000Z</time>
      </trkpt>
      <trkpt lat="47.29454" lon="-2.25205">
        <ele>3.5999999046326</ele>
        <time>2022-07-17T08:07:35.000Z</time>
      </trkpt>
      <trkpt lat="47.29448" lon="-2.25207">
        <ele>3.2000000476837</ele>
        <time>2022-07-17T08:07:36.000Z</time>
      </trkpt>
      <trkpt lat="47.29441" lon="-2.25209">
        <ele>3.2000000476837</ele>
        <time>2022-07-17T08:07:37.000Z</time>
      </trkpt>
      <trkpt lat="47.2943" lon="-2.25213">
        <ele>3.2000000476837</ele>
        <time>2022-07-17T08:07:39.000Z</time>
      </trkpt>
      <trkpt lat="47.29424" lon="-2.25214">
        <ele>3.2000000476837</ele>
        <time>2022-07-17T08:07:40.000Z</time>
      </trkpt>
      <trkpt lat="47.29418" lon="-2.25216">
        <ele>3.2000000476837</ele>
        <time>2022-07-17T08:07:41.000Z</time>
      </trkpt>
      <trkpt lat="47.294" lon="-2.25214">
        <ele>3.2000000476837</ele>
        <time>2022-07-17T08:07:44.000Z</time>
      </trkpt>
      <trkpt lat="47.29394" lon="-2.25212">
        <ele>3.2000000476837</ele>
        <time>2022-07-17T08:07:45.000Z</time>
      </trkpt>
      <trkpt lat="47.29371" lon="-2.25204">
        <ele>3.2000000476837</ele>
        <time>2022-07-17T08:07:49.000Z</time>
      </trkpt>
      <trkpt lat="47.29364" lon="-2.25203">
        <ele>2.7999999523163</ele>
        <time>2022-07-17T08:07:50.000Z</time>
      </trkpt>
      <trkpt lat="47.29358" lon="-2.25201">
        <ele>2.4000000953674</ele>
        <time>2022-07-17T08:07:51.000Z</time>
      </trkpt>
      <trkpt lat="47.29351" lon="-2.252">
        <ele>2</ele>
        <time>2022-07-17T08:07:52.000Z</time>
      </trkpt>
      <trkpt lat="47.29344" lon="-2.25199">
        <ele>1.6000000238419</ele>
        <time>2022-07-17T08:07:53.000Z</time>
      </trkpt>
      <trkpt lat="47.29337" lon="-2.25198">
        <ele>1.2000000476837</ele>
        <time>2022-07-17T08:07:54.000Z</time>
      </trkpt>
      <trkpt lat="47.29315" lon="-2.25198">
        <ele>1.2000000476837</ele>
        <time>2022-07-17T08:07:58.000Z</time>
      </trkpt>
      <trkpt lat="47.29309" lon="-2.25188">
        <ele>1.2000000476837</ele>
        <time>2022-07-17T08:08:00.000Z</time>
      </trkpt>
      <trkpt lat="47.29307" lon="-2.25174">
        <ele>1.2000000476837</ele>
        <time>2022-07-17T08:08:02.000Z</time>
      </trkpt>
      <trkpt lat="47.29303" lon="-2.25151">
        <ele>1.2000000476837</ele>
        <time>2022-07-17T08:08:05.000Z</time>
      </trkpt>
      <trkpt lat="47.29297" lon="-2.25111">
        <ele>1.2000000476837</ele>
        <time>2022-07-17T08:08:10.000Z</time>
      </trkpt>
      <trkpt lat="47.29296" lon="-2.25103">
        <ele>1.6000000238419</ele>
        <time>2022-07-17T08:08:11.000Z</time>
      </trkpt>
      <trkpt lat="47.29294" lon="-2.25095">
        <ele>2</ele>
        <time>2022-07-17T08:08:12.000Z</time>
      </trkpt>
      <trkpt lat="47.29292" lon="-2.25087">
        <ele>2.4000000953674</ele>
        <time>2022-07-17T08:08:13.000Z</time>
      </trkpt>
      <trkpt lat="47.29291" lon="-2.2508">
        <ele>2.7999999523163</ele>
        <time>2022-07-17T08:08:14.000Z</time>
      </trkpt>
      <trkpt lat="47.29289" lon="-2.25072">
        <ele>3.4000000953674</ele>
        <time>2022-07-17T08:08:15.000Z</time>
      </trkpt>
      <trkpt lat="47.29287" lon="-2.25065">
        <ele>3.4000000953674</ele>
        <time>2022-07-17T08:08:16.000Z</time>
      </trkpt>
      <trkpt lat="47.29277" lon="-2.2503">
        <ele>3.4000000953674</ele>
        <time>2022-07-17T08:08:21.000Z</time>
      </trkpt>
      <trkpt lat="47.29264" lon="-2.24978">
        <ele>3.4000000953674</ele>
        <time>2022-07-17T08:08:28.000Z</time>
      </trkpt>
      <trkpt lat="47.29259" lon="-2.24951">
        <ele>3.7999999523163</ele>
        <time>2022-07-17T08:08:32.000Z</time>
      </trkpt>
      <trkpt lat="47.29259" lon="-2.24943">
        <ele>4.1999998092651</ele>
        <time>2022-07-17T08:08:33.000Z</time>
      </trkpt>
      <trkpt lat="47.2926" lon="-2.24937">
        <ele>5</ele>
        <time>2022-07-17T08:08:34.000Z</time>
      </trkpt>
      <trkpt lat="47.29261" lon="-2.24931">
        <ele>5.4000000953674</ele>
        <time>2022-07-17T08:08:35.000Z</time>
      </trkpt>
      <trkpt lat="47.29267" lon="-2.24923">
        <ele>5.4000000953674</ele>
        <time>2022-07-17T08:08:37.000Z</time>
      </trkpt>
      <trkpt lat="47.29278" lon="-2.24918">
        <ele>5.4000000953674</ele>
        <time>2022-07-17T08:08:40.000Z</time>
      </trkpt>
      <trkpt lat="47.29282" lon="-2.24918">
        <ele>5.4000000953674</ele>
        <time>2022-07-17T08:08:41.000Z</time>
      </trkpt>
      <trkpt lat="47.29302" lon="-2.24916">
        <ele>5.4000000953674</ele>
        <time>2022-07-17T08:08:46.000Z</time>
      </trkpt>
      <trkpt lat="47.29311" lon="-2.24916">
        <ele>5.4000000953674</ele>
        <time>2022-07-17T08:08:48.000Z</time>
      </trkpt>
      <trkpt lat="47.29324" lon="-2.24917">
        <ele>5.4000000953674</ele>
        <time>2022-07-17T08:08:51.000Z</time>
      </trkpt>
      <trkpt lat="47.29333" lon="-2.24916">
        <ele>5.4000000953674</ele>
        <time>2022-07-17T08:08:53.000Z</time>
      </trkpt>
      <trkpt lat="47.29343" lon="-2.24914">
        <ele>5.4000000953674</ele>
        <time>2022-07-17T08:08:55.000Z</time>
      </trkpt>
      <trkpt lat="47.29348" lon="-2.24914">
        <ele>5.4000000953674</ele>
        <time>2022-07-17T08:08:56.000Z</time>
      </trkpt>
      <trkpt lat="47.29354" lon="-2.24913">
        <ele>5.4000000953674</ele>
        <time>2022-07-17T08:08:57.000Z</time>
      </trkpt>
      <trkpt lat="47.29361" lon="-2.24913">
        <ele>4.8000001907349</ele>
        <time>2022-07-17T08:08:58.000Z</time>
      </trkpt>
      <trkpt lat="47.29368" lon="-2.24912">
        <ele>4</ele>
        <time>2022-07-17T08:08:59.000Z</time>
      </trkpt>
      <trkpt lat="47.29374" lon="-2.24911">
        <ele>3.4000000953674</ele>
        <time>2022-07-17T08:09:00.000Z</time>
      </trkpt>
      <trkpt lat="47.29381" lon="-2.24911">
        <ele>3</ele>
        <time>2022-07-17T08:09:01.000Z</time>
      </trkpt>
      <trkpt lat="47.29396" lon="-2.2491">
        <ele>3</ele>
        <time>2022-07-17T08:09:03.000Z</time>
      </trkpt>
      <trkpt lat="47.29404" lon="-2.2491">
        <ele>2.5999999046326</ele>
        <time>2022-07-17T08:09:04.000Z</time>
      </trkpt>
      <trkpt lat="47.29411" lon="-2.2491">
        <ele>2</ele>
        <time>2022-07-17T08:09:05.000Z</time>
      </trkpt>
      <trkpt lat="47.29419" lon="-2.24909">
        <ele>1.6000000238419</ele>
        <time>2022-07-17T08:09:06.000Z</time>
      </trkpt>
      <trkpt lat="47.29427" lon="-2.24909">
        <ele>1.2000000476837</ele>
        <time>2022-07-17T08:09:07.000Z</time>
      </trkpt>
      <trkpt lat="47.29435" lon="-2.24909">
        <ele>0.60000002384186</ele>
        <time>2022-07-17T08:09:08.000Z</time>
      </trkpt>
      <trkpt lat="47.29451" lon="-2.24913">
        <ele>0.60000002384186</ele>
        <time>2022-07-17T08:09:10.000Z</time>
      </trkpt>
      <trkpt lat="47.29459" lon="-2.24916">
        <ele>0.20000000298023</ele>
        <time>2022-07-17T08:09:11.000Z</time>
      </trkpt>
      <trkpt lat="47.29467" lon="-2.2492">
        <ele>-0.20000000298023</ele>
        <time>2022-07-17T08:09:12.000Z</time>
      </trkpt>
      <trkpt lat="47.29474" lon="-2.24924">
        <ele>-0.60000002384186</ele>
        <time>2022-07-17T08:09:13.000Z</time>
      </trkpt>
      <trkpt lat="47.29481" lon="-2.24926">
        <ele>-1</ele>
        <time>2022-07-17T08:09:14.000Z</time>
      </trkpt>
      <trkpt lat="47.29489" lon="-2.24926">
        <ele>-1.3999999761581</ele>
        <time>2022-07-17T08:09:15.000Z</time>
      </trkpt>
      <trkpt lat="47.29503" lon="-2.24922">
        <ele>-1.3999999761581</ele>
        <time>2022-07-17T08:09:17.000Z</time>
      </trkpt>
      <trkpt lat="47.29512" lon="-2.24909">
        <ele>-1.3999999761581</ele>
        <time>2022-07-17T08:09:19.000Z</time>
      </trkpt>
      <trkpt lat="47.29512" lon="-2.24887">
        <ele>-1.3999999761581</ele>
        <time>2022-07-17T08:09:22.000Z</time>
      </trkpt>
      <trkpt lat="47.2951" lon="-2.2488">
        <ele>-1.3999999761581</ele>
        <time>2022-07-17T08:09:23.000Z</time>
      </trkpt>
      <trkpt lat="47.29505" lon="-2.2486">
        <ele>-1.3999999761581</ele>
        <time>2022-07-17T08:09:26.000Z</time>
      </trkpt>
      <trkpt lat="47.29501" lon="-2.24846">
        <ele>-1.3999999761581</ele>
        <time>2022-07-17T08:09:28.000Z</time>
      </trkpt>
      <trkpt lat="47.29486" lon="-2.24812">
        <ele>-1.3999999761581</ele>
        <time>2022-07-17T08:09:33.000Z</time>
      </trkpt>
      <trkpt lat="47.29481" lon="-2.248">
        <ele>-1.3999999761581</ele>
        <time>2022-07-17T08:09:35.000Z</time>
      </trkpt>
      <trkpt lat="47.29475" lon="-2.24782">
        <ele>-1.3999999761581</ele>
        <time>2022-07-17T08:09:38.000Z</time>
      </trkpt>
      <trkpt lat="47.29457" lon="-2.24742">
        <ele>-1.3999999761581</ele>
        <time>2022-07-17T08:09:45.000Z</time>
      </trkpt>
      <trkpt lat="47.29454" lon="-2.24736">
        <ele>-1.3999999761581</ele>
        <time>2022-07-17T08:09:46.000Z</time>
      </trkpt>
      <trkpt lat="47.29443" lon="-2.24718">
        <ele>-1.3999999761581</ele>
        <time>2022-07-17T08:09:49.000Z</time>
      </trkpt>
      <trkpt lat="47.29427" lon="-2.24694">
        <ele>-1.3999999761581</ele>
        <time>2022-07-17T08:09:53.000Z</time>
      </trkpt>
      <trkpt lat="47.29423" lon="-2.2469">
        <ele>-1.3999999761581</ele>
        <time>2022-07-17T08:09:54.000Z</time>
      </trkpt>
      <trkpt lat="47.29418" lon="-2.24687">
        <ele>-1.3999999761581</ele>
        <time>2022-07-17T08:09:55.000Z</time>
      </trkpt>
      <trkpt lat="47.29399" lon="-2.24677">
        <ele>-1.3999999761581</ele>
        <time>2022-07-17T08:09:59.000Z</time>
      </trkpt>
      <trkpt lat="47.29394" lon="-2.24676">
        <ele>-1.3999999761581</ele>
        <time>2022-07-17T08:10:00.000Z</time>
      </trkpt>
      <trkpt lat="47.29383" lon="-2.24674">
        <ele>-1.3999999761581</ele>
        <time>2022-07-17T08:10:03.000Z</time>
      </trkpt>
      <trkpt lat="47.29359" lon="-2.24675">
        <ele>-1.3999999761581</ele>
        <time>2022-07-17T08:10:08.000Z</time>
      </trkpt>
      <trkpt lat="47.29354" lon="-2.24676">
        <ele>-1.3999999761581</ele>
        <time>2022-07-17T08:10:09.000Z</time>
      </trkpt>
      <trkpt lat="47.29345" lon="-2.24677">
        <ele>-1</ele>
        <time>2022-07-17T08:10:11.000Z</time>
      </trkpt>
      <trkpt lat="47.29341" lon="-2.24679">
        <ele>-0.60000002384186</ele>
        <time>2022-07-17T08:10:12.000Z</time>
      </trkpt>
      <trkpt lat="47.29337" lon="-2.2468">
        <ele>0.40000000596046</ele>
        <time>2022-07-17T08:10:13.000Z</time>
      </trkpt>
      <trkpt lat="47.29332" lon="-2.24682">
        <ele>0.80000001192093</ele>
        <time>2022-07-17T08:10:14.000Z</time>
      </trkpt>
      <trkpt lat="47.29328" lon="-2.24683">
        <ele>0.80000001192093</ele>
        <time>2022-07-17T08:10:15.000Z</time>
      </trkpt>
      <trkpt lat="47.29316" lon="-2.24688">
        <ele>0.80000001192093</ele>
        <time>2022-07-17T08:10:18.000Z</time>
      </trkpt>
      <trkpt lat="47.29304" lon="-2.24684">
        <ele>0.80000001192093</ele>
        <time>2022-07-17T08:10:22.000Z</time>
      </trkpt>
      <trkpt lat="47.293" lon="-2.24661">
        <ele>0.80000001192093</ele>
        <time>2022-07-17T08:10:26.000Z</time>
      </trkpt>
      <trkpt lat="47.29299" lon="-2.24655">
        <ele>0.80000001192093</ele>
        <time>2022-07-17T08:10:27.000Z</time>
      </trkpt>
      <trkpt lat="47.29301" lon="-2.24612">
        <ele>0.80000001192093</ele>
        <time>2022-07-17T08:10:33.000Z</time>
      </trkpt>
      <trkpt lat="47.29297" lon="-2.24574">
        <ele>0.80000001192093</ele>
        <time>2022-07-17T08:10:39.000Z</time>
      </trkpt>
      <trkpt lat="47.29296" lon="-2.2453">
        <ele>0.80000001192093</ele>
        <time>2022-07-17T08:10:46.000Z</time>
      </trkpt>
      <trkpt lat="47.29295" lon="-2.24495">
        <ele>0.80000001192093</ele>
        <time>2022-07-17T08:10:52.000Z</time>
      </trkpt>
      <trkpt lat="47.29296" lon="-2.24464">
        <ele>0.80000001192093</ele>
        <time>2022-07-17T08:10:58.000Z</time>
      </trkpt>
      <trkpt lat="47.29298" lon="-2.24461">
        <ele>0.80000001192093</ele>
        <time>2022-07-17T08:10:59.000Z</time>
      </trkpt>
      <trkpt lat="47.29313" lon="-2.24449">
        <ele>0.80000001192093</ele>
        <time>2022-07-17T08:11:05.000Z</time>
      </trkpt>
      <trkpt lat="47.29321" lon="-2.24441">
        <ele>0.80000001192093</ele>
        <time>2022-07-17T08:11:08.000Z</time>
      </trkpt>
      <trkpt lat="47.29326" lon="-2.24434">
        <ele>0.80000001192093</ele>
        <time>2022-07-17T08:11:10.000Z</time>
      </trkpt>
      <trkpt lat="47.29329" lon="-2.24429">
        <ele>0.80000001192093</ele>
        <time>2022-07-17T08:11:11.000Z</time>
      </trkpt>
      <trkpt lat="47.2934" lon="-2.24416">
        <ele>0.80000001192093</ele>
        <time>2022-07-17T08:11:14.000Z</time>
      </trkpt>
      <trkpt lat="47.29347" lon="-2.24408">
        <ele>0.80000001192093</ele>
        <time>2022-07-17T08:11:16.000Z</time>
      </trkpt>
      <trkpt lat="47.29377" lon="-2.24376">
        <ele>0.80000001192093</ele>
        <time>2022-07-17T08:11:24.000Z</time>
      </trkpt>
      <trkpt lat="47.29402" lon="-2.24352">
        <ele>0.80000001192093</ele>
        <time>2022-07-17T08:11:30.000Z</time>
      </trkpt>
      <trkpt lat="47.29433" lon="-2.24323">
        <ele>0.80000001192093</ele>
        <time>2022-07-17T08:11:37.000Z</time>
      </trkpt>
      <trkpt lat="47.29438" lon="-2.2432">
        <ele>0.80000001192093</ele>
        <time>2022-07-17T08:11:38.000Z</time>
      </trkpt>
      <trkpt lat="47.29459" lon="-2.24313">
        <ele>0.80000001192093</ele>
        <time>2022-07-17T08:11:42.000Z</time>
      </trkpt>
      <trkpt lat="47.29489" lon="-2.24303">
        <ele>0.20000000298023</ele>
        <time>2022-07-17T08:11:47.000Z</time>
      </trkpt>
      <trkpt lat="47.29495" lon="-2.24301">
        <ele>-0.20000000298023</ele>
        <time>2022-07-17T08:11:48.000Z</time>
      </trkpt>
      <trkpt lat="47.29502" lon="-2.24298">
        <ele>-0.60000002384186</ele>
        <time>2022-07-17T08:11:49.000Z</time>
      </trkpt>
      <trkpt lat="47.29508" lon="-2.24296">
        <ele>-1.2000000476837</ele>
        <time>2022-07-17T08:11:50.000Z</time>
      </trkpt>
      <trkpt lat="47.29515" lon="-2.24293">
        <ele>-1.6000000238419</ele>
        <time>2022-07-17T08:11:51.000Z</time>
      </trkpt>
      <trkpt lat="47.29522" lon="-2.2429">
        <ele>-2</ele>
        <time>2022-07-17T08:11:52.000Z</time>
      </trkpt>
      <trkpt lat="47.29529" lon="-2.24287">
        <ele>-2.4000000953674</ele>
        <time>2022-07-17T08:11:53.000Z</time>
      </trkpt>
      <trkpt lat="47.29535" lon="-2.24286">
        <ele>-2.7999999523163</ele>
        <time>2022-07-17T08:11:54.000Z</time>
      </trkpt>
      <trkpt lat="47.29541" lon="-2.24286">
        <ele>-3.4000000953674</ele>
        <time>2022-07-17T08:11:55.000Z</time>
      </trkpt>
      <trkpt lat="47.29547" lon="-2.24287">
        <ele>-3.7999999523163</ele>
        <time>2022-07-17T08:11:56.000Z</time>
      </trkpt>
      <trkpt lat="47.29561" lon="-2.24299">
        <ele>-3.7999999523163</ele>
        <time>2022-07-17T08:11:59.000Z</time>
      </trkpt>
      <trkpt lat="47.29565" lon="-2.24304">
        <ele>-3.7999999523163</ele>
        <time>2022-07-17T08:12:00.000Z</time>
      </trkpt>
      <trkpt lat="47.29577" lon="-2.24314">
        <ele>-3.7999999523163</ele>
        <time>2022-07-17T08:12:03.000Z</time>
      </trkpt>
      <trkpt lat="47.29586" lon="-2.24315">
        <ele>-3.7999999523163</ele>
        <time>2022-07-17T08:12:05.000Z</time>
      </trkpt>
      <trkpt lat="47.29595" lon="-2.24315">
        <ele>-3.7999999523163</ele>
        <time>2022-07-17T08:12:07.000Z</time>
      </trkpt>
      <trkpt lat="47.29616" lon="-2.2431">
        <ele>-3.7999999523163</ele>
        <time>2022-07-17T08:12:11.000Z</time>
      </trkpt>
      <trkpt lat="47.29638" lon="-2.24303">
        <ele>-3.7999999523163</ele>
        <time>2022-07-17T08:12:15.000Z</time>
      </trkpt>
      <trkpt lat="47.29644" lon="-2.243">
        <ele>-3.7999999523163</ele>
        <time>2022-07-17T08:12:16.000Z</time>
      </trkpt>
      <trkpt lat="47.29664" lon="-2.24288">
        <ele>-3.4000000953674</ele>
        <time>2022-07-17T08:12:20.000Z</time>
      </trkpt>
      <trkpt lat="47.29669" lon="-2.24285">
        <ele>-3</ele>
        <time>2022-07-17T08:12:21.000Z</time>
      </trkpt>
      <trkpt lat="47.29674" lon="-2.24283">
        <ele>-2.5999999046326</ele>
        <time>2022-07-17T08:12:22.000Z</time>
      </trkpt>
      <trkpt lat="47.29678" lon="-2.24281">
        <ele>-2</ele>
        <time>2022-07-17T08:12:23.000Z</time>
      </trkpt>
      <trkpt lat="47.29682" lon="-2.24278">
        <ele>-1.6000000238419</ele>
        <time>2022-07-17T08:12:24.000Z</time>
      </trkpt>
      <trkpt lat="47.29699" lon="-2.24268">
        <ele>-1.6000000238419</ele>
        <time>2022-07-17T08:12:28.000Z</time>
      </trkpt>
      <trkpt lat="47.29713" lon="-2.24261">
        <ele>-1.2000000476837</ele>
        <time>2022-07-17T08:12:31.000Z</time>
      </trkpt>
      <trkpt lat="47.29718" lon="-2.24259">
        <ele>-0.80000001192093</ele>
        <time>2022-07-17T08:12:32.000Z</time>
      </trkpt>
      <trkpt lat="47.29722" lon="-2.24257">
        <ele>-0.40000000596046</ele>
        <time>2022-07-17T08:12:33.000Z</time>
      </trkpt>
      <trkpt lat="47.29726" lon="-2.24253">
        <ele>11.3</ele>
        <time>2022-07-17T08:12:34.000Z</time>
      </trkpt>
      <trkpt lat="47.2973" lon="-2.24251">
        <ele>0.40000000596046</ele>
        <time>2022-07-17T08:12:35.000Z</time>
      </trkpt>
      <trkpt lat="47.2975" lon="-2.2424">
        <ele>0.40000000596046</ele>
        <time>2022-07-17T08:12:39.000Z</time>
      </trkpt>
      <trkpt lat="47.29755" lon="-2.24238">
        <ele>0.80000001192093</ele>
        <time>2022-07-17T08:12:40.000Z</time>
      </trkpt>
      <trkpt lat="47.29759" lon="-2.24235">
        <ele>1.6000000238419</ele>
        <time>2022-07-17T08:12:41.000Z</time>
      </trkpt>
      <trkpt lat="47.29764" lon="-2.24233">
        <ele>2.2000000476837</ele>
        <time>2022-07-17T08:12:42.000Z</time>
      </trkpt>
      <trkpt lat="47.29769" lon="-2.2423">
        <ele>2.5999999046326</ele>
        <time>2022-07-17T08:12:43.000Z</time>
      </trkpt>
      <trkpt lat="47.29788" lon="-2.24221">
        <ele>2.5999999046326</ele>
        <time>2022-07-17T08:12:47.000Z</time>
      </trkpt>
      <trkpt lat="47.29798" lon="-2.24218">
        <ele>3</ele>
        <time>2022-07-17T08:12:49.000Z</time>
      </trkpt>
      <trkpt lat="47.29803" lon="-2.24217">
        <ele>3.4000000953674</ele>
        <time>2022-07-17T08:12:50.000Z</time>
      </trkpt>
      <trkpt lat="47.29807" lon="-2.24218">
        <ele>3.7999999523163</ele>
        <time>2022-07-17T08:12:51.000Z</time>
      </trkpt>
      <trkpt lat="47.29811" lon="-2.2422">
        <ele>4.1999998092651</ele>
        <time>2022-07-17T08:12:52.000Z</time>
      </trkpt>
      <trkpt lat="47.29815" lon="-2.24223">
        <ele>4.5999999046326</ele>
        <time>2022-07-17T08:12:53.000Z</time>
      </trkpt>
      <trkpt lat="47.29826" lon="-2.2423">
        <ele>4.5999999046326</ele>
        <time>2022-07-17T08:12:57.000Z</time>
      </trkpt>
      <trkpt lat="47.2984" lon="-2.24238">
        <ele>4.5999999046326</ele>
        <time>2022-07-17T08:13:03.000Z</time>
      </trkpt>
      <trkpt lat="47.29846" lon="-2.24239">
        <ele>5</ele>
        <time>2022-07-17T08:13:05.000Z</time>
      </trkpt>
      <trkpt lat="47.29849" lon="-2.2424">
        <ele>5.4000000953674</ele>
        <time>2022-07-17T08:13:06.000Z</time>
      </trkpt>
      <trkpt lat="47.29852" lon="-2.24242">
        <ele>5.8000001907349</ele>
        <time>2022-07-17T08:13:07.000Z</time>
      </trkpt>
      <trkpt lat="47.29855" lon="-2.24243">
        <ele>6.1999998092651</ele>
        <time>2022-07-17T08:13:08.000Z</time>
      </trkpt>
      <trkpt lat="47.29858" lon="-2.24245">
        <ele>6.5999999046326</ele>
        <time>2022-07-17T08:13:09.000Z</time>
      </trkpt>
      <trkpt lat="47.29873" lon="-2.24253">
        <ele>6.5999999046326</ele>
        <time>2022-07-17T08:13:13.000Z</time>
      </trkpt>
      <trkpt lat="47.29881" lon="-2.24258">
        <ele>6.5999999046326</ele>
        <time>2022-07-17T08:13:15.000Z</time>
      </trkpt>
      <trkpt lat="47.29905" lon="-2.24276">
        <ele>6.5999999046326</ele>
        <time>2022-07-17T08:13:21.000Z</time>
      </trkpt>
      <trkpt lat="47.29934" lon="-2.24296">
        <ele>6.5999999046326</ele>
        <time>2022-07-17T08:13:28.000Z</time>
      </trkpt>
      <trkpt lat="47.29949" lon="-2.24317">
        <ele>6.5999999046326</ele>
        <time>2022-07-17T08:13:32.000Z</time>
      </trkpt>
      <trkpt lat="47.29953" lon="-2.24321">
        <ele>6.5999999046326</ele>
        <time>2022-07-17T08:13:33.000Z</time>
      </trkpt>
      <trkpt lat="47.29969" lon="-2.24336">
        <ele>6.5999999046326</ele>
        <time>2022-07-17T08:13:37.000Z</time>
      </trkpt>
      <trkpt lat="47.29976" lon="-2.24346">
        <ele>6.5999999046326</ele>
        <time>2022-07-17T08:13:39.000Z</time>
      </trkpt>
      <trkpt lat="47.29989" lon="-2.2436">
        <ele>6.5999999046326</ele>
        <time>2022-07-17T08:13:43.000Z</time>
      </trkpt>
      <trkpt lat="47.29992" lon="-2.2436">
        <ele>6.5999999046326</ele>
        <time>2022-07-17T08:13:44.000Z</time>
      </trkpt>
      <trkpt lat="47.29997" lon="-2.24351">
        <ele>6.5999999046326</ele>
        <time>2022-07-17T08:13:47.000Z</time>
      </trkpt>
      <trkpt lat="47.3" lon="-2.24343">
        <ele>6.5999999046326</ele>
        <time>2022-07-17T08:13:49.000Z</time>
      </trkpt>
      <trkpt lat="47.30003" lon="-2.24331">
        <ele>6.5999999046326</ele>
        <time>2022-07-17T08:13:52.000Z</time>
      </trkpt>
      <trkpt lat="47.30014" lon="-2.24309">
        <ele>6.5999999046326</ele>
        <time>2022-07-17T08:13:58.000Z</time>
      </trkpt>
      <trkpt lat="47.30017" lon="-2.24294">
        <ele>6.5999999046326</ele>
        <time>2022-07-17T08:14:02.000Z</time>
      </trkpt>
      <trkpt lat="47.3002" lon="-2.24289">
        <ele>6.5999999046326</ele>
        <time>2022-07-17T08:14:04.000Z</time>
      </trkpt>
      <trkpt lat="47.30022" lon="-2.24287">
        <ele>6.5999999046326</ele>
        <time>2022-07-17T08:14:05.000Z</time>
      </trkpt>
      <trkpt lat="47.30024" lon="-2.2428">
        <ele>6.5999999046326</ele>
        <time>2022-07-17T08:14:09.000Z</time>
      </trkpt>
      <trkpt lat="47.30021" lon="-2.24269">
        <ele>6.5999999046326</ele>
        <time>2022-07-17T08:14:13.000Z</time>
      </trkpt>
      <trkpt lat="47.3002" lon="-2.24249">
        <ele>6.5999999046326</ele>
        <time>2022-07-17T08:14:19.000Z</time>
      </trkpt>
      <trkpt lat="47.30019" lon="-2.24232">
        <ele>6.5999999046326</ele>
        <time>2022-07-17T08:14:24.000Z</time>
      </trkpt>
      <trkpt lat="47.30019" lon="-2.24211">
        <ele>6.5999999046326</ele>
        <time>2022-07-17T08:14:29.000Z</time>
      </trkpt>
      <trkpt lat="47.30019" lon="-2.24208">
        <ele>6.1999998092651</ele>
        <time>2022-07-17T08:14:30.000Z</time>
      </trkpt>
      <trkpt lat="47.30019" lon="-2.24203">
        <ele>5.8000001907349</ele>
        <time>2022-07-17T08:14:31.000Z</time>
      </trkpt>
      <trkpt lat="47.30019" lon="-2.242">
        <ele>5.4000000953674</ele>
        <time>2022-07-17T08:14:32.000Z</time>
      </trkpt>
      <trkpt lat="47.30019" lon="-2.24195">
        <ele>5</ele>
        <time>2022-07-17T08:14:33.000Z</time>
      </trkpt>
      <trkpt lat="47.30019" lon="-2.24193">
        <ele>4.5999999046326</ele>
        <time>2022-07-17T08:14:34.000Z</time>
      </trkpt>
      <trkpt lat="47.30019" lon="-2.24191">
        <ele>4.5999999046326</ele>
        <time>2022-07-17T08:14:35.000Z</time>
      </trkpt>
      <trkpt lat="47.30017" lon="-2.24188">
        <ele>4.5999999046326</ele>
        <time>2022-07-17T08:14:59.000Z</time>
      </trkpt>
      <trkpt lat="47.30015" lon="-2.24186">
        <ele>4.5999999046326</ele>
        <time>2022-07-17T08:15:00.000Z</time>
      </trkpt>
      <trkpt lat="47.30007" lon="-2.24173">
        <ele>4</ele>
        <time>2022-07-17T08:15:04.000Z</time>
      </trkpt>
      <trkpt lat="47.30005" lon="-2.24169">
        <ele>3.4000000953674</ele>
        <time>2022-07-17T08:15:05.000Z</time>
      </trkpt>
      <trkpt lat="47.30004" lon="-2.24167">
        <ele>2.7999999523163</ele>
        <time>2022-07-17T08:15:06.000Z</time>
      </trkpt>
      <trkpt lat="47.30004" lon="-2.24164">
        <ele>2.2000000476837</ele>
        <time>2022-07-17T08:15:07.000Z</time>
      </trkpt>
      <trkpt lat="47.30004" lon="-2.24163">
        <ele>1.6000000238419</ele>
        <time>2022-07-17T08:15:08.000Z</time>
      </trkpt>
      <trkpt lat="47.30004" lon="-2.24161">
        <ele>1.6000000238419</ele>
        <time>2022-07-17T08:15:09.000Z</time>
      </trkpt>
      <trkpt lat="47.30003" lon="-2.24155">
        <ele>1.6000000238419</ele>
        <time>2022-07-17T08:15:42.000Z</time>
      </trkpt>
      <trkpt lat="47.30003" lon="-2.24145">
        <ele>1.6000000238419</ele>
        <time>2022-07-17T08:15:45.000Z</time>
      </trkpt>
      <trkpt lat="47.30003" lon="-2.24144">
        <ele>1.6000000238419</ele>
        <time>2022-07-17T08:15:46.000Z</time>
      </trkpt>
      <trkpt lat="47.30005" lon="-2.24141">
        <ele>1.6000000238419</ele>
        <time>2022-07-17T08:15:52.000Z</time>
      </trkpt>
      <trkpt lat="47.30008" lon="-2.24139">
        <ele>1.6000000238419</ele>
        <time>2022-07-17T08:15:53.000Z</time>
      </trkpt>
      <trkpt lat="47.30012" lon="-2.24139">
        <ele>1.6000000238419</ele>
        <time>2022-07-17T08:15:56.000Z</time>
      </trkpt>
      <trkpt lat="47.30012" lon="-2.24139">
        <ele>1.6000000238419</ele>
        <time>2022-07-17T08:15:57.000Z</time>
      </trkpt>
      <trkpt lat="47.30018" lon="-2.24145">
        <ele>1.6000000238419</ele>
        <time>2022-07-17T08:16:01.000Z</time>
      </trkpt>
      <trkpt lat="47.3002" lon="-2.24145">
        <ele>1.6000000238419</ele>
        <time>2022-07-17T08:16:02.000Z</time>
      </trkpt>
      <trkpt lat="47.30025" lon="-2.24142">
        <ele>1.6000000238419</ele>
        <time>2022-07-17T08:16:05.000Z</time>
      </trkpt>
      <trkpt lat="47.30029" lon="-2.2414">
        <ele>1.6000000238419</ele>
        <time>2022-07-17T08:16:07.000Z</time>
      </trkpt>
      <trkpt lat="47.30034" lon="-2.24136">
        <ele>1.6000000238419</ele>
        <time>2022-07-17T08:16:13.000Z</time>
      </trkpt>
      <trkpt lat="47.30036" lon="-2.24136">
        <ele>1.6000000238419</ele>
        <time>2022-07-17T08:16:16.000Z</time>
      </trkpt>
      <trkpt lat="47.30038" lon="-2.24141">
        <ele>1.6000000238419</ele>
        <time>2022-07-17T08:16:18.000Z</time>
      </trkpt>
      <trkpt lat="47.30037" lon="-2.24145">
        <ele>1.6000000238419</ele>
        <time>2022-07-17T08:16:22.000Z</time>
      </trkpt>
      <trkpt lat="47.30036" lon="-2.2415">
        <ele>2</ele>
        <time>2022-07-17T08:16:25.000Z</time>
      </trkpt>
      <trkpt lat="47.30036" lon="-2.24152">
        <ele>2.4000000953674</ele>
        <time>2022-07-17T08:16:26.000Z</time>
      </trkpt>
      <trkpt lat="47.30037" lon="-2.24155">
        <ele>2.7999999523163</ele>
        <time>2022-07-17T08:16:27.000Z</time>
      </trkpt>
      <trkpt lat="47.30038" lon="-2.24157">
        <ele>3.2000000476837</ele>
        <time>2022-07-17T08:16:28.000Z</time>
      </trkpt>
      <trkpt lat="47.30038" lon="-2.2416">
        <ele>3.5999999046326</ele>
        <time>2022-07-17T08:16:29.000Z</time>
      </trkpt>
      <trkpt lat="47.30038" lon="-2.24166">
        <ele>3.5999999046326</ele>
        <time>2022-07-17T08:16:31.000Z</time>
      </trkpt>
      <trkpt lat="47.30036" lon="-2.24172">
        <ele>3.5999999046326</ele>
        <time>2022-07-17T08:16:33.000Z</time>
      </trkpt>
      <trkpt lat="47.30036" lon="-2.24176">
        <ele>3.5999999046326</ele>
        <time>2022-07-17T08:16:35.000Z</time>
      </trkpt>
      <trkpt lat="47.30037" lon="-2.2418">
        <ele>3.5999999046326</ele>
        <time>2022-07-17T08:16:37.000Z</time>
      </trkpt>
      <trkpt lat="47.30036" lon="-2.24193">
        <ele>3.5999999046326</ele>
        <time>2022-07-17T08:16:41.000Z</time>
      </trkpt>
      <trkpt lat="47.30035" lon="-2.24193">
        <ele>3.5999999046326</ele>
        <time>2022-07-17T08:16:42.000Z</time>
      </trkpt>
      <trkpt lat="47.30034" lon="-2.24194">
        <ele>3.5999999046326</ele>
        <time>2022-07-17T08:16:43.000Z</time>
      </trkpt>
      <trkpt lat="47.30029" lon="-2.24184">
        <ele>3.5999999046326</ele>
        <time>2022-07-17T08:16:46.000Z</time>
      </trkpt>
      <trkpt lat="47.30029" lon="-2.24177">
        <ele>3.2000000476837</ele>
        <time>2022-07-17T08:16:47.000Z</time>
      </trkpt>
      <trkpt lat="47.30028" lon="-2.2417">
        <ele>2.7999999523163</ele>
        <time>2022-07-17T08:16:48.000Z</time>
      </trkpt>
      <trkpt lat="47.30027" lon="-2.24164">
        <ele>2.4000000953674</ele>
        <time>2022-07-17T08:16:49.000Z</time>
      </trkpt>
      <trkpt lat="47.30026" lon="-2.24158">
        <ele>2</ele>
        <time>2022-07-17T08:16:50.000Z</time>
      </trkpt>
      <trkpt lat="47.30025" lon="-2.24154">
        <ele>1.6000000238419</ele>
        <time>2022-07-17T08:16:51.000Z</time>
      </trkpt>
      <trkpt lat="47.30024" lon="-2.24148">
        <ele>1.2000000476837</ele>
        <time>2022-07-17T08:16:53.000Z</time>
      </trkpt>
      <trkpt lat="47.30025" lon="-2.24147">
        <ele>0.60000002384186</ele>
        <time>2022-07-17T08:16:54.000Z</time>
      </trkpt>
      <trkpt lat="47.30026" lon="-2.24146">
        <ele>0.20000000298023</ele>
        <time>2022-07-17T08:16:55.000Z</time>
      </trkpt>
      <trkpt lat="47.30027" lon="-2.24146">
        <ele>-0.20000000298023</ele>
        <time>2022-07-17T08:16:56.000Z</time>
      </trkpt>
      <trkpt lat="47.30029" lon="-2.24145">
        <ele>-0.60000002384186</ele>
        <time>2022-07-17T08:16:57.000Z</time>
      </trkpt>
      <trkpt lat="47.30032" lon="-2.24142">
        <ele>-0.60000002384186</ele>
        <time>2022-07-17T08:16:59.000Z</time>
      </trkpt>
      <trkpt lat="47.30042" lon="-2.24133">
        <ele>-0.20000000298023</ele>
        <time>2022-07-17T08:17:04.000Z</time>
      </trkpt>
      <trkpt lat="47.30044" lon="-2.24132">
        <ele>0.20000000298023</ele>
        <time>2022-07-17T08:17:05.000Z</time>
      </trkpt>
      <trkpt lat="47.30045" lon="-2.24131">
        <ele>0.80000001192093</ele>
        <time>2022-07-17T08:17:06.000Z</time>
      </trkpt>
      <trkpt lat="47.30047" lon="-2.2413">
        <ele>1.2000000476837</ele>
        <time>2022-07-17T08:17:07.000Z</time>
      </trkpt>
      <trkpt lat="47.30049" lon="-2.24128">
        <ele>1.6000000238419</ele>
        <time>2022-07-17T08:17:08.000Z</time>
      </trkpt>
      <trkpt lat="47.30051" lon="-2.24126">
        <ele>1.6000000238419</ele>
        <time>2022-07-17T08:17:10.000Z</time>
      </trkpt>
      <trkpt lat="47.3006" lon="-2.24121">
        <ele>1.6000000238419</ele>
        <time>2022-07-17T08:17:15.000Z</time>
      </trkpt>
      <trkpt lat="47.30079" lon="-2.24111">
        <ele>1.6000000238419</ele>
        <time>2022-07-17T08:17:21.000Z</time>
      </trkpt>
      <trkpt lat="47.30096" lon="-2.241">
        <ele>1.6000000238419</ele>
        <time>2022-07-17T08:17:27.000Z</time>
      </trkpt>
      <trkpt lat="47.30113" lon="-2.2409">
        <ele>1.6000000238419</ele>
        <time>2022-07-17T08:17:34.000Z</time>
      </trkpt>
      <trkpt lat="47.30115" lon="-2.24088">
        <ele>1.6000000238419</ele>
        <time>2022-07-17T08:17:36.000Z</time>
      </trkpt>
      <trkpt lat="47.30121" lon="-2.24085">
        <ele>1.6000000238419</ele>
        <time>2022-07-17T08:17:38.000Z</time>
      </trkpt>
      <trkpt lat="47.30124" lon="-2.24084">
        <ele>1.6000000238419</ele>
        <time>2022-07-17T08:17:39.000Z</time>
      </trkpt>
      <trkpt lat="47.3014" lon="-2.24077">
        <ele>1.6000000238419</ele>
        <time>2022-07-17T08:17:43.000Z</time>
      </trkpt>
      <trkpt lat="47.30149" lon="-2.24073">
        <ele>1.6000000238419</ele>
        <time>2022-07-17T08:17:45.000Z</time>
      </trkpt>
      <trkpt lat="47.30158" lon="-2.24069">
        <ele>1.6000000238419</ele>
        <time>2022-07-17T08:17:47.000Z</time>
      </trkpt>
      <trkpt lat="47.30191" lon="-2.24063">
        <ele>1.6000000238419</ele>
        <time>2022-07-17T08:17:53.000Z</time>
      </trkpt>
      <trkpt lat="47.30238" lon="-2.24067">
        <ele>1.6000000238419</ele>
        <time>2022-07-17T08:18:01.000Z</time>
      </trkpt>
      <trkpt lat="47.30266" lon="-2.24067">
        <ele>1.6000000238419</ele>
        <time>2022-07-17T08:18:06.000Z</time>
      </trkpt>
      <trkpt lat="47.30271" lon="-2.24062">
        <ele>1.6000000238419</ele>
        <time>2022-07-17T08:18:07.000Z</time>
      </trkpt>
      <trkpt lat="47.30277" lon="-2.2404">
        <ele>1.2000000476837</ele>
        <time>2022-07-17T08:18:10.000Z</time>
      </trkpt>
      <trkpt lat="47.30278" lon="-2.24032">
        <ele>0.60000002384186</ele>
        <time>2022-07-17T08:18:11.000Z</time>
      </trkpt>
      <trkpt lat="47.30277" lon="-2.24022">
        <ele>0.20000000298023</ele>
        <time>2022-07-17T08:18:12.000Z</time>
      </trkpt>
      <trkpt lat="47.30276" lon="-2.24013">
        <ele>-0.20000000298023</ele>
        <time>2022-07-17T08:18:13.000Z</time>
      </trkpt>
      <trkpt lat="47.30276" lon="-2.24002">
        <ele>-0.60000002384186</ele>
        <time>2022-07-17T08:18:14.000Z</time>
      </trkpt>
      <trkpt lat="47.30273" lon="-2.23982">
        <ele>-0.60000002384186</ele>
        <time>2022-07-17T08:18:16.000Z</time>
      </trkpt>
      <trkpt lat="47.30271" lon="-2.23972">
        <ele>-1.2000000476837</ele>
        <time>2022-07-17T08:18:17.000Z</time>
      </trkpt>
      <trkpt lat="47.30269" lon="-2.23963">
        <ele>-1.6000000238419</ele>
        <time>2022-07-17T08:18:18.000Z</time>
      </trkpt>
      <trkpt lat="47.30266" lon="-2.23953">
        <ele>-2.2000000476837</ele>
        <time>2022-07-17T08:18:19.000Z</time>
      </trkpt>
      <trkpt lat="47.30263" lon="-2.23943">
        <ele>-2.5999999046326</ele>
        <time>2022-07-17T08:18:20.000Z</time>
      </trkpt>
      <trkpt lat="47.30263" lon="-2.23932">
        <ele>-3</ele>
        <time>2022-07-17T08:18:21.000Z</time>
      </trkpt>
      <trkpt lat="47.30263" lon="-2.23922">
        <ele>-3.4000000953674</ele>
        <time>2022-07-17T08:18:22.000Z</time>
      </trkpt>
      <trkpt lat="47.30264" lon="-2.23913">
        <ele>-3.7999999523163</ele>
        <time>2022-07-17T08:18:23.000Z</time>
      </trkpt>
      <trkpt lat="47.30265" lon="-2.23905">
        <ele>-4.1999998092651</ele>
        <time>2022-07-17T08:18:24.000Z</time>
      </trkpt>
      <trkpt lat="47.30268" lon="-2.23898">
        <ele>-4.5999999046326</ele>
        <time>2022-07-17T08:18:25.000Z</time>
      </trkpt>
      <trkpt lat="47.30272" lon="-2.23893">
        <ele>-5</ele>
        <time>2022-07-17T08:18:26.000Z</time>
      </trkpt>
      <trkpt lat="47.30281" lon="-2.23887">
        <ele>-5</ele>
        <time>2022-07-17T08:18:28.000Z</time>
      </trkpt>
      <trkpt lat="47.30299" lon="-2.23882">
        <ele>-5</ele>
        <time>2022-07-17T08:18:31.000Z</time>
      </trkpt>
      <trkpt lat="47.30312" lon="-2.23877">
        <ele>-5</ele>
        <time>2022-07-17T08:18:33.000Z</time>
      </trkpt>
      <trkpt lat="47.30318" lon="-2.23874">
        <ele>-5</ele>
        <time>2022-07-17T08:18:34.000Z</time>
      </trkpt>
      <trkpt lat="47.30341" lon="-2.23862">
        <ele>-5</ele>
        <time>2022-07-17T08:18:38.000Z</time>
      </trkpt>
      <trkpt lat="47.30348" lon="-2.2386">
        <ele>-5</ele>
        <time>2022-07-17T08:18:39.000Z</time>
      </trkpt>
      <trkpt lat="47.3038" lon="-2.23853">
        <ele>-5</ele>
        <time>2022-07-17T08:18:44.000Z</time>
      </trkpt>
      <trkpt lat="47.30418" lon="-2.23848">
        <ele>-5</ele>
        <time>2022-07-17T08:18:50.000Z</time>
      </trkpt>
      <trkpt lat="47.30458" lon="-2.23843">
        <ele>-5</ele>
        <time>2022-07-17T08:18:57.000Z</time>
      </trkpt>
      <trkpt lat="47.30488" lon="-2.23841">
        <ele>-5</ele>
        <time>2022-07-17T08:19:02.000Z</time>
      </trkpt>
      <trkpt lat="47.30493" lon="-2.23844">
        <ele>-5</ele>
        <time>2022-07-17T08:19:03.000Z</time>
      </trkpt>
      <trkpt lat="47.30508" lon="-2.23859">
        <ele>-5</ele>
        <time>2022-07-17T08:19:06.000Z</time>
      </trkpt>
      <trkpt lat="47.30513" lon="-2.23865">
        <ele>-5</ele>
        <time>2022-07-17T08:19:07.000Z</time>
      </trkpt>
      <trkpt lat="47.30536" lon="-2.23901">
        <ele>-5</ele>
        <time>2022-07-17T08:19:13.000Z</time>
      </trkpt>
      <trkpt lat="47.30552" lon="-2.23922">
        <ele>-5</ele>
        <time>2022-07-17T08:19:17.000Z</time>
      </trkpt>
      <trkpt lat="47.30554" lon="-2.23929">
        <ele>-5</ele>
        <time>2022-07-17T08:19:18.000Z</time>
      </trkpt>
      <trkpt lat="47.30548" lon="-2.23948">
        <ele>-5</ele>
        <time>2022-07-17T08:19:21.000Z</time>
      </trkpt>
      <trkpt lat="47.30532" lon="-2.23966">
        <ele>-5</ele>
        <time>2022-07-17T08:19:25.000Z</time>
      </trkpt>
      <trkpt lat="47.30528" lon="-2.23971">
        <ele>-5</ele>
        <time>2022-07-17T08:19:26.000Z</time>
      </trkpt>
      <trkpt lat="47.3051" lon="-2.23995">
        <ele>-4.5999999046326</ele>
        <time>2022-07-17T08:19:31.000Z</time>
      </trkpt>
      <trkpt lat="47.30507" lon="-2.24">
        <ele>-4.1999998092651</ele>
        <time>2022-07-17T08:19:32.000Z</time>
      </trkpt>
      <trkpt lat="47.30504" lon="-2.24004">
        <ele>-3.7999999523163</ele>
        <time>2022-07-17T08:19:33.000Z</time>
      </trkpt>
      <trkpt lat="47.30501" lon="-2.24009">
        <ele>-3.4000000953674</ele>
        <time>2022-07-17T08:19:34.000Z</time>
      </trkpt>
      <trkpt lat="47.30498" lon="-2.24014">
        <ele>-3</ele>
        <time>2022-07-17T08:19:35.000Z</time>
      </trkpt>
      <trkpt lat="47.30492" lon="-2.24021">
        <ele>-2.5999999046326</ele>
        <time>2022-07-17T08:19:37.000Z</time>
      </trkpt>
      <trkpt lat="47.30489" lon="-2.24024">
        <ele>-2.2000000476837</ele>
        <time>2022-07-17T08:19:38.000Z</time>
      </trkpt>
      <trkpt lat="47.30486" lon="-2.24027">
        <ele>-1.7999999523163</ele>
        <time>2022-07-17T08:19:39.000Z</time>
      </trkpt>
      <trkpt lat="47.30483" lon="-2.24029">
        <ele>-1.3999999761581</ele>
        <time>2022-07-17T08:19:40.000Z</time>
      </trkpt>
      <trkpt lat="47.30481" lon="-2.24031">
        <ele>-0.60000002384186</ele>
        <time>2022-07-17T08:19:41.000Z</time>
      </trkpt>
      <trkpt lat="47.30477" lon="-2.24032">
        <ele>-0.20000000298023</ele>
        <time>2022-07-17T08:19:42.000Z</time>
      </trkpt>
      <trkpt lat="47.30473" lon="-2.24035">
        <ele>0.20000000298023</ele>
        <time>2022-07-17T08:19:43.000Z</time>
      </trkpt>
      <trkpt lat="47.3047" lon="-2.24036">
        <ele>0.60000002384186</ele>
        <time>2022-07-17T08:19:44.000Z</time>
      </trkpt>
      <trkpt lat="47.30467" lon="-2.24037">
        <ele>1</ele>
        <time>2022-07-17T08:19:45.000Z</time>
      </trkpt>
      <trkpt lat="47.30459" lon="-2.24042">
        <ele>1.3999999761581</ele>
        <time>2022-07-17T08:19:48.000Z</time>
      </trkpt>
      <trkpt lat="47.30456" lon="-2.24045">
        <ele>2</ele>
        <time>2022-07-17T08:19:49.000Z</time>
      </trkpt>
      <trkpt lat="47.30453" lon="-2.24048">
        <ele>2.4000000953674</ele>
        <time>2022-07-17T08:19:50.000Z</time>
      </trkpt>
      <trkpt lat="47.3045" lon="-2.24051">
        <ele>2.7999999523163</ele>
        <time>2022-07-17T08:19:51.000Z</time>
      </trkpt>
      <trkpt lat="47.30447" lon="-2.24054">
        <ele>3.2000000476837</ele>
        <time>2022-07-17T08:19:52.000Z</time>
      </trkpt>
      <trkpt lat="47.30441" lon="-2.24061">
        <ele>3.2000000476837</ele>
        <time>2022-07-17T08:19:54.000Z</time>
      </trkpt>
      <trkpt lat="47.30426" lon="-2.24077">
        <ele>3.2000000476837</ele>
        <time>2022-07-17T08:19:59.000Z</time>
      </trkpt>
      <trkpt lat="47.30423" lon="-2.2408">
        <ele>3.5999999046326</ele>
        <time>2022-07-17T08:20:00.000Z</time>
      </trkpt>
      <trkpt lat="47.3042" lon="-2.24083">
        <ele>4</ele>
        <time>2022-07-17T08:20:01.000Z</time>
      </trkpt>
      <trkpt lat="47.30417" lon="-2.24087">
        <ele>4.4000000953674</ele>
        <time>2022-07-17T08:20:02.000Z</time>
      </trkpt>
      <trkpt lat="47.30414" lon="-2.2409">
        <ele>4.8000001907349</ele>
        <time>2022-07-17T08:20:03.000Z</time>
      </trkpt>
      <trkpt lat="47.30411" lon="-2.24093">
        <ele>5.1999998092651</ele>
        <time>2022-07-17T08:20:04.000Z</time>
      </trkpt>
      <trkpt lat="47.30409" lon="-2.24097">
        <ele>5.1999998092651</ele>
        <time>2022-07-17T08:20:05.000Z</time>
      </trkpt>
      <trkpt lat="47.30399" lon="-2.24107">
        <ele>5.5999999046326</ele>
        <time>2022-07-17T08:20:09.000Z</time>
      </trkpt>
      <trkpt lat="47.30397" lon="-2.2411">
        <ele>6</ele>
        <time>2022-07-17T08:20:10.000Z</time>
      </trkpt>
      <trkpt lat="47.30394" lon="-2.24112">
        <ele>6.4000000953674</ele>
        <time>2022-07-17T08:20:11.000Z</time>
      </trkpt>
      <trkpt lat="47.30391" lon="-2.24115">
        <ele>6.8000001907349</ele>
        <time>2022-07-17T08:20:12.000Z</time>
      </trkpt>
      <trkpt lat="47.30388" lon="-2.24118">
        <ele>7.1999998092651</ele>
        <time>2022-07-17T08:20:13.000Z</time>
      </trkpt>
      <trkpt lat="47.30373" lon="-2.24136">
        <ele>7.1999998092651</ele>
        <time>2022-07-17T08:20:17.000Z</time>
      </trkpt>
      <trkpt lat="47.30357" lon="-2.24163">
        <ele>7.1999998092651</ele>
        <time>2022-07-17T08:20:22.000Z</time>
      </trkpt>
      <trkpt lat="47.30352" lon="-2.2419">
        <ele>7.1999998092651</ele>
        <time>2022-07-17T08:20:25.000Z</time>
      </trkpt>
      <trkpt lat="47.30353" lon="-2.24198">
        <ele>6.8000001907349</ele>
        <time>2022-07-17T08:20:26.000Z</time>
      </trkpt>
      <trkpt lat="47.30357" lon="-2.24204">
        <ele>6.4000000953674</ele>
        <time>2022-07-17T08:20:27.000Z</time>
      </trkpt>
      <trkpt lat="47.30361" lon="-2.2421">
        <ele>6</ele>
        <time>2022-07-17T08:20:28.000Z</time>
      </trkpt>
      <trkpt lat="47.30365" lon="-2.24215">
        <ele>5.5999999046326</ele>
        <time>2022-07-17T08:20:29.000Z</time>
      </trkpt>
      <trkpt lat="47.3037" lon="-2.2422">
        <ele>5.1999998092651</ele>
        <time>2022-07-17T08:20:30.000Z</time>
      </trkpt>
      <trkpt lat="47.30383" lon="-2.24235">
        <ele>5.1999998092651</ele>
        <time>2022-07-17T08:20:33.000Z</time>
      </trkpt>
      <trkpt lat="47.30411" lon="-2.24264">
        <ele>5.1999998092651</ele>
        <time>2022-07-17T08:20:39.000Z</time>
      </trkpt>
      <trkpt lat="47.30416" lon="-2.24268">
        <ele>5.1999998092651</ele>
        <time>2022-07-17T08:20:40.000Z</time>
      </trkpt>
      <trkpt lat="47.30432" lon="-2.24275">
        <ele>5.1999998092651</ele>
        <time>2022-07-17T08:20:43.000Z</time>
      </trkpt>
      <trkpt lat="47.30438" lon="-2.24276">
        <ele>5.1999998092651</ele>
        <time>2022-07-17T08:20:44.000Z</time>
      </trkpt>
      <trkpt lat="47.30464" lon="-2.24283">
        <ele>5.1999998092651</ele>
        <time>2022-07-17T08:20:48.000Z</time>
      </trkpt>
      <trkpt lat="47.30469" lon="-2.24285">
        <ele>5.1999998092651</ele>
        <time>2022-07-17T08:20:49.000Z</time>
      </trkpt>
      <trkpt lat="47.30492" lon="-2.24296">
        <ele>5.1999998092651</ele>
        <time>2022-07-17T08:20:53.000Z</time>
      </trkpt>
      <trkpt lat="47.30502" lon="-2.24303">
        <ele>5.1999998092651</ele>
        <time>2022-07-17T08:20:55.000Z</time>
      </trkpt>
      <trkpt lat="47.30511" lon="-2.24313">
        <ele>5.1999998092651</ele>
        <time>2022-07-17T08:20:57.000Z</time>
      </trkpt>
      <trkpt lat="47.30525" lon="-2.24326">
        <ele>5.5999999046326</ele>
        <time>2022-07-17T08:21:00.000Z</time>
      </trkpt>
      <trkpt lat="47.3053" lon="-2.24331">
        <ele>6</ele>
        <time>2022-07-17T08:21:01.000Z</time>
      </trkpt>
      <trkpt lat="47.30534" lon="-2.24336">
        <ele>6.4000000953674</ele>
        <time>2022-07-17T08:21:02.000Z</time>
      </trkpt>
      <trkpt lat="47.30539" lon="-2.24341">
        <ele>6.8000001907349</ele>
        <time>2022-07-17T08:21:03.000Z</time>
      </trkpt>
      <trkpt lat="47.30543" lon="-2.24345">
        <ele>7.1999998092651</ele>
        <time>2022-07-17T08:21:04.000Z</time>
      </trkpt>
      <trkpt lat="47.30552" lon="-2.24353">
        <ele>7.1999998092651</ele>
        <time>2022-07-17T08:21:06.000Z</time>
      </trkpt>
      <trkpt lat="47.30579" lon="-2.24382">
        <ele>7.1999998092651</ele>
        <time>2022-07-17T08:21:12.000Z</time>
      </trkpt>
      <trkpt lat="47.30606" lon="-2.24408">
        <ele>7.1999998092651</ele>
        <time>2022-07-17T08:21:18.000Z</time>
      </trkpt>
      <trkpt lat="47.30611" lon="-2.24411">
        <ele>7.1999998092651</ele>
        <time>2022-07-17T08:21:19.000Z</time>
      </trkpt>
      <trkpt lat="47.30615" lon="-2.24413">
        <ele>6.8000001907349</ele>
        <time>2022-07-17T08:21:20.000Z</time>
      </trkpt>
      <trkpt lat="47.30618" lon="-2.24414">
        <ele>6</ele>
        <time>2022-07-17T08:21:21.000Z</time>
      </trkpt>
      <trkpt lat="47.30621" lon="-2.24415">
        <ele>5.5999999046326</ele>
        <time>2022-07-17T08:21:22.000Z</time>
      </trkpt>
      <trkpt lat="47.30624" lon="-2.24415">
        <ele>5.1999998092651</ele>
        <time>2022-07-17T08:21:23.000Z</time>
      </trkpt>
      <trkpt lat="47.30628" lon="-2.24415">
        <ele>5.1999998092651</ele>
        <time>2022-07-17T08:21:26.000Z</time>
      </trkpt>
      <trkpt lat="47.30628" lon="-2.24415">
        <ele>5.1999998092651</ele>
        <time>2022-07-17T08:21:27.000Z</time>
      </trkpt>
      <trkpt lat="47.30628" lon="-2.24414">
        <ele>5.1999998092651</ele>
        <time>2022-07-17T08:21:39.000Z</time>
      </trkpt>
      <trkpt lat="47.30633" lon="-2.24409">
        <ele>5.1999998092651</ele>
        <time>2022-07-17T08:21:41.000Z</time>
      </trkpt>
      <trkpt lat="47.3064" lon="-2.24388">
        <ele>5.1999998092651</ele>
        <time>2022-07-17T08:21:45.000Z</time>
      </trkpt>
      <trkpt lat="47.30645" lon="-2.24355">
        <ele>5.1999998092651</ele>
        <time>2022-07-17T08:21:50.000Z</time>
      </trkpt>
      <trkpt lat="47.30645" lon="-2.24348">
        <ele>5.1999998092651</ele>
        <time>2022-07-17T08:21:51.000Z</time>
      </trkpt>
      <trkpt lat="47.30652" lon="-2.243">
        <ele>5.1999998092651</ele>
        <time>2022-07-17T08:21:57.000Z</time>
      </trkpt>
      <trkpt lat="47.30656" lon="-2.24272">
        <ele>4.8000001907349</ele>
        <time>2022-07-17T08:22:00.000Z</time>
      </trkpt>
      <trkpt lat="47.30657" lon="-2.24262">
        <ele>4.4000000953674</ele>
        <time>2022-07-17T08:22:01.000Z</time>
      </trkpt>
      <trkpt lat="47.3066" lon="-2.24252">
        <ele>4</ele>
        <time>2022-07-17T08:22:02.000Z</time>
      </trkpt>
      <trkpt lat="47.30662" lon="-2.24241">
        <ele>3.5999999046326</ele>
        <time>2022-07-17T08:22:03.000Z</time>
      </trkpt>
      <trkpt lat="47.30665" lon="-2.2423">
        <ele>3.2000000476837</ele>
        <time>2022-07-17T08:22:04.000Z</time>
      </trkpt>
      <trkpt lat="47.30667" lon="-2.2422">
        <ele>2.7999999523163</ele>
        <time>2022-07-17T08:22:05.000Z</time>
      </trkpt>
      <trkpt lat="47.30669" lon="-2.24209">
        <ele>2.4000000953674</ele>
        <time>2022-07-17T08:22:06.000Z</time>
      </trkpt>
      <trkpt lat="47.30672" lon="-2.242">
        <ele>2</ele>
        <time>2022-07-17T08:22:07.000Z</time>
      </trkpt>
      <trkpt lat="47.30674" lon="-2.24193">
        <ele>1.6000000238419</ele>
        <time>2022-07-17T08:22:08.000Z</time>
      </trkpt>
      <trkpt lat="47.30676" lon="-2.24188">
        <ele>1.2000000476837</ele>
        <time>2022-07-17T08:22:09.000Z</time>
      </trkpt>
      <trkpt lat="47.30679" lon="-2.24186">
        <ele>0.20000000298023</ele>
        <time>2022-07-17T08:22:10.000Z</time>
      </trkpt>
      <trkpt lat="47.30684" lon="-2.24188">
        <ele>-0.20000000298023</ele>
        <time>2022-07-17T08:22:11.000Z</time>
      </trkpt>
      <trkpt lat="47.30688" lon="-2.24191">
        <ele>-0.60000002384186</ele>
        <time>2022-07-17T08:22:12.000Z</time>
      </trkpt>
      <trkpt lat="47.30692" lon="-2.24196">
        <ele>-1</ele>
        <time>2022-07-17T08:22:13.000Z</time>
      </trkpt>
      <trkpt lat="47.30696" lon="-2.24203">
        <ele>-1.6000000238419</ele>
        <time>2022-07-17T08:22:14.000Z</time>
      </trkpt>
      <trkpt lat="47.307" lon="-2.24209">
        <ele>-2</ele>
        <time>2022-07-17T08:22:15.000Z</time>
      </trkpt>
      <trkpt lat="47.30702" lon="-2.24212">
        <ele>-2.5999999046326</ele>
        <time>2022-07-17T08:22:16.000Z</time>
      </trkpt>
      <trkpt lat="47.30704" lon="-2.24214">
        <ele>-3</ele>
        <time>2022-07-17T08:22:17.000Z</time>
      </trkpt>
      <trkpt lat="47.30706" lon="-2.24215">
        <ele>-3.4000000953674</ele>
        <time>2022-07-17T08:22:18.000Z</time>
      </trkpt>
      <trkpt lat="47.30711" lon="-2.24216">
        <ele>-3.4000000953674</ele>
        <time>2022-07-17T08:22:22.000Z</time>
      </trkpt>
      <trkpt lat="47.30713" lon="-2.24218">
        <ele>-3.4000000953674</ele>
        <time>2022-07-17T08:22:24.000Z</time>
      </trkpt>
      <trkpt lat="47.30712" lon="-2.24221">
        <ele>-3.4000000953674</ele>
        <time>2022-07-17T08:22:26.000Z</time>
      </trkpt>
      <trkpt lat="47.30711" lon="-2.2422">
        <ele>-3.4000000953674</ele>
        <time>2022-07-17T08:22:27.000Z</time>
      </trkpt>
      <trkpt lat="47.30706" lon="-2.24216">
        <ele>-3.4000000953674</ele>
        <time>2022-07-17T08:22:29.000Z</time>
      </trkpt>
      <trkpt lat="47.30691" lon="-2.24194">
        <ele>-3.4000000953674</ele>
        <time>2022-07-17T08:22:34.000Z</time>
      </trkpt>
      <trkpt lat="47.30683" lon="-2.24181">
        <ele>-3.4000000953674</ele>
        <time>2022-07-17T08:22:37.000Z</time>
      </trkpt>
      <trkpt lat="47.30677" lon="-2.24172">
        <ele>-3.4000000953674</ele>
        <time>2022-07-17T08:22:39.000Z</time>
      </trkpt>
      <trkpt lat="47.30665" lon="-2.24147">
        <ele>-3.4000000953674</ele>
        <time>2022-07-17T08:22:43.000Z</time>
      </trkpt>
      <trkpt lat="47.30662" lon="-2.24139">
        <ele>-3.4000000953674</ele>
        <time>2022-07-17T08:22:44.000Z</time>
      </trkpt>
      <trkpt lat="47.30656" lon="-2.24125">
        <ele>-3.4000000953674</ele>
        <time>2022-07-17T08:22:46.000Z</time>
      </trkpt>
      <trkpt lat="47.30648" lon="-2.24102">
        <ele>-3.4000000953674</ele>
        <time>2022-07-17T08:22:49.000Z</time>
      </trkpt>
      <trkpt lat="47.30646" lon="-2.24086">
        <ele>-3.4000000953674</ele>
        <time>2022-07-17T08:22:51.000Z</time>
      </trkpt>
      <trkpt lat="47.3064" lon="-2.24053">
        <ele>-3.4000000953674</ele>
        <time>2022-07-17T08:22:55.000Z</time>
      </trkpt>
      <trkpt lat="47.30639" lon="-2.24037">
        <ele>-3.4000000953674</ele>
        <time>2022-07-17T08:22:57.000Z</time>
      </trkpt>
      <trkpt lat="47.30642" lon="-2.24031">
        <ele>-3.4000000953674</ele>
        <time>2022-07-17T08:22:58.000Z</time>
      </trkpt>
      <trkpt lat="47.30653" lon="-2.24016">
        <ele>-3.4000000953674</ele>
        <time>2022-07-17T08:23:01.000Z</time>
      </trkpt>
      <trkpt lat="47.30658" lon="-2.2401">
        <ele>-3.4000000953674</ele>
        <time>2022-07-17T08:23:02.000Z</time>
      </trkpt>
      <trkpt lat="47.30672" lon="-2.23991">
        <ele>-3.4000000953674</ele>
        <time>2022-07-17T08:23:05.000Z</time>
      </trkpt>
      <trkpt lat="47.30682" lon="-2.23979">
        <ele>-3.4000000953674</ele>
        <time>2022-07-17T08:23:07.000Z</time>
      </trkpt>
      <trkpt lat="47.30691" lon="-2.23967">
        <ele>-3.7999999523163</ele>
        <time>2022-07-17T08:23:09.000Z</time>
      </trkpt>
      <trkpt lat="47.30697" lon="-2.23964">
        <ele>-4.1999998092651</ele>
        <time>2022-07-17T08:23:10.000Z</time>
      </trkpt>
      <trkpt lat="47.30703" lon="-2.2396">
        <ele>-4.5999999046326</ele>
        <time>2022-07-17T08:23:11.000Z</time>
      </trkpt>
      <trkpt lat="47.30709" lon="-2.23958">
        <ele>-5</ele>
        <time>2022-07-17T08:23:12.000Z</time>
      </trkpt>
      <trkpt lat="47.30715" lon="-2.23955">
        <ele>-5.4000000953674</ele>
        <time>2022-07-17T08:23:13.000Z</time>
      </trkpt>
      <trkpt lat="47.30736" lon="-2.23946">
        <ele>-5.4000000953674</ele>
        <time>2022-07-17T08:23:16.000Z</time>
      </trkpt>
      <trkpt lat="47.30791" lon="-2.23922">
        <ele>-5.4000000953674</ele>
        <time>2022-07-17T08:23:24.000Z</time>
      </trkpt>
      <trkpt lat="47.3083" lon="-2.23903">
        <ele>-5.4000000953674</ele>
        <time>2022-07-17T08:23:30.000Z</time>
      </trkpt>
      <trkpt lat="47.30855" lon="-2.23888">
        <ele>-5.4000000953674</ele>
        <time>2022-07-17T08:23:34.000Z</time>
      </trkpt>
      <trkpt lat="47.30867" lon="-2.23881">
        <ele>-5.4000000953674</ele>
        <time>2022-07-17T08:23:36.000Z</time>
      </trkpt>
      <trkpt lat="47.30892" lon="-2.23868">
        <ele>-5.4000000953674</ele>
        <time>2022-07-17T08:23:40.000Z</time>
      </trkpt>
      <trkpt lat="47.30897" lon="-2.23864">
        <ele>-5.4000000953674</ele>
        <time>2022-07-17T08:23:41.000Z</time>
      </trkpt>
      <trkpt lat="47.30908" lon="-2.23858">
        <ele>-5.4000000953674</ele>
        <time>2022-07-17T08:23:43.000Z</time>
      </trkpt>
      <trkpt lat="47.30924" lon="-2.2385">
        <ele>-5.4000000953674</ele>
        <time>2022-07-17T08:23:46.000Z</time>
      </trkpt>
      <trkpt lat="47.30943" lon="-2.23842">
        <ele>-5.4000000953674</ele>
        <time>2022-07-17T08:23:51.000Z</time>
      </trkpt>
      <trkpt lat="47.30949" lon="-2.23839">
        <ele>-5.4000000953674</ele>
        <time>2022-07-17T08:23:56.000Z</time>
      </trkpt>
      <trkpt lat="47.30949" lon="-2.23839">
        <ele>-5.4000000953674</ele>
        <time>2022-07-17T08:23:57.000Z</time>
      </trkpt>
      <trkpt lat="47.30942" lon="-2.23845">
        <ele>-5.4000000953674</ele>
        <time>2022-07-17T08:35:37.000Z</time>
      </trkpt>
      <trkpt lat="47.30939" lon="-2.23846">
        <ele>-5.4000000953674</ele>
        <time>2022-07-17T08:35:39.000Z</time>
      </trkpt>
      <trkpt lat="47.30925" lon="-2.23852">
        <ele>-5.4000000953674</ele>
        <time>2022-07-17T08:35:46.000Z</time>
      </trkpt>
      <trkpt lat="47.30908" lon="-2.23859">
        <ele>-5.4000000953674</ele>
        <time>2022-07-17T08:35:52.000Z</time>
      </trkpt>
      <trkpt lat="47.30891" lon="-2.23869">
        <ele>-5.4000000953674</ele>
        <time>2022-07-17T08:35:58.000Z</time>
      </trkpt>
      <trkpt lat="47.30869" lon="-2.23882">
        <ele>-5.4000000953674</ele>
        <time>2022-07-17T08:36:05.000Z</time>
      </trkpt>
      <trkpt lat="47.30857" lon="-2.2389">
        <ele>-5.4000000953674</ele>
        <time>2022-07-17T08:36:11.000Z</time>
      </trkpt>
      <trkpt lat="47.30844" lon="-2.23897">
        <ele>-5.4000000953674</ele>
        <time>2022-07-17T08:36:16.000Z</time>
      </trkpt>
      <trkpt lat="47.30831" lon="-2.23901">
        <ele>-5.4000000953674</ele>
        <time>2022-07-17T08:36:21.000Z</time>
      </trkpt>
      <trkpt lat="47.30806" lon="-2.23909">
        <ele>-5.4000000953674</ele>
        <time>2022-07-17T08:36:29.000Z</time>
      </trkpt>
      <trkpt lat="47.3079" lon="-2.23917">
        <ele>-5.4000000953674</ele>
        <time>2022-07-17T08:36:34.000Z</time>
      </trkpt>
      <trkpt lat="47.30764" lon="-2.23933">
        <ele>-5.4000000953674</ele>
        <time>2022-07-17T08:36:39.000Z</time>
      </trkpt>
      <trkpt lat="47.30751" lon="-2.23939">
        <ele>-5.4000000953674</ele>
        <time>2022-07-17T08:36:42.000Z</time>
      </trkpt>
      <trkpt lat="47.30733" lon="-2.23948">
        <ele>-5.4000000953674</ele>
        <time>2022-07-17T08:36:46.000Z</time>
      </trkpt>
      <trkpt lat="47.30705" lon="-2.23961">
        <ele>-5.4000000953674</ele>
        <time>2022-07-17T08:36:53.000Z</time>
      </trkpt>
      <trkpt lat="47.30679" lon="-2.23982">
        <ele>-5.4000000953674</ele>
        <time>2022-07-17T08:37:00.000Z</time>
      </trkpt>
      <trkpt lat="47.30676" lon="-2.23987">
        <ele>-5.4000000953674</ele>
        <time>2022-07-17T08:37:01.000Z</time>
      </trkpt>
      <trkpt lat="47.30663" lon="-2.24006">
        <ele>-5.4000000953674</ele>
        <time>2022-07-17T08:37:05.000Z</time>
      </trkpt>
      <trkpt lat="47.3066" lon="-2.24011">
        <ele>-5.4000000953674</ele>
        <time>2022-07-17T08:37:06.000Z</time>
      </trkpt>
      <trkpt lat="47.30638" lon="-2.24037">
        <ele>-5.4000000953674</ele>
        <time>2022-07-17T08:37:14.000Z</time>
      </trkpt>
      <trkpt lat="47.30635" lon="-2.24039">
        <ele>-5.4000000953674</ele>
        <time>2022-07-17T08:37:15.000Z</time>
      </trkpt>
      <trkpt lat="47.30629" lon="-2.24036">
        <ele>-5.4000000953674</ele>
        <time>2022-07-17T08:37:17.000Z</time>
      </trkpt>
      <trkpt lat="47.30623" lon="-2.2403">
        <ele>-5.4000000953674</ele>
        <time>2022-07-17T08:37:19.000Z</time>
      </trkpt>
      <trkpt lat="47.30613" lon="-2.24019">
        <ele>-5.4000000953674</ele>
        <time>2022-07-17T08:37:22.000Z</time>
      </trkpt>
      <trkpt lat="47.3061" lon="-2.24015">
        <ele>-5.4000000953674</ele>
        <time>2022-07-17T08:37:23.000Z</time>
      </trkpt>
      <trkpt lat="47.30599" lon="-2.24003">
        <ele>-5.4000000953674</ele>
        <time>2022-07-17T08:37:26.000Z</time>
      </trkpt>
      <trkpt lat="47.30588" lon="-2.23991">
        <ele>-5.4000000953674</ele>
        <time>2022-07-17T08:37:29.000Z</time>
      </trkpt>
      <trkpt lat="47.30571" lon="-2.23969">
        <ele>-5.4000000953674</ele>
        <time>2022-07-17T08:37:34.000Z</time>
      </trkpt>
      <trkpt lat="47.30568" lon="-2.23964">
        <ele>-5.4000000953674</ele>
        <time>2022-07-17T08:37:35.000Z</time>
      </trkpt>
      <trkpt lat="47.30563" lon="-2.23953">
        <ele>-5.4000000953674</ele>
        <time>2022-07-17T08:37:37.000Z</time>
      </trkpt>
      <trkpt lat="47.30551" lon="-2.23924">
        <ele>-5.4000000953674</ele>
        <time>2022-07-17T08:37:42.000Z</time>
      </trkpt>
      <trkpt lat="47.3053" lon="-2.23896">
        <ele>-5.4000000953674</ele>
        <time>2022-07-17T08:37:48.000Z</time>
      </trkpt>
      <trkpt lat="47.30495" lon="-2.23848">
        <ele>-5.4000000953674</ele>
        <time>2022-07-17T08:37:58.000Z</time>
      </trkpt>
      <trkpt lat="47.3048" lon="-2.23842">
        <ele>-5.4000000953674</ele>
        <time>2022-07-17T08:38:01.000Z</time>
      </trkpt>
      <trkpt lat="47.30465" lon="-2.23844">
        <ele>-5.4000000953674</ele>
        <time>2022-07-17T08:38:04.000Z</time>
      </trkpt>
      <trkpt lat="47.30449" lon="-2.23847">
        <ele>-5.4000000953674</ele>
        <time>2022-07-17T08:38:07.000Z</time>
      </trkpt>
      <trkpt lat="47.30408" lon="-2.23853">
        <ele>-5.4000000953674</ele>
        <time>2022-07-17T08:38:15.000Z</time>
      </trkpt>
      <trkpt lat="47.30357" lon="-2.23861">
        <ele>-5.4000000953674</ele>
        <time>2022-07-17T08:38:25.000Z</time>
      </trkpt>
      <trkpt lat="47.30342" lon="-2.23865">
        <ele>-5.4000000953674</ele>
        <time>2022-07-17T08:38:28.000Z</time>
      </trkpt>
      <trkpt lat="47.30332" lon="-2.23869">
        <ele>-5.4000000953674</ele>
        <time>2022-07-17T08:38:30.000Z</time>
      </trkpt>
      <trkpt lat="47.30308" lon="-2.2388">
        <ele>-5.4000000953674</ele>
        <time>2022-07-17T08:38:35.000Z</time>
      </trkpt>
      <trkpt lat="47.30303" lon="-2.23882">
        <ele>-5.4000000953674</ele>
        <time>2022-07-17T08:38:36.000Z</time>
      </trkpt>
      <trkpt lat="47.30292" lon="-2.23884">
        <ele>-5.4000000953674</ele>
        <time>2022-07-17T08:38:38.000Z</time>
      </trkpt>
      <trkpt lat="47.30276" lon="-2.23882">
        <ele>-5.4000000953674</ele>
        <time>2022-07-17T08:38:41.000Z</time>
      </trkpt>
      <trkpt lat="47.30234" lon="-2.2387">
        <ele>-5.4000000953674</ele>
        <time>2022-07-17T08:38:49.000Z</time>
      </trkpt>
      <trkpt lat="47.30224" lon="-2.23867">
        <ele>-5.4000000953674</ele>
        <time>2022-07-17T08:38:51.000Z</time>
      </trkpt>
      <trkpt lat="47.30204" lon="-2.23858">
        <ele>-5.4000000953674</ele>
        <time>2022-07-17T08:38:55.000Z</time>
      </trkpt>
      <trkpt lat="47.30189" lon="-2.23838">
        <ele>-5.4000000953674</ele>
        <time>2022-07-17T08:38:59.000Z</time>
      </trkpt>
      <trkpt lat="47.30185" lon="-2.23832">
        <ele>-5.4000000953674</ele>
        <time>2022-07-17T08:39:00.000Z</time>
      </trkpt>
      <trkpt lat="47.30158" lon="-2.23785">
        <ele>-5.4000000953674</ele>
        <time>2022-07-17T08:39:08.000Z</time>
      </trkpt>
      <trkpt lat="47.3015" lon="-2.23775">
        <ele>-5.4000000953674</ele>
        <time>2022-07-17T08:39:10.000Z</time>
      </trkpt>
      <trkpt lat="47.30136" lon="-2.23764">
        <ele>-5.4000000953674</ele>
        <time>2022-07-17T08:39:13.000Z</time>
      </trkpt>
      <trkpt lat="47.30115" lon="-2.23754">
        <ele>-5.4000000953674</ele>
        <time>2022-07-17T08:39:17.000Z</time>
      </trkpt>
      <trkpt lat="47.30109" lon="-2.23754">
        <ele>-5.4000000953674</ele>
        <time>2022-07-17T08:39:18.000Z</time>
      </trkpt>
      <trkpt lat="47.30098" lon="-2.23754">
        <ele>-5.4000000953674</ele>
        <time>2022-07-17T08:39:20.000Z</time>
      </trkpt>
      <trkpt lat="47.30081" lon="-2.23761">
        <ele>-5.4000000953674</ele>
        <time>2022-07-17T08:39:23.000Z</time>
      </trkpt>
      <trkpt lat="47.30077" lon="-2.23764">
        <ele>-5.4000000953674</ele>
        <time>2022-07-17T08:39:24.000Z</time>
      </trkpt>
      <trkpt lat="47.30067" lon="-2.23772">
        <ele>-5.4000000953674</ele>
        <time>2022-07-17T08:39:26.000Z</time>
      </trkpt>
      <trkpt lat="47.30055" lon="-2.23787">
        <ele>-5.4000000953674</ele>
        <time>2022-07-17T08:39:29.000Z</time>
      </trkpt>
      <trkpt lat="47.30051" lon="-2.23793">
        <ele>-5.4000000953674</ele>
        <time>2022-07-17T08:39:30.000Z</time>
      </trkpt>
      <trkpt lat="47.30048" lon="-2.238">
        <ele>-5.4000000953674</ele>
        <time>2022-07-17T08:39:31.000Z</time>
      </trkpt>
      <trkpt lat="47.30036" lon="-2.23825">
        <ele>-5.4000000953674</ele>
        <time>2022-07-17T08:39:35.000Z</time>
      </trkpt>
      <trkpt lat="47.30028" lon="-2.23843">
        <ele>-5.4000000953674</ele>
        <time>2022-07-17T08:39:38.000Z</time>
      </trkpt>
      <trkpt lat="47.30014" lon="-2.23876">
        <ele>-5.4000000953674</ele>
        <time>2022-07-17T08:39:43.000Z</time>
      </trkpt>
      <trkpt lat="47.30008" lon="-2.23886">
        <ele>-5.4000000953674</ele>
        <time>2022-07-17T08:39:45.000Z</time>
      </trkpt>
      <trkpt lat="47.30005" lon="-2.23887">
        <ele>-5.4000000953674</ele>
        <time>2022-07-17T08:39:46.000Z</time>
      </trkpt>
      <trkpt lat="47.29996" lon="-2.23878">
        <ele>-5.4000000953674</ele>
        <time>2022-07-17T08:39:49.000Z</time>
      </trkpt>
      <trkpt lat="47.29993" lon="-2.23874">
        <ele>-5</ele>
        <time>2022-07-17T08:39:50.000Z</time>
      </trkpt>
      <trkpt lat="47.2999" lon="-2.23868">
        <ele>-4.5999999046326</ele>
        <time>2022-07-17T08:39:51.000Z</time>
      </trkpt>
      <trkpt lat="47.29986" lon="-2.23864">
        <ele>-4.1999998092651</ele>
        <time>2022-07-17T08:39:52.000Z</time>
      </trkpt>
      <trkpt lat="47.29983" lon="-2.2386">
        <ele>-3.4000000953674</ele>
        <time>2022-07-17T08:39:53.000Z</time>
      </trkpt>
      <trkpt lat="47.29978" lon="-2.23856">
        <ele>-3.4000000953674</ele>
        <time>2022-07-17T08:39:54.000Z</time>
      </trkpt>
      <trkpt lat="47.29955" lon="-2.23839">
        <ele>-3.4000000953674</ele>
        <time>2022-07-17T08:39:59.000Z</time>
      </trkpt>
      <trkpt lat="47.29949" lon="-2.23837">
        <ele>-3.4000000953674</ele>
        <time>2022-07-17T08:40:00.000Z</time>
      </trkpt>
      <trkpt lat="47.29939" lon="-2.23832">
        <ele>-3.4000000953674</ele>
        <time>2022-07-17T08:40:02.000Z</time>
      </trkpt>
      <trkpt lat="47.29923" lon="-2.23828">
        <ele>-3.4000000953674</ele>
        <time>2022-07-17T08:40:05.000Z</time>
      </trkpt>
      <trkpt lat="47.299" lon="-2.23823">
        <ele>-3.4000000953674</ele>
        <time>2022-07-17T08:40:09.000Z</time>
      </trkpt>
      <trkpt lat="47.29895" lon="-2.23823">
        <ele>-3.4000000953674</ele>
        <time>2022-07-17T08:40:10.000Z</time>
      </trkpt>
      <trkpt lat="47.2987" lon="-2.23826">
        <ele>-3.4000000953674</ele>
        <time>2022-07-17T08:40:15.000Z</time>
      </trkpt>
      <trkpt lat="47.29853" lon="-2.23826">
        <ele>-3.4000000953674</ele>
        <time>2022-07-17T08:40:18.000Z</time>
      </trkpt>
      <trkpt lat="47.29843" lon="-2.23821">
        <ele>-3.4000000953674</ele>
        <time>2022-07-17T08:40:20.000Z</time>
      </trkpt>
      <trkpt lat="47.29829" lon="-2.23809">
        <ele>-3.4000000953674</ele>
        <time>2022-07-17T08:40:23.000Z</time>
      </trkpt>
      <trkpt lat="47.29821" lon="-2.23802">
        <ele>-3.4000000953674</ele>
        <time>2022-07-17T08:40:25.000Z</time>
      </trkpt>
      <trkpt lat="47.29797" lon="-2.2379">
        <ele>-3.4000000953674</ele>
        <time>2022-07-17T08:40:30.000Z</time>
      </trkpt>
      <trkpt lat="47.29791" lon="-2.23789">
        <ele>-3.4000000953674</ele>
        <time>2022-07-17T08:40:31.000Z</time>
      </trkpt>
      <trkpt lat="47.29771" lon="-2.23794">
        <ele>-3.4000000953674</ele>
        <time>2022-07-17T08:40:35.000Z</time>
      </trkpt>
      <trkpt lat="47.29753" lon="-2.23813">
        <ele>-3.4000000953674</ele>
        <time>2022-07-17T08:40:39.000Z</time>
      </trkpt>
      <trkpt lat="47.29732" lon="-2.23859">
        <ele>-3.4000000953674</ele>
        <time>2022-07-17T08:40:45.000Z</time>
      </trkpt>
      <trkpt lat="47.29726" lon="-2.23876">
        <ele>-3.4000000953674</ele>
        <time>2022-07-17T08:40:47.000Z</time>
      </trkpt>
      <trkpt lat="47.29723" lon="-2.23894">
        <ele>-3.4000000953674</ele>
        <time>2022-07-17T08:40:49.000Z</time>
      </trkpt>
      <trkpt lat="47.29715" lon="-2.23928">
        <ele>-3.4000000953674</ele>
        <time>2022-07-17T08:40:53.000Z</time>
      </trkpt>
      <trkpt lat="47.29712" lon="-2.23935">
        <ele>-3.4000000953674</ele>
        <time>2022-07-17T08:40:54.000Z</time>
      </trkpt>
      <trkpt lat="47.29698" lon="-2.23943">
        <ele>-3.4000000953674</ele>
        <time>2022-07-17T08:40:57.000Z</time>
      </trkpt>
      <trkpt lat="47.29693" lon="-2.23945">
        <ele>-3.4000000953674</ele>
        <time>2022-07-17T08:40:58.000Z</time>
      </trkpt>
      <trkpt lat="47.29673" lon="-2.2396">
        <ele>-3.4000000953674</ele>
        <time>2022-07-17T08:41:02.000Z</time>
      </trkpt>
      <trkpt lat="47.29649" lon="-2.23984">
        <ele>-3.4000000953674</ele>
        <time>2022-07-17T08:41:07.000Z</time>
      </trkpt>
      <trkpt lat="47.29645" lon="-2.2399">
        <ele>-3.4000000953674</ele>
        <time>2022-07-17T08:41:08.000Z</time>
      </trkpt>
      <trkpt lat="47.29641" lon="-2.24013">
        <ele>-3.4000000953674</ele>
        <time>2022-07-17T08:41:11.000Z</time>
      </trkpt>
      <trkpt lat="47.2964" lon="-2.24021">
        <ele>-3.4000000953674</ele>
        <time>2022-07-17T08:41:12.000Z</time>
      </trkpt>
      <trkpt lat="47.29631" lon="-2.2406">
        <ele>-3.4000000953674</ele>
        <time>2022-07-17T08:41:18.000Z</time>
      </trkpt>
      <trkpt lat="47.29629" lon="-2.24063">
        <ele>-3.4000000953674</ele>
        <time>2022-07-17T08:41:19.000Z</time>
      </trkpt>
      <trkpt lat="47.29622" lon="-2.24065">
        <ele>-3.4000000953674</ele>
        <time>2022-07-17T08:41:21.000Z</time>
      </trkpt>
      <trkpt lat="47.29619" lon="-2.24053">
        <ele>-3.4000000953674</ele>
        <time>2022-07-17T08:41:24.000Z</time>
      </trkpt>
      <trkpt lat="47.29623" lon="-2.24014">
        <ele>-3.4000000953674</ele>
        <time>2022-07-17T08:41:30.000Z</time>
      </trkpt>
      <trkpt lat="47.29625" lon="-2.23983">
        <ele>-3.4000000953674</ele>
        <time>2022-07-17T08:41:35.000Z</time>
      </trkpt>
      <trkpt lat="47.29625" lon="-2.23977">
        <ele>-3.4000000953674</ele>
        <time>2022-07-17T08:41:36.000Z</time>
      </trkpt>
      <trkpt lat="47.29629" lon="-2.23929">
        <ele>-3.4000000953674</ele>
        <time>2022-07-17T08:41:43.000Z</time>
      </trkpt>
      <trkpt lat="47.2963" lon="-2.23908">
        <ele>-3.4000000953674</ele>
        <time>2022-07-17T08:41:46.000Z</time>
      </trkpt>
      <trkpt lat="47.29632" lon="-2.23888">
        <ele>-3.4000000953674</ele>
        <time>2022-07-17T08:41:49.000Z</time>
      </trkpt>
      <trkpt lat="47.29634" lon="-2.23866">
        <ele>-3.4000000953674</ele>
        <time>2022-07-17T08:41:52.000Z</time>
      </trkpt>
      <trkpt lat="47.29635" lon="-2.23851">
        <ele>-3.4000000953674</ele>
        <time>2022-07-17T08:41:54.000Z</time>
      </trkpt>
      <trkpt lat="47.29638" lon="-2.23805">
        <ele>-3.4000000953674</ele>
        <time>2022-07-17T08:42:00.000Z</time>
      </trkpt>
      <trkpt lat="47.29638" lon="-2.23798">
        <ele>-3.4000000953674</ele>
        <time>2022-07-17T08:42:01.000Z</time>
      </trkpt>
      <trkpt lat="47.29644" lon="-2.23738">
        <ele>-3.4000000953674</ele>
        <time>2022-07-17T08:42:09.000Z</time>
      </trkpt>
      <trkpt lat="47.29648" lon="-2.23684">
        <ele>-3.4000000953674</ele>
        <time>2022-07-17T08:42:16.000Z</time>
      </trkpt>
      <trkpt lat="47.29647" lon="-2.23677">
        <ele>-3.4000000953674</ele>
        <time>2022-07-17T08:42:17.000Z</time>
      </trkpt>
      <trkpt lat="47.29642" lon="-2.23668">
        <ele>-3.4000000953674</ele>
        <time>2022-07-17T08:42:19.000Z</time>
      </trkpt>
      <trkpt lat="47.29628" lon="-2.23664">
        <ele>-3.4000000953674</ele>
        <time>2022-07-17T08:42:22.000Z</time>
      </trkpt>
      <trkpt lat="47.29623" lon="-2.23662">
        <ele>-3.4000000953674</ele>
        <time>2022-07-17T08:42:23.000Z</time>
      </trkpt>
      <trkpt lat="47.29594" lon="-2.23657">
        <ele>-3.4000000953674</ele>
        <time>2022-07-17T08:42:29.000Z</time>
      </trkpt>
      <trkpt lat="47.29575" lon="-2.23653">
        <ele>-3</ele>
        <time>2022-07-17T08:42:33.000Z</time>
      </trkpt>
      <trkpt lat="47.2957" lon="-2.23653">
        <ele>-2.5999999046326</ele>
        <time>2022-07-17T08:42:34.000Z</time>
      </trkpt>
      <trkpt lat="47.29566" lon="-2.23652">
        <ele>-2.2000000476837</ele>
        <time>2022-07-17T08:42:35.000Z</time>
      </trkpt>
      <trkpt lat="47.29561" lon="-2.23651">
        <ele>-1.7999999523163</ele>
        <time>2022-07-17T08:42:36.000Z</time>
      </trkpt>
      <trkpt lat="47.29556" lon="-2.2365">
        <ele>-1.3999999761581</ele>
        <time>2022-07-17T08:42:37.000Z</time>
      </trkpt>
      <trkpt lat="47.29528" lon="-2.23648">
        <ele>-1.3999999761581</ele>
        <time>2022-07-17T08:42:43.000Z</time>
      </trkpt>
      <trkpt lat="47.2951" lon="-2.23654">
        <ele>-1</ele>
        <time>2022-07-17T08:42:47.000Z</time>
      </trkpt>
      <trkpt lat="47.29505" lon="-2.23656">
        <ele>-0.60000002384186</ele>
        <time>2022-07-17T08:42:48.000Z</time>
      </trkpt>
      <trkpt lat="47.29501" lon="-2.23658">
        <ele>-0.20000000298023</ele>
        <time>2022-07-17T08:42:49.000Z</time>
      </trkpt>
      <trkpt lat="47.29497" lon="-2.2366">
        <ele>0.20000000298023</ele>
        <time>2022-07-17T08:42:50.000Z</time>
      </trkpt>
      <trkpt lat="47.29492" lon="-2.23663">
        <ele>0.60000002384186</ele>
        <time>2022-07-17T08:42:51.000Z</time>
      </trkpt>
      <trkpt lat="47.29474" lon="-2.23674">
        <ele>0.60000002384186</ele>
        <time>2022-07-17T08:42:56.000Z</time>
      </trkpt>
      <trkpt lat="47.2947" lon="-2.23676">
        <ele>1</ele>
        <time>2022-07-17T08:42:57.000Z</time>
      </trkpt>
      <trkpt lat="47.29467" lon="-2.23678">
        <ele>1.3999999761581</ele>
        <time>2022-07-17T08:42:58.000Z</time>
      </trkpt>
      <trkpt lat="47.29463" lon="-2.23681">
        <ele>1.7999999523163</ele>
        <time>2022-07-17T08:42:59.000Z</time>
      </trkpt>
      <trkpt lat="47.29459" lon="-2.23683">
        <ele>2.2000000476837</ele>
        <time>2022-07-17T08:43:00.000Z</time>
      </trkpt>
      <trkpt lat="47.29455" lon="-2.23685">
        <ele>2.5999999046326</ele>
        <time>2022-07-17T08:43:01.000Z</time>
      </trkpt>
      <trkpt lat="47.2945" lon="-2.23687">
        <ele>2.5999999046326</ele>
        <time>2022-07-17T08:43:02.000Z</time>
      </trkpt>
      <trkpt lat="47.29422" lon="-2.23697">
        <ele>2.5999999046326</ele>
        <time>2022-07-17T08:43:07.000Z</time>
      </trkpt>
      <trkpt lat="47.29402" lon="-2.23703">
        <ele>2.2000000476837</ele>
        <time>2022-07-17T08:43:10.000Z</time>
      </trkpt>
      <trkpt lat="47.29395" lon="-2.23706">
        <ele>1.7999999523163</ele>
        <time>2022-07-17T08:43:11.000Z</time>
      </trkpt>
      <trkpt lat="47.29388" lon="-2.2371">
        <ele>1.2000000476837</ele>
        <time>2022-07-17T08:43:12.000Z</time>
      </trkpt>
      <trkpt lat="47.29383" lon="-2.23717">
        <ele>0.80000001192093</ele>
        <time>2022-07-17T08:43:13.000Z</time>
      </trkpt>
      <trkpt lat="47.29379" lon="-2.23726">
        <ele>0.40000000596046</ele>
        <time>2022-07-17T08:43:14.000Z</time>
      </trkpt>
      <trkpt lat="47.29375" lon="-2.23737">
        <ele>-0.20000000298023</ele>
        <time>2022-07-17T08:43:15.000Z</time>
      </trkpt>
      <trkpt lat="47.29374" lon="-2.23747">
        <ele>-0.60000002384186</ele>
        <time>2022-07-17T08:43:16.000Z</time>
      </trkpt>
      <trkpt lat="47.29372" lon="-2.23758">
        <ele>-1</ele>
        <time>2022-07-17T08:43:17.000Z</time>
      </trkpt>
      <trkpt lat="47.29371" lon="-2.23768">
        <ele>-1.3999999761581</ele>
        <time>2022-07-17T08:43:18.000Z</time>
      </trkpt>
      <trkpt lat="47.2937" lon="-2.23778">
        <ele>-1.7999999523163</ele>
        <time>2022-07-17T08:43:19.000Z</time>
      </trkpt>
      <trkpt lat="47.29368" lon="-2.23786">
        <ele>-1.7999999523163</ele>
        <time>2022-07-17T08:43:20.000Z</time>
      </trkpt>
      <trkpt lat="47.29364" lon="-2.23792">
        <ele>-1.7999999523163</ele>
        <time>2022-07-17T08:43:21.000Z</time>
      </trkpt>
      <trkpt lat="47.29354" lon="-2.23795">
        <ele>-1.7999999523163</ele>
        <time>2022-07-17T08:43:23.000Z</time>
      </trkpt>
      <trkpt lat="47.29333" lon="-2.23782">
        <ele>-1.7999999523163</ele>
        <time>2022-07-17T08:43:27.000Z</time>
      </trkpt>
      <trkpt lat="47.29318" lon="-2.23779">
        <ele>-1.7999999523163</ele>
        <time>2022-07-17T08:43:30.000Z</time>
      </trkpt>
      <trkpt lat="47.2931" lon="-2.23769">
        <ele>-1.7999999523163</ele>
        <time>2022-07-17T08:43:33.000Z</time>
      </trkpt>
      <trkpt lat="47.29309" lon="-2.23757">
        <ele>-1.7999999523163</ele>
        <time>2022-07-17T08:43:35.000Z</time>
      </trkpt>
      <trkpt lat="47.29308" lon="-2.23746">
        <ele>-1.7999999523163</ele>
        <time>2022-07-17T08:43:37.000Z</time>
      </trkpt>
      <trkpt lat="47.29308" lon="-2.23739">
        <ele>-1.7999999523163</ele>
        <time>2022-07-17T08:43:38.000Z</time>
      </trkpt>
      <trkpt lat="47.29308" lon="-2.23704">
        <ele>-1.7999999523163</ele>
        <time>2022-07-17T08:43:44.000Z</time>
      </trkpt>
      <trkpt lat="47.29308" lon="-2.23646">
        <ele>-1.7999999523163</ele>
        <time>2022-07-17T08:43:53.000Z</time>
      </trkpt>
      <trkpt lat="47.29309" lon="-2.23595">
        <ele>-1.7999999523163</ele>
        <time>2022-07-17T08:44:01.000Z</time>
      </trkpt>
      <trkpt lat="47.29305" lon="-2.23546">
        <ele>-1.7999999523163</ele>
        <time>2022-07-17T08:44:08.000Z</time>
      </trkpt>
      <trkpt lat="47.29298" lon="-2.23503">
        <ele>-2.2000000476837</ele>
        <time>2022-07-17T08:44:14.000Z</time>
      </trkpt>
      <trkpt lat="47.29297" lon="-2.23496">
        <ele>-2.5999999046326</ele>
        <time>2022-07-17T08:44:15.000Z</time>
      </trkpt>
      <trkpt lat="47.29296" lon="-2.23489">
        <ele>-3.2000000476837</ele>
        <time>2022-07-17T08:44:16.000Z</time>
      </trkpt>
      <trkpt lat="47.29294" lon="-2.23481">
        <ele>-3.5999999046326</ele>
        <time>2022-07-17T08:44:17.000Z</time>
      </trkpt>
      <trkpt lat="47.29293" lon="-2.23474">
        <ele>-4</ele>
        <time>2022-07-17T08:44:18.000Z</time>
      </trkpt>
      <trkpt lat="47.2929" lon="-2.23461">
        <ele>-4</ele>
        <time>2022-07-17T08:44:20.000Z</time>
      </trkpt>
      <trkpt lat="47.2928" lon="-2.2341">
        <ele>-4</ele>
        <time>2022-07-17T08:44:27.000Z</time>
      </trkpt>
      <trkpt lat="47.29268" lon="-2.23354">
        <ele>-4</ele>
        <time>2022-07-17T08:44:35.000Z</time>
      </trkpt>
      <trkpt lat="47.29256" lon="-2.23309">
        <ele>-4</ele>
        <time>2022-07-17T08:44:42.000Z</time>
      </trkpt>
      <trkpt lat="47.29244" lon="-2.23284">
        <ele>-4</ele>
        <time>2022-07-17T08:44:46.000Z</time>
      </trkpt>
      <trkpt lat="47.29237" lon="-2.23274">
        <ele>-4</ele>
        <time>2022-07-17T08:44:48.000Z</time>
      </trkpt>
      <trkpt lat="47.29203" lon="-2.23231">
        <ele>-4</ele>
        <time>2022-07-17T08:44:57.000Z</time>
      </trkpt>
      <trkpt lat="47.29186" lon="-2.23202">
        <ele>-4</ele>
        <time>2022-07-17T08:45:02.000Z</time>
      </trkpt>
      <trkpt lat="47.29183" lon="-2.23195">
        <ele>-4</ele>
        <time>2022-07-17T08:45:03.000Z</time>
      </trkpt>
      <trkpt lat="47.29178" lon="-2.2318">
        <ele>-4</ele>
        <time>2022-07-17T08:45:05.000Z</time>
      </trkpt>
      <trkpt lat="47.29175" lon="-2.23173">
        <ele>-3.5999999046326</ele>
        <time>2022-07-17T08:45:06.000Z</time>
      </trkpt>
      <trkpt lat="47.29172" lon="-2.23167">
        <ele>-3.2000000476837</ele>
        <time>2022-07-17T08:45:07.000Z</time>
      </trkpt>
      <trkpt lat="47.29169" lon="-2.23161">
        <ele>-2.5999999046326</ele>
        <time>2022-07-17T08:45:08.000Z</time>
      </trkpt>
      <trkpt lat="47.29166" lon="-2.23155">
        <ele>-2.2000000476837</ele>
        <time>2022-07-17T08:45:09.000Z</time>
      </trkpt>
      <trkpt lat="47.29162" lon="-2.23149">
        <ele>-1.7999999523163</ele>
        <time>2022-07-17T08:45:10.000Z</time>
      </trkpt>
      <trkpt lat="47.29157" lon="-2.23143">
        <ele>-1.7999999523163</ele>
        <time>2022-07-17T08:45:11.000Z</time>
      </trkpt>
      <trkpt lat="47.29147" lon="-2.23132">
        <ele>-1.7999999523163</ele>
        <time>2022-07-17T08:45:13.000Z</time>
      </trkpt>
      <trkpt lat="47.29128" lon="-2.23109">
        <ele>-2.2000000476837</ele>
        <time>2022-07-17T08:45:17.000Z</time>
      </trkpt>
      <trkpt lat="47.29124" lon="-2.23104">
        <ele>-2.7999999523163</ele>
        <time>2022-07-17T08:45:18.000Z</time>
      </trkpt>
      <trkpt lat="47.29119" lon="-2.23098">
        <ele>-3.2000000476837</ele>
        <time>2022-07-17T08:45:19.000Z</time>
      </trkpt>
      <trkpt lat="47.29114" lon="-2.23093">
        <ele>-3.5999999046326</ele>
        <time>2022-07-17T08:45:20.000Z</time>
      </trkpt>
      <trkpt lat="47.2911" lon="-2.23088">
        <ele>-4</ele>
        <time>2022-07-17T08:45:21.000Z</time>
      </trkpt>
      <trkpt lat="47.29075" lon="-2.23046">
        <ele>-4</ele>
        <time>2022-07-17T08:45:29.000Z</time>
      </trkpt>
      <trkpt lat="47.29037" lon="-2.23">
        <ele>-4</ele>
        <time>2022-07-17T08:45:38.000Z</time>
      </trkpt>
      <trkpt lat="47.29023" lon="-2.2299">
        <ele>-4</ele>
        <time>2022-07-17T08:45:41.000Z</time>
      </trkpt>
      <trkpt lat="47.29003" lon="-2.22974">
        <ele>-4</ele>
        <time>2022-07-17T08:45:45.000Z</time>
      </trkpt>
      <trkpt lat="47.28979" lon="-2.22965">
        <ele>-4</ele>
        <time>2022-07-17T08:45:49.000Z</time>
      </trkpt>
      <trkpt lat="47.28973" lon="-2.22962">
        <ele>-4</ele>
        <time>2022-07-17T08:45:50.000Z</time>
      </trkpt>
      <trkpt lat="47.2894" lon="-2.22942">
        <ele>-4</ele>
        <time>2022-07-17T08:45:56.000Z</time>
      </trkpt>
      <trkpt lat="47.28896" lon="-2.22917">
        <ele>-4</ele>
        <time>2022-07-17T08:46:04.000Z</time>
      </trkpt>
      <trkpt lat="47.28849" lon="-2.2289">
        <ele>-4</ele>
        <time>2022-07-17T08:46:12.000Z</time>
      </trkpt>
      <trkpt lat="47.28808" lon="-2.22869">
        <ele>-4</ele>
        <time>2022-07-17T08:46:19.000Z</time>
      </trkpt>
      <trkpt lat="47.28784" lon="-2.22868">
        <ele>-4</ele>
        <time>2022-07-17T08:46:23.000Z</time>
      </trkpt>
      <trkpt lat="47.28778" lon="-2.2287">
        <ele>-4</ele>
        <time>2022-07-17T08:46:24.000Z</time>
      </trkpt>
      <trkpt lat="47.28731" lon="-2.22884">
        <ele>-4</ele>
        <time>2022-07-17T08:46:32.000Z</time>
      </trkpt>
      <trkpt lat="47.28702" lon="-2.22903">
        <ele>-4</ele>
        <time>2022-07-17T08:46:38.000Z</time>
      </trkpt>
      <trkpt lat="47.28689" lon="-2.22916">
        <ele>-4</ele>
        <time>2022-07-17T08:46:42.000Z</time>
      </trkpt>
      <trkpt lat="47.28689" lon="-2.2292">
        <ele>-4</ele>
        <time>2022-07-17T08:46:43.000Z</time>
      </trkpt>
      <trkpt lat="47.28691" lon="-2.22931">
        <ele>-4</ele>
        <time>2022-07-17T08:46:45.000Z</time>
      </trkpt>
      <trkpt lat="47.28696" lon="-2.22947">
        <ele>-4</ele>
        <time>2022-07-17T08:46:48.000Z</time>
      </trkpt>
      <trkpt lat="47.28697" lon="-2.2296">
        <ele>-4</ele>
        <time>2022-07-17T08:46:50.000Z</time>
      </trkpt>
      <trkpt lat="47.28696" lon="-2.22979">
        <ele>-4</ele>
        <time>2022-07-17T08:46:53.000Z</time>
      </trkpt>
      <trkpt lat="47.28694" lon="-2.23">
        <ele>-4</ele>
        <time>2022-07-17T08:46:56.000Z</time>
      </trkpt>
      <trkpt lat="47.28691" lon="-2.23015">
        <ele>-4</ele>
        <time>2022-07-17T08:46:58.000Z</time>
      </trkpt>
      <trkpt lat="47.28683" lon="-2.23029">
        <ele>-4</ele>
        <time>2022-07-17T08:47:00.000Z</time>
      </trkpt>
      <trkpt lat="47.28652" lon="-2.23072">
        <ele>-4</ele>
        <time>2022-07-17T08:47:06.000Z</time>
      </trkpt>
      <trkpt lat="47.28629" lon="-2.23103">
        <ele>-4</ele>
        <time>2022-07-17T08:47:11.000Z</time>
      </trkpt>
      <trkpt lat="47.28622" lon="-2.23126">
        <ele>-4</ele>
        <time>2022-07-17T08:47:14.000Z</time>
      </trkpt>
      <trkpt lat="47.28608" lon="-2.23179">
        <ele>-4</ele>
        <time>2022-07-17T08:47:20.000Z</time>
      </trkpt>
      <trkpt lat="47.28604" lon="-2.23194">
        <ele>-4</ele>
        <time>2022-07-17T08:47:22.000Z</time>
      </trkpt>
      <trkpt lat="47.28601" lon="-2.23209">
        <ele>-4</ele>
        <time>2022-07-17T08:47:24.000Z</time>
      </trkpt>
      <trkpt lat="47.28598" lon="-2.23223">
        <ele>-4</ele>
        <time>2022-07-17T08:47:26.000Z</time>
      </trkpt>
      <trkpt lat="47.28595" lon="-2.23245">
        <ele>-4</ele>
        <time>2022-07-17T08:47:29.000Z</time>
      </trkpt>
      <trkpt lat="47.28592" lon="-2.2327">
        <ele>-3.5999999046326</ele>
        <time>2022-07-17T08:47:32.000Z</time>
      </trkpt>
      <trkpt lat="47.28592" lon="-2.23278">
        <ele>-3.2000000476837</ele>
        <time>2022-07-17T08:47:33.000Z</time>
      </trkpt>
      <trkpt lat="47.28592" lon="-2.23286">
        <ele>-2.7999999523163</ele>
        <time>2022-07-17T08:47:34.000Z</time>
      </trkpt>
      <trkpt lat="47.28592" lon="-2.23294">
        <ele>-2.4000000953674</ele>
        <time>2022-07-17T08:47:35.000Z</time>
      </trkpt>
      <trkpt lat="47.28591" lon="-2.23303">
        <ele>-2</ele>
        <time>2022-07-17T08:47:36.000Z</time>
      </trkpt>
      <trkpt lat="47.28589" lon="-2.23328">
        <ele>-2</ele>
        <time>2022-07-17T08:47:39.000Z</time>
      </trkpt>
      <trkpt lat="47.28583" lon="-2.23381">
        <ele>-2</ele>
        <time>2022-07-17T08:47:45.000Z</time>
      </trkpt>
      <trkpt lat="47.28581" lon="-2.23389">
        <ele>-2</ele>
        <time>2022-07-17T08:47:46.000Z</time>
      </trkpt>
      <trkpt lat="47.28578" lon="-2.23414">
        <ele>-2</ele>
        <time>2022-07-17T08:47:49.000Z</time>
      </trkpt>
      <trkpt lat="47.28578" lon="-2.23457">
        <ele>-2</ele>
        <time>2022-07-17T08:47:54.000Z</time>
      </trkpt>
      <trkpt lat="47.28578" lon="-2.235">
        <ele>-2</ele>
        <time>2022-07-17T08:47:59.000Z</time>
      </trkpt>
      <trkpt lat="47.28578" lon="-2.23531">
        <ele>-2</ele>
        <time>2022-07-17T08:48:03.000Z</time>
      </trkpt>
      <trkpt lat="47.28582" lon="-2.23544">
        <ele>-2</ele>
        <time>2022-07-17T08:48:05.000Z</time>
      </trkpt>
      <trkpt lat="47.28599" lon="-2.23565">
        <ele>-2</ele>
        <time>2022-07-17T08:48:09.000Z</time>
      </trkpt>
      <trkpt lat="47.28616" lon="-2.23569">
        <ele>-2</ele>
        <time>2022-07-17T08:48:12.000Z</time>
      </trkpt>
      <trkpt lat="47.28641" lon="-2.23563">
        <ele>-2</ele>
        <time>2022-07-17T08:48:16.000Z</time>
      </trkpt>
      <trkpt lat="47.28645" lon="-2.23557">
        <ele>-2</ele>
        <time>2022-07-17T08:48:17.000Z</time>
      </trkpt>
      <trkpt lat="47.28649" lon="-2.23536">
        <ele>-2</ele>
        <time>2022-07-17T08:48:20.000Z</time>
      </trkpt>
      <trkpt lat="47.28649" lon="-2.23529">
        <ele>-2</ele>
        <time>2022-07-17T08:48:21.000Z</time>
      </trkpt>
      <trkpt lat="47.28652" lon="-2.23503">
        <ele>-2</ele>
        <time>2022-07-17T08:48:25.000Z</time>
      </trkpt>
      <trkpt lat="47.28656" lon="-2.23447">
        <ele>-2</ele>
        <time>2022-07-17T08:48:32.000Z</time>
      </trkpt>
      <trkpt lat="47.28651" lon="-2.23424">
        <ele>-2</ele>
        <time>2022-07-17T08:48:35.000Z</time>
      </trkpt>
      <trkpt lat="47.28647" lon="-2.23406">
        <ele>-2</ele>
        <time>2022-07-17T08:48:37.000Z</time>
      </trkpt>
      <trkpt lat="47.28646" lon="-2.23387">
        <ele>-2</ele>
        <time>2022-07-17T08:48:39.000Z</time>
      </trkpt>
      <trkpt lat="47.2865" lon="-2.23363">
        <ele>-2</ele>
        <time>2022-07-17T08:48:42.000Z</time>
      </trkpt>
      <trkpt lat="47.28661" lon="-2.23358">
        <ele>-2</ele>
        <time>2022-07-17T08:48:45.000Z</time>
      </trkpt>
      <trkpt lat="47.28664" lon="-2.23359">
        <ele>-2</ele>
        <time>2022-07-17T08:48:46.000Z</time>
      </trkpt>
      <trkpt lat="47.28667" lon="-2.23358">
        <ele>-2</ele>
        <time>2022-07-17T08:48:47.000Z</time>
      </trkpt>
      <trkpt lat="47.2867" lon="-2.23351">
        <ele>-2</ele>
        <time>2022-07-17T08:48:49.000Z</time>
      </trkpt>
      <trkpt lat="47.28671" lon="-2.23346">
        <ele>-1.6000000238419</ele>
        <time>2022-07-17T08:48:50.000Z</time>
      </trkpt>
      <trkpt lat="47.2867" lon="-2.2334">
        <ele>-1.2000000476837</ele>
        <time>2022-07-17T08:48:51.000Z</time>
      </trkpt>
      <trkpt lat="47.28671" lon="-2.23335">
        <ele>-0.80000001192093</ele>
        <time>2022-07-17T08:48:52.000Z</time>
      </trkpt>
      <trkpt lat="47.28671" lon="-2.23329">
        <ele>-0.40000000596046</ele>
        <time>2022-07-17T08:48:53.000Z</time>
      </trkpt>
      <trkpt lat="47.28672" lon="-2.23324">
        <ele>6.2</ele>
        <time>2022-07-17T08:48:54.000Z</time>
      </trkpt>
      <trkpt lat="47.28674" lon="-2.23304">
        <ele>7</ele>
        <time>2022-07-17T08:48:58.000Z</time>
      </trkpt>
      <trkpt lat="47.28675" lon="-2.23294">
        <ele>6.6</ele>
        <time>2022-07-17T08:49:01.000Z</time>
      </trkpt>
      <trkpt lat="47.28677" lon="-2.23289">
        <ele>6.5</ele>
        <time>2022-07-17T08:49:03.000Z</time>
      </trkpt>
      <trkpt lat="47.28676" lon="-2.23285">
        <ele>6.2</ele>
        <time>2022-07-17T08:49:04.000Z</time>
      </trkpt>
      <trkpt lat="47.28678" lon="-2.2328">
        <ele>6.1</ele>
        <time>2022-07-17T08:49:06.000Z</time>
      </trkpt>
      <trkpt lat="47.28687" lon="-2.23258">
        <ele>6.9</ele>
        <time>2022-07-17T08:49:11.000Z</time>
      </trkpt>
      <trkpt lat="47.28688" lon="-2.23251">
        <ele>0.40000000596046</ele>
        <time>2022-07-17T08:49:14.000Z</time>
      </trkpt>
      <trkpt lat="47.28688" lon="-2.23248">
        <ele>0.80000001192093</ele>
        <time>2022-07-17T08:49:15.000Z</time>
      </trkpt>
      <trkpt lat="47.28687" lon="-2.23245">
        <ele>1.2000000476837</ele>
        <time>2022-07-17T08:49:16.000Z</time>
      </trkpt>
      <trkpt lat="47.28686" lon="-2.23241">
        <ele>1.6000000238419</ele>
        <time>2022-07-17T08:49:17.000Z</time>
      </trkpt>
      <trkpt lat="47.28686" lon="-2.23237">
        <ele>2</ele>
        <time>2022-07-17T08:49:18.000Z</time>
      </trkpt>
      <trkpt lat="47.28684" lon="-2.23232">
        <ele>2</ele>
        <time>2022-07-17T08:49:19.000Z</time>
      </trkpt>
      <trkpt lat="47.28681" lon="-2.23219">
        <ele>1.6000000238419</ele>
        <time>2022-07-17T08:49:21.000Z</time>
      </trkpt>
      <trkpt lat="47.28679" lon="-2.23213">
        <ele>0.60000002384186</ele>
        <time>2022-07-17T08:49:22.000Z</time>
      </trkpt>
      <trkpt lat="47.28677" lon="-2.23208">
        <ele>3.7</ele>
        <time>2022-07-17T08:49:23.000Z</time>
      </trkpt>
      <trkpt lat="47.28673" lon="-2.23202">
        <ele>-0.40000000596046</ele>
        <time>2022-07-17T08:49:24.000Z</time>
      </trkpt>
      <trkpt lat="47.2866" lon="-2.23189">
        <ele>-0.80000001192093</ele>
        <time>2022-07-17T08:49:27.000Z</time>
      </trkpt>
      <trkpt lat="47.28656" lon="-2.23186">
        <ele>-1.2000000476837</ele>
        <time>2022-07-17T08:49:28.000Z</time>
      </trkpt>
      <trkpt lat="47.28652" lon="-2.23185">
        <ele>-1.6000000238419</ele>
        <time>2022-07-17T08:49:29.000Z</time>
      </trkpt>
      <trkpt lat="47.28648" lon="-2.23184">
        <ele>-2</ele>
        <time>2022-07-17T08:49:30.000Z</time>
      </trkpt>
      <trkpt lat="47.28643" lon="-2.23185">
        <ele>-2.5999999046326</ele>
        <time>2022-07-17T08:49:31.000Z</time>
      </trkpt>
      <trkpt lat="47.28635" lon="-2.23188">
        <ele>-2.5999999046326</ele>
        <time>2022-07-17T08:49:33.000Z</time>
      </trkpt>
      <trkpt lat="47.28618" lon="-2.23195">
        <ele>-2.5999999046326</ele>
        <time>2022-07-17T08:49:37.000Z</time>
      </trkpt>
      <trkpt lat="47.28599" lon="-2.23217">
        <ele>-2.5999999046326</ele>
        <time>2022-07-17T08:49:43.000Z</time>
      </trkpt>
      <trkpt lat="47.28593" lon="-2.23256">
        <ele>-2.5999999046326</ele>
        <time>2022-07-17T08:49:49.000Z</time>
      </trkpt>
      <trkpt lat="47.28592" lon="-2.23263">
        <ele>-2.5999999046326</ele>
        <time>2022-07-17T08:49:50.000Z</time>
      </trkpt>
      <trkpt lat="47.28594" lon="-2.23281">
        <ele>-2.5999999046326</ele>
        <time>2022-07-17T08:49:53.000Z</time>
      </trkpt>
      <trkpt lat="47.28596" lon="-2.23288">
        <ele>-2.5999999046326</ele>
        <time>2022-07-17T08:49:54.000Z</time>
      </trkpt>
      <trkpt lat="47.28602" lon="-2.23297">
        <ele>-2.5999999046326</ele>
        <time>2022-07-17T08:49:56.000Z</time>
      </trkpt>
      <trkpt lat="47.28605" lon="-2.233">
        <ele>-2.5999999046326</ele>
        <time>2022-07-17T08:49:57.000Z</time>
      </trkpt>
      <trkpt lat="47.28614" lon="-2.23304">
        <ele>-2.5999999046326</ele>
        <time>2022-07-17T08:49:59.000Z</time>
      </trkpt>
      <trkpt lat="47.2863" lon="-2.23303">
        <ele>-2.5999999046326</ele>
        <time>2022-07-17T08:50:03.000Z</time>
      </trkpt>
      <trkpt lat="47.28647" lon="-2.23301">
        <ele>-2.5999999046326</ele>
        <time>2022-07-17T08:50:07.000Z</time>
      </trkpt>
      <trkpt lat="47.28652" lon="-2.23302">
        <ele>-2.5999999046326</ele>
        <time>2022-07-17T08:50:08.000Z</time>
      </trkpt>
      <trkpt lat="47.28667" lon="-2.23306">
        <ele>-2</ele>
        <time>2022-07-17T08:50:12.000Z</time>
      </trkpt>
      <trkpt lat="47.28669" lon="-2.23305">
        <ele>-1.6000000238419</ele>
        <time>2022-07-17T08:50:13.000Z</time>
      </trkpt>
      <trkpt lat="47.2867" lon="-2.23303">
        <ele>-1.2000000476837</ele>
        <time>2022-07-17T08:50:14.000Z</time>
      </trkpt>
      <trkpt lat="47.2867" lon="-2.23301">
        <ele>-0.80000001192093</ele>
        <time>2022-07-17T08:50:15.000Z</time>
      </trkpt>
      <trkpt lat="47.28669" lon="-2.23299">
        <ele>-0.40000000596046</ele>
        <time>2022-07-17T08:50:16.000Z</time>
      </trkpt>
      <trkpt lat="47.28666" lon="-2.23296">
        <ele>0.20000000298023</ele>
        <time>2022-07-17T08:50:18.000Z</time>
      </trkpt>
      <trkpt lat="47.28665" lon="-2.23296">
        <ele>0.60000002384186</ele>
        <time>2022-07-17T08:50:19.000Z</time>
      </trkpt>
      <trkpt lat="47.28664" lon="-2.23298">
        <ele>1</ele>
        <time>2022-07-17T08:50:20.000Z</time>
      </trkpt>
      <trkpt lat="47.28661" lon="-2.23305">
        <ele>0.80000001192093</ele>
        <time>2022-07-17T08:50:21.000Z</time>
      </trkpt>
      <trkpt lat="47.2866" lon="-2.23315">
        <ele>0.60000002384186</ele>
        <time>2022-07-17T08:50:22.000Z</time>
      </trkpt>
      <trkpt lat="47.2866" lon="-2.23324">
        <ele>0.20000000298023</ele>
        <time>2022-07-17T08:50:23.000Z</time>
      </trkpt>
      <trkpt lat="47.28659" lon="-2.23333">
        <ele>4.7</ele>
        <time>2022-07-17T08:50:24.000Z</time>
      </trkpt>
      <trkpt lat="47.28657" lon="-2.23341">
        <ele>-0.40000000596046</ele>
        <time>2022-07-17T08:50:25.000Z</time>
      </trkpt>
      <trkpt lat="47.28655" lon="-2.2335">
        <ele>-0.40000000596046</ele>
        <time>2022-07-17T08:50:26.000Z</time>
      </trkpt>
      <trkpt lat="47.28654" lon="-2.23357">
        <ele>-0.40000000596046</ele>
        <time>2022-07-17T08:50:27.000Z</time>
      </trkpt>
      <trkpt lat="47.28647" lon="-2.23385">
        <ele>-0.40000000596046</ele>
        <time>2022-07-17T08:50:31.000Z</time>
      </trkpt>
      <trkpt lat="47.28646" lon="-2.23399">
        <ele>-0.40000000596046</ele>
        <time>2022-07-17T08:50:33.000Z</time>
      </trkpt>
      <trkpt lat="47.28648" lon="-2.23415">
        <ele>-0.40000000596046</ele>
        <time>2022-07-17T08:50:35.000Z</time>
      </trkpt>
      <trkpt lat="47.28652" lon="-2.23428">
        <ele>-0.40000000596046</ele>
        <time>2022-07-17T08:50:37.000Z</time>
      </trkpt>
      <trkpt lat="47.28658" lon="-2.23444">
        <ele>-0.40000000596046</ele>
        <time>2022-07-17T08:50:40.000Z</time>
      </trkpt>
      <trkpt lat="47.2866" lon="-2.23465">
        <ele>-0.40000000596046</ele>
        <time>2022-07-17T08:50:44.000Z</time>
      </trkpt>
      <trkpt lat="47.28659" lon="-2.2349">
        <ele>-0.40000000596046</ele>
        <time>2022-07-17T08:50:48.000Z</time>
      </trkpt>
      <trkpt lat="47.28659" lon="-2.23498">
        <ele>-0.40000000596046</ele>
        <time>2022-07-17T08:50:49.000Z</time>
      </trkpt>
      <trkpt lat="47.28657" lon="-2.23504">
        <ele>-0.40000000596046</ele>
        <time>2022-07-17T08:50:50.000Z</time>
      </trkpt>
      <trkpt lat="47.28655" lon="-2.23518">
        <ele>-0.40000000596046</ele>
        <time>2022-07-17T08:50:52.000Z</time>
      </trkpt>
      <trkpt lat="47.28655" lon="-2.23536">
        <ele>-0.40000000596046</ele>
        <time>2022-07-17T08:50:54.000Z</time>
      </trkpt>
      <trkpt lat="47.28656" lon="-2.23552">
        <ele>-0.40000000596046</ele>
        <time>2022-07-17T08:50:56.000Z</time>
      </trkpt>
      <trkpt lat="47.28662" lon="-2.23559">
        <ele>-0.40000000596046</ele>
        <time>2022-07-17T08:50:58.000Z</time>
      </trkpt>
      <trkpt lat="47.28678" lon="-2.23572">
        <ele>-0.40000000596046</ele>
        <time>2022-07-17T08:51:02.000Z</time>
      </trkpt>
      <trkpt lat="47.28685" lon="-2.23582">
        <ele>-0.40000000596046</ele>
        <time>2022-07-17T08:51:04.000Z</time>
      </trkpt>
      <trkpt lat="47.28698" lon="-2.23594">
        <ele>-0.40000000596046</ele>
        <time>2022-07-17T08:51:07.000Z</time>
      </trkpt>
      <trkpt lat="47.28711" lon="-2.23589">
        <ele>-0.40000000596046</ele>
        <time>2022-07-17T08:51:10.000Z</time>
      </trkpt>
      <trkpt lat="47.28715" lon="-2.23586">
        <ele>-0.40000000596046</ele>
        <time>2022-07-17T08:51:11.000Z</time>
      </trkpt>
      <trkpt lat="47.28723" lon="-2.23572">
        <ele>-0.40000000596046</ele>
        <time>2022-07-17T08:51:14.000Z</time>
      </trkpt>
      <trkpt lat="47.28725" lon="-2.23567">
        <ele>-0.40000000596046</ele>
        <time>2022-07-17T08:51:15.000Z</time>
      </trkpt>
      <trkpt lat="47.28734" lon="-2.23551">
        <ele>-0.40000000596046</ele>
        <time>2022-07-17T08:51:18.000Z</time>
      </trkpt>
      <trkpt lat="47.28739" lon="-2.23542">
        <ele>-0.40000000596046</ele>
        <time>2022-07-17T08:51:20.000Z</time>
      </trkpt>
      <trkpt lat="47.28747" lon="-2.23535">
        <ele>-0.40000000596046</ele>
        <time>2022-07-17T08:51:23.000Z</time>
      </trkpt>
      <trkpt lat="47.28751" lon="-2.23533">
        <ele>-0.40000000596046</ele>
        <time>2022-07-17T08:51:24.000Z</time>
      </trkpt>
      <trkpt lat="47.28763" lon="-2.23527">
        <ele>0.20000000298023</ele>
        <time>2022-07-17T08:51:27.000Z</time>
      </trkpt>
      <trkpt lat="47.28767" lon="-2.23525">
        <ele>0.60000002384186</ele>
        <time>2022-07-17T08:51:28.000Z</time>
      </trkpt>
      <trkpt lat="47.28771" lon="-2.23522">
        <ele>1</ele>
        <time>2022-07-17T08:51:29.000Z</time>
      </trkpt>
      <trkpt lat="47.28776" lon="-2.23521">
        <ele>1.3999999761581</ele>
        <time>2022-07-17T08:51:30.000Z</time>
      </trkpt>
      <trkpt lat="47.28781" lon="-2.23519">
        <ele>1.7999999523163</ele>
        <time>2022-07-17T08:51:31.000Z</time>
      </trkpt>
      <trkpt lat="47.28814" lon="-2.23511">
        <ele>2.2000000476837</ele>
        <time>2022-07-17T08:51:38.000Z</time>
      </trkpt>
      <trkpt lat="47.28819" lon="-2.23511">
        <ele>2.5999999046326</ele>
        <time>2022-07-17T08:51:39.000Z</time>
      </trkpt>
      <trkpt lat="47.28823" lon="-2.23511">
        <ele>3.2000000476837</ele>
        <time>2022-07-17T08:51:40.000Z</time>
      </trkpt>
      <trkpt lat="47.28828" lon="-2.23509">
        <ele>3.5999999046326</ele>
        <time>2022-07-17T08:51:41.000Z</time>
      </trkpt>
      <trkpt lat="47.28832" lon="-2.23509">
        <ele>4</ele>
        <time>2022-07-17T08:51:42.000Z</time>
      </trkpt>
      <trkpt lat="47.28841" lon="-2.23509">
        <ele>4</ele>
        <time>2022-07-17T08:51:44.000Z</time>
      </trkpt>
      <trkpt lat="47.28854" lon="-2.23507">
        <ele>4</ele>
        <time>2022-07-17T08:51:47.000Z</time>
      </trkpt>
      <trkpt lat="47.28863" lon="-2.23506">
        <ele>4</ele>
        <time>2022-07-17T08:51:49.000Z</time>
      </trkpt>
      <trkpt lat="47.28868" lon="-2.23505">
        <ele>4.4000000953674</ele>
        <time>2022-07-17T08:51:50.000Z</time>
      </trkpt>
      <trkpt lat="47.28872" lon="-2.23504">
        <ele>4.8000001907349</ele>
        <time>2022-07-17T08:51:51.000Z</time>
      </trkpt>
      <trkpt lat="47.28877" lon="-2.23504">
        <ele>5.1999998092651</ele>
        <time>2022-07-17T08:51:52.000Z</time>
      </trkpt>
      <trkpt lat="47.28881" lon="-2.23504">
        <ele>5.5999999046326</ele>
        <time>2022-07-17T08:51:53.000Z</time>
      </trkpt>
      <trkpt lat="47.28885" lon="-2.23505">
        <ele>6</ele>
        <time>2022-07-17T08:51:54.000Z</time>
      </trkpt>
      <trkpt lat="47.2889" lon="-2.23506">
        <ele>6</ele>
        <time>2022-07-17T08:51:55.000Z</time>
      </trkpt>
      <trkpt lat="47.28923" lon="-2.23501">
        <ele>6</ele>
        <time>2022-07-17T08:52:02.000Z</time>
      </trkpt>
      <trkpt lat="47.2895" lon="-2.23493">
        <ele>6</ele>
        <time>2022-07-17T08:52:09.000Z</time>
      </trkpt>
      <trkpt lat="47.28957" lon="-2.23494">
        <ele>6</ele>
        <time>2022-07-17T08:52:14.000Z</time>
      </trkpt>
      <trkpt lat="47.28962" lon="-2.23497">
        <ele>6.4000000953674</ele>
        <time>2022-07-17T08:52:38.000Z</time>
      </trkpt>
      <trkpt lat="47.28964" lon="-2.235">
        <ele>6.8000001907349</ele>
        <time>2022-07-17T08:52:39.000Z</time>
      </trkpt>
      <trkpt lat="47.28965" lon="-2.23504">
        <ele>7.4000000953674</ele>
        <time>2022-07-17T08:52:40.000Z</time>
      </trkpt>
      <trkpt lat="47.28966" lon="-2.23509">
        <ele>7.8000001907349</ele>
        <time>2022-07-17T08:52:41.000Z</time>
      </trkpt>
      <trkpt lat="47.28967" lon="-2.23514">
        <ele>8.1999998092651</ele>
        <time>2022-07-17T08:52:42.000Z</time>
      </trkpt>
      <trkpt lat="47.28968" lon="-2.23527">
        <ele>8.1999998092651</ele>
        <time>2022-07-17T08:52:44.000Z</time>
      </trkpt>
      <trkpt lat="47.28971" lon="-2.23573">
        <ele>8.1999998092651</ele>
        <time>2022-07-17T08:52:50.000Z</time>
      </trkpt>
      <trkpt lat="47.28971" lon="-2.23581">
        <ele>7.8000001907349</ele>
        <time>2022-07-17T08:52:51.000Z</time>
      </trkpt>
      <trkpt lat="47.28972" lon="-2.23589">
        <ele>7.4000000953674</ele>
        <time>2022-07-17T08:52:52.000Z</time>
      </trkpt>
      <trkpt lat="47.28973" lon="-2.23597">
        <ele>7</ele>
        <time>2022-07-17T08:52:53.000Z</time>
      </trkpt>
      <trkpt lat="47.28974" lon="-2.23606">
        <ele>6.5999999046326</ele>
        <time>2022-07-17T08:52:54.000Z</time>
      </trkpt>
      <trkpt lat="47.28974" lon="-2.23614">
        <ele>6.1999998092651</ele>
        <time>2022-07-17T08:52:55.000Z</time>
      </trkpt>
      <trkpt lat="47.28975" lon="-2.23623">
        <ele>6.1999998092651</ele>
        <time>2022-07-17T08:52:56.000Z</time>
      </trkpt>
      <trkpt lat="47.28982" lon="-2.23668">
        <ele>6.1999998092651</ele>
        <time>2022-07-17T08:53:02.000Z</time>
      </trkpt>
      <trkpt lat="47.28981" lon="-2.23675">
        <ele>6.1999998092651</ele>
        <time>2022-07-17T08:53:06.000Z</time>
      </trkpt>
      <trkpt lat="47.28982" lon="-2.23677">
        <ele>6.1999998092651</ele>
        <time>2022-07-17T08:53:09.000Z</time>
      </trkpt>
      <trkpt lat="47.28983" lon="-2.23683">
        <ele>6.1999998092651</ele>
        <time>2022-07-17T08:53:18.000Z</time>
      </trkpt>
      <trkpt lat="47.28984" lon="-2.23685">
        <ele>6.1999998092651</ele>
        <time>2022-07-17T08:53:19.000Z</time>
      </trkpt>
      <trkpt lat="47.28984" lon="-2.23696">
        <ele>6.1999998092651</ele>
        <time>2022-07-17T08:53:22.000Z</time>
      </trkpt>
      <trkpt lat="47.28983" lon="-2.23707">
        <ele>6.1999998092651</ele>
        <time>2022-07-17T08:53:24.000Z</time>
      </trkpt>
      <trkpt lat="47.28975" lon="-2.23746">
        <ele>6.1999998092651</ele>
        <time>2022-07-17T08:53:30.000Z</time>
      </trkpt>
      <trkpt lat="47.28972" lon="-2.2376">
        <ele>6.1999998092651</ele>
        <time>2022-07-17T08:53:34.000Z</time>
      </trkpt>
      <trkpt lat="47.28972" lon="-2.23761">
        <ele>6.1999998092651</ele>
        <time>2022-07-17T08:53:36.000Z</time>
      </trkpt>
      <trkpt lat="47.2897" lon="-2.23768">
        <ele>6.1999998092651</ele>
        <time>2022-07-17T08:53:56.000Z</time>
      </trkpt>
      <trkpt lat="47.28969" lon="-2.23771">
        <ele>6.1999998092651</ele>
        <time>2022-07-17T08:53:57.000Z</time>
      </trkpt>
      <trkpt lat="47.28966" lon="-2.2379">
        <ele>6.1999998092651</ele>
        <time>2022-07-17T08:54:01.000Z</time>
      </trkpt>
      <trkpt lat="47.28961" lon="-2.2382">
        <ele>6.1999998092651</ele>
        <time>2022-07-17T08:54:06.000Z</time>
      </trkpt>
      <trkpt lat="47.2896" lon="-2.23825">
        <ele>6.1999998092651</ele>
        <time>2022-07-17T08:54:07.000Z</time>
      </trkpt>
      <trkpt lat="47.28955" lon="-2.23841">
        <ele>6.1999998092651</ele>
        <time>2022-07-17T08:54:10.000Z</time>
      </trkpt>
      <trkpt lat="47.28952" lon="-2.23853">
        <ele>6.1999998092651</ele>
        <time>2022-07-17T08:54:12.000Z</time>
      </trkpt>
      <trkpt lat="47.28939" lon="-2.23897">
        <ele>6.1999998092651</ele>
        <time>2022-07-17T08:54:19.000Z</time>
      </trkpt>
      <trkpt lat="47.28927" lon="-2.2394">
        <ele>6.1999998092651</ele>
        <time>2022-07-17T08:54:26.000Z</time>
      </trkpt>
      <trkpt lat="47.28919" lon="-2.23975">
        <ele>6.1999998092651</ele>
        <time>2022-07-17T08:54:32.000Z</time>
      </trkpt>
      <trkpt lat="47.28917" lon="-2.23982">
        <ele>6.1999998092651</ele>
        <time>2022-07-17T08:54:33.000Z</time>
      </trkpt>
      <trkpt lat="47.28908" lon="-2.2401">
        <ele>6.1999998092651</ele>
        <time>2022-07-17T08:54:37.000Z</time>
      </trkpt>
      <trkpt lat="47.28899" lon="-2.24044">
        <ele>6.1999998092651</ele>
        <time>2022-07-17T08:54:42.000Z</time>
      </trkpt>
      <trkpt lat="47.28899" lon="-2.24051">
        <ele>6.1999998092651</ele>
        <time>2022-07-17T08:54:43.000Z</time>
      </trkpt>
      <trkpt lat="47.28895" lon="-2.24081">
        <ele>6.1999998092651</ele>
        <time>2022-07-17T08:54:47.000Z</time>
      </trkpt>
      <trkpt lat="47.28893" lon="-2.24089">
        <ele>6.1999998092651</ele>
        <time>2022-07-17T08:54:48.000Z</time>
      </trkpt>
      <trkpt lat="47.28882" lon="-2.24128">
        <ele>6.1999998092651</ele>
        <time>2022-07-17T08:54:53.000Z</time>
      </trkpt>
      <trkpt lat="47.28866" lon="-2.24179">
        <ele>6.1999998092651</ele>
        <time>2022-07-17T08:55:00.000Z</time>
      </trkpt>
      <trkpt lat="47.28856" lon="-2.24215">
        <ele>6.1999998092651</ele>
        <time>2022-07-17T08:55:05.000Z</time>
      </trkpt>
      <trkpt lat="47.28856" lon="-2.24221">
        <ele>6.1999998092651</ele>
        <time>2022-07-17T08:55:06.000Z</time>
      </trkpt>
      <trkpt lat="47.28849" lon="-2.24235">
        <ele>6.1999998092651</ele>
        <time>2022-07-17T08:55:09.000Z</time>
      </trkpt>
      <trkpt lat="47.28846" lon="-2.24242">
        <ele>6.1999998092651</ele>
        <time>2022-07-17T08:55:10.000Z</time>
      </trkpt>
      <trkpt lat="47.28845" lon="-2.24248">
        <ele>6.1999998092651</ele>
        <time>2022-07-17T08:55:11.000Z</time>
      </trkpt>
      <trkpt lat="47.2884" lon="-2.24271">
        <ele>5.8000001907349</ele>
        <time>2022-07-17T08:55:14.000Z</time>
      </trkpt>
      <trkpt lat="47.28839" lon="-2.24279">
        <ele>5.4000000953674</ele>
        <time>2022-07-17T08:55:15.000Z</time>
      </trkpt>
      <trkpt lat="47.28838" lon="-2.24286">
        <ele>5</ele>
        <time>2022-07-17T08:55:16.000Z</time>
      </trkpt>
      <trkpt lat="47.28837" lon="-2.24291">
        <ele>4.5999999046326</ele>
        <time>2022-07-17T08:55:17.000Z</time>
      </trkpt>
      <trkpt lat="47.28836" lon="-2.24296">
        <ele>4</ele>
        <time>2022-07-17T08:55:18.000Z</time>
      </trkpt>
      <trkpt lat="47.28835" lon="-2.24302">
        <ele>4</ele>
        <time>2022-07-17T08:55:19.000Z</time>
      </trkpt>
      <trkpt lat="47.28834" lon="-2.24307">
        <ele>4</ele>
        <time>2022-07-17T08:55:20.000Z</time>
      </trkpt>
      <trkpt lat="47.28827" lon="-2.24325">
        <ele>4</ele>
        <time>2022-07-17T08:55:23.000Z</time>
      </trkpt>
      <trkpt lat="47.28826" lon="-2.24331">
        <ele>4</ele>
        <time>2022-07-17T08:55:24.000Z</time>
      </trkpt>
      <trkpt lat="47.2882" lon="-2.24349">
        <ele>4</ele>
        <time>2022-07-17T08:55:27.000Z</time>
      </trkpt>
      <trkpt lat="47.28818" lon="-2.24362">
        <ele>4</ele>
        <time>2022-07-17T08:55:29.000Z</time>
      </trkpt>
      <trkpt lat="47.28814" lon="-2.24375">
        <ele>4</ele>
        <time>2022-07-17T08:55:31.000Z</time>
      </trkpt>
      <trkpt lat="47.28809" lon="-2.24392">
        <ele>4</ele>
        <time>2022-07-17T08:55:33.000Z</time>
      </trkpt>
      <trkpt lat="47.28806" lon="-2.24399">
        <ele>3.5999999046326</ele>
        <time>2022-07-17T08:55:34.000Z</time>
      </trkpt>
      <trkpt lat="47.28804" lon="-2.24406">
        <ele>3.2000000476837</ele>
        <time>2022-07-17T08:55:35.000Z</time>
      </trkpt>
      <trkpt lat="47.28801" lon="-2.24414">
        <ele>2.7999999523163</ele>
        <time>2022-07-17T08:55:36.000Z</time>
      </trkpt>
      <trkpt lat="47.28798" lon="-2.24423">
        <ele>2.4000000953674</ele>
        <time>2022-07-17T08:55:37.000Z</time>
      </trkpt>
      <trkpt lat="47.28796" lon="-2.2443">
        <ele>2</ele>
        <time>2022-07-17T08:55:38.000Z</time>
      </trkpt>
      <trkpt lat="47.28785" lon="-2.2446">
        <ele>2</ele>
        <time>2022-07-17T08:55:42.000Z</time>
      </trkpt>
      <trkpt lat="47.28778" lon="-2.24473">
        <ele>2</ele>
        <time>2022-07-17T08:55:44.000Z</time>
      </trkpt>
      <trkpt lat="47.28776" lon="-2.24479">
        <ele>2</ele>
        <time>2022-07-17T08:55:45.000Z</time>
      </trkpt>
      <trkpt lat="47.28771" lon="-2.24494">
        <ele>1.6000000238419</ele>
        <time>2022-07-17T08:55:47.000Z</time>
      </trkpt>
      <trkpt lat="47.28769" lon="-2.24502">
        <ele>1.2000000476837</ele>
        <time>2022-07-17T08:55:48.000Z</time>
      </trkpt>
      <trkpt lat="47.28766" lon="-2.24509">
        <ele>0.80000001192093</ele>
        <time>2022-07-17T08:55:49.000Z</time>
      </trkpt>
      <trkpt lat="47.28762" lon="-2.24517">
        <ele>0.40000000596046</ele>
        <time>2022-07-17T08:55:50.000Z</time>
      </trkpt>
      <trkpt lat="47.28759" lon="-2.24525">
        <ele>7.5</ele>
        <time>2022-07-17T08:55:51.000Z</time>
      </trkpt>
      <trkpt lat="47.28752" lon="-2.24553">
        <ele>5.7</ele>
        <time>2022-07-17T08:55:54.000Z</time>
      </trkpt>
      <trkpt lat="47.28732" lon="-2.24612">
        <ele>7.7</ele>
        <time>2022-07-17T08:56:01.000Z</time>
      </trkpt>
      <trkpt lat="47.28726" lon="-2.24625">
        <ele>7</ele>
        <time>2022-07-17T08:56:03.000Z</time>
      </trkpt>
      <trkpt lat="47.28715" lon="-2.2464">
        <ele>6.5</ele>
        <time>2022-07-17T08:56:06.000Z</time>
      </trkpt>
      <trkpt lat="47.28708" lon="-2.24649">
        <ele>6.6</ele>
        <time>2022-07-17T08:56:10.000Z</time>
      </trkpt>
      <trkpt lat="47.28707" lon="-2.24649">
        <ele>6.6</ele>
        <time>2022-07-17T08:56:12.000Z</time>
      </trkpt>
      <trkpt lat="47.28704" lon="-2.24652">
        <ele>6.3</ele>
        <time>2022-07-17T08:56:22.000Z</time>
      </trkpt>
      <trkpt lat="47.28702" lon="-2.24654">
        <ele>6.1</ele>
        <time>2022-07-17T08:56:23.000Z</time>
      </trkpt>
      <trkpt lat="47.28691" lon="-2.24669">
        <ele>5.1</ele>
        <time>2022-07-17T08:56:27.000Z</time>
      </trkpt>
      <trkpt lat="47.28675" lon="-2.24685">
        <ele>5.8</ele>
        <time>2022-07-17T08:56:32.000Z</time>
      </trkpt>
      <trkpt lat="47.28671" lon="-2.24695">
        <ele>6.2</ele>
        <time>2022-07-17T08:56:34.000Z</time>
      </trkpt>
      <trkpt lat="47.2867" lon="-2.24698">
        <ele>6.3</ele>
        <time>2022-07-17T08:56:35.000Z</time>
      </trkpt>
      <trkpt lat="47.28668" lon="-2.24704">
        <ele>6.4</ele>
        <time>2022-07-17T08:56:37.000Z</time>
      </trkpt>
      <trkpt lat="47.28662" lon="-2.2471">
        <ele>6.3</ele>
        <time>2022-07-17T08:56:40.000Z</time>
      </trkpt>
      <trkpt lat="47.28659" lon="-2.24711">
        <ele>6.2</ele>
        <time>2022-07-17T08:56:41.000Z</time>
      </trkpt>
      <trkpt lat="47.28642" lon="-2.2472">
        <ele>5.2</ele>
        <time>2022-07-17T08:56:46.000Z</time>
      </trkpt>
      <trkpt lat="47.28619" lon="-2.24724">
        <ele>5.1</ele>
        <time>2022-07-17T08:56:51.000Z</time>
      </trkpt>
      <trkpt lat="47.28586" lon="-2.24731">
        <ele>5.3</ele>
        <time>2022-07-17T08:56:57.000Z</time>
      </trkpt>
      <trkpt lat="47.28574" lon="-2.24735">
        <ele>5.3</ele>
        <time>2022-07-17T08:56:59.000Z</time>
      </trkpt>
      <trkpt lat="47.28558" lon="-2.24743">
        <ele>5.1</ele>
        <time>2022-07-17T08:57:02.000Z</time>
      </trkpt>
      <trkpt lat="47.28536" lon="-2.24756">
        <ele>5.1</ele>
        <time>2022-07-17T08:57:06.000Z</time>
      </trkpt>
      <trkpt lat="47.28525" lon="-2.24762">
        <ele>5</ele>
        <time>2022-07-17T08:57:08.000Z</time>
      </trkpt>
      <trkpt lat="47.28492" lon="-2.24784">
        <ele>5.5</ele>
        <time>2022-07-17T08:57:14.000Z</time>
      </trkpt>
      <trkpt lat="47.28474" lon="-2.24794">
        <ele>5.7</ele>
        <time>2022-07-17T08:57:17.000Z</time>
      </trkpt>
      <trkpt lat="47.28464" lon="-2.24799">
        <ele>6</ele>
        <time>2022-07-17T08:57:19.000Z</time>
      </trkpt>
      <trkpt lat="47.28454" lon="-2.24805">
        <ele>6.6</ele>
        <time>2022-07-17T08:57:21.000Z</time>
      </trkpt>
      <trkpt lat="47.28449" lon="-2.24808">
        <ele>0.40000000596046</ele>
        <time>2022-07-17T08:57:22.000Z</time>
      </trkpt>
      <trkpt lat="47.28444" lon="-2.24812">
        <ele>0.80000001192093</ele>
        <time>2022-07-17T08:57:23.000Z</time>
      </trkpt>
      <trkpt lat="47.2844" lon="-2.24815">
        <ele>1.3999999761581</ele>
        <time>2022-07-17T08:57:24.000Z</time>
      </trkpt>
      <trkpt lat="47.28435" lon="-2.24817">
        <ele>1.7999999523163</ele>
        <time>2022-07-17T08:57:25.000Z</time>
      </trkpt>
      <trkpt lat="47.28431" lon="-2.24819">
        <ele>2.2000000476837</ele>
        <time>2022-07-17T08:57:26.000Z</time>
      </trkpt>
      <trkpt lat="47.28417" lon="-2.24822">
        <ele>2.2000000476837</ele>
        <time>2022-07-17T08:57:29.000Z</time>
      </trkpt>
      <trkpt lat="47.28409" lon="-2.24826">
        <ele>2.2000000476837</ele>
        <time>2022-07-17T08:57:31.000Z</time>
      </trkpt>
      <trkpt lat="47.28406" lon="-2.24826">
        <ele>2.2000000476837</ele>
        <time>2022-07-17T08:57:32.000Z</time>
      </trkpt>
      <trkpt lat="47.28402" lon="-2.24822">
        <ele>2.2000000476837</ele>
        <time>2022-07-17T08:57:33.000Z</time>
      </trkpt>
      <trkpt lat="47.28393" lon="-2.24808">
        <ele>2.2000000476837</ele>
        <time>2022-07-17T08:57:36.000Z</time>
      </trkpt>
      <trkpt lat="47.28388" lon="-2.24797">
        <ele>2.2000000476837</ele>
        <time>2022-07-17T08:57:38.000Z</time>
      </trkpt>
      <trkpt lat="47.28383" lon="-2.24785">
        <ele>2.2000000476837</ele>
        <time>2022-07-17T08:57:40.000Z</time>
      </trkpt>
      <trkpt lat="47.28378" lon="-2.24775">
        <ele>2.2000000476837</ele>
        <time>2022-07-17T08:57:42.000Z</time>
      </trkpt>
      <trkpt lat="47.28374" lon="-2.24773">
        <ele>2.2000000476837</ele>
        <time>2022-07-17T08:57:43.000Z</time>
      </trkpt>
      <trkpt lat="47.28359" lon="-2.24763">
        <ele>2.2000000476837</ele>
        <time>2022-07-17T08:57:47.000Z</time>
      </trkpt>
      <trkpt lat="47.2835" lon="-2.24758">
        <ele>2.2000000476837</ele>
        <time>2022-07-17T08:57:49.000Z</time>
      </trkpt>
      <trkpt lat="47.28335" lon="-2.24756">
        <ele>2.2000000476837</ele>
        <time>2022-07-17T08:57:52.000Z</time>
      </trkpt>
      <trkpt lat="47.28312" lon="-2.24768">
        <ele>2.2000000476837</ele>
        <time>2022-07-17T08:57:57.000Z</time>
      </trkpt>
      <trkpt lat="47.28303" lon="-2.24775">
        <ele>2.2000000476837</ele>
        <time>2022-07-17T08:57:59.000Z</time>
      </trkpt>
      <trkpt lat="47.28289" lon="-2.24784">
        <ele>2.2000000476837</ele>
        <time>2022-07-17T08:58:02.000Z</time>
      </trkpt>
      <trkpt lat="47.2828" lon="-2.2479">
        <ele>2.5999999046326</ele>
        <time>2022-07-17T08:58:04.000Z</time>
      </trkpt>
      <trkpt lat="47.28275" lon="-2.24793">
        <ele>3</ele>
        <time>2022-07-17T08:58:05.000Z</time>
      </trkpt>
      <trkpt lat="47.28271" lon="-2.24796">
        <ele>3.4000000953674</ele>
        <time>2022-07-17T08:58:06.000Z</time>
      </trkpt>
      <trkpt lat="47.28266" lon="-2.248">
        <ele>3.7999999523163</ele>
        <time>2022-07-17T08:58:07.000Z</time>
      </trkpt>
      <trkpt lat="47.28262" lon="-2.24802">
        <ele>4.1999998092651</ele>
        <time>2022-07-17T08:58:08.000Z</time>
      </trkpt>
      <trkpt lat="47.2823" lon="-2.24817">
        <ele>4.1999998092651</ele>
        <time>2022-07-17T08:58:15.000Z</time>
      </trkpt>
      <trkpt lat="47.2821" lon="-2.24816">
        <ele>4.5999999046326</ele>
        <time>2022-07-17T08:58:20.000Z</time>
      </trkpt>
      <trkpt lat="47.28206" lon="-2.24815">
        <ele>5.5999999046326</ele>
        <time>2022-07-17T08:58:21.000Z</time>
      </trkpt>
      <trkpt lat="47.28203" lon="-2.24814">
        <ele>6</ele>
        <time>2022-07-17T08:58:22.000Z</time>
      </trkpt>
      <trkpt lat="47.282" lon="-2.24813">
        <ele>6.4000000953674</ele>
        <time>2022-07-17T08:58:23.000Z</time>
      </trkpt>
      <trkpt lat="47.28197" lon="-2.24813">
        <ele>6.8000001907349</ele>
        <time>2022-07-17T08:58:24.000Z</time>
      </trkpt>
      <trkpt lat="47.28194" lon="-2.24812">
        <ele>7.1999998092651</ele>
        <time>2022-07-17T08:58:25.000Z</time>
      </trkpt>
      <trkpt lat="47.28191" lon="-2.24811">
        <ele>7.8000001907349</ele>
        <time>2022-07-17T08:58:26.000Z</time>
      </trkpt>
      <trkpt lat="47.28189" lon="-2.2481">
        <ele>8.1999998092651</ele>
        <time>2022-07-17T08:58:27.000Z</time>
      </trkpt>
      <trkpt lat="47.28186" lon="-2.2481">
        <ele>8.6000003814697</ele>
        <time>2022-07-17T08:58:28.000Z</time>
      </trkpt>
      <trkpt lat="47.28184" lon="-2.24809">
        <ele>9.1999998092651</ele>
        <time>2022-07-17T08:58:29.000Z</time>
      </trkpt>
      <trkpt lat="47.28181" lon="-2.24808">
        <ele>9.6000003814697</ele>
        <time>2022-07-17T08:58:30.000Z</time>
      </trkpt>
      <trkpt lat="47.28179" lon="-2.24808">
        <ele>10.199999809265</ele>
        <time>2022-07-17T08:58:31.000Z</time>
      </trkpt>
      <trkpt lat="47.28176" lon="-2.24808">
        <ele>10.60000038147</ele>
        <time>2022-07-17T08:58:32.000Z</time>
      </trkpt>
      <trkpt lat="47.28168" lon="-2.24813">
        <ele>11.199999809265</ele>
        <time>2022-07-17T08:58:35.000Z</time>
      </trkpt>
      <trkpt lat="47.28166" lon="-2.24817">
        <ele>11.60000038147</ele>
        <time>2022-07-17T08:58:36.000Z</time>
      </trkpt>
      <trkpt lat="47.28166" lon="-2.2482">
        <ele>12</ele>
        <time>2022-07-17T08:58:37.000Z</time>
      </trkpt>
      <trkpt lat="47.28166" lon="-2.24823">
        <ele>12.60000038147</ele>
        <time>2022-07-17T08:58:38.000Z</time>
      </trkpt>
      <trkpt lat="47.28165" lon="-2.24827">
        <ele>13</ele>
        <time>2022-07-17T08:58:39.000Z</time>
      </trkpt>
      <trkpt lat="47.28162" lon="-2.24843">
        <ele>13</ele>
        <time>2022-07-17T08:58:43.000Z</time>
      </trkpt>
      <trkpt lat="47.28155" lon="-2.2485">
        <ele>13.39999961853</ele>
        <time>2022-07-17T08:58:46.000Z</time>
      </trkpt>
      <trkpt lat="47.28152" lon="-2.24852">
        <ele>13.800000190735</ele>
        <time>2022-07-17T08:58:47.000Z</time>
      </trkpt>
      <trkpt lat="47.28148" lon="-2.24854">
        <ele>14.199999809265</ele>
        <time>2022-07-17T08:58:48.000Z</time>
      </trkpt>
      <trkpt lat="47.28144" lon="-2.24855">
        <ele>14.60000038147</ele>
        <time>2022-07-17T08:58:49.000Z</time>
      </trkpt>
      <trkpt lat="47.2814" lon="-2.24856">
        <ele>15</ele>
        <time>2022-07-17T08:58:50.000Z</time>
      </trkpt>
      <trkpt lat="47.28129" lon="-2.24857">
        <ele>15</ele>
        <time>2022-07-17T08:58:53.000Z</time>
      </trkpt>
      <trkpt lat="47.28118" lon="-2.24856">
        <ele>15.39999961853</ele>
        <time>2022-07-17T08:58:56.000Z</time>
      </trkpt>
      <trkpt lat="47.28114" lon="-2.24855">
        <ele>15.800000190735</ele>
        <time>2022-07-17T08:58:57.000Z</time>
      </trkpt>
      <trkpt lat="47.28111" lon="-2.24854">
        <ele>16.200000762939</ele>
        <time>2022-07-17T08:58:58.000Z</time>
      </trkpt>
      <trkpt lat="47.28107" lon="-2.24852">
        <ele>16.60000038147</ele>
        <time>2022-07-17T08:58:59.000Z</time>
      </trkpt>
      <trkpt lat="47.28104" lon="-2.24852">
        <ele>17</ele>
        <time>2022-07-17T08:59:00.000Z</time>
      </trkpt>
      <trkpt lat="47.28087" lon="-2.24848">
        <ele>17</ele>
        <time>2022-07-17T08:59:05.000Z</time>
      </trkpt>
      <trkpt lat="47.28084" lon="-2.24847">
        <ele>17.60000038147</ele>
        <time>2022-07-17T08:59:06.000Z</time>
      </trkpt>
      <trkpt lat="47.2808" lon="-2.24848">
        <ele>18</ele>
        <time>2022-07-17T08:59:07.000Z</time>
      </trkpt>
      <trkpt lat="47.28076" lon="-2.24849">
        <ele>18.39999961853</ele>
        <time>2022-07-17T08:59:08.000Z</time>
      </trkpt>
      <trkpt lat="47.28073" lon="-2.24849">
        <ele>18.799999237061</ele>
        <time>2022-07-17T08:59:09.000Z</time>
      </trkpt>
      <trkpt lat="47.28069" lon="-2.24849">
        <ele>19.200000762939</ele>
        <time>2022-07-17T08:59:10.000Z</time>
      </trkpt>
      <trkpt lat="47.28065" lon="-2.24849">
        <ele>19.200000762939</ele>
        <time>2022-07-17T08:59:11.000Z</time>
      </trkpt>
      <trkpt lat="47.28046" lon="-2.24842">
        <ele>19.200000762939</ele>
        <time>2022-07-17T08:59:16.000Z</time>
      </trkpt>
      <trkpt lat="47.28041" lon="-2.24842">
        <ele>19.200000762939</ele>
        <time>2022-07-17T08:59:17.000Z</time>
      </trkpt>
      <trkpt lat="47.28024" lon="-2.24838">
        <ele>19.200000762939</ele>
        <time>2022-07-17T08:59:21.000Z</time>
      </trkpt>
      <trkpt lat="47.27988" lon="-2.24832">
        <ele>19.200000762939</ele>
        <time>2022-07-17T08:59:29.000Z</time>
      </trkpt>
      <trkpt lat="47.27963" lon="-2.24824">
        <ele>19.200000762939</ele>
        <time>2022-07-17T08:59:35.000Z</time>
      </trkpt>
      <trkpt lat="47.27947" lon="-2.24825">
        <ele>19.200000762939</ele>
        <time>2022-07-17T08:59:40.000Z</time>
      </trkpt>
      <trkpt lat="47.27928" lon="-2.24817">
        <ele>19.200000762939</ele>
        <time>2022-07-17T08:59:45.000Z</time>
      </trkpt>
      <trkpt lat="47.27911" lon="-2.24809">
        <ele>19.200000762939</ele>
        <time>2022-07-17T08:59:49.000Z</time>
      </trkpt>
      <trkpt lat="47.27907" lon="-2.24806">
        <ele>19.200000762939</ele>
        <time>2022-07-17T08:59:50.000Z</time>
      </trkpt>
      <trkpt lat="47.27897" lon="-2.24799">
        <ele>19.200000762939</ele>
        <time>2022-07-17T08:59:53.000Z</time>
      </trkpt>
      <trkpt lat="47.27896" lon="-2.2479">
        <ele>19.200000762939</ele>
        <time>2022-07-17T08:59:55.000Z</time>
      </trkpt>
      <trkpt lat="47.27896" lon="-2.24782">
        <ele>19.200000762939</ele>
        <time>2022-07-17T08:59:57.000Z</time>
      </trkpt>
      <trkpt lat="47.27892" lon="-2.24782">
        <ele>19.200000762939</ele>
        <time>2022-07-17T08:59:59.000Z</time>
      </trkpt>
      <trkpt lat="47.27884" lon="-2.24783">
        <ele>19.200000762939</ele>
        <time>2022-07-17T09:00:02.000Z</time>
      </trkpt>
      <trkpt lat="47.27876" lon="-2.24784">
        <ele>19.200000762939</ele>
        <time>2022-07-17T09:00:05.000Z</time>
      </trkpt>
      <trkpt lat="47.27872" lon="-2.24783">
        <ele>18.799999237061</ele>
        <time>2022-07-17T09:00:06.000Z</time>
      </trkpt>
      <trkpt lat="47.27871" lon="-2.24779">
        <ele>18.39999961853</ele>
        <time>2022-07-17T09:00:07.000Z</time>
      </trkpt>
      <trkpt lat="47.27871" lon="-2.24777">
        <ele>18</ele>
        <time>2022-07-17T09:00:08.000Z</time>
      </trkpt>
      <trkpt lat="47.2787" lon="-2.24774">
        <ele>17.60000038147</ele>
        <time>2022-07-17T09:00:09.000Z</time>
      </trkpt>
      <trkpt lat="47.27869" lon="-2.24772">
        <ele>17</ele>
        <time>2022-07-17T09:00:10.000Z</time>
      </trkpt>
      <trkpt lat="47.27863" lon="-2.24771">
        <ele>17</ele>
        <time>2022-07-17T09:00:12.000Z</time>
      </trkpt>
      <trkpt lat="47.27855" lon="-2.24783">
        <ele>17</ele>
        <time>2022-07-17T09:00:15.000Z</time>
      </trkpt>
      <trkpt lat="47.27836" lon="-2.24797">
        <ele>17</ele>
        <time>2022-07-17T09:00:19.000Z</time>
      </trkpt>
      <trkpt lat="47.2783" lon="-2.24798">
        <ele>17</ele>
        <time>2022-07-17T09:00:20.000Z</time>
      </trkpt>
      <trkpt lat="47.27796" lon="-2.24803">
        <ele>17</ele>
        <time>2022-07-17T09:00:26.000Z</time>
      </trkpt>
      <trkpt lat="47.27751" lon="-2.24804">
        <ele>17</ele>
        <time>2022-07-17T09:00:33.000Z</time>
      </trkpt>
      <trkpt lat="47.27696" lon="-2.24805">
        <ele>17</ele>
        <time>2022-07-17T09:00:41.000Z</time>
      </trkpt>
      <trkpt lat="47.27664" lon="-2.24803">
        <ele>17</ele>
        <time>2022-07-17T09:00:46.000Z</time>
      </trkpt>
      <trkpt lat="47.27659" lon="-2.24799">
        <ele>17</ele>
        <time>2022-07-17T09:00:47.000Z</time>
      </trkpt>
      <trkpt lat="47.27653" lon="-2.24795">
        <ele>16.60000038147</ele>
        <time>2022-07-17T09:00:48.000Z</time>
      </trkpt>
      <trkpt lat="47.27649" lon="-2.24791">
        <ele>15.800000190735</ele>
        <time>2022-07-17T09:00:49.000Z</time>
      </trkpt>
      <trkpt lat="47.27644" lon="-2.2479">
        <ele>15.39999961853</ele>
        <time>2022-07-17T09:00:50.000Z</time>
      </trkpt>
      <trkpt lat="47.2764" lon="-2.24789">
        <ele>15</ele>
        <time>2022-07-17T09:00:51.000Z</time>
      </trkpt>
      <trkpt lat="47.27635" lon="-2.24789">
        <ele>15</ele>
        <time>2022-07-17T09:00:52.000Z</time>
      </trkpt>
      <trkpt lat="47.27626" lon="-2.24789">
        <ele>15</ele>
        <time>2022-07-17T09:00:54.000Z</time>
      </trkpt>
      <trkpt lat="47.27601" lon="-2.24791">
        <ele>15</ele>
        <time>2022-07-17T09:00:59.000Z</time>
      </trkpt>
      <trkpt lat="47.27586" lon="-2.24789">
        <ele>15</ele>
        <time>2022-07-17T09:01:02.000Z</time>
      </trkpt>
      <trkpt lat="47.27575" lon="-2.24788">
        <ele>15</ele>
        <time>2022-07-17T09:01:04.000Z</time>
      </trkpt>
      <trkpt lat="47.2755" lon="-2.24789">
        <ele>15</ele>
        <time>2022-07-17T09:01:09.000Z</time>
      </trkpt>
      <trkpt lat="47.27539" lon="-2.24788">
        <ele>15</ele>
        <time>2022-07-17T09:01:11.000Z</time>
      </trkpt>
      <trkpt lat="47.27493" lon="-2.24787">
        <ele>15</ele>
        <time>2022-07-17T09:01:19.000Z</time>
      </trkpt>
      <trkpt lat="47.27476" lon="-2.24786">
        <ele>15</ele>
        <time>2022-07-17T09:01:22.000Z</time>
      </trkpt>
      <trkpt lat="47.2747" lon="-2.24784">
        <ele>14.60000038147</ele>
        <time>2022-07-17T09:01:23.000Z</time>
      </trkpt>
      <trkpt lat="47.27462" lon="-2.24783">
        <ele>14.199999809265</ele>
        <time>2022-07-17T09:01:24.000Z</time>
      </trkpt>
      <trkpt lat="47.27456" lon="-2.24785">
        <ele>13.800000190735</ele>
        <time>2022-07-17T09:01:25.000Z</time>
      </trkpt>
      <trkpt lat="47.27449" lon="-2.24789">
        <ele>13.39999961853</ele>
        <time>2022-07-17T09:01:26.000Z</time>
      </trkpt>
      <trkpt lat="47.27443" lon="-2.24794">
        <ele>12.800000190735</ele>
        <time>2022-07-17T09:01:27.000Z</time>
      </trkpt>
      <trkpt lat="47.27438" lon="-2.248">
        <ele>12.39999961853</ele>
        <time>2022-07-17T09:01:28.000Z</time>
      </trkpt>
      <trkpt lat="47.27433" lon="-2.24805">
        <ele>11.800000190735</ele>
        <time>2022-07-17T09:01:29.000Z</time>
      </trkpt>
      <trkpt lat="47.27432" lon="-2.24812">
        <ele>11.199999809265</ele>
        <time>2022-07-17T09:01:30.000Z</time>
      </trkpt>
      <trkpt lat="47.27431" lon="-2.24819">
        <ele>10.60000038147</ele>
        <time>2022-07-17T09:01:31.000Z</time>
      </trkpt>
      <trkpt lat="47.27429" lon="-2.24826">
        <ele>10.60000038147</ele>
        <time>2022-07-17T09:01:32.000Z</time>
      </trkpt>
      <trkpt lat="47.27424" lon="-2.24838">
        <ele>10.199999809265</ele>
        <time>2022-07-17T09:01:34.000Z</time>
      </trkpt>
      <trkpt lat="47.27422" lon="-2.24844">
        <ele>9.8000001907349</ele>
        <time>2022-07-17T09:01:35.000Z</time>
      </trkpt>
      <trkpt lat="47.2742" lon="-2.24849">
        <ele>9.1999998092651</ele>
        <time>2022-07-17T09:01:36.000Z</time>
      </trkpt>
      <trkpt lat="47.27418" lon="-2.24855">
        <ele>8.8000001907349</ele>
        <time>2022-07-17T09:01:37.000Z</time>
      </trkpt>
      <trkpt lat="47.27415" lon="-2.2486">
        <ele>8.3999996185303</ele>
        <time>2022-07-17T09:01:38.000Z</time>
      </trkpt>
      <trkpt lat="47.27409" lon="-2.24885">
        <ele>8.3999996185303</ele>
        <time>2022-07-17T09:01:43.000Z</time>
      </trkpt>
      <trkpt lat="47.27392" lon="-2.24905">
        <ele>8.3999996185303</ele>
        <time>2022-07-17T09:01:48.000Z</time>
      </trkpt>
      <trkpt lat="47.2738" lon="-2.24923">
        <ele>8.3999996185303</ele>
        <time>2022-07-17T09:01:53.000Z</time>
      </trkpt>
      <trkpt lat="47.2737" lon="-2.24938">
        <ele>8.3999996185303</ele>
        <time>2022-07-17T09:01:57.000Z</time>
      </trkpt>
      <trkpt lat="47.27352" lon="-2.24962">
        <ele>8.3999996185303</ele>
        <time>2022-07-17T09:02:03.000Z</time>
      </trkpt>
      <trkpt lat="47.27337" lon="-2.24981">
        <ele>8.3999996185303</ele>
        <time>2022-07-17T09:02:07.000Z</time>
      </trkpt>
      <trkpt lat="47.27334" lon="-2.24993">
        <ele>8.3999996185303</ele>
        <time>2022-07-17T09:02:09.000Z</time>
      </trkpt>
      <trkpt lat="47.27334" lon="-2.25007">
        <ele>8.3999996185303</ele>
        <time>2022-07-17T09:02:11.000Z</time>
      </trkpt>
      <trkpt lat="47.27337" lon="-2.25028">
        <ele>8.3999996185303</ele>
        <time>2022-07-17T09:02:14.000Z</time>
      </trkpt>
      <trkpt lat="47.27349" lon="-2.25078">
        <ele>8.3999996185303</ele>
        <time>2022-07-17T09:02:21.000Z</time>
      </trkpt>
      <trkpt lat="47.27351" lon="-2.25085">
        <ele>8.3999996185303</ele>
        <time>2022-07-17T09:02:22.000Z</time>
      </trkpt>
      <trkpt lat="47.27364" lon="-2.25112">
        <ele>8.3999996185303</ele>
        <time>2022-07-17T09:02:26.000Z</time>
      </trkpt>
      <trkpt lat="47.2738" lon="-2.25151">
        <ele>8.3999996185303</ele>
        <time>2022-07-17T09:02:31.000Z</time>
      </trkpt>
      <trkpt lat="47.27389" lon="-2.25172">
        <ele>8.3999996185303</ele>
        <time>2022-07-17T09:02:34.000Z</time>
      </trkpt>
      <trkpt lat="47.27389" lon="-2.25185">
        <ele>8.3999996185303</ele>
        <time>2022-07-17T09:02:36.000Z</time>
      </trkpt>
      <trkpt lat="47.27385" lon="-2.25202">
        <ele>8.3999996185303</ele>
        <time>2022-07-17T09:02:39.000Z</time>
      </trkpt>
      <trkpt lat="47.27385" lon="-2.25208">
        <ele>8.3999996185303</ele>
        <time>2022-07-17T09:02:40.000Z</time>
      </trkpt>
      <trkpt lat="47.27386" lon="-2.25221">
        <ele>8.3999996185303</ele>
        <time>2022-07-17T09:02:42.000Z</time>
      </trkpt>
      <trkpt lat="47.27389" lon="-2.25233">
        <ele>8.3999996185303</ele>
        <time>2022-07-17T09:02:44.000Z</time>
      </trkpt>
      <trkpt lat="47.27391" lon="-2.25238">
        <ele>8.3999996185303</ele>
        <time>2022-07-17T09:02:45.000Z</time>
      </trkpt>
      <trkpt lat="47.27397" lon="-2.25258">
        <ele>8.3999996185303</ele>
        <time>2022-07-17T09:02:49.000Z</time>
      </trkpt>
      <trkpt lat="47.27398" lon="-2.25274">
        <ele>8.3999996185303</ele>
        <time>2022-07-17T09:02:52.000Z</time>
      </trkpt>
      <trkpt lat="47.27398" lon="-2.2529">
        <ele>8.3999996185303</ele>
        <time>2022-07-17T09:02:55.000Z</time>
      </trkpt>
      <trkpt lat="47.27399" lon="-2.25295">
        <ele>8.3999996185303</ele>
        <time>2022-07-17T09:02:56.000Z</time>
      </trkpt>
      <trkpt lat="47.27404" lon="-2.25325">
        <ele>8.3999996185303</ele>
        <time>2022-07-17T09:03:01.000Z</time>
      </trkpt>
      <trkpt lat="47.27402" lon="-2.25347">
        <ele>8.3999996185303</ele>
        <time>2022-07-17T09:03:05.000Z</time>
      </trkpt>
      <trkpt lat="47.27411" lon="-2.25364">
        <ele>8.3999996185303</ele>
        <time>2022-07-17T09:03:09.000Z</time>
      </trkpt>
      <trkpt lat="47.27413" lon="-2.25368">
        <ele>8.3999996185303</ele>
        <time>2022-07-17T09:03:10.000Z</time>
      </trkpt>
      <trkpt lat="47.27419" lon="-2.25385">
        <ele>8.3999996185303</ele>
        <time>2022-07-17T09:03:14.000Z</time>
      </trkpt>
      <trkpt lat="47.27428" lon="-2.25399">
        <ele>8.3999996185303</ele>
        <time>2022-07-17T09:03:18.000Z</time>
      </trkpt>
      <trkpt lat="47.27442" lon="-2.25422">
        <ele>8.3999996185303</ele>
        <time>2022-07-17T09:03:23.000Z</time>
      </trkpt>
      <trkpt lat="47.27463" lon="-2.25437">
        <ele>8.3999996185303</ele>
        <time>2022-07-17T09:03:27.000Z</time>
      </trkpt>
      <trkpt lat="47.27469" lon="-2.25437">
        <ele>8.3999996185303</ele>
        <time>2022-07-17T09:03:28.000Z</time>
      </trkpt>
      <trkpt lat="47.2749" lon="-2.25436">
        <ele>8.3999996185303</ele>
        <time>2022-07-17T09:03:32.000Z</time>
      </trkpt>
      <trkpt lat="47.27494" lon="-2.25437">
        <ele>8.3999996185303</ele>
        <time>2022-07-17T09:03:33.000Z</time>
      </trkpt>
      <trkpt lat="47.27508" lon="-2.25452">
        <ele>8.3999996185303</ele>
        <time>2022-07-17T09:03:37.000Z</time>
      </trkpt>
      <trkpt lat="47.27511" lon="-2.25456">
        <ele>8.3999996185303</ele>
        <time>2022-07-17T09:03:38.000Z</time>
      </trkpt>
      <trkpt lat="47.27524" lon="-2.2547">
        <ele>8.3999996185303</ele>
        <time>2022-07-17T09:03:41.000Z</time>
      </trkpt>
      <trkpt lat="47.27528" lon="-2.25475">
        <ele>8.3999996185303</ele>
        <time>2022-07-17T09:03:42.000Z</time>
      </trkpt>
      <trkpt lat="47.27539" lon="-2.25491">
        <ele>8.3999996185303</ele>
        <time>2022-07-17T09:03:45.000Z</time>
      </trkpt>
      <trkpt lat="47.27546" lon="-2.25513">
        <ele>8.3999996185303</ele>
        <time>2022-07-17T09:03:48.000Z</time>
      </trkpt>
      <trkpt lat="47.2755" lon="-2.25529">
        <ele>8.3999996185303</ele>
        <time>2022-07-17T09:03:50.000Z</time>
      </trkpt>
      <trkpt lat="47.2756" lon="-2.25579">
        <ele>8.3999996185303</ele>
        <time>2022-07-17T09:03:57.000Z</time>
      </trkpt>
      <trkpt lat="47.27562" lon="-2.25592">
        <ele>8.3999996185303</ele>
        <time>2022-07-17T09:03:59.000Z</time>
      </trkpt>
      <trkpt lat="47.27563" lon="-2.25614">
        <ele>8.3999996185303</ele>
        <time>2022-07-17T09:04:02.000Z</time>
      </trkpt>
      <trkpt lat="47.27566" lon="-2.25634">
        <ele>8.3999996185303</ele>
        <time>2022-07-17T09:04:06.000Z</time>
      </trkpt>
      <trkpt lat="47.27567" lon="-2.25643">
        <ele>8.3999996185303</ele>
        <time>2022-07-17T09:04:08.000Z</time>
      </trkpt>
      <trkpt lat="47.27566" lon="-2.25646">
        <ele>8.3999996185303</ele>
        <time>2022-07-17T09:04:09.000Z</time>
      </trkpt>
      <trkpt lat="47.27558" lon="-2.2566">
        <ele>8.3999996185303</ele>
        <time>2022-07-17T09:04:12.000Z</time>
      </trkpt>
      <trkpt lat="47.27542" lon="-2.25692">
        <ele>8.3999996185303</ele>
        <time>2022-07-17T09:04:18.000Z</time>
      </trkpt>
      <trkpt lat="47.2753" lon="-2.25713">
        <ele>8.8000001907349</ele>
        <time>2022-07-17T09:04:22.000Z</time>
      </trkpt>
      <trkpt lat="47.27527" lon="-2.25718">
        <ele>9.1999998092651</ele>
        <time>2022-07-17T09:04:23.000Z</time>
      </trkpt>
      <trkpt lat="47.27524" lon="-2.25723">
        <ele>9.6000003814697</ele>
        <time>2022-07-17T09:04:24.000Z</time>
      </trkpt>
      <trkpt lat="47.2752" lon="-2.25728">
        <ele>10</ele>
        <time>2022-07-17T09:04:25.000Z</time>
      </trkpt>
      <trkpt lat="47.27516" lon="-2.25734">
        <ele>10.60000038147</ele>
        <time>2022-07-17T09:04:26.000Z</time>
      </trkpt>
      <trkpt lat="47.27508" lon="-2.25745">
        <ele>10.60000038147</ele>
        <time>2022-07-17T09:04:28.000Z</time>
      </trkpt>
      <trkpt lat="47.27491" lon="-2.25769">
        <ele>10.60000038147</ele>
        <time>2022-07-17T09:04:32.000Z</time>
      </trkpt>
      <trkpt lat="47.27476" lon="-2.25784">
        <ele>10.60000038147</ele>
        <time>2022-07-17T09:04:35.000Z</time>
      </trkpt>
      <trkpt lat="47.27467" lon="-2.25794">
        <ele>10.60000038147</ele>
        <time>2022-07-17T09:04:37.000Z</time>
      </trkpt>
      <trkpt lat="47.27449" lon="-2.25814">
        <ele>10.60000038147</ele>
        <time>2022-07-17T09:04:41.000Z</time>
      </trkpt>
      <trkpt lat="47.2744" lon="-2.25829">
        <ele>11</ele>
        <time>2022-07-17T09:04:43.000Z</time>
      </trkpt>
      <trkpt lat="47.27437" lon="-2.25835">
        <ele>11.39999961853</ele>
        <time>2022-07-17T09:04:44.000Z</time>
      </trkpt>
      <trkpt lat="47.27433" lon="-2.25842">
        <ele>11.800000190735</ele>
        <time>2022-07-17T09:04:45.000Z</time>
      </trkpt>
      <trkpt lat="47.2743" lon="-2.25849">
        <ele>12.199999809265</ele>
        <time>2022-07-17T09:04:46.000Z</time>
      </trkpt>
      <trkpt lat="47.27426" lon="-2.25855">
        <ele>12.60000038147</ele>
        <time>2022-07-17T09:04:47.000Z</time>
      </trkpt>
      <trkpt lat="47.27412" lon="-2.25883">
        <ele>12.60000038147</ele>
        <time>2022-07-17T09:04:51.000Z</time>
      </trkpt>
      <trkpt lat="47.27396" lon="-2.25908">
        <ele>12.60000038147</ele>
        <time>2022-07-17T09:04:55.000Z</time>
      </trkpt>
      <trkpt lat="47.27387" lon="-2.25919">
        <ele>12.60000038147</ele>
        <time>2022-07-17T09:04:57.000Z</time>
      </trkpt>
      <trkpt lat="47.27375" lon="-2.25935">
        <ele>12.60000038147</ele>
        <time>2022-07-17T09:05:00.000Z</time>
      </trkpt>
      <trkpt lat="47.27368" lon="-2.25946">
        <ele>12.60000038147</ele>
        <time>2022-07-17T09:05:02.000Z</time>
      </trkpt>
      <trkpt lat="47.27355" lon="-2.25956">
        <ele>12.60000038147</ele>
        <time>2022-07-17T09:05:05.000Z</time>
      </trkpt>
      <trkpt lat="47.2734" lon="-2.25964">
        <ele>12.60000038147</ele>
        <time>2022-07-17T09:05:08.000Z</time>
      </trkpt>
      <trkpt lat="47.27316" lon="-2.25977">
        <ele>12.60000038147</ele>
        <time>2022-07-17T09:05:13.000Z</time>
      </trkpt>
      <trkpt lat="47.27308" lon="-2.25983">
        <ele>12.60000038147</ele>
        <time>2022-07-17T09:05:15.000Z</time>
      </trkpt>
      <trkpt lat="47.27304" lon="-2.25987">
        <ele>12.60000038147</ele>
        <time>2022-07-17T09:05:16.000Z</time>
      </trkpt>
      <trkpt lat="47.27298" lon="-2.25994">
        <ele>12.60000038147</ele>
        <time>2022-07-17T09:05:18.000Z</time>
      </trkpt>
      <trkpt lat="47.27297" lon="-2.26006">
        <ele>12.60000038147</ele>
        <time>2022-07-17T09:05:21.000Z</time>
      </trkpt>
      <trkpt lat="47.27303" lon="-2.26013">
        <ele>12.60000038147</ele>
        <time>2022-07-17T09:05:23.000Z</time>
      </trkpt>
      <trkpt lat="47.27306" lon="-2.26017">
        <ele>12.60000038147</ele>
        <time>2022-07-17T09:05:24.000Z</time>
      </trkpt>
      <trkpt lat="47.27309" lon="-2.26022">
        <ele>12.60000038147</ele>
        <time>2022-07-17T09:05:25.000Z</time>
      </trkpt>
      <trkpt lat="47.27318" lon="-2.2604">
        <ele>12.60000038147</ele>
        <time>2022-07-17T09:05:28.000Z</time>
      </trkpt>
      <trkpt lat="47.27336" lon="-2.26086">
        <ele>12.60000038147</ele>
        <time>2022-07-17T09:05:35.000Z</time>
      </trkpt>
      <trkpt lat="47.27348" lon="-2.26118">
        <ele>12.60000038147</ele>
        <time>2022-07-17T09:05:41.000Z</time>
      </trkpt>
      <trkpt lat="47.27342" lon="-2.26128">
        <ele>12.60000038147</ele>
        <time>2022-07-17T09:05:44.000Z</time>
      </trkpt>
      <trkpt lat="47.2733" lon="-2.26135">
        <ele>12.60000038147</ele>
        <time>2022-07-17T09:05:47.000Z</time>
      </trkpt>
      <trkpt lat="47.27325" lon="-2.26137">
        <ele>12.60000038147</ele>
        <time>2022-07-17T09:05:48.000Z</time>
      </trkpt>
      <trkpt lat="47.27311" lon="-2.26142">
        <ele>13</ele>
        <time>2022-07-17T09:05:51.000Z</time>
      </trkpt>
      <trkpt lat="47.27305" lon="-2.26144">
        <ele>13.39999961853</ele>
        <time>2022-07-17T09:05:52.000Z</time>
      </trkpt>
      <trkpt lat="47.273" lon="-2.26146">
        <ele>13.800000190735</ele>
        <time>2022-07-17T09:05:53.000Z</time>
      </trkpt>
      <trkpt lat="47.27295" lon="-2.26147">
        <ele>14.199999809265</ele>
        <time>2022-07-17T09:05:54.000Z</time>
      </trkpt>
      <trkpt lat="47.27289" lon="-2.26149">
        <ele>14.60000038147</ele>
        <time>2022-07-17T09:05:55.000Z</time>
      </trkpt>
      <trkpt lat="47.27262" lon="-2.26159">
        <ele>14.60000038147</ele>
        <time>2022-07-17T09:06:00.000Z</time>
      </trkpt>
      <trkpt lat="47.27232" lon="-2.26175">
        <ele>14.60000038147</ele>
        <time>2022-07-17T09:06:06.000Z</time>
      </trkpt>
      <trkpt lat="47.27221" lon="-2.26184">
        <ele>14.60000038147</ele>
        <time>2022-07-17T09:06:08.000Z</time>
      </trkpt>
      <trkpt lat="47.27209" lon="-2.26194">
        <ele>14.60000038147</ele>
        <time>2022-07-17T09:06:10.000Z</time>
      </trkpt>
      <trkpt lat="47.27166" lon="-2.26237">
        <ele>14.60000038147</ele>
        <time>2022-07-17T09:06:18.000Z</time>
      </trkpt>
      <trkpt lat="47.27147" lon="-2.26261">
        <ele>14.60000038147</ele>
        <time>2022-07-17T09:06:22.000Z</time>
      </trkpt>
      <trkpt lat="47.27138" lon="-2.26274">
        <ele>15</ele>
        <time>2022-07-17T09:06:24.000Z</time>
      </trkpt>
      <trkpt lat="47.27134" lon="-2.2628">
        <ele>15.39999961853</ele>
        <time>2022-07-17T09:06:25.000Z</time>
      </trkpt>
      <trkpt lat="47.2713" lon="-2.26285">
        <ele>15.800000190735</ele>
        <time>2022-07-17T09:06:26.000Z</time>
      </trkpt>
      <trkpt lat="47.27126" lon="-2.26291">
        <ele>16.200000762939</ele>
        <time>2022-07-17T09:06:27.000Z</time>
      </trkpt>
      <trkpt lat="47.27121" lon="-2.26297">
        <ele>16.60000038147</ele>
        <time>2022-07-17T09:06:28.000Z</time>
      </trkpt>
      <trkpt lat="47.27117" lon="-2.26303">
        <ele>16.60000038147</ele>
        <time>2022-07-17T09:06:29.000Z</time>
      </trkpt>
      <trkpt lat="47.27089" lon="-2.26342">
        <ele>16.60000038147</ele>
        <time>2022-07-17T09:06:35.000Z</time>
      </trkpt>
      <trkpt lat="47.27053" lon="-2.26394">
        <ele>16.60000038147</ele>
        <time>2022-07-17T09:06:43.000Z</time>
      </trkpt>
      <trkpt lat="47.27049" lon="-2.264">
        <ele>17</ele>
        <time>2022-07-17T09:06:44.000Z</time>
      </trkpt>
      <trkpt lat="47.27044" lon="-2.26406">
        <ele>17.39999961853</ele>
        <time>2022-07-17T09:06:45.000Z</time>
      </trkpt>
      <trkpt lat="47.27041" lon="-2.26411">
        <ele>17.799999237061</ele>
        <time>2022-07-17T09:06:46.000Z</time>
      </trkpt>
      <trkpt lat="47.27037" lon="-2.26417">
        <ele>18.200000762939</ele>
        <time>2022-07-17T09:06:47.000Z</time>
      </trkpt>
      <trkpt lat="47.27032" lon="-2.26423">
        <ele>18.60000038147</ele>
        <time>2022-07-17T09:06:48.000Z</time>
      </trkpt>
      <trkpt lat="47.27028" lon="-2.26428">
        <ele>18.60000038147</ele>
        <time>2022-07-17T09:06:49.000Z</time>
      </trkpt>
      <trkpt lat="47.27004" lon="-2.26464">
        <ele>18.60000038147</ele>
        <time>2022-07-17T09:06:56.000Z</time>
      </trkpt>
      <trkpt lat="47.26982" lon="-2.26491">
        <ele>18.60000038147</ele>
        <time>2022-07-17T09:07:01.000Z</time>
      </trkpt>
      <trkpt lat="47.26969" lon="-2.26513">
        <ele>18.60000038147</ele>
        <time>2022-07-17T09:07:05.000Z</time>
      </trkpt>
      <trkpt lat="47.26974" lon="-2.26538">
        <ele>18.60000038147</ele>
        <time>2022-07-17T09:07:08.000Z</time>
      </trkpt>
      <trkpt lat="47.26977" lon="-2.26546">
        <ele>18.60000038147</ele>
        <time>2022-07-17T09:07:09.000Z</time>
      </trkpt>
      <trkpt lat="47.26983" lon="-2.26563">
        <ele>18.200000762939</ele>
        <time>2022-07-17T09:07:11.000Z</time>
      </trkpt>
      <trkpt lat="47.26987" lon="-2.2657">
        <ele>17.60000038147</ele>
        <time>2022-07-17T09:07:12.000Z</time>
      </trkpt>
      <trkpt lat="47.26991" lon="-2.26577">
        <ele>17.200000762939</ele>
        <time>2022-07-17T09:07:13.000Z</time>
      </trkpt>
      <trkpt lat="47.26996" lon="-2.26583">
        <ele>16.799999237061</ele>
        <time>2022-07-17T09:07:14.000Z</time>
      </trkpt>
      <trkpt lat="47.27" lon="-2.26588">
        <ele>16.39999961853</ele>
        <time>2022-07-17T09:07:15.000Z</time>
      </trkpt>
      <trkpt lat="47.27018" lon="-2.26613">
        <ele>16.39999961853</ele>
        <time>2022-07-17T09:07:19.000Z</time>
      </trkpt>
      <trkpt lat="47.27035" lon="-2.26641">
        <ele>16.39999961853</ele>
        <time>2022-07-17T09:07:23.000Z</time>
      </trkpt>
      <trkpt lat="47.27036" lon="-2.26648">
        <ele>16.39999961853</ele>
        <time>2022-07-17T09:07:24.000Z</time>
      </trkpt>
      <trkpt lat="47.27037" lon="-2.26678">
        <ele>16</ele>
        <time>2022-07-17T09:07:28.000Z</time>
      </trkpt>
      <trkpt lat="47.27038" lon="-2.26685">
        <ele>15.60000038147</ele>
        <time>2022-07-17T09:07:29.000Z</time>
      </trkpt>
      <trkpt lat="47.27039" lon="-2.26691">
        <ele>15</ele>
        <time>2022-07-17T09:07:30.000Z</time>
      </trkpt>
      <trkpt lat="47.27039" lon="-2.26698">
        <ele>14.60000038147</ele>
        <time>2022-07-17T09:07:31.000Z</time>
      </trkpt>
      <trkpt lat="47.27039" lon="-2.26705">
        <ele>14.199999809265</ele>
        <time>2022-07-17T09:07:32.000Z</time>
      </trkpt>
      <trkpt lat="47.27039" lon="-2.26711">
        <ele>14.199999809265</ele>
        <time>2022-07-17T09:07:33.000Z</time>
      </trkpt>
      <trkpt lat="47.2704" lon="-2.26718">
        <ele>14.199999809265</ele>
        <time>2022-07-17T09:07:34.000Z</time>
      </trkpt>
      <trkpt lat="47.27038" lon="-2.26737">
        <ele>14.199999809265</ele>
        <time>2022-07-17T09:07:38.000Z</time>
      </trkpt>
      <trkpt lat="47.27037" lon="-2.2674">
        <ele>14.199999809265</ele>
        <time>2022-07-17T09:07:39.000Z</time>
      </trkpt>
      <trkpt lat="47.27034" lon="-2.26743">
        <ele>14.199999809265</ele>
        <time>2022-07-17T09:07:42.000Z</time>
      </trkpt>
      <trkpt lat="47.27032" lon="-2.26745">
        <ele>14.199999809265</ele>
        <time>2022-07-17T09:07:43.000Z</time>
      </trkpt>
      <trkpt lat="47.27026" lon="-2.26751">
        <ele>14.199999809265</ele>
        <time>2022-07-17T09:07:46.000Z</time>
      </trkpt>
      <trkpt lat="47.27014" lon="-2.26766">
        <ele>14.199999809265</ele>
        <time>2022-07-17T09:07:51.000Z</time>
      </trkpt>
      <trkpt lat="47.27002" lon="-2.26778">
        <ele>14.199999809265</ele>
        <time>2022-07-17T09:07:55.000Z</time>
      </trkpt>
      <trkpt lat="47.26997" lon="-2.26782">
        <ele>14.199999809265</ele>
        <time>2022-07-17T09:07:57.000Z</time>
      </trkpt>
      <trkpt lat="47.26993" lon="-2.26788">
        <ele>14.199999809265</ele>
        <time>2022-07-17T09:07:59.000Z</time>
      </trkpt>
      <trkpt lat="47.26983" lon="-2.26796">
        <ele>14.199999809265</ele>
        <time>2022-07-17T09:08:02.000Z</time>
      </trkpt>
      <trkpt lat="47.26974" lon="-2.26803">
        <ele>14.199999809265</ele>
        <time>2022-07-17T09:08:04.000Z</time>
      </trkpt>
      <trkpt lat="47.26963" lon="-2.2682">
        <ele>14.199999809265</ele>
        <time>2022-07-17T09:08:07.000Z</time>
      </trkpt>
      <trkpt lat="47.26962" lon="-2.26826">
        <ele>14.199999809265</ele>
        <time>2022-07-17T09:08:08.000Z</time>
      </trkpt>
      <trkpt lat="47.26964" lon="-2.26848">
        <ele>14.199999809265</ele>
        <time>2022-07-17T09:08:11.000Z</time>
      </trkpt>
      <trkpt lat="47.26965" lon="-2.26856">
        <ele>14.199999809265</ele>
        <time>2022-07-17T09:08:12.000Z</time>
      </trkpt>
      <trkpt lat="47.26972" lon="-2.26904">
        <ele>14.199999809265</ele>
        <time>2022-07-17T09:08:18.000Z</time>
      </trkpt>
      <trkpt lat="47.26971" lon="-2.2692">
        <ele>14.800000190735</ele>
        <time>2022-07-17T09:08:20.000Z</time>
      </trkpt>
      <trkpt lat="47.2697" lon="-2.26929">
        <ele>15.199999809265</ele>
        <time>2022-07-17T09:08:21.000Z</time>
      </trkpt>
      <trkpt lat="47.26968" lon="-2.26937">
        <ele>15.60000038147</ele>
        <time>2022-07-17T09:08:22.000Z</time>
      </trkpt>
      <trkpt lat="47.26967" lon="-2.26944">
        <ele>16</ele>
        <time>2022-07-17T09:08:23.000Z</time>
      </trkpt>
      <trkpt lat="47.26965" lon="-2.26952">
        <ele>16.39999961853</ele>
        <time>2022-07-17T09:08:24.000Z</time>
      </trkpt>
      <trkpt lat="47.26962" lon="-2.26975">
        <ele>16.39999961853</ele>
        <time>2022-07-17T09:08:27.000Z</time>
      </trkpt>
      <trkpt lat="47.26962" lon="-2.26983">
        <ele>16.39999961853</ele>
        <time>2022-07-17T09:08:28.000Z</time>
      </trkpt>
      <trkpt lat="47.26968" lon="-2.27002">
        <ele>16.39999961853</ele>
        <time>2022-07-17T09:08:31.000Z</time>
      </trkpt>
      <trkpt lat="47.26976" lon="-2.27013">
        <ele>16.39999961853</ele>
        <time>2022-07-17T09:08:34.000Z</time>
      </trkpt>
      <trkpt lat="47.26983" lon="-2.27021">
        <ele>16.39999961853</ele>
        <time>2022-07-17T09:08:36.000Z</time>
      </trkpt>
      <trkpt lat="47.26986" lon="-2.27025">
        <ele>16.799999237061</ele>
        <time>2022-07-17T09:08:37.000Z</time>
      </trkpt>
      <trkpt lat="47.26989" lon="-2.27028">
        <ele>17.200000762939</ele>
        <time>2022-07-17T09:08:38.000Z</time>
      </trkpt>
      <trkpt lat="47.26992" lon="-2.27032">
        <ele>18</ele>
        <time>2022-07-17T09:08:39.000Z</time>
      </trkpt>
      <trkpt lat="47.26995" lon="-2.27037">
        <ele>18.39999961853</ele>
        <time>2022-07-17T09:08:40.000Z</time>
      </trkpt>
      <trkpt lat="47.27" lon="-2.27047">
        <ele>18.39999961853</ele>
        <time>2022-07-17T09:08:42.000Z</time>
      </trkpt>
      <trkpt lat="47.27005" lon="-2.2706">
        <ele>18.39999961853</ele>
        <time>2022-07-17T09:08:44.000Z</time>
      </trkpt>
      <trkpt lat="47.2701" lon="-2.27083">
        <ele>18.39999961853</ele>
        <time>2022-07-17T09:08:47.000Z</time>
      </trkpt>
      <trkpt lat="47.2702" lon="-2.2711">
        <ele>18.39999961853</ele>
        <time>2022-07-17T09:08:51.000Z</time>
      </trkpt>
      <trkpt lat="47.27023" lon="-2.27116">
        <ele>18.39999961853</ele>
        <time>2022-07-17T09:08:52.000Z</time>
      </trkpt>
      <trkpt lat="47.27031" lon="-2.27136">
        <ele>18.39999961853</ele>
        <time>2022-07-17T09:08:56.000Z</time>
      </trkpt>
      <trkpt lat="47.27031" lon="-2.27139">
        <ele>18.39999961853</ele>
        <time>2022-07-17T09:08:57.000Z</time>
      </trkpt>
      <trkpt lat="47.27031" lon="-2.27142">
        <ele>18</ele>
        <time>2022-07-17T09:08:58.000Z</time>
      </trkpt>
      <trkpt lat="47.2703" lon="-2.27145">
        <ele>17.60000038147</ele>
        <time>2022-07-17T09:08:59.000Z</time>
      </trkpt>
      <trkpt lat="47.27028" lon="-2.27147">
        <ele>17.200000762939</ele>
        <time>2022-07-17T09:09:00.000Z</time>
      </trkpt>
      <trkpt lat="47.27026" lon="-2.27148">
        <ele>16.799999237061</ele>
        <time>2022-07-17T09:09:01.000Z</time>
      </trkpt>
      <trkpt lat="47.27024" lon="-2.27149">
        <ele>16.200000762939</ele>
        <time>2022-07-17T09:09:02.000Z</time>
      </trkpt>
      <trkpt lat="47.27022" lon="-2.2715">
        <ele>16.200000762939</ele>
        <time>2022-07-17T09:09:04.000Z</time>
      </trkpt>
      <trkpt lat="47.27022" lon="-2.27152">
        <ele>16.200000762939</ele>
        <time>2022-07-17T09:09:05.000Z</time>
      </trkpt>
      <trkpt lat="47.27019" lon="-2.27159">
        <ele>16.200000762939</ele>
        <time>2022-07-17T09:09:08.000Z</time>
      </trkpt>
      <trkpt lat="47.27017" lon="-2.27166">
        <ele>16.200000762939</ele>
        <time>2022-07-17T09:09:11.000Z</time>
      </trkpt>
      <trkpt lat="47.27015" lon="-2.27167">
        <ele>16.60000038147</ele>
        <time>2022-07-17T09:09:13.000Z</time>
      </trkpt>
      <trkpt lat="47.27015" lon="-2.27165">
        <ele>17.200000762939</ele>
        <time>2022-07-17T09:09:14.000Z</time>
      </trkpt>
      <trkpt lat="47.27014" lon="-2.27164">
        <ele>17.60000038147</ele>
        <time>2022-07-17T09:09:15.000Z</time>
      </trkpt>
      <trkpt lat="47.27014" lon="-2.27163">
        <ele>18</ele>
        <time>2022-07-17T09:09:16.000Z</time>
      </trkpt>
      <trkpt lat="47.27012" lon="-2.27162">
        <ele>18.39999961853</ele>
        <time>2022-07-17T09:09:17.000Z</time>
      </trkpt>
      <trkpt lat="47.2701" lon="-2.27164">
        <ele>18.39999961853</ele>
        <time>2022-07-17T09:09:19.000Z</time>
      </trkpt>
      <trkpt lat="47.27008" lon="-2.27165">
        <ele>18.39999961853</ele>
        <time>2022-07-17T09:09:20.000Z</time>
      </trkpt>
      <trkpt lat="47.27001" lon="-2.27167">
        <ele>18.799999237061</ele>
        <time>2022-07-17T09:09:23.000Z</time>
      </trkpt>
      <trkpt lat="47.27" lon="-2.27169">
        <ele>19.200000762939</ele>
        <time>2022-07-17T09:09:24.000Z</time>
      </trkpt>
      <trkpt lat="47.26998" lon="-2.27171">
        <ele>19.60000038147</ele>
        <time>2022-07-17T09:09:25.000Z</time>
      </trkpt>
      <trkpt lat="47.26996" lon="-2.27172">
        <ele>20</ele>
        <time>2022-07-17T09:09:26.000Z</time>
      </trkpt>
      <trkpt lat="47.26994" lon="-2.27173">
        <ele>20.60000038147</ele>
        <time>2022-07-17T09:09:27.000Z</time>
      </trkpt>
      <trkpt lat="47.26988" lon="-2.27174">
        <ele>20.60000038147</ele>
        <time>2022-07-17T09:09:30.000Z</time>
      </trkpt>
      <trkpt lat="47.26987" lon="-2.27178">
        <ele>20.60000038147</ele>
        <time>2022-07-17T09:09:32.000Z</time>
      </trkpt>
      <trkpt lat="47.26987" lon="-2.27183">
        <ele>20.60000038147</ele>
        <time>2022-07-17T09:09:34.000Z</time>
      </trkpt>
      <trkpt lat="47.26981" lon="-2.27188">
        <ele>20.60000038147</ele>
        <time>2022-07-17T09:09:37.000Z</time>
      </trkpt>
      <trkpt lat="47.26978" lon="-2.27191">
        <ele>20.60000038147</ele>
        <time>2022-07-17T09:09:38.000Z</time>
      </trkpt>
      <trkpt lat="47.26977" lon="-2.27194">
        <ele>20.60000038147</ele>
        <time>2022-07-17T09:09:39.000Z</time>
      </trkpt>
      <trkpt lat="47.26979" lon="-2.27201">
        <ele>20.60000038147</ele>
        <time>2022-07-17T09:09:41.000Z</time>
      </trkpt>
      <trkpt lat="47.26983" lon="-2.2721">
        <ele>20.60000038147</ele>
        <time>2022-07-17T09:09:44.000Z</time>
      </trkpt>
      <trkpt lat="47.26982" lon="-2.27217">
        <ele>20.60000038147</ele>
        <time>2022-07-17T09:09:46.000Z</time>
      </trkpt>
      <trkpt lat="47.26975" lon="-2.27234">
        <ele>20.60000038147</ele>
        <time>2022-07-17T09:09:51.000Z</time>
      </trkpt>
      <trkpt lat="47.26973" lon="-2.27236">
        <ele>20.60000038147</ele>
        <time>2022-07-17T09:09:52.000Z</time>
      </trkpt>
      <trkpt lat="47.26971" lon="-2.27237">
        <ele>20.60000038147</ele>
        <time>2022-07-17T09:09:53.000Z</time>
      </trkpt>
      <trkpt lat="47.26965" lon="-2.2724">
        <ele>20.60000038147</ele>
        <time>2022-07-17T09:09:55.000Z</time>
      </trkpt>
      <trkpt lat="47.26957" lon="-2.27242">
        <ele>20.60000038147</ele>
        <time>2022-07-17T09:09:57.000Z</time>
      </trkpt>
      <trkpt lat="47.26945" lon="-2.27251">
        <ele>20.60000038147</ele>
        <time>2022-07-17T09:10:00.000Z</time>
      </trkpt>
      <trkpt lat="47.26939" lon="-2.27264">
        <ele>20.60000038147</ele>
        <time>2022-07-17T09:10:04.000Z</time>
      </trkpt>
      <trkpt lat="47.26936" lon="-2.27281">
        <ele>20.60000038147</ele>
        <time>2022-07-17T09:10:10.000Z</time>
      </trkpt>
      <trkpt lat="47.26937" lon="-2.27286">
        <ele>20.60000038147</ele>
        <time>2022-07-17T09:10:12.000Z</time>
      </trkpt>
      <trkpt lat="47.26937" lon="-2.27291">
        <ele>20.60000038147</ele>
        <time>2022-07-17T09:10:14.000Z</time>
      </trkpt>
      <trkpt lat="47.26936" lon="-2.27297">
        <ele>20.60000038147</ele>
        <time>2022-07-17T09:10:16.000Z</time>
      </trkpt>
      <trkpt lat="47.26932" lon="-2.27314">
        <ele>20.60000038147</ele>
        <time>2022-07-17T09:10:21.000Z</time>
      </trkpt>
      <trkpt lat="47.26926" lon="-2.27334">
        <ele>20.60000038147</ele>
        <time>2022-07-17T09:10:26.000Z</time>
      </trkpt>
      <trkpt lat="47.26921" lon="-2.27353">
        <ele>20.60000038147</ele>
        <time>2022-07-17T09:10:31.000Z</time>
      </trkpt>
      <trkpt lat="47.26911" lon="-2.27365">
        <ele>20.60000038147</ele>
        <time>2022-07-17T09:10:34.000Z</time>
      </trkpt>
      <trkpt lat="47.26899" lon="-2.27377">
        <ele>20.60000038147</ele>
        <time>2022-07-17T09:10:37.000Z</time>
      </trkpt>
      <trkpt lat="47.26878" lon="-2.27392">
        <ele>20.60000038147</ele>
        <time>2022-07-17T09:10:42.000Z</time>
      </trkpt>
      <trkpt lat="47.2686" lon="-2.27402">
        <ele>21</ele>
        <time>2022-07-17T09:10:46.000Z</time>
      </trkpt>
      <trkpt lat="47.26855" lon="-2.27404">
        <ele>21.39999961853</ele>
        <time>2022-07-17T09:10:47.000Z</time>
      </trkpt>
      <trkpt lat="47.26851" lon="-2.27405">
        <ele>21.799999237061</ele>
        <time>2022-07-17T09:10:48.000Z</time>
      </trkpt>
      <trkpt lat="47.26847" lon="-2.27406">
        <ele>22.200000762939</ele>
        <time>2022-07-17T09:10:49.000Z</time>
      </trkpt>
      <trkpt lat="47.26843" lon="-2.27407">
        <ele>22.799999237061</ele>
        <time>2022-07-17T09:10:50.000Z</time>
      </trkpt>
      <trkpt lat="47.26826" lon="-2.27411">
        <ele>22.799999237061</ele>
        <time>2022-07-17T09:10:54.000Z</time>
      </trkpt>
      <trkpt lat="47.26805" lon="-2.27413">
        <ele>23.200000762939</ele>
        <time>2022-07-17T09:10:59.000Z</time>
      </trkpt>
      <trkpt lat="47.268" lon="-2.27413">
        <ele>23.60000038147</ele>
        <time>2022-07-17T09:11:00.000Z</time>
      </trkpt>
      <trkpt lat="47.26796" lon="-2.27413">
        <ele>24</ele>
        <time>2022-07-17T09:11:01.000Z</time>
      </trkpt>
      <trkpt lat="47.26792" lon="-2.27413">
        <ele>24.39999961853</ele>
        <time>2022-07-17T09:11:02.000Z</time>
      </trkpt>
      <trkpt lat="47.26787" lon="-2.27414">
        <ele>24.799999237061</ele>
        <time>2022-07-17T09:11:03.000Z</time>
      </trkpt>
      <trkpt lat="47.26779" lon="-2.27414">
        <ele>24.799999237061</ele>
        <time>2022-07-17T09:11:05.000Z</time>
      </trkpt>
      <trkpt lat="47.26765" lon="-2.27416">
        <ele>24.799999237061</ele>
        <time>2022-07-17T09:11:10.000Z</time>
      </trkpt>
      <trkpt lat="47.26763" lon="-2.27416">
        <ele>24.799999237061</ele>
        <time>2022-07-17T09:11:13.000Z</time>
      </trkpt>
      <trkpt lat="47.26759" lon="-2.27418">
        <ele>24.799999237061</ele>
        <time>2022-07-17T09:11:37.000Z</time>
      </trkpt>
      <trkpt lat="47.26757" lon="-2.27428">
        <ele>24.799999237061</ele>
        <time>2022-07-17T09:11:41.000Z</time>
      </trkpt>
      <trkpt lat="47.26758" lon="-2.27465">
        <ele>24.799999237061</ele>
        <time>2022-07-17T09:11:48.000Z</time>
      </trkpt>
      <trkpt lat="47.26758" lon="-2.2747">
        <ele>25.200000762939</ele>
        <time>2022-07-17T09:11:49.000Z</time>
      </trkpt>
      <trkpt lat="47.26757" lon="-2.27476">
        <ele>25.60000038147</ele>
        <time>2022-07-17T09:11:50.000Z</time>
      </trkpt>
      <trkpt lat="47.26757" lon="-2.27481">
        <ele>26</ele>
        <time>2022-07-17T09:11:51.000Z</time>
      </trkpt>
      <trkpt lat="47.26757" lon="-2.27487">
        <ele>26.39999961853</ele>
        <time>2022-07-17T09:11:52.000Z</time>
      </trkpt>
      <trkpt lat="47.26757" lon="-2.27493">
        <ele>27</ele>
        <time>2022-07-17T09:11:53.000Z</time>
      </trkpt>
      <trkpt lat="47.26757" lon="-2.27505">
        <ele>27</ele>
        <time>2022-07-17T09:11:55.000Z</time>
      </trkpt>
      <trkpt lat="47.26755" lon="-2.27549">
        <ele>27</ele>
        <time>2022-07-17T09:12:01.000Z</time>
      </trkpt>
      <trkpt lat="47.26759" lon="-2.27586">
        <ele>26.39999961853</ele>
        <time>2022-07-17T09:12:05.000Z</time>
      </trkpt>
      <trkpt lat="47.2676" lon="-2.27596">
        <ele>26</ele>
        <time>2022-07-17T09:12:06.000Z</time>
      </trkpt>
      <trkpt lat="47.26762" lon="-2.27608">
        <ele>25.60000038147</ele>
        <time>2022-07-17T09:12:07.000Z</time>
      </trkpt>
      <trkpt lat="47.26764" lon="-2.27618">
        <ele>25.200000762939</ele>
        <time>2022-07-17T09:12:08.000Z</time>
      </trkpt>
      <trkpt lat="47.26765" lon="-2.27628">
        <ele>24.799999237061</ele>
        <time>2022-07-17T09:12:09.000Z</time>
      </trkpt>
      <trkpt lat="47.26765" lon="-2.27645">
        <ele>24.799999237061</ele>
        <time>2022-07-17T09:12:11.000Z</time>
      </trkpt>
      <trkpt lat="47.26751" lon="-2.27656">
        <ele>24.799999237061</ele>
        <time>2022-07-17T09:12:14.000Z</time>
      </trkpt>
      <trkpt lat="47.26734" lon="-2.27649">
        <ele>24.799999237061</ele>
        <time>2022-07-17T09:12:17.000Z</time>
      </trkpt>
      <trkpt lat="47.26722" lon="-2.27644">
        <ele>24.799999237061</ele>
        <time>2022-07-17T09:12:19.000Z</time>
      </trkpt>
      <trkpt lat="47.26704" lon="-2.27636">
        <ele>24.799999237061</ele>
        <time>2022-07-17T09:12:22.000Z</time>
      </trkpt>
      <trkpt lat="47.26664" lon="-2.27621">
        <ele>24.799999237061</ele>
        <time>2022-07-17T09:12:29.000Z</time>
      </trkpt>
      <trkpt lat="47.2663" lon="-2.27605">
        <ele>24.799999237061</ele>
        <time>2022-07-17T09:12:35.000Z</time>
      </trkpt>
      <trkpt lat="47.26618" lon="-2.27599">
        <ele>24.799999237061</ele>
        <time>2022-07-17T09:12:37.000Z</time>
      </trkpt>
      <trkpt lat="47.26599" lon="-2.2759">
        <ele>24.799999237061</ele>
        <time>2022-07-17T09:12:40.000Z</time>
      </trkpt>
      <trkpt lat="47.26587" lon="-2.27585">
        <ele>24.799999237061</ele>
        <time>2022-07-17T09:12:42.000Z</time>
      </trkpt>
      <trkpt lat="47.26568" lon="-2.27582">
        <ele>24.799999237061</ele>
        <time>2022-07-17T09:12:45.000Z</time>
      </trkpt>
      <trkpt lat="47.26527" lon="-2.27579">
        <ele>24.799999237061</ele>
        <time>2022-07-17T09:12:52.000Z</time>
      </trkpt>
      <trkpt lat="47.2651" lon="-2.27577">
        <ele>24.799999237061</ele>
        <time>2022-07-17T09:12:55.000Z</time>
      </trkpt>
      <trkpt lat="47.265" lon="-2.27578">
        <ele>24.799999237061</ele>
        <time>2022-07-17T09:12:57.000Z</time>
      </trkpt>
      <trkpt lat="47.2649" lon="-2.27564">
        <ele>24.799999237061</ele>
        <time>2022-07-17T09:13:00.000Z</time>
      </trkpt>
      <trkpt lat="47.26487" lon="-2.2755">
        <ele>24.799999237061</ele>
        <time>2022-07-17T09:13:02.000Z</time>
      </trkpt>
      <trkpt lat="47.26485" lon="-2.27527">
        <ele>24.799999237061</ele>
        <time>2022-07-17T09:13:05.000Z</time>
      </trkpt>
      <trkpt lat="47.2648" lon="-2.27505">
        <ele>25.200000762939</ele>
        <time>2022-07-17T09:13:08.000Z</time>
      </trkpt>
      <trkpt lat="47.26478" lon="-2.27498">
        <ele>25.60000038147</ele>
        <time>2022-07-17T09:13:09.000Z</time>
      </trkpt>
      <trkpt lat="47.26476" lon="-2.27491">
        <ele>26</ele>
        <time>2022-07-17T09:13:10.000Z</time>
      </trkpt>
      <trkpt lat="47.26474" lon="-2.27484">
        <ele>26.799999237061</ele>
        <time>2022-07-17T09:13:11.000Z</time>
      </trkpt>
      <trkpt lat="47.26458" lon="-2.27435">
        <ele>26.799999237061</ele>
        <time>2022-07-17T09:13:18.000Z</time>
      </trkpt>
      <trkpt lat="47.26446" lon="-2.27396">
        <ele>26.799999237061</ele>
        <time>2022-07-17T09:13:24.000Z</time>
      </trkpt>
      <trkpt lat="47.26434" lon="-2.27364">
        <ele>26.799999237061</ele>
        <time>2022-07-17T09:13:29.000Z</time>
      </trkpt>
      <trkpt lat="47.26432" lon="-2.27358">
        <ele>27.200000762939</ele>
        <time>2022-07-17T09:13:30.000Z</time>
      </trkpt>
      <trkpt lat="47.2643" lon="-2.27353">
        <ele>27.60000038147</ele>
        <time>2022-07-17T09:13:31.000Z</time>
      </trkpt>
      <trkpt lat="47.26427" lon="-2.27348">
        <ele>28</ele>
        <time>2022-07-17T09:13:32.000Z</time>
      </trkpt>
      <trkpt lat="47.26424" lon="-2.27344">
        <ele>28.39999961853</ele>
        <time>2022-07-17T09:13:33.000Z</time>
      </trkpt>
      <trkpt lat="47.26419" lon="-2.27341">
        <ele>28.799999237061</ele>
        <time>2022-07-17T09:13:34.000Z</time>
      </trkpt>
      <trkpt lat="47.26404" lon="-2.27336">
        <ele>28.799999237061</ele>
        <time>2022-07-17T09:13:37.000Z</time>
      </trkpt>
      <trkpt lat="47.26394" lon="-2.27334">
        <ele>28.799999237061</ele>
        <time>2022-07-17T09:13:39.000Z</time>
      </trkpt>
      <trkpt lat="47.26379" lon="-2.27334">
        <ele>29.200000762939</ele>
        <time>2022-07-17T09:13:42.000Z</time>
      </trkpt>
      <trkpt lat="47.26373" lon="-2.27334">
        <ele>29.60000038147</ele>
        <time>2022-07-17T09:13:43.000Z</time>
      </trkpt>
      <trkpt lat="47.26368" lon="-2.27334">
        <ele>30</ele>
        <time>2022-07-17T09:13:44.000Z</time>
      </trkpt>
      <trkpt lat="47.26364" lon="-2.27334">
        <ele>30.39999961853</ele>
        <time>2022-07-17T09:13:45.000Z</time>
      </trkpt>
      <trkpt lat="47.26359" lon="-2.27334">
        <ele>30.799999237061</ele>
        <time>2022-07-17T09:13:46.000Z</time>
      </trkpt>
      <trkpt lat="47.26339" lon="-2.27332">
        <ele>30.799999237061</ele>
        <time>2022-07-17T09:13:50.000Z</time>
      </trkpt>
      <trkpt lat="47.26334" lon="-2.2733">
        <ele>30.799999237061</ele>
        <time>2022-07-17T09:13:51.000Z</time>
      </trkpt>
      <trkpt lat="47.26313" lon="-2.2733">
        <ele>30.799999237061</ele>
        <time>2022-07-17T09:13:55.000Z</time>
      </trkpt>
      <trkpt lat="47.26308" lon="-2.27329">
        <ele>30.799999237061</ele>
        <time>2022-07-17T09:13:56.000Z</time>
      </trkpt>
      <trkpt lat="47.26281" lon="-2.27325">
        <ele>30.799999237061</ele>
        <time>2022-07-17T09:14:01.000Z</time>
      </trkpt>
      <trkpt lat="47.26276" lon="-2.27324">
        <ele>31.200000762939</ele>
        <time>2022-07-17T09:14:02.000Z</time>
      </trkpt>
      <trkpt lat="47.26271" lon="-2.27324">
        <ele>31.60000038147</ele>
        <time>2022-07-17T09:14:03.000Z</time>
      </trkpt>
      <trkpt lat="47.26266" lon="-2.27324">
        <ele>32</ele>
        <time>2022-07-17T09:14:04.000Z</time>
      </trkpt>
      <trkpt lat="47.2626" lon="-2.27323">
        <ele>32.400001525879</ele>
        <time>2022-07-17T09:14:05.000Z</time>
      </trkpt>
      <trkpt lat="47.26255" lon="-2.27323">
        <ele>32.799999237061</ele>
        <time>2022-07-17T09:14:06.000Z</time>
      </trkpt>
      <trkpt lat="47.2625" lon="-2.27324">
        <ele>32.799999237061</ele>
        <time>2022-07-17T09:14:07.000Z</time>
      </trkpt>
      <trkpt lat="47.26245" lon="-2.27323">
        <ele>32.799999237061</ele>
        <time>2022-07-17T09:14:08.000Z</time>
      </trkpt>
      <trkpt lat="47.2623" lon="-2.27319">
        <ele>32.799999237061</ele>
        <time>2022-07-17T09:14:11.000Z</time>
      </trkpt>
      <trkpt lat="47.26225" lon="-2.27318">
        <ele>32.799999237061</ele>
        <time>2022-07-17T09:14:12.000Z</time>
      </trkpt>
      <trkpt lat="47.26215" lon="-2.27316">
        <ele>32.799999237061</ele>
        <time>2022-07-17T09:14:14.000Z</time>
      </trkpt>
      <trkpt lat="47.26205" lon="-2.27315">
        <ele>32.799999237061</ele>
        <time>2022-07-17T09:14:16.000Z</time>
      </trkpt>
      <trkpt lat="47.26199" lon="-2.27315">
        <ele>32.799999237061</ele>
        <time>2022-07-17T09:14:17.000Z</time>
      </trkpt>
      <trkpt lat="47.26178" lon="-2.2732">
        <ele>32.799999237061</ele>
        <time>2022-07-17T09:14:21.000Z</time>
      </trkpt>
      <trkpt lat="47.26167" lon="-2.27321">
        <ele>32.799999237061</ele>
        <time>2022-07-17T09:14:23.000Z</time>
      </trkpt>
      <trkpt lat="47.26147" lon="-2.27319">
        <ele>32.799999237061</ele>
        <time>2022-07-17T09:14:27.000Z</time>
      </trkpt>
      <trkpt lat="47.26133" lon="-2.2733">
        <ele>32.799999237061</ele>
        <time>2022-07-17T09:14:30.000Z</time>
      </trkpt>
      <trkpt lat="47.26124" lon="-2.27339">
        <ele>32.799999237061</ele>
        <time>2022-07-17T09:14:32.000Z</time>
      </trkpt>
      <trkpt lat="47.26111" lon="-2.27354">
        <ele>32.799999237061</ele>
        <time>2022-07-17T09:14:35.000Z</time>
      </trkpt>
      <trkpt lat="47.26106" lon="-2.2736">
        <ele>32.799999237061</ele>
        <time>2022-07-17T09:14:36.000Z</time>
      </trkpt>
      <trkpt lat="47.26076" lon="-2.27395">
        <ele>32.799999237061</ele>
        <time>2022-07-17T09:14:43.000Z</time>
      </trkpt>
      <trkpt lat="47.26073" lon="-2.27399">
        <ele>32.799999237061</ele>
        <time>2022-07-17T09:14:44.000Z</time>
      </trkpt>
      <trkpt lat="47.26064" lon="-2.27416">
        <ele>32.799999237061</ele>
        <time>2022-07-17T09:14:47.000Z</time>
      </trkpt>
      <trkpt lat="47.26047" lon="-2.27452">
        <ele>32.799999237061</ele>
        <time>2022-07-17T09:14:53.000Z</time>
      </trkpt>
      <trkpt lat="47.26039" lon="-2.27475">
        <ele>32.799999237061</ele>
        <time>2022-07-17T09:14:57.000Z</time>
      </trkpt>
      <trkpt lat="47.26037" lon="-2.27481">
        <ele>32.799999237061</ele>
        <time>2022-07-17T09:14:58.000Z</time>
      </trkpt>
      <trkpt lat="47.2603" lon="-2.27501">
        <ele>32.799999237061</ele>
        <time>2022-07-17T09:15:01.000Z</time>
      </trkpt>
      <trkpt lat="47.26027" lon="-2.27529">
        <ele>32.799999237061</ele>
        <time>2022-07-17T09:15:05.000Z</time>
      </trkpt>
      <trkpt lat="47.26029" lon="-2.27542">
        <ele>32.799999237061</ele>
        <time>2022-07-17T09:15:07.000Z</time>
      </trkpt>
      <trkpt lat="47.2603" lon="-2.27557">
        <ele>32.799999237061</ele>
        <time>2022-07-17T09:15:09.000Z</time>
      </trkpt>
      <trkpt lat="47.26032" lon="-2.27564">
        <ele>33.200000762939</ele>
        <time>2022-07-17T09:15:10.000Z</time>
      </trkpt>
      <trkpt lat="47.26033" lon="-2.27572">
        <ele>33.599998474121</ele>
        <time>2022-07-17T09:15:11.000Z</time>
      </trkpt>
      <trkpt lat="47.26035" lon="-2.2758">
        <ele>34.200000762939</ele>
        <time>2022-07-17T09:15:12.000Z</time>
      </trkpt>
      <trkpt lat="47.26037" lon="-2.27588">
        <ele>34.599998474121</ele>
        <time>2022-07-17T09:15:13.000Z</time>
      </trkpt>
      <trkpt lat="47.26039" lon="-2.27595">
        <ele>35</ele>
        <time>2022-07-17T09:15:14.000Z</time>
      </trkpt>
      <trkpt lat="47.26041" lon="-2.27601">
        <ele>35</ele>
        <time>2022-07-17T09:15:15.000Z</time>
      </trkpt>
      <trkpt lat="47.26049" lon="-2.2761">
        <ele>35</ele>
        <time>2022-07-17T09:15:17.000Z</time>
      </trkpt>
      <trkpt lat="47.26062" lon="-2.27609">
        <ele>35</ele>
        <time>2022-07-17T09:15:20.000Z</time>
      </trkpt>
      <trkpt lat="47.26066" lon="-2.27607">
        <ele>35</ele>
        <time>2022-07-17T09:15:21.000Z</time>
      </trkpt>
      <trkpt lat="47.26089" lon="-2.27596">
        <ele>35</ele>
        <time>2022-07-17T09:15:26.000Z</time>
      </trkpt>
      <trkpt lat="47.26122" lon="-2.27581">
        <ele>35</ele>
        <time>2022-07-17T09:15:32.000Z</time>
      </trkpt>
      <trkpt lat="47.26128" lon="-2.27581">
        <ele>35</ele>
        <time>2022-07-17T09:15:33.000Z</time>
      </trkpt>
      <trkpt lat="47.26138" lon="-2.27588">
        <ele>35</ele>
        <time>2022-07-17T09:15:35.000Z</time>
      </trkpt>
      <trkpt lat="47.26147" lon="-2.27606">
        <ele>35</ele>
        <time>2022-07-17T09:15:38.000Z</time>
      </trkpt>
      <trkpt lat="47.26152" lon="-2.27644">
        <ele>35</ele>
        <time>2022-07-17T09:15:43.000Z</time>
      </trkpt>
      <trkpt lat="47.26154" lon="-2.27652">
        <ele>35</ele>
        <time>2022-07-17T09:15:44.000Z</time>
      </trkpt>
      <trkpt lat="47.26161" lon="-2.27683">
        <ele>35</ele>
        <time>2022-07-17T09:15:48.000Z</time>
      </trkpt>
      <trkpt lat="47.26166" lon="-2.27698">
        <ele>35</ele>
        <time>2022-07-17T09:15:50.000Z</time>
      </trkpt>
      <trkpt lat="47.26191" lon="-2.27777">
        <ele>35</ele>
        <time>2022-07-17T09:16:00.000Z</time>
      </trkpt>
      <trkpt lat="47.26209" lon="-2.27819">
        <ele>35</ele>
        <time>2022-07-17T09:16:06.000Z</time>
      </trkpt>
      <trkpt lat="47.26231" lon="-2.27864">
        <ele>35</ele>
        <time>2022-07-17T09:16:13.000Z</time>
      </trkpt>
      <trkpt lat="47.26257" lon="-2.27919">
        <ele>35</ele>
        <time>2022-07-17T09:16:22.000Z</time>
      </trkpt>
      <trkpt lat="47.26274" lon="-2.27954">
        <ele>35</ele>
        <time>2022-07-17T09:16:28.000Z</time>
      </trkpt>
      <trkpt lat="47.26282" lon="-2.2797">
        <ele>35</ele>
        <time>2022-07-17T09:16:31.000Z</time>
      </trkpt>
      <trkpt lat="47.2629" lon="-2.27976">
        <ele>35</ele>
        <time>2022-07-17T09:16:33.000Z</time>
      </trkpt>
      <trkpt lat="47.26293" lon="-2.2798">
        <ele>34.400001525879</ele>
        <time>2022-07-17T09:16:34.000Z</time>
      </trkpt>
      <trkpt lat="47.26295" lon="-2.27985">
        <ele>34</ele>
        <time>2022-07-17T09:16:35.000Z</time>
      </trkpt>
      <trkpt lat="47.26298" lon="-2.27991">
        <ele>33.599998474121</ele>
        <time>2022-07-17T09:16:36.000Z</time>
      </trkpt>
      <trkpt lat="47.263" lon="-2.27997">
        <ele>33.200000762939</ele>
        <time>2022-07-17T09:16:37.000Z</time>
      </trkpt>
      <trkpt lat="47.26302" lon="-2.28003">
        <ele>32.799999237061</ele>
        <time>2022-07-17T09:16:38.000Z</time>
      </trkpt>
      <trkpt lat="47.26312" lon="-2.28027">
        <ele>32.799999237061</ele>
        <time>2022-07-17T09:16:42.000Z</time>
      </trkpt>
      <trkpt lat="47.26314" lon="-2.28034">
        <ele>32.799999237061</ele>
        <time>2022-07-17T09:16:43.000Z</time>
      </trkpt>
      <trkpt lat="47.26325" lon="-2.28075">
        <ele>32.799999237061</ele>
        <time>2022-07-17T09:16:49.000Z</time>
      </trkpt>
      <trkpt lat="47.26333" lon="-2.28102">
        <ele>32.799999237061</ele>
        <time>2022-07-17T09:16:53.000Z</time>
      </trkpt>
      <trkpt lat="47.26335" lon="-2.28117">
        <ele>32.799999237061</ele>
        <time>2022-07-17T09:16:55.000Z</time>
      </trkpt>
      <trkpt lat="47.26338" lon="-2.28148">
        <ele>33.200000762939</ele>
        <time>2022-07-17T09:16:59.000Z</time>
      </trkpt>
      <trkpt lat="47.26339" lon="-2.28155">
        <ele>33.599998474121</ele>
        <time>2022-07-17T09:17:00.000Z</time>
      </trkpt>
      <trkpt lat="47.2634" lon="-2.28162">
        <ele>34</ele>
        <time>2022-07-17T09:17:01.000Z</time>
      </trkpt>
      <trkpt lat="47.26341" lon="-2.28169">
        <ele>34.400001525879</ele>
        <time>2022-07-17T09:17:02.000Z</time>
      </trkpt>
      <trkpt lat="47.26343" lon="-2.28176">
        <ele>34.799999237061</ele>
        <time>2022-07-17T09:17:03.000Z</time>
      </trkpt>
      <trkpt lat="47.26353" lon="-2.28226">
        <ele>34.799999237061</ele>
        <time>2022-07-17T09:17:10.000Z</time>
      </trkpt>
      <trkpt lat="47.26366" lon="-2.28277">
        <ele>34.799999237061</ele>
        <time>2022-07-17T09:17:17.000Z</time>
      </trkpt>
      <trkpt lat="47.26381" lon="-2.2832">
        <ele>34.799999237061</ele>
        <time>2022-07-17T09:17:23.000Z</time>
      </trkpt>
      <trkpt lat="47.26387" lon="-2.28335">
        <ele>34.799999237061</ele>
        <time>2022-07-17T09:17:25.000Z</time>
      </trkpt>
      <trkpt lat="47.26411" lon="-2.28391">
        <ele>34.799999237061</ele>
        <time>2022-07-17T09:17:33.000Z</time>
      </trkpt>
      <trkpt lat="47.26439" lon="-2.28447">
        <ele>34.799999237061</ele>
        <time>2022-07-17T09:17:42.000Z</time>
      </trkpt>
      <trkpt lat="47.26463" lon="-2.28498">
        <ele>34.799999237061</ele>
        <time>2022-07-17T09:17:49.000Z</time>
      </trkpt>
      <trkpt lat="47.26491" lon="-2.28556">
        <ele>34.799999237061</ele>
        <time>2022-07-17T09:17:57.000Z</time>
      </trkpt>
      <trkpt lat="47.26495" lon="-2.28572">
        <ele>34.799999237061</ele>
        <time>2022-07-17T09:17:59.000Z</time>
      </trkpt>
      <trkpt lat="47.26499" lon="-2.28585">
        <ele>34.400001525879</ele>
        <time>2022-07-17T09:18:01.000Z</time>
      </trkpt>
      <trkpt lat="47.26499" lon="-2.28592">
        <ele>34</ele>
        <time>2022-07-17T09:18:02.000Z</time>
      </trkpt>
      <trkpt lat="47.26499" lon="-2.28598">
        <ele>33.599998474121</ele>
        <time>2022-07-17T09:18:03.000Z</time>
      </trkpt>
      <trkpt lat="47.26499" lon="-2.28604">
        <ele>33.200000762939</ele>
        <time>2022-07-17T09:18:04.000Z</time>
      </trkpt>
      <trkpt lat="47.265" lon="-2.2861">
        <ele>32.799999237061</ele>
        <time>2022-07-17T09:18:05.000Z</time>
      </trkpt>
      <trkpt lat="47.26502" lon="-2.28616">
        <ele>32.799999237061</ele>
        <time>2022-07-17T09:18:06.000Z</time>
      </trkpt>
      <trkpt lat="47.26512" lon="-2.2863">
        <ele>32.799999237061</ele>
        <time>2022-07-17T09:18:09.000Z</time>
      </trkpt>
      <trkpt lat="47.26516" lon="-2.28634">
        <ele>32.799999237061</ele>
        <time>2022-07-17T09:18:10.000Z</time>
      </trkpt>
      <trkpt lat="47.26545" lon="-2.28674">
        <ele>32.799999237061</ele>
        <time>2022-07-17T09:18:17.000Z</time>
      </trkpt>
      <trkpt lat="47.26565" lon="-2.28694">
        <ele>32.400001525879</ele>
        <time>2022-07-17T09:18:21.000Z</time>
      </trkpt>
      <trkpt lat="47.26569" lon="-2.28698">
        <ele>32</ele>
        <time>2022-07-17T09:18:22.000Z</time>
      </trkpt>
      <trkpt lat="47.26573" lon="-2.28703">
        <ele>31.39999961853</ele>
        <time>2022-07-17T09:18:23.000Z</time>
      </trkpt>
      <trkpt lat="47.26577" lon="-2.28707">
        <ele>31</ele>
        <time>2022-07-17T09:18:24.000Z</time>
      </trkpt>
      <trkpt lat="47.26581" lon="-2.28711">
        <ele>30.60000038147</ele>
        <time>2022-07-17T09:18:25.000Z</time>
      </trkpt>
      <trkpt lat="47.26588" lon="-2.28718">
        <ele>30.60000038147</ele>
        <time>2022-07-17T09:18:27.000Z</time>
      </trkpt>
      <trkpt lat="47.26591" lon="-2.28721">
        <ele>30.60000038147</ele>
        <time>2022-07-17T09:18:28.000Z</time>
      </trkpt>
      <trkpt lat="47.26611" lon="-2.28741">
        <ele>30.60000038147</ele>
        <time>2022-07-17T09:18:33.000Z</time>
      </trkpt>
      <trkpt lat="47.2664" lon="-2.2877">
        <ele>30.60000038147</ele>
        <time>2022-07-17T09:18:39.000Z</time>
      </trkpt>
      <trkpt lat="47.26667" lon="-2.28801">
        <ele>30.60000038147</ele>
        <time>2022-07-17T09:18:44.000Z</time>
      </trkpt>
      <trkpt lat="47.26672" lon="-2.28808">
        <ele>30.60000038147</ele>
        <time>2022-07-17T09:18:45.000Z</time>
      </trkpt>
      <trkpt lat="47.26678" lon="-2.28814">
        <ele>30.200000762939</ele>
        <time>2022-07-17T09:18:46.000Z</time>
      </trkpt>
      <trkpt lat="47.26684" lon="-2.28819">
        <ele>29.799999237061</ele>
        <time>2022-07-17T09:18:47.000Z</time>
      </trkpt>
      <trkpt lat="47.2669" lon="-2.28824">
        <ele>29.39999961853</ele>
        <time>2022-07-17T09:18:48.000Z</time>
      </trkpt>
      <trkpt lat="47.26695" lon="-2.2883">
        <ele>29</ele>
        <time>2022-07-17T09:18:49.000Z</time>
      </trkpt>
      <trkpt lat="47.267" lon="-2.28834">
        <ele>28.60000038147</ele>
        <time>2022-07-17T09:18:50.000Z</time>
      </trkpt>
      <trkpt lat="47.26734" lon="-2.28862">
        <ele>28.60000038147</ele>
        <time>2022-07-17T09:18:56.000Z</time>
      </trkpt>
      <trkpt lat="47.26769" lon="-2.28896">
        <ele>28.60000038147</ele>
        <time>2022-07-17T09:19:03.000Z</time>
      </trkpt>
      <trkpt lat="47.26801" lon="-2.28914">
        <ele>28.60000038147</ele>
        <time>2022-07-17T09:19:08.000Z</time>
      </trkpt>
      <trkpt lat="47.26814" lon="-2.28921">
        <ele>28.200000762939</ele>
        <time>2022-07-17T09:19:10.000Z</time>
      </trkpt>
      <trkpt lat="47.26821" lon="-2.28925">
        <ele>27.60000038147</ele>
        <time>2022-07-17T09:19:11.000Z</time>
      </trkpt>
      <trkpt lat="47.26827" lon="-2.28929">
        <ele>27.200000762939</ele>
        <time>2022-07-17T09:19:12.000Z</time>
      </trkpt>
      <trkpt lat="47.26833" lon="-2.28932">
        <ele>26.799999237061</ele>
        <time>2022-07-17T09:19:13.000Z</time>
      </trkpt>
      <trkpt lat="47.26839" lon="-2.28936">
        <ele>26.39999961853</ele>
        <time>2022-07-17T09:19:14.000Z</time>
      </trkpt>
      <trkpt lat="47.26889" lon="-2.28963">
        <ele>26.39999961853</ele>
        <time>2022-07-17T09:19:22.000Z</time>
      </trkpt>
      <trkpt lat="47.26902" lon="-2.28968">
        <ele>26.39999961853</ele>
        <time>2022-07-17T09:19:24.000Z</time>
      </trkpt>
      <trkpt lat="47.26923" lon="-2.28978">
        <ele>26.39999961853</ele>
        <time>2022-07-17T09:19:27.000Z</time>
      </trkpt>
      <trkpt lat="47.2695" lon="-2.28989">
        <ele>26.39999961853</ele>
        <time>2022-07-17T09:19:31.000Z</time>
      </trkpt>
      <trkpt lat="47.26957" lon="-2.2899">
        <ele>26.39999961853</ele>
        <time>2022-07-17T09:19:32.000Z</time>
      </trkpt>
      <trkpt lat="47.26999" lon="-2.29002">
        <ele>26.39999961853</ele>
        <time>2022-07-17T09:19:38.000Z</time>
      </trkpt>
      <trkpt lat="47.27034" lon="-2.29016">
        <ele>26</ele>
        <time>2022-07-17T09:19:44.000Z</time>
      </trkpt>
      <trkpt lat="47.27039" lon="-2.2902">
        <ele>25.60000038147</ele>
        <time>2022-07-17T09:19:45.000Z</time>
      </trkpt>
      <trkpt lat="47.27043" lon="-2.29025">
        <ele>25.200000762939</ele>
        <time>2022-07-17T09:19:46.000Z</time>
      </trkpt>
      <trkpt lat="47.27047" lon="-2.29032">
        <ele>24.39999961853</ele>
        <time>2022-07-17T09:19:47.000Z</time>
      </trkpt>
      <trkpt lat="47.27049" lon="-2.29039">
        <ele>24.39999961853</ele>
        <time>2022-07-17T09:19:48.000Z</time>
      </trkpt>
      <trkpt lat="47.27054" lon="-2.29055">
        <ele>24.39999961853</ele>
        <time>2022-07-17T09:19:50.000Z</time>
      </trkpt>
      <trkpt lat="47.27063" lon="-2.29086">
        <ele>24.39999961853</ele>
        <time>2022-07-17T09:19:54.000Z</time>
      </trkpt>
      <trkpt lat="47.27073" lon="-2.29125">
        <ele>24.39999961853</ele>
        <time>2022-07-17T09:19:59.000Z</time>
      </trkpt>
      <trkpt lat="47.27085" lon="-2.29179">
        <ele>24.39999961853</ele>
        <time>2022-07-17T09:20:06.000Z</time>
      </trkpt>
      <trkpt lat="47.27096" lon="-2.29227">
        <ele>24.39999961853</ele>
        <time>2022-07-17T09:20:13.000Z</time>
      </trkpt>
      <trkpt lat="47.27097" lon="-2.29241">
        <ele>24.39999961853</ele>
        <time>2022-07-17T09:20:15.000Z</time>
      </trkpt>
      <trkpt lat="47.27097" lon="-2.29262">
        <ele>24.39999961853</ele>
        <time>2022-07-17T09:20:18.000Z</time>
      </trkpt>
      <trkpt lat="47.27099" lon="-2.2927">
        <ele>24.39999961853</ele>
        <time>2022-07-17T09:20:20.000Z</time>
      </trkpt>
      <trkpt lat="47.271" lon="-2.2927">
        <ele>24.39999961853</ele>
        <time>2022-07-17T09:20:21.000Z</time>
      </trkpt>
      <trkpt lat="47.2711" lon="-2.2928">
        <ele>24.39999961853</ele>
        <time>2022-07-17T09:20:25.000Z</time>
      </trkpt>
      <trkpt lat="47.27123" lon="-2.29287">
        <ele>24.39999961853</ele>
        <time>2022-07-17T09:20:28.000Z</time>
      </trkpt>
      <trkpt lat="47.27127" lon="-2.29289">
        <ele>24.39999961853</ele>
        <time>2022-07-17T09:20:29.000Z</time>
      </trkpt>
      <trkpt lat="47.2715" lon="-2.293">
        <ele>24.39999961853</ele>
        <time>2022-07-17T09:20:34.000Z</time>
      </trkpt>
      <trkpt lat="47.27154" lon="-2.29304">
        <ele>24.39999961853</ele>
        <time>2022-07-17T09:20:35.000Z</time>
      </trkpt>
      <trkpt lat="47.27161" lon="-2.29313">
        <ele>24.39999961853</ele>
        <time>2022-07-17T09:20:37.000Z</time>
      </trkpt>
      <trkpt lat="47.27173" lon="-2.2933">
        <ele>24.39999961853</ele>
        <time>2022-07-17T09:20:40.000Z</time>
      </trkpt>
      <trkpt lat="47.2719" lon="-2.29355">
        <ele>24.39999961853</ele>
        <time>2022-07-17T09:20:44.000Z</time>
      </trkpt>
      <trkpt lat="47.27194" lon="-2.29366">
        <ele>24.39999961853</ele>
        <time>2022-07-17T09:20:45.000Z</time>
      </trkpt>
      <trkpt lat="47.27203" lon="-2.29396">
        <ele>24.39999961853</ele>
        <time>2022-07-17T09:20:48.000Z</time>
      </trkpt>
      <trkpt lat="47.27212" lon="-2.29427">
        <ele>24.39999961853</ele>
        <time>2022-07-17T09:20:51.000Z</time>
      </trkpt>
      <trkpt lat="47.27233" lon="-2.295">
        <ele>24.39999961853</ele>
        <time>2022-07-17T09:20:59.000Z</time>
      </trkpt>
      <trkpt lat="47.27246" lon="-2.29547">
        <ele>24.39999961853</ele>
        <time>2022-07-17T09:21:05.000Z</time>
      </trkpt>
      <trkpt lat="47.27242" lon="-2.29569">
        <ele>24.39999961853</ele>
        <time>2022-07-17T09:21:08.000Z</time>
      </trkpt>
      <trkpt lat="47.27226" lon="-2.29581">
        <ele>24.39999961853</ele>
        <time>2022-07-17T09:21:11.000Z</time>
      </trkpt>
      <trkpt lat="47.2721" lon="-2.29594">
        <ele>24.39999961853</ele>
        <time>2022-07-17T09:21:14.000Z</time>
      </trkpt>
      <trkpt lat="47.27204" lon="-2.29599">
        <ele>24.39999961853</ele>
        <time>2022-07-17T09:21:15.000Z</time>
      </trkpt>
      <trkpt lat="47.27193" lon="-2.29608">
        <ele>24.39999961853</ele>
        <time>2022-07-17T09:21:17.000Z</time>
      </trkpt>
      <trkpt lat="47.27177" lon="-2.29621">
        <ele>24.39999961853</ele>
        <time>2022-07-17T09:21:20.000Z</time>
      </trkpt>
      <trkpt lat="47.27172" lon="-2.29625">
        <ele>24.799999237061</ele>
        <time>2022-07-17T09:21:21.000Z</time>
      </trkpt>
      <trkpt lat="47.27166" lon="-2.29629">
        <ele>25.200000762939</ele>
        <time>2022-07-17T09:21:22.000Z</time>
      </trkpt>
      <trkpt lat="47.2716" lon="-2.29633">
        <ele>25.60000038147</ele>
        <time>2022-07-17T09:21:23.000Z</time>
      </trkpt>
      <trkpt lat="47.27155" lon="-2.29636">
        <ele>26.200000762939</ele>
        <time>2022-07-17T09:21:24.000Z</time>
      </trkpt>
      <trkpt lat="47.27149" lon="-2.29638">
        <ele>26.60000038147</ele>
        <time>2022-07-17T09:21:25.000Z</time>
      </trkpt>
      <trkpt lat="47.2712" lon="-2.29645">
        <ele>26.60000038147</ele>
        <time>2022-07-17T09:21:31.000Z</time>
      </trkpt>
      <trkpt lat="47.27116" lon="-2.29662">
        <ele>26.60000038147</ele>
        <time>2022-07-17T09:21:34.000Z</time>
      </trkpt>
      <trkpt lat="47.27116" lon="-2.29669">
        <ele>26.60000038147</ele>
        <time>2022-07-17T09:21:35.000Z</time>
      </trkpt>
      <trkpt lat="47.27117" lon="-2.29684">
        <ele>26.60000038147</ele>
        <time>2022-07-17T09:21:37.000Z</time>
      </trkpt>
      <trkpt lat="47.27117" lon="-2.29701">
        <ele>26.60000038147</ele>
        <time>2022-07-17T09:21:39.000Z</time>
      </trkpt>
      <trkpt lat="47.27113" lon="-2.2976">
        <ele>26.60000038147</ele>
        <time>2022-07-17T09:21:46.000Z</time>
      </trkpt>
      <trkpt lat="47.27112" lon="-2.29822">
        <ele>26.60000038147</ele>
        <time>2022-07-17T09:21:53.000Z</time>
      </trkpt>
      <trkpt lat="47.27103" lon="-2.29864">
        <ele>26.60000038147</ele>
        <time>2022-07-17T09:21:58.000Z</time>
      </trkpt>
      <trkpt lat="47.271" lon="-2.29872">
        <ele>26.60000038147</ele>
        <time>2022-07-17T09:21:59.000Z</time>
      </trkpt>
      <trkpt lat="47.27094" lon="-2.2989">
        <ele>26.60000038147</ele>
        <time>2022-07-17T09:22:01.000Z</time>
      </trkpt>
      <trkpt lat="47.27084" lon="-2.29905">
        <ele>26.60000038147</ele>
        <time>2022-07-17T09:22:03.000Z</time>
      </trkpt>
      <trkpt lat="47.27074" lon="-2.29916">
        <ele>26.60000038147</ele>
        <time>2022-07-17T09:22:05.000Z</time>
      </trkpt>
      <trkpt lat="47.27063" lon="-2.29929">
        <ele>26.60000038147</ele>
        <time>2022-07-17T09:22:07.000Z</time>
      </trkpt>
      <trkpt lat="47.27059" lon="-2.29935">
        <ele>26.60000038147</ele>
        <time>2022-07-17T09:22:08.000Z</time>
      </trkpt>
      <trkpt lat="47.27047" lon="-2.29957">
        <ele>26.60000038147</ele>
        <time>2022-07-17T09:22:11.000Z</time>
      </trkpt>
      <trkpt lat="47.27031" lon="-2.29993">
        <ele>26.60000038147</ele>
        <time>2022-07-17T09:22:16.000Z</time>
      </trkpt>
      <trkpt lat="47.27027" lon="-2.30002">
        <ele>26.60000038147</ele>
        <time>2022-07-17T09:22:17.000Z</time>
      </trkpt>
      <trkpt lat="47.27015" lon="-2.30041">
        <ele>26.60000038147</ele>
        <time>2022-07-17T09:22:22.000Z</time>
      </trkpt>
      <trkpt lat="47.27012" lon="-2.30054">
        <ele>26.60000038147</ele>
        <time>2022-07-17T09:22:24.000Z</time>
      </trkpt>
      <trkpt lat="47.27014" lon="-2.30059">
        <ele>26.60000038147</ele>
        <time>2022-07-17T09:22:25.000Z</time>
      </trkpt>
      <trkpt lat="47.27021" lon="-2.30059">
        <ele>26.60000038147</ele>
        <time>2022-07-17T09:22:27.000Z</time>
      </trkpt>
      <trkpt lat="47.27025" lon="-2.30058">
        <ele>26.60000038147</ele>
        <time>2022-07-17T09:22:28.000Z</time>
      </trkpt>
      <trkpt lat="47.27029" lon="-2.30058">
        <ele>26.60000038147</ele>
        <time>2022-07-17T09:22:29.000Z</time>
      </trkpt>
      <trkpt lat="47.27044" lon="-2.30058">
        <ele>26.60000038147</ele>
        <time>2022-07-17T09:22:32.000Z</time>
      </trkpt>
      <trkpt lat="47.27065" lon="-2.30063">
        <ele>26.60000038147</ele>
        <time>2022-07-17T09:22:36.000Z</time>
      </trkpt>
      <trkpt lat="47.27075" lon="-2.30069">
        <ele>26.60000038147</ele>
        <time>2022-07-17T09:22:38.000Z</time>
      </trkpt>
      <trkpt lat="47.27096" lon="-2.3009">
        <ele>26.60000038147</ele>
        <time>2022-07-17T09:22:43.000Z</time>
      </trkpt>
      <trkpt lat="47.27107" lon="-2.30096">
        <ele>26.200000762939</ele>
        <time>2022-07-17T09:22:45.000Z</time>
      </trkpt>
      <trkpt lat="47.27114" lon="-2.30098">
        <ele>25.60000038147</ele>
        <time>2022-07-17T09:22:46.000Z</time>
      </trkpt>
      <trkpt lat="47.27121" lon="-2.301">
        <ele>25.200000762939</ele>
        <time>2022-07-17T09:22:47.000Z</time>
      </trkpt>
      <trkpt lat="47.27127" lon="-2.30102">
        <ele>24.799999237061</ele>
        <time>2022-07-17T09:22:48.000Z</time>
      </trkpt>
      <trkpt lat="47.27134" lon="-2.30103">
        <ele>24.39999961853</ele>
        <time>2022-07-17T09:22:49.000Z</time>
      </trkpt>
      <trkpt lat="47.27147" lon="-2.30106">
        <ele>24.39999961853</ele>
        <time>2022-07-17T09:22:51.000Z</time>
      </trkpt>
      <trkpt lat="47.27152" lon="-2.3011">
        <ele>24.39999961853</ele>
        <time>2022-07-17T09:22:52.000Z</time>
      </trkpt>
      <trkpt lat="47.2716" lon="-2.30127">
        <ele>24.39999961853</ele>
        <time>2022-07-17T09:22:55.000Z</time>
      </trkpt>
      <trkpt lat="47.2716" lon="-2.30134">
        <ele>24</ele>
        <time>2022-07-17T09:22:56.000Z</time>
      </trkpt>
      <trkpt lat="47.2716" lon="-2.30141">
        <ele>23.60000038147</ele>
        <time>2022-07-17T09:22:57.000Z</time>
      </trkpt>
      <trkpt lat="47.2716" lon="-2.30149">
        <ele>23.200000762939</ele>
        <time>2022-07-17T09:22:58.000Z</time>
      </trkpt>
      <trkpt lat="47.27159" lon="-2.30158">
        <ele>22.799999237061</ele>
        <time>2022-07-17T09:22:59.000Z</time>
      </trkpt>
      <trkpt lat="47.27159" lon="-2.3017">
        <ele>22.200000762939</ele>
        <time>2022-07-17T09:23:00.000Z</time>
      </trkpt>
      <trkpt lat="47.27159" lon="-2.30193">
        <ele>21.799999237061</ele>
        <time>2022-07-17T09:23:02.000Z</time>
      </trkpt>
      <trkpt lat="47.27159" lon="-2.30203">
        <ele>21.39999961853</ele>
        <time>2022-07-17T09:23:03.000Z</time>
      </trkpt>
      <trkpt lat="47.27159" lon="-2.3021">
        <ele>21</ele>
        <time>2022-07-17T09:23:04.000Z</time>
      </trkpt>
      <trkpt lat="47.27158" lon="-2.30215">
        <ele>20.200000762939</ele>
        <time>2022-07-17T09:23:05.000Z</time>
      </trkpt>
      <trkpt lat="47.27155" lon="-2.3022">
        <ele>20.200000762939</ele>
        <time>2022-07-17T09:23:07.000Z</time>
      </trkpt>
      <trkpt lat="47.27153" lon="-2.30222">
        <ele>20.200000762939</ele>
        <time>2022-07-17T09:23:09.000Z</time>
      </trkpt>
      <trkpt lat="47.2715" lon="-2.30225">
        <ele>20.200000762939</ele>
        <time>2022-07-17T09:23:12.000Z</time>
      </trkpt>
      <trkpt lat="47.27141" lon="-2.30231">
        <ele>20.200000762939</ele>
        <time>2022-07-17T09:23:17.000Z</time>
      </trkpt>
      <trkpt lat="47.27142" lon="-2.30236">
        <ele>20.200000762939</ele>
        <time>2022-07-17T09:23:23.000Z</time>
      </trkpt>
      <trkpt lat="47.27145" lon="-2.30238">
        <ele>20.200000762939</ele>
        <time>2022-07-17T09:23:27.000Z</time>
      </trkpt>
      <trkpt lat="47.27149" lon="-2.30237">
        <ele>20.200000762939</ele>
        <time>2022-07-17T09:23:29.000Z</time>
      </trkpt>
      <trkpt lat="47.27153" lon="-2.30236">
        <ele>20.200000762939</ele>
        <time>2022-07-17T09:23:32.000Z</time>
      </trkpt>
      <trkpt lat="47.27157" lon="-2.30241">
        <ele>20.200000762939</ele>
        <time>2022-07-17T09:23:35.000Z</time>
      </trkpt>
      <trkpt lat="47.27168" lon="-2.30251">
        <ele>20.200000762939</ele>
        <time>2022-07-17T09:23:40.000Z</time>
      </trkpt>
      <trkpt lat="47.27182" lon="-2.30253">
        <ele>20.200000762939</ele>
        <time>2022-07-17T09:23:44.000Z</time>
      </trkpt>
      <trkpt lat="47.27204" lon="-2.30253">
        <ele>20.200000762939</ele>
        <time>2022-07-17T09:23:49.000Z</time>
      </trkpt>
      <trkpt lat="47.27216" lon="-2.30257">
        <ele>19.799999237061</ele>
        <time>2022-07-17T09:23:52.000Z</time>
      </trkpt>
      <trkpt lat="47.2722" lon="-2.30259">
        <ele>19.39999961853</ele>
        <time>2022-07-17T09:23:53.000Z</time>
      </trkpt>
      <trkpt lat="47.27223" lon="-2.30261">
        <ele>18.60000038147</ele>
        <time>2022-07-17T09:23:54.000Z</time>
      </trkpt>
      <trkpt lat="47.27226" lon="-2.30262">
        <ele>18.200000762939</ele>
        <time>2022-07-17T09:23:55.000Z</time>
      </trkpt>
      <trkpt lat="47.27248" lon="-2.30259">
        <ele>18.200000762939</ele>
        <time>2022-07-17T09:24:00.000Z</time>
      </trkpt>
      <trkpt lat="47.27253" lon="-2.3026">
        <ele>18.200000762939</ele>
        <time>2022-07-17T09:24:01.000Z</time>
      </trkpt>
      <trkpt lat="47.27284" lon="-2.30258">
        <ele>18.200000762939</ele>
        <time>2022-07-17T09:24:06.000Z</time>
      </trkpt>
      <trkpt lat="47.27302" lon="-2.30256">
        <ele>18.200000762939</ele>
        <time>2022-07-17T09:24:09.000Z</time>
      </trkpt>
      <trkpt lat="47.27313" lon="-2.30257">
        <ele>18.200000762939</ele>
        <time>2022-07-17T09:24:11.000Z</time>
      </trkpt>
      <trkpt lat="47.27334" lon="-2.30254">
        <ele>18.200000762939</ele>
        <time>2022-07-17T09:24:15.000Z</time>
      </trkpt>
      <trkpt lat="47.27339" lon="-2.30254">
        <ele>18.60000038147</ele>
        <time>2022-07-17T09:24:16.000Z</time>
      </trkpt>
      <trkpt lat="47.27344" lon="-2.30254">
        <ele>19</ele>
        <time>2022-07-17T09:24:17.000Z</time>
      </trkpt>
      <trkpt lat="47.2735" lon="-2.30254">
        <ele>19.39999961853</ele>
        <time>2022-07-17T09:24:18.000Z</time>
      </trkpt>
      <trkpt lat="47.27355" lon="-2.30253">
        <ele>20.200000762939</ele>
        <time>2022-07-17T09:24:19.000Z</time>
      </trkpt>
      <trkpt lat="47.27366" lon="-2.30252">
        <ele>20.200000762939</ele>
        <time>2022-07-17T09:24:21.000Z</time>
      </trkpt>
      <trkpt lat="47.27372" lon="-2.30251">
        <ele>20.200000762939</ele>
        <time>2022-07-17T09:24:22.000Z</time>
      </trkpt>
      <trkpt lat="47.27392" lon="-2.30243">
        <ele>20.200000762939</ele>
        <time>2022-07-17T09:24:26.000Z</time>
      </trkpt>
      <trkpt lat="47.27403" lon="-2.30237">
        <ele>20.200000762939</ele>
        <time>2022-07-17T09:24:28.000Z</time>
      </trkpt>
      <trkpt lat="47.27433" lon="-2.30222">
        <ele>20.200000762939</ele>
        <time>2022-07-17T09:24:34.000Z</time>
      </trkpt>
      <trkpt lat="47.27443" lon="-2.30219">
        <ele>20.200000762939</ele>
        <time>2022-07-17T09:24:36.000Z</time>
      </trkpt>
      <trkpt lat="47.27456" lon="-2.30218">
        <ele>20.200000762939</ele>
        <time>2022-07-17T09:24:39.000Z</time>
      </trkpt>
      <trkpt lat="47.27464" lon="-2.30235">
        <ele>20.200000762939</ele>
        <time>2022-07-17T09:24:42.000Z</time>
      </trkpt>
      <trkpt lat="47.27466" lon="-2.30243">
        <ele>20.200000762939</ele>
        <time>2022-07-17T09:24:43.000Z</time>
      </trkpt>
      <trkpt lat="47.27472" lon="-2.30267">
        <ele>20.200000762939</ele>
        <time>2022-07-17T09:24:46.000Z</time>
      </trkpt>
      <trkpt lat="47.27475" lon="-2.30284">
        <ele>20.200000762939</ele>
        <time>2022-07-17T09:24:48.000Z</time>
      </trkpt>
      <trkpt lat="47.27482" lon="-2.30319">
        <ele>19.799999237061</ele>
        <time>2022-07-17T09:24:52.000Z</time>
      </trkpt>
      <trkpt lat="47.27484" lon="-2.30329">
        <ele>19.39999961853</ele>
        <time>2022-07-17T09:24:53.000Z</time>
      </trkpt>
      <trkpt lat="47.27486" lon="-2.30339">
        <ele>19</ele>
        <time>2022-07-17T09:24:54.000Z</time>
      </trkpt>
      <trkpt lat="47.27488" lon="-2.30349">
        <ele>18.60000038147</ele>
        <time>2022-07-17T09:24:55.000Z</time>
      </trkpt>
      <trkpt lat="47.2749" lon="-2.3036">
        <ele>18.200000762939</ele>
        <time>2022-07-17T09:24:56.000Z</time>
      </trkpt>
      <trkpt lat="47.27498" lon="-2.30392">
        <ele>17.60000038147</ele>
        <time>2022-07-17T09:24:59.000Z</time>
      </trkpt>
      <trkpt lat="47.275" lon="-2.30402">
        <ele>17.200000762939</ele>
        <time>2022-07-17T09:25:00.000Z</time>
      </trkpt>
      <trkpt lat="47.27502" lon="-2.30413">
        <ele>16.799999237061</ele>
        <time>2022-07-17T09:25:01.000Z</time>
      </trkpt>
      <trkpt lat="47.27502" lon="-2.30422">
        <ele>16.39999961853</ele>
        <time>2022-07-17T09:25:02.000Z</time>
      </trkpt>
      <trkpt lat="47.27502" lon="-2.30428">
        <ele>16</ele>
        <time>2022-07-17T09:25:03.000Z</time>
      </trkpt>
      <trkpt lat="47.27499" lon="-2.30434">
        <ele>16</ele>
        <time>2022-07-17T09:25:04.000Z</time>
      </trkpt>
      <trkpt lat="47.27488" lon="-2.30443">
        <ele>16</ele>
        <time>2022-07-17T09:25:07.000Z</time>
      </trkpt>
      <trkpt lat="47.27473" lon="-2.30446">
        <ele>16</ele>
        <time>2022-07-17T09:25:10.000Z</time>
      </trkpt>
      <trkpt lat="47.27468" lon="-2.30448">
        <ele>16</ele>
        <time>2022-07-17T09:25:11.000Z</time>
      </trkpt>
      <trkpt lat="47.27453" lon="-2.30451">
        <ele>16</ele>
        <time>2022-07-17T09:25:14.000Z</time>
      </trkpt>
      <trkpt lat="47.27443" lon="-2.30451">
        <ele>16</ele>
        <time>2022-07-17T09:25:16.000Z</time>
      </trkpt>
      <trkpt lat="47.27424" lon="-2.30455">
        <ele>16</ele>
        <time>2022-07-17T09:25:21.000Z</time>
      </trkpt>
      <trkpt lat="47.27417" lon="-2.30464">
        <ele>16</ele>
        <time>2022-07-17T09:25:26.000Z</time>
      </trkpt>
      <trkpt lat="47.27416" lon="-2.30465">
        <ele>16</ele>
        <time>2022-07-17T09:25:27.000Z</time>
      </trkpt>
      <trkpt lat="47.27414" lon="-2.30464">
        <ele>16</ele>
        <time>2022-07-17T09:25:30.000Z</time>
      </trkpt>
      <trkpt lat="47.27409" lon="-2.3047">
        <ele>15.60000038147</ele>
        <time>2022-07-17T09:25:33.000Z</time>
      </trkpt>
      <trkpt lat="47.27405" lon="-2.30475">
        <ele>15.199999809265</ele>
        <time>2022-07-17T09:25:34.000Z</time>
      </trkpt>
      <trkpt lat="47.27401" lon="-2.3048">
        <ele>14.800000190735</ele>
        <time>2022-07-17T09:25:35.000Z</time>
      </trkpt>
      <trkpt lat="47.27397" lon="-2.30482">
        <ele>14.199999809265</ele>
        <time>2022-07-17T09:25:36.000Z</time>
      </trkpt>
      <trkpt lat="47.27393" lon="-2.30484">
        <ele>13.800000190735</ele>
        <time>2022-07-17T09:25:37.000Z</time>
      </trkpt>
      <trkpt lat="47.27389" lon="-2.30487">
        <ele>13.800000190735</ele>
        <time>2022-07-17T09:25:38.000Z</time>
      </trkpt>
      <trkpt lat="47.2738" lon="-2.30493">
        <ele>13.800000190735</ele>
        <time>2022-07-17T09:25:40.000Z</time>
      </trkpt>
      <trkpt lat="47.2737" lon="-2.30499">
        <ele>13.800000190735</ele>
        <time>2022-07-17T09:25:42.000Z</time>
      </trkpt>
      <trkpt lat="47.27365" lon="-2.30502">
        <ele>13.800000190735</ele>
        <time>2022-07-17T09:25:43.000Z</time>
      </trkpt>
      <trkpt lat="47.2736" lon="-2.30506">
        <ele>13.800000190735</ele>
        <time>2022-07-17T09:25:44.000Z</time>
      </trkpt>
      <trkpt lat="47.27348" lon="-2.30512">
        <ele>13.800000190735</ele>
        <time>2022-07-17T09:25:47.000Z</time>
      </trkpt>
      <trkpt lat="47.27343" lon="-2.30512">
        <ele>13.800000190735</ele>
        <time>2022-07-17T09:25:48.000Z</time>
      </trkpt>
      <trkpt lat="47.27334" lon="-2.30514">
        <ele>13.800000190735</ele>
        <time>2022-07-17T09:25:50.000Z</time>
      </trkpt>
      <trkpt lat="47.27316" lon="-2.30522">
        <ele>13.800000190735</ele>
        <time>2022-07-17T09:25:54.000Z</time>
      </trkpt>
      <trkpt lat="47.27304" lon="-2.30533">
        <ele>13.800000190735</ele>
        <time>2022-07-17T09:25:57.000Z</time>
      </trkpt>
      <trkpt lat="47.273" lon="-2.30535">
        <ele>13.800000190735</ele>
        <time>2022-07-17T09:25:58.000Z</time>
      </trkpt>
      <trkpt lat="47.27283" lon="-2.30543">
        <ele>13.800000190735</ele>
        <time>2022-07-17T09:26:02.000Z</time>
      </trkpt>
      <trkpt lat="47.27266" lon="-2.30547">
        <ele>13.800000190735</ele>
        <time>2022-07-17T09:26:06.000Z</time>
      </trkpt>
      <trkpt lat="47.27249" lon="-2.30545">
        <ele>13.800000190735</ele>
        <time>2022-07-17T09:26:11.000Z</time>
      </trkpt>
      <trkpt lat="47.27246" lon="-2.30546">
        <ele>13.800000190735</ele>
        <time>2022-07-17T09:26:12.000Z</time>
      </trkpt>
      <trkpt lat="47.27236" lon="-2.30548">
        <ele>13.800000190735</ele>
        <time>2022-07-17T09:26:15.000Z</time>
      </trkpt>
      <trkpt lat="47.27231" lon="-2.30547">
        <ele>13.800000190735</ele>
        <time>2022-07-17T09:26:16.000Z</time>
      </trkpt>
      <trkpt lat="47.27225" lon="-2.3055">
        <ele>13.800000190735</ele>
        <time>2022-07-17T09:26:18.000Z</time>
      </trkpt>
      <trkpt lat="47.27217" lon="-2.30547">
        <ele>13.800000190735</ele>
        <time>2022-07-17T09:26:21.000Z</time>
      </trkpt>
      <trkpt lat="47.27214" lon="-2.30546">
        <ele>13.800000190735</ele>
        <time>2022-07-17T09:26:22.000Z</time>
      </trkpt>
      <trkpt lat="47.27199" lon="-2.30542">
        <ele>13.800000190735</ele>
        <time>2022-07-17T09:26:27.000Z</time>
      </trkpt>
      <trkpt lat="47.27192" lon="-2.30539">
        <ele>14.199999809265</ele>
        <time>2022-07-17T09:26:30.000Z</time>
      </trkpt>
      <trkpt lat="47.27189" lon="-2.30538">
        <ele>14.800000190735</ele>
        <time>2022-07-17T09:26:31.000Z</time>
      </trkpt>
      <trkpt lat="47.27186" lon="-2.30538">
        <ele>15.199999809265</ele>
        <time>2022-07-17T09:26:32.000Z</time>
      </trkpt>
      <trkpt lat="47.27181" lon="-2.30536">
        <ele>15.60000038147</ele>
        <time>2022-07-17T09:26:33.000Z</time>
      </trkpt>
      <trkpt lat="47.27177" lon="-2.30534">
        <ele>16</ele>
        <time>2022-07-17T09:26:34.000Z</time>
      </trkpt>
      <trkpt lat="47.27163" lon="-2.30523">
        <ele>16</ele>
        <time>2022-07-17T09:26:38.000Z</time>
      </trkpt>
      <trkpt lat="47.27141" lon="-2.30507">
        <ele>16</ele>
        <time>2022-07-17T09:26:44.000Z</time>
      </trkpt>
      <trkpt lat="47.27127" lon="-2.30501">
        <ele>16.799999237061</ele>
        <time>2022-07-17T09:26:47.000Z</time>
      </trkpt>
      <trkpt lat="47.27123" lon="-2.30499">
        <ele>17.200000762939</ele>
        <time>2022-07-17T09:26:48.000Z</time>
      </trkpt>
      <trkpt lat="47.2712" lon="-2.30498">
        <ele>17.799999237061</ele>
        <time>2022-07-17T09:26:49.000Z</time>
      </trkpt>
      <trkpt lat="47.27116" lon="-2.30496">
        <ele>18.200000762939</ele>
        <time>2022-07-17T09:26:50.000Z</time>
      </trkpt>
      <trkpt lat="47.27107" lon="-2.30491">
        <ele>18.200000762939</ele>
        <time>2022-07-17T09:26:53.000Z</time>
      </trkpt>
      <trkpt lat="47.27103" lon="-2.30491">
        <ele>18.200000762939</ele>
        <time>2022-07-17T09:26:54.000Z</time>
      </trkpt>
      <trkpt lat="47.27099" lon="-2.3049">
        <ele>18.200000762939</ele>
        <time>2022-07-17T09:26:56.000Z</time>
      </trkpt>
      <trkpt lat="47.27097" lon="-2.3049">
        <ele>18.200000762939</ele>
        <time>2022-07-17T09:26:57.000Z</time>
      </trkpt>
      <trkpt lat="47.27084" lon="-2.30488">
        <ele>18.200000762939</ele>
        <time>2022-07-17T09:27:01.000Z</time>
      </trkpt>
      <trkpt lat="47.27068" lon="-2.30484">
        <ele>18.200000762939</ele>
        <time>2022-07-17T09:27:05.000Z</time>
      </trkpt>
      <trkpt lat="47.27061" lon="-2.30481">
        <ele>18.60000038147</ele>
        <time>2022-07-17T09:27:07.000Z</time>
      </trkpt>
      <trkpt lat="47.27057" lon="-2.30479">
        <ele>19</ele>
        <time>2022-07-17T09:27:08.000Z</time>
      </trkpt>
      <trkpt lat="47.27054" lon="-2.30476">
        <ele>19.39999961853</ele>
        <time>2022-07-17T09:27:09.000Z</time>
      </trkpt>
      <trkpt lat="47.27051" lon="-2.30474">
        <ele>19.799999237061</ele>
        <time>2022-07-17T09:27:10.000Z</time>
      </trkpt>
      <trkpt lat="47.27048" lon="-2.30474">
        <ele>20.200000762939</ele>
        <time>2022-07-17T09:27:11.000Z</time>
      </trkpt>
      <trkpt lat="47.27044" lon="-2.30479">
        <ele>20.200000762939</ele>
        <time>2022-07-17T09:27:13.000Z</time>
      </trkpt>
      <trkpt lat="47.2704" lon="-2.30487">
        <ele>20.200000762939</ele>
        <time>2022-07-17T09:27:15.000Z</time>
      </trkpt>
      <trkpt lat="47.27037" lon="-2.30498">
        <ele>20.200000762939</ele>
        <time>2022-07-17T09:27:17.000Z</time>
      </trkpt>
      <trkpt lat="47.27035" lon="-2.30505">
        <ele>20.200000762939</ele>
        <time>2022-07-17T09:27:18.000Z</time>
      </trkpt>
      <trkpt lat="47.27027" lon="-2.30533">
        <ele>20.200000762939</ele>
        <time>2022-07-17T09:27:23.000Z</time>
      </trkpt>
      <trkpt lat="47.27024" lon="-2.30545">
        <ele>20.200000762939</ele>
        <time>2022-07-17T09:27:25.000Z</time>
      </trkpt>
      <trkpt lat="47.27018" lon="-2.30564">
        <ele>20.200000762939</ele>
        <time>2022-07-17T09:27:28.000Z</time>
      </trkpt>
      <trkpt lat="47.27009" lon="-2.3059">
        <ele>20.200000762939</ele>
        <time>2022-07-17T09:27:32.000Z</time>
      </trkpt>
      <trkpt lat="47.27001" lon="-2.30599">
        <ele>20.200000762939</ele>
        <time>2022-07-17T09:27:34.000Z</time>
      </trkpt>
      <trkpt lat="47.26991" lon="-2.30606">
        <ele>20.200000762939</ele>
        <time>2022-07-17T09:27:36.000Z</time>
      </trkpt>
      <trkpt lat="47.26977" lon="-2.30614">
        <ele>20.200000762939</ele>
        <time>2022-07-17T09:27:39.000Z</time>
      </trkpt>
      <trkpt lat="47.26962" lon="-2.30621">
        <ele>20.60000038147</ele>
        <time>2022-07-17T09:27:42.000Z</time>
      </trkpt>
      <trkpt lat="47.26957" lon="-2.30623">
        <ele>21</ele>
        <time>2022-07-17T09:27:43.000Z</time>
      </trkpt>
      <trkpt lat="47.26953" lon="-2.30625">
        <ele>21.39999961853</ele>
        <time>2022-07-17T09:27:44.000Z</time>
      </trkpt>
      <trkpt lat="47.26949" lon="-2.30627">
        <ele>22</ele>
        <time>2022-07-17T09:27:45.000Z</time>
      </trkpt>
      <trkpt lat="47.26945" lon="-2.3063">
        <ele>22.39999961853</ele>
        <time>2022-07-17T09:27:46.000Z</time>
      </trkpt>
      <trkpt lat="47.26932" lon="-2.30635">
        <ele>22.39999961853</ele>
        <time>2022-07-17T09:27:49.000Z</time>
      </trkpt>
      <trkpt lat="47.26922" lon="-2.30638">
        <ele>22.39999961853</ele>
        <time>2022-07-17T09:27:52.000Z</time>
      </trkpt>
      <trkpt lat="47.26903" lon="-2.30655">
        <ele>22.39999961853</ele>
        <time>2022-07-17T09:27:58.000Z</time>
      </trkpt>
      <trkpt lat="47.26889" lon="-2.3067">
        <ele>22.39999961853</ele>
        <time>2022-07-17T09:28:02.000Z</time>
      </trkpt>
      <trkpt lat="47.26882" lon="-2.30678">
        <ele>22.39999961853</ele>
        <time>2022-07-17T09:28:04.000Z</time>
      </trkpt>
      <trkpt lat="47.26875" lon="-2.30688">
        <ele>22.39999961853</ele>
        <time>2022-07-17T09:28:06.000Z</time>
      </trkpt>
      <trkpt lat="47.26863" lon="-2.30711">
        <ele>22.39999961853</ele>
        <time>2022-07-17T09:28:10.000Z</time>
      </trkpt>
      <trkpt lat="47.26855" lon="-2.3073">
        <ele>22.799999237061</ele>
        <time>2022-07-17T09:28:13.000Z</time>
      </trkpt>
      <trkpt lat="47.26852" lon="-2.30736">
        <ele>23.200000762939</ele>
        <time>2022-07-17T09:28:14.000Z</time>
      </trkpt>
      <trkpt lat="47.2685" lon="-2.30742">
        <ele>23.60000038147</ele>
        <time>2022-07-17T09:28:15.000Z</time>
      </trkpt>
      <trkpt lat="47.26848" lon="-2.30749">
        <ele>24</ele>
        <time>2022-07-17T09:28:16.000Z</time>
      </trkpt>
      <trkpt lat="47.26845" lon="-2.30755">
        <ele>24.39999961853</ele>
        <time>2022-07-17T09:28:17.000Z</time>
      </trkpt>
      <trkpt lat="47.2683" lon="-2.30788">
        <ele>24.39999961853</ele>
        <time>2022-07-17T09:28:22.000Z</time>
      </trkpt>
      <trkpt lat="47.26826" lon="-2.30793">
        <ele>24.39999961853</ele>
        <time>2022-07-17T09:28:23.000Z</time>
      </trkpt>
      <trkpt lat="47.2681" lon="-2.30804">
        <ele>24.39999961853</ele>
        <time>2022-07-17T09:28:26.000Z</time>
      </trkpt>
      <trkpt lat="47.26806" lon="-2.30808">
        <ele>24.39999961853</ele>
        <time>2022-07-17T09:28:27.000Z</time>
      </trkpt>
      <trkpt lat="47.26802" lon="-2.30813">
        <ele>24.39999961853</ele>
        <time>2022-07-17T09:28:28.000Z</time>
      </trkpt>
      <trkpt lat="47.2678" lon="-2.30837">
        <ele>24.39999961853</ele>
        <time>2022-07-17T09:28:33.000Z</time>
      </trkpt>
      <trkpt lat="47.26752" lon="-2.30866">
        <ele>24.39999961853</ele>
        <time>2022-07-17T09:28:39.000Z</time>
      </trkpt>
      <trkpt lat="47.26746" lon="-2.3087">
        <ele>24.39999961853</ele>
        <time>2022-07-17T09:28:40.000Z</time>
      </trkpt>
      <trkpt lat="47.26734" lon="-2.3087">
        <ele>24.39999961853</ele>
        <time>2022-07-17T09:28:42.000Z</time>
      </trkpt>
      <trkpt lat="47.26721" lon="-2.30854">
        <ele>24.39999961853</ele>
        <time>2022-07-17T09:28:45.000Z</time>
      </trkpt>
      <trkpt lat="47.2671" lon="-2.30833">
        <ele>24.39999961853</ele>
        <time>2022-07-17T09:28:48.000Z</time>
      </trkpt>
      <trkpt lat="47.26705" lon="-2.30817">
        <ele>24.39999961853</ele>
        <time>2022-07-17T09:28:50.000Z</time>
      </trkpt>
      <trkpt lat="47.26685" lon="-2.30763">
        <ele>24</ele>
        <time>2022-07-17T09:28:56.000Z</time>
      </trkpt>
      <trkpt lat="47.26682" lon="-2.30754">
        <ele>23.60000038147</ele>
        <time>2022-07-17T09:28:57.000Z</time>
      </trkpt>
      <trkpt lat="47.26678" lon="-2.30745">
        <ele>23.200000762939</ele>
        <time>2022-07-17T09:28:58.000Z</time>
      </trkpt>
      <trkpt lat="47.26674" lon="-2.30736">
        <ele>22.799999237061</ele>
        <time>2022-07-17T09:28:59.000Z</time>
      </trkpt>
      <trkpt lat="47.26669" lon="-2.30726">
        <ele>22.39999961853</ele>
        <time>2022-07-17T09:29:00.000Z</time>
      </trkpt>
      <trkpt lat="47.26662" lon="-2.30707">
        <ele>21.799999237061</ele>
        <time>2022-07-17T09:29:02.000Z</time>
      </trkpt>
      <trkpt lat="47.26659" lon="-2.30698">
        <ele>21.39999961853</ele>
        <time>2022-07-17T09:29:03.000Z</time>
      </trkpt>
      <trkpt lat="47.26656" lon="-2.30693">
        <ele>21</ele>
        <time>2022-07-17T09:29:04.000Z</time>
      </trkpt>
      <trkpt lat="47.26653" lon="-2.30691">
        <ele>20.60000038147</ele>
        <time>2022-07-17T09:29:05.000Z</time>
      </trkpt>
      <trkpt lat="47.2665" lon="-2.30693">
        <ele>20</ele>
        <time>2022-07-17T09:29:06.000Z</time>
      </trkpt>
      <trkpt lat="47.26648" lon="-2.30699">
        <ele>20</ele>
        <time>2022-07-17T09:29:07.000Z</time>
      </trkpt>
      <trkpt lat="47.2664" lon="-2.30723">
        <ele>20</ele>
        <time>2022-07-17T09:29:11.000Z</time>
      </trkpt>
      <trkpt lat="47.26627" lon="-2.30735">
        <ele>20</ele>
        <time>2022-07-17T09:29:14.000Z</time>
      </trkpt>
      <trkpt lat="47.26624" lon="-2.3074">
        <ele>20</ele>
        <time>2022-07-17T09:29:15.000Z</time>
      </trkpt>
      <trkpt lat="47.26619" lon="-2.30749">
        <ele>20</ele>
        <time>2022-07-17T09:29:17.000Z</time>
      </trkpt>
      <trkpt lat="47.26618" lon="-2.30758">
        <ele>20</ele>
        <time>2022-07-17T09:29:19.000Z</time>
      </trkpt>
      <trkpt lat="47.26611" lon="-2.30763">
        <ele>19.60000038147</ele>
        <time>2022-07-17T09:29:21.000Z</time>
      </trkpt>
      <trkpt lat="47.26607" lon="-2.30767">
        <ele>19.200000762939</ele>
        <time>2022-07-17T09:29:22.000Z</time>
      </trkpt>
      <trkpt lat="47.26603" lon="-2.30771">
        <ele>18.799999237061</ele>
        <time>2022-07-17T09:29:23.000Z</time>
      </trkpt>
      <trkpt lat="47.26599" lon="-2.30776">
        <ele>18.39999961853</ele>
        <time>2022-07-17T09:29:24.000Z</time>
      </trkpt>
      <trkpt lat="47.26595" lon="-2.3078">
        <ele>18</ele>
        <time>2022-07-17T09:29:25.000Z</time>
      </trkpt>
      <trkpt lat="47.26583" lon="-2.30795">
        <ele>18</ele>
        <time>2022-07-17T09:29:28.000Z</time>
      </trkpt>
      <trkpt lat="47.26579" lon="-2.30801">
        <ele>18</ele>
        <time>2022-07-17T09:29:29.000Z</time>
      </trkpt>
      <trkpt lat="47.26571" lon="-2.30815">
        <ele>17.60000038147</ele>
        <time>2022-07-17T09:29:31.000Z</time>
      </trkpt>
      <trkpt lat="47.26569" lon="-2.30823">
        <ele>17.200000762939</ele>
        <time>2022-07-17T09:29:32.000Z</time>
      </trkpt>
      <trkpt lat="47.26567" lon="-2.30829">
        <ele>16.799999237061</ele>
        <time>2022-07-17T09:29:33.000Z</time>
      </trkpt>
      <trkpt lat="47.26564" lon="-2.30831">
        <ele>16.39999961853</ele>
        <time>2022-07-17T09:29:34.000Z</time>
      </trkpt>
      <trkpt lat="47.2656" lon="-2.30834">
        <ele>16</ele>
        <time>2022-07-17T09:29:35.000Z</time>
      </trkpt>
      <trkpt lat="47.26542" lon="-2.30853">
        <ele>16</ele>
        <time>2022-07-17T09:29:40.000Z</time>
      </trkpt>
      <trkpt lat="47.26535" lon="-2.30866">
        <ele>16</ele>
        <time>2022-07-17T09:29:43.000Z</time>
      </trkpt>
      <trkpt lat="47.26517" lon="-2.30881">
        <ele>16</ele>
        <time>2022-07-17T09:29:47.000Z</time>
      </trkpt>
      <trkpt lat="47.26513" lon="-2.30884">
        <ele>16</ele>
        <time>2022-07-17T09:29:48.000Z</time>
      </trkpt>
      <trkpt lat="47.26508" lon="-2.30886">
        <ele>15.60000038147</ele>
        <time>2022-07-17T09:29:49.000Z</time>
      </trkpt>
      <trkpt lat="47.26505" lon="-2.30889">
        <ele>15</ele>
        <time>2022-07-17T09:29:50.000Z</time>
      </trkpt>
      <trkpt lat="47.26502" lon="-2.30893">
        <ele>14.60000038147</ele>
        <time>2022-07-17T09:29:51.000Z</time>
      </trkpt>
      <trkpt lat="47.26497" lon="-2.30897">
        <ele>14.199999809265</ele>
        <time>2022-07-17T09:29:52.000Z</time>
      </trkpt>
      <trkpt lat="47.26493" lon="-2.30901">
        <ele>13.800000190735</ele>
        <time>2022-07-17T09:29:53.000Z</time>
      </trkpt>
      <trkpt lat="47.26481" lon="-2.3092">
        <ele>13.800000190735</ele>
        <time>2022-07-17T09:29:56.000Z</time>
      </trkpt>
      <trkpt lat="47.26478" lon="-2.30926">
        <ele>13.39999961853</ele>
        <time>2022-07-17T09:29:57.000Z</time>
      </trkpt>
      <trkpt lat="47.26474" lon="-2.30933">
        <ele>13</ele>
        <time>2022-07-17T09:29:58.000Z</time>
      </trkpt>
      <trkpt lat="47.26469" lon="-2.3094">
        <ele>12.60000038147</ele>
        <time>2022-07-17T09:29:59.000Z</time>
      </trkpt>
      <trkpt lat="47.26463" lon="-2.30946">
        <ele>12.199999809265</ele>
        <time>2022-07-17T09:30:00.000Z</time>
      </trkpt>
      <trkpt lat="47.26458" lon="-2.30952">
        <ele>11.800000190735</ele>
        <time>2022-07-17T09:30:01.000Z</time>
      </trkpt>
      <trkpt lat="47.26441" lon="-2.3098">
        <ele>11.800000190735</ele>
        <time>2022-07-17T09:30:05.000Z</time>
      </trkpt>
      <trkpt lat="47.26436" lon="-2.30986">
        <ele>11.800000190735</ele>
        <time>2022-07-17T09:30:06.000Z</time>
      </trkpt>
      <trkpt lat="47.26427" lon="-2.31007">
        <ele>11.800000190735</ele>
        <time>2022-07-17T09:30:09.000Z</time>
      </trkpt>
      <trkpt lat="47.26428" lon="-2.31013">
        <ele>11.800000190735</ele>
        <time>2022-07-17T09:30:10.000Z</time>
      </trkpt>
      <trkpt lat="47.26429" lon="-2.3102">
        <ele>11.39999961853</ele>
        <time>2022-07-17T09:30:11.000Z</time>
      </trkpt>
      <trkpt lat="47.2643" lon="-2.31027">
        <ele>11</ele>
        <time>2022-07-17T09:30:12.000Z</time>
      </trkpt>
      <trkpt lat="47.26432" lon="-2.31033">
        <ele>10.60000038147</ele>
        <time>2022-07-17T09:30:13.000Z</time>
      </trkpt>
      <trkpt lat="47.26435" lon="-2.3104">
        <ele>10.199999809265</ele>
        <time>2022-07-17T09:30:14.000Z</time>
      </trkpt>
      <trkpt lat="47.26439" lon="-2.31046">
        <ele>9.8000001907349</ele>
        <time>2022-07-17T09:30:15.000Z</time>
      </trkpt>
      <trkpt lat="47.26443" lon="-2.31053">
        <ele>9.8000001907349</ele>
        <time>2022-07-17T09:30:16.000Z</time>
      </trkpt>
      <trkpt lat="47.26446" lon="-2.31061">
        <ele>9.8000001907349</ele>
        <time>2022-07-17T09:30:17.000Z</time>
      </trkpt>
      <trkpt lat="47.26449" lon="-2.31069">
        <ele>9.8000001907349</ele>
        <time>2022-07-17T09:30:18.000Z</time>
      </trkpt>
      <trkpt lat="47.26469" lon="-2.31122">
        <ele>9.8000001907349</ele>
        <time>2022-07-17T09:30:25.000Z</time>
      </trkpt>
      <trkpt lat="47.26472" lon="-2.31128">
        <ele>10.199999809265</ele>
        <time>2022-07-17T09:30:26.000Z</time>
      </trkpt>
      <trkpt lat="47.26475" lon="-2.31136">
        <ele>10.60000038147</ele>
        <time>2022-07-17T09:30:27.000Z</time>
      </trkpt>
      <trkpt lat="47.26477" lon="-2.31143">
        <ele>11</ele>
        <time>2022-07-17T09:30:28.000Z</time>
      </trkpt>
      <trkpt lat="47.26479" lon="-2.31151">
        <ele>11.800000190735</ele>
        <time>2022-07-17T09:30:29.000Z</time>
      </trkpt>
      <trkpt lat="47.26487" lon="-2.31173">
        <ele>11.800000190735</ele>
        <time>2022-07-17T09:30:32.000Z</time>
      </trkpt>
      <trkpt lat="47.26503" lon="-2.3122">
        <ele>11.800000190735</ele>
        <time>2022-07-17T09:30:39.000Z</time>
      </trkpt>
      <trkpt lat="47.26505" lon="-2.31226">
        <ele>11.800000190735</ele>
        <time>2022-07-17T09:30:40.000Z</time>
      </trkpt>
      <trkpt lat="47.26513" lon="-2.31246">
        <ele>11.800000190735</ele>
        <time>2022-07-17T09:30:44.000Z</time>
      </trkpt>
      <trkpt lat="47.26516" lon="-2.3125">
        <ele>11.800000190735</ele>
        <time>2022-07-17T09:30:45.000Z</time>
      </trkpt>
      <trkpt lat="47.26529" lon="-2.31277">
        <ele>11.800000190735</ele>
        <time>2022-07-17T09:30:50.000Z</time>
      </trkpt>
      <trkpt lat="47.26531" lon="-2.31283">
        <ele>11.800000190735</ele>
        <time>2022-07-17T09:30:51.000Z</time>
      </trkpt>
      <trkpt lat="47.26533" lon="-2.3129">
        <ele>12.199999809265</ele>
        <time>2022-07-17T09:30:52.000Z</time>
      </trkpt>
      <trkpt lat="47.26535" lon="-2.31296">
        <ele>12.800000190735</ele>
        <time>2022-07-17T09:30:53.000Z</time>
      </trkpt>
      <trkpt lat="47.26537" lon="-2.31303">
        <ele>13.800000190735</ele>
        <time>2022-07-17T09:30:54.000Z</time>
      </trkpt>
      <trkpt lat="47.26539" lon="-2.31309">
        <ele>14.199999809265</ele>
        <time>2022-07-17T09:30:55.000Z</time>
      </trkpt>
      <trkpt lat="47.2655" lon="-2.31347">
        <ele>14.60000038147</ele>
        <time>2022-07-17T09:31:01.000Z</time>
      </trkpt>
      <trkpt lat="47.26552" lon="-2.31353">
        <ele>15</ele>
        <time>2022-07-17T09:31:02.000Z</time>
      </trkpt>
      <trkpt lat="47.26554" lon="-2.31359">
        <ele>15.60000038147</ele>
        <time>2022-07-17T09:31:03.000Z</time>
      </trkpt>
      <trkpt lat="47.26555" lon="-2.31365">
        <ele>16</ele>
        <time>2022-07-17T09:31:04.000Z</time>
      </trkpt>
      <trkpt lat="47.26558" lon="-2.31371">
        <ele>16.39999961853</ele>
        <time>2022-07-17T09:31:05.000Z</time>
      </trkpt>
      <trkpt lat="47.26567" lon="-2.31394">
        <ele>16.39999961853</ele>
        <time>2022-07-17T09:31:09.000Z</time>
      </trkpt>
      <trkpt lat="47.2658" lon="-2.31424">
        <ele>16.799999237061</ele>
        <time>2022-07-17T09:31:14.000Z</time>
      </trkpt>
      <trkpt lat="47.26583" lon="-2.3143">
        <ele>17.200000762939</ele>
        <time>2022-07-17T09:31:15.000Z</time>
      </trkpt>
      <trkpt lat="47.26585" lon="-2.31437">
        <ele>17.60000038147</ele>
        <time>2022-07-17T09:31:16.000Z</time>
      </trkpt>
      <trkpt lat="47.26588" lon="-2.31443">
        <ele>18</ele>
        <time>2022-07-17T09:31:17.000Z</time>
      </trkpt>
      <trkpt lat="47.2659" lon="-2.3145">
        <ele>18.39999961853</ele>
        <time>2022-07-17T09:31:18.000Z</time>
      </trkpt>
      <trkpt lat="47.26603" lon="-2.31473">
        <ele>18.39999961853</ele>
        <time>2022-07-17T09:31:22.000Z</time>
      </trkpt>
      <trkpt lat="47.26624" lon="-2.31524">
        <ele>18.39999961853</ele>
        <time>2022-07-17T09:31:29.000Z</time>
      </trkpt>
      <trkpt lat="47.26632" lon="-2.31553">
        <ele>18.39999961853</ele>
        <time>2022-07-17T09:31:33.000Z</time>
      </trkpt>
      <trkpt lat="47.2663" lon="-2.31561">
        <ele>18.39999961853</ele>
        <time>2022-07-17T09:31:34.000Z</time>
      </trkpt>
      <trkpt lat="47.2662" lon="-2.31571">
        <ele>18.39999961853</ele>
        <time>2022-07-17T09:31:36.000Z</time>
      </trkpt>
      <trkpt lat="47.266" lon="-2.31582">
        <ele>18.39999961853</ele>
        <time>2022-07-17T09:31:39.000Z</time>
      </trkpt>
      <trkpt lat="47.26593" lon="-2.31587">
        <ele>18.39999961853</ele>
        <time>2022-07-17T09:31:40.000Z</time>
      </trkpt>
      <trkpt lat="47.26585" lon="-2.31592">
        <ele>18</ele>
        <time>2022-07-17T09:31:41.000Z</time>
      </trkpt>
      <trkpt lat="47.26577" lon="-2.31598">
        <ele>17.39999961853</ele>
        <time>2022-07-17T09:31:42.000Z</time>
      </trkpt>
      <trkpt lat="47.26569" lon="-2.31603">
        <ele>16.39999961853</ele>
        <time>2022-07-17T09:31:43.000Z</time>
      </trkpt>
      <trkpt lat="47.26561" lon="-2.31608">
        <ele>15.800000190735</ele>
        <time>2022-07-17T09:31:44.000Z</time>
      </trkpt>
      <trkpt lat="47.26554" lon="-2.31614">
        <ele>15.199999809265</ele>
        <time>2022-07-17T09:31:45.000Z</time>
      </trkpt>
      <trkpt lat="47.26545" lon="-2.31619">
        <ele>14.60000038147</ele>
        <time>2022-07-17T09:31:46.000Z</time>
      </trkpt>
      <trkpt lat="47.26537" lon="-2.31624">
        <ele>14</ele>
        <time>2022-07-17T09:31:47.000Z</time>
      </trkpt>
      <trkpt lat="47.26528" lon="-2.31629">
        <ele>13.199999809265</ele>
        <time>2022-07-17T09:31:48.000Z</time>
      </trkpt>
      <trkpt lat="47.26519" lon="-2.31634">
        <ele>12.60000038147</ele>
        <time>2022-07-17T09:31:49.000Z</time>
      </trkpt>
      <trkpt lat="47.2651" lon="-2.31638">
        <ele>11.800000190735</ele>
        <time>2022-07-17T09:31:50.000Z</time>
      </trkpt>
      <trkpt lat="47.26501" lon="-2.31642">
        <ele>11</ele>
        <time>2022-07-17T09:31:51.000Z</time>
      </trkpt>
      <trkpt lat="47.26491" lon="-2.31644">
        <ele>10.60000038147</ele>
        <time>2022-07-17T09:31:52.000Z</time>
      </trkpt>
      <trkpt lat="47.26481" lon="-2.31645">
        <ele>10.199999809265</ele>
        <time>2022-07-17T09:31:53.000Z</time>
      </trkpt>
      <trkpt lat="47.26471" lon="-2.31647">
        <ele>9.8000001907349</ele>
        <time>2022-07-17T09:31:54.000Z</time>
      </trkpt>
      <trkpt lat="47.26462" lon="-2.31649">
        <ele>9.3999996185303</ele>
        <time>2022-07-17T09:31:55.000Z</time>
      </trkpt>
      <trkpt lat="47.26452" lon="-2.31651">
        <ele>9</ele>
        <time>2022-07-17T09:31:56.000Z</time>
      </trkpt>
      <trkpt lat="47.26442" lon="-2.31652">
        <ele>8.3999996185303</ele>
        <time>2022-07-17T09:31:57.000Z</time>
      </trkpt>
      <trkpt lat="47.26434" lon="-2.31655">
        <ele>8</ele>
        <time>2022-07-17T09:31:58.000Z</time>
      </trkpt>
      <trkpt lat="47.26424" lon="-2.31656">
        <ele>7.4000000953674</ele>
        <time>2022-07-17T09:31:59.000Z</time>
      </trkpt>
      <trkpt lat="47.26417" lon="-2.31657">
        <ele>7</ele>
        <time>2022-07-17T09:32:00.000Z</time>
      </trkpt>
      <trkpt lat="47.2641" lon="-2.3166">
        <ele>6.5999999046326</ele>
        <time>2022-07-17T09:32:01.000Z</time>
      </trkpt>
      <trkpt lat="47.26403" lon="-2.31662">
        <ele>6.1999998092651</ele>
        <time>2022-07-17T09:32:02.000Z</time>
      </trkpt>
      <trkpt lat="47.26397" lon="-2.31665">
        <ele>5.8000001907349</ele>
        <time>2022-07-17T09:32:03.000Z</time>
      </trkpt>
      <trkpt lat="47.2639" lon="-2.31669">
        <ele>5.4000000953674</ele>
        <time>2022-07-17T09:32:04.000Z</time>
      </trkpt>
      <trkpt lat="47.26384" lon="-2.31674">
        <ele>5</ele>
        <time>2022-07-17T09:32:05.000Z</time>
      </trkpt>
      <trkpt lat="47.26377" lon="-2.31677">
        <ele>5</ele>
        <time>2022-07-17T09:32:06.000Z</time>
      </trkpt>
      <trkpt lat="47.26344" lon="-2.31697">
        <ele>4.4000000953674</ele>
        <time>2022-07-17T09:32:11.000Z</time>
      </trkpt>
      <trkpt lat="47.26338" lon="-2.31701">
        <ele>4</ele>
        <time>2022-07-17T09:32:12.000Z</time>
      </trkpt>
      <trkpt lat="47.26331" lon="-2.31703">
        <ele>3.5999999046326</ele>
        <time>2022-07-17T09:32:13.000Z</time>
      </trkpt>
      <trkpt lat="47.26324" lon="-2.31707">
        <ele>3.2000000476837</ele>
        <time>2022-07-17T09:32:14.000Z</time>
      </trkpt>
      <trkpt lat="47.26317" lon="-2.31711">
        <ele>2.5999999046326</ele>
        <time>2022-07-17T09:32:15.000Z</time>
      </trkpt>
      <trkpt lat="47.26301" lon="-2.31721">
        <ele>2.5999999046326</ele>
        <time>2022-07-17T09:32:18.000Z</time>
      </trkpt>
      <trkpt lat="47.26299" lon="-2.31727">
        <ele>2.5999999046326</ele>
        <time>2022-07-17T09:32:19.000Z</time>
      </trkpt>
      <trkpt lat="47.26302" lon="-2.31749">
        <ele>2.5999999046326</ele>
        <time>2022-07-17T09:32:22.000Z</time>
      </trkpt>
      <trkpt lat="47.26303" lon="-2.31765">
        <ele>2.2000000476837</ele>
        <time>2022-07-17T09:32:24.000Z</time>
      </trkpt>
      <trkpt lat="47.26304" lon="-2.31773">
        <ele>1.7999999523163</ele>
        <time>2022-07-17T09:32:25.000Z</time>
      </trkpt>
      <trkpt lat="47.26304" lon="-2.31782">
        <ele>1.3999999761581</ele>
        <time>2022-07-17T09:32:26.000Z</time>
      </trkpt>
      <trkpt lat="47.26305" lon="-2.31791">
        <ele>1</ele>
        <time>2022-07-17T09:32:27.000Z</time>
      </trkpt>
      <trkpt lat="47.26305" lon="-2.31801">
        <ele>0.60000002384186</ele>
        <time>2022-07-17T09:32:28.000Z</time>
      </trkpt>
      <trkpt lat="47.26303" lon="-2.31828">
        <ele>0.60000002384186</ele>
        <time>2022-07-17T09:32:31.000Z</time>
      </trkpt>
      <trkpt lat="47.26299" lon="-2.31893">
        <ele>0.60000002384186</ele>
        <time>2022-07-17T09:32:38.000Z</time>
      </trkpt>
      <trkpt lat="47.26299" lon="-2.31901">
        <ele>0.60000002384186</ele>
        <time>2022-07-17T09:32:39.000Z</time>
      </trkpt>
      <trkpt lat="47.26303" lon="-2.31931">
        <ele>0.60000002384186</ele>
        <time>2022-07-17T09:32:44.000Z</time>
      </trkpt>
      <trkpt lat="47.26312" lon="-2.31932">
        <ele>0.60000002384186</ele>
        <time>2022-07-17T09:32:47.000Z</time>
      </trkpt>
      <trkpt lat="47.26331" lon="-2.31935">
        <ele>0.60000002384186</ele>
        <time>2022-07-17T09:32:52.000Z</time>
      </trkpt>
      <trkpt lat="47.2634" lon="-2.31952">
        <ele>0.60000002384186</ele>
        <time>2022-07-17T09:32:55.000Z</time>
      </trkpt>
      <trkpt lat="47.26357" lon="-2.31981">
        <ele>0.60000002384186</ele>
        <time>2022-07-17T09:33:00.000Z</time>
      </trkpt>
      <trkpt lat="47.26361" lon="-2.31984">
        <ele>1</ele>
        <time>2022-07-17T09:33:01.000Z</time>
      </trkpt>
      <trkpt lat="47.26366" lon="-2.31986">
        <ele>1.3999999761581</ele>
        <time>2022-07-17T09:33:02.000Z</time>
      </trkpt>
      <trkpt lat="47.26371" lon="-2.31985">
        <ele>1.7999999523163</ele>
        <time>2022-07-17T09:33:03.000Z</time>
      </trkpt>
      <trkpt lat="47.26375" lon="-2.31985">
        <ele>2.2000000476837</ele>
        <time>2022-07-17T09:33:04.000Z</time>
      </trkpt>
      <trkpt lat="47.2638" lon="-2.31985">
        <ele>2.5999999046326</ele>
        <time>2022-07-17T09:33:05.000Z</time>
      </trkpt>
      <trkpt lat="47.26397" lon="-2.31987">
        <ele>2.5999999046326</ele>
        <time>2022-07-17T09:33:09.000Z</time>
      </trkpt>
      <trkpt lat="47.26401" lon="-2.31988">
        <ele>3</ele>
        <time>2022-07-17T09:33:10.000Z</time>
      </trkpt>
      <trkpt lat="47.26403" lon="-2.3199">
        <ele>3.5999999046326</ele>
        <time>2022-07-17T09:33:11.000Z</time>
      </trkpt>
      <trkpt lat="47.26407" lon="-2.31991">
        <ele>4</ele>
        <time>2022-07-17T09:33:12.000Z</time>
      </trkpt>
      <trkpt lat="47.26412" lon="-2.31992">
        <ele>4.4000000953674</ele>
        <time>2022-07-17T09:33:13.000Z</time>
      </trkpt>
      <trkpt lat="47.26415" lon="-2.31993">
        <ele>4.8000001907349</ele>
        <time>2022-07-17T09:33:14.000Z</time>
      </trkpt>
      <trkpt lat="47.26444" lon="-2.31994">
        <ele>5.1999998092651</ele>
        <time>2022-07-17T09:33:20.000Z</time>
      </trkpt>
      <trkpt lat="47.26448" lon="-2.31994">
        <ele>5.8000001907349</ele>
        <time>2022-07-17T09:33:21.000Z</time>
      </trkpt>
      <trkpt lat="47.26452" lon="-2.31994">
        <ele>6.5999999046326</ele>
        <time>2022-07-17T09:33:22.000Z</time>
      </trkpt>
      <trkpt lat="47.26456" lon="-2.31994">
        <ele>7</ele>
        <time>2022-07-17T09:33:23.000Z</time>
      </trkpt>
      <trkpt lat="47.26465" lon="-2.31994">
        <ele>7</ele>
        <time>2022-07-17T09:33:26.000Z</time>
      </trkpt>
      <trkpt lat="47.26478" lon="-2.31994">
        <ele>7.4000000953674</ele>
        <time>2022-07-17T09:33:30.000Z</time>
      </trkpt>
      <trkpt lat="47.26483" lon="-2.31994">
        <ele>7.8000001907349</ele>
        <time>2022-07-17T09:33:31.000Z</time>
      </trkpt>
      <trkpt lat="47.26487" lon="-2.31993">
        <ele>8.1999998092651</ele>
        <time>2022-07-17T09:33:32.000Z</time>
      </trkpt>
      <trkpt lat="47.26492" lon="-2.31993">
        <ele>8.6000003814697</ele>
        <time>2022-07-17T09:33:33.000Z</time>
      </trkpt>
      <trkpt lat="47.26496" lon="-2.31992">
        <ele>9.1999998092651</ele>
        <time>2022-07-17T09:33:34.000Z</time>
      </trkpt>
      <trkpt lat="47.26509" lon="-2.31994">
        <ele>9.6000003814697</ele>
        <time>2022-07-17T09:33:38.000Z</time>
      </trkpt>
      <trkpt lat="47.2651" lon="-2.31994">
        <ele>10</ele>
        <time>2022-07-17T09:33:39.000Z</time>
      </trkpt>
      <trkpt lat="47.26512" lon="-2.31995">
        <ele>10.39999961853</ele>
        <time>2022-07-17T09:33:40.000Z</time>
      </trkpt>
      <trkpt lat="47.26515" lon="-2.31996">
        <ele>10.800000190735</ele>
        <time>2022-07-17T09:33:41.000Z</time>
      </trkpt>
      <trkpt lat="47.26518" lon="-2.31997">
        <ele>11.199999809265</ele>
        <time>2022-07-17T09:33:42.000Z</time>
      </trkpt>
      <trkpt lat="47.2653" lon="-2.32006">
        <ele>11.199999809265</ele>
        <time>2022-07-17T09:33:47.000Z</time>
      </trkpt>
      <trkpt lat="47.26535" lon="-2.32009">
        <ele>11.800000190735</ele>
        <time>2022-07-17T09:33:49.000Z</time>
      </trkpt>
      <trkpt lat="47.26537" lon="-2.32012">
        <ele>12.199999809265</ele>
        <time>2022-07-17T09:33:50.000Z</time>
      </trkpt>
      <trkpt lat="47.26539" lon="-2.32015">
        <ele>12.60000038147</ele>
        <time>2022-07-17T09:33:51.000Z</time>
      </trkpt>
      <trkpt lat="47.2654" lon="-2.32018">
        <ele>13</ele>
        <time>2022-07-17T09:33:52.000Z</time>
      </trkpt>
      <trkpt lat="47.26542" lon="-2.32021">
        <ele>13.39999961853</ele>
        <time>2022-07-17T09:33:53.000Z</time>
      </trkpt>
      <trkpt lat="47.26543" lon="-2.32024">
        <ele>13.39999961853</ele>
        <time>2022-07-17T09:33:54.000Z</time>
      </trkpt>
      <trkpt lat="47.26546" lon="-2.32027">
        <ele>13.39999961853</ele>
        <time>2022-07-17T09:33:55.000Z</time>
      </trkpt>
      <trkpt lat="47.26547" lon="-2.32028">
        <ele>13.39999961853</ele>
        <time>2022-07-17T09:33:56.000Z</time>
      </trkpt>
      <trkpt lat="47.2655" lon="-2.32028">
        <ele>13.39999961853</ele>
        <time>2022-07-17T09:33:57.000Z</time>
      </trkpt>
      <trkpt lat="47.26559" lon="-2.32028">
        <ele>13.39999961853</ele>
        <time>2022-07-17T09:34:00.000Z</time>
      </trkpt>
      <trkpt lat="47.26572" lon="-2.3203">
        <ele>13.39999961853</ele>
        <time>2022-07-17T09:34:05.000Z</time>
      </trkpt>
      <trkpt lat="47.26574" lon="-2.3203">
        <ele>13.800000190735</ele>
        <time>2022-07-17T09:34:06.000Z</time>
      </trkpt>
      <trkpt lat="47.26576" lon="-2.3203">
        <ele>14.199999809265</ele>
        <time>2022-07-17T09:34:07.000Z</time>
      </trkpt>
      <trkpt lat="47.26577" lon="-2.32029">
        <ele>14.60000038147</ele>
        <time>2022-07-17T09:34:08.000Z</time>
      </trkpt>
      <trkpt lat="47.26579" lon="-2.32028">
        <ele>15</ele>
        <time>2022-07-17T09:34:09.000Z</time>
      </trkpt>
      <trkpt lat="47.26581" lon="-2.32027">
        <ele>15.39999961853</ele>
        <time>2022-07-17T09:34:10.000Z</time>
      </trkpt>
      <trkpt lat="47.26584" lon="-2.32027">
        <ele>15.39999961853</ele>
        <time>2022-07-17T09:34:11.000Z</time>
      </trkpt>
      <trkpt lat="47.2661" lon="-2.32016">
        <ele>15.39999961853</ele>
        <time>2022-07-17T09:34:18.000Z</time>
      </trkpt>
      <trkpt lat="47.26625" lon="-2.32012">
        <ele>16</ele>
        <time>2022-07-17T09:34:22.000Z</time>
      </trkpt>
      <trkpt lat="47.26628" lon="-2.32011">
        <ele>16.39999961853</ele>
        <time>2022-07-17T09:34:23.000Z</time>
      </trkpt>
      <trkpt lat="47.26631" lon="-2.3201">
        <ele>16.799999237061</ele>
        <time>2022-07-17T09:34:24.000Z</time>
      </trkpt>
      <trkpt lat="47.26634" lon="-2.32009">
        <ele>17.200000762939</ele>
        <time>2022-07-17T09:34:25.000Z</time>
      </trkpt>
      <trkpt lat="47.26636" lon="-2.32008">
        <ele>17.60000038147</ele>
        <time>2022-07-17T09:34:26.000Z</time>
      </trkpt>
      <trkpt lat="47.26641" lon="-2.32006">
        <ele>17.60000038147</ele>
        <time>2022-07-17T09:34:30.000Z</time>
      </trkpt>
      <trkpt lat="47.26644" lon="-2.32007">
        <ele>17.60000038147</ele>
        <time>2022-07-17T09:37:22.000Z</time>
      </trkpt>
      <trkpt lat="47.26648" lon="-2.32013">
        <ele>17.60000038147</ele>
        <time>2022-07-17T09:37:25.000Z</time>
      </trkpt>
      <trkpt lat="47.26655" lon="-2.32034">
        <ele>17.60000038147</ele>
        <time>2022-07-17T09:37:30.000Z</time>
      </trkpt>
      <trkpt lat="47.26665" lon="-2.32075">
        <ele>17.60000038147</ele>
        <time>2022-07-17T09:37:37.000Z</time>
      </trkpt>
      <trkpt lat="47.26678" lon="-2.32135">
        <ele>17.200000762939</ele>
        <time>2022-07-17T09:37:47.000Z</time>
      </trkpt>
      <trkpt lat="47.2668" lon="-2.32141">
        <ele>16.799999237061</ele>
        <time>2022-07-17T09:37:48.000Z</time>
      </trkpt>
      <trkpt lat="47.26682" lon="-2.32148">
        <ele>16.39999961853</ele>
        <time>2022-07-17T09:37:49.000Z</time>
      </trkpt>
      <trkpt lat="47.26683" lon="-2.32154">
        <ele>16</ele>
        <time>2022-07-17T09:37:50.000Z</time>
      </trkpt>
      <trkpt lat="47.26685" lon="-2.32161">
        <ele>15.39999961853</ele>
        <time>2022-07-17T09:37:51.000Z</time>
      </trkpt>
      <trkpt lat="47.26692" lon="-2.32191">
        <ele>15.39999961853</ele>
        <time>2022-07-17T09:37:55.000Z</time>
      </trkpt>
      <trkpt lat="47.26695" lon="-2.32207">
        <ele>15.39999961853</ele>
        <time>2022-07-17T09:37:57.000Z</time>
      </trkpt>
      <trkpt lat="47.26694" lon="-2.32223">
        <ele>15.39999961853</ele>
        <time>2022-07-17T09:37:59.000Z</time>
      </trkpt>
      <trkpt lat="47.2669" lon="-2.32238">
        <ele>15.39999961853</ele>
        <time>2022-07-17T09:38:01.000Z</time>
      </trkpt>
      <trkpt lat="47.26686" lon="-2.32253">
        <ele>15.39999961853</ele>
        <time>2022-07-17T09:38:03.000Z</time>
      </trkpt>
      <trkpt lat="47.26688" lon="-2.32277">
        <ele>15.39999961853</ele>
        <time>2022-07-17T09:38:06.000Z</time>
      </trkpt>
      <trkpt lat="47.2669" lon="-2.32284">
        <ele>15.39999961853</ele>
        <time>2022-07-17T09:38:07.000Z</time>
      </trkpt>
      <trkpt lat="47.26704" lon="-2.32334">
        <ele>15.39999961853</ele>
        <time>2022-07-17T09:38:13.000Z</time>
      </trkpt>
      <trkpt lat="47.26718" lon="-2.32374">
        <ele>15.39999961853</ele>
        <time>2022-07-17T09:38:18.000Z</time>
      </trkpt>
      <trkpt lat="47.26722" lon="-2.32379">
        <ele>15.39999961853</ele>
        <time>2022-07-17T09:38:19.000Z</time>
      </trkpt>
      <trkpt lat="47.26738" lon="-2.32382">
        <ele>15.39999961853</ele>
        <time>2022-07-17T09:38:22.000Z</time>
      </trkpt>
      <trkpt lat="47.26755" lon="-2.32375">
        <ele>15.39999961853</ele>
        <time>2022-07-17T09:38:25.000Z</time>
      </trkpt>
      <trkpt lat="47.26761" lon="-2.32372">
        <ele>15</ele>
        <time>2022-07-17T09:38:26.000Z</time>
      </trkpt>
      <trkpt lat="47.26766" lon="-2.32372">
        <ele>14.60000038147</ele>
        <time>2022-07-17T09:38:27.000Z</time>
      </trkpt>
      <trkpt lat="47.26772" lon="-2.32373">
        <ele>14.199999809265</ele>
        <time>2022-07-17T09:38:28.000Z</time>
      </trkpt>
      <trkpt lat="47.26776" lon="-2.32378">
        <ele>13.800000190735</ele>
        <time>2022-07-17T09:38:29.000Z</time>
      </trkpt>
      <trkpt lat="47.26779" lon="-2.32384">
        <ele>13.39999961853</ele>
        <time>2022-07-17T09:38:30.000Z</time>
      </trkpt>
      <trkpt lat="47.26784" lon="-2.32415">
        <ele>13.39999961853</ele>
        <time>2022-07-17T09:38:34.000Z</time>
      </trkpt>
      <trkpt lat="47.26786" lon="-2.32423">
        <ele>13.39999961853</ele>
        <time>2022-07-17T09:38:35.000Z</time>
      </trkpt>
      <trkpt lat="47.26792" lon="-2.32478">
        <ele>13.39999961853</ele>
        <time>2022-07-17T09:38:41.000Z</time>
      </trkpt>
      <trkpt lat="47.26798" lon="-2.32546">
        <ele>13.39999961853</ele>
        <time>2022-07-17T09:38:48.000Z</time>
      </trkpt>
      <trkpt lat="47.26799" lon="-2.32557">
        <ele>13</ele>
        <time>2022-07-17T09:38:49.000Z</time>
      </trkpt>
      <trkpt lat="47.26799" lon="-2.32567">
        <ele>12.60000038147</ele>
        <time>2022-07-17T09:38:50.000Z</time>
      </trkpt>
      <trkpt lat="47.268" lon="-2.32577">
        <ele>12.199999809265</ele>
        <time>2022-07-17T09:38:51.000Z</time>
      </trkpt>
      <trkpt lat="47.26801" lon="-2.32587">
        <ele>11.800000190735</ele>
        <time>2022-07-17T09:38:52.000Z</time>
      </trkpt>
      <trkpt lat="47.26803" lon="-2.32597">
        <ele>11.199999809265</ele>
        <time>2022-07-17T09:38:53.000Z</time>
      </trkpt>
      <trkpt lat="47.26806" lon="-2.32617">
        <ele>11.199999809265</ele>
        <time>2022-07-17T09:38:55.000Z</time>
      </trkpt>
      <trkpt lat="47.26811" lon="-2.32655">
        <ele>11.199999809265</ele>
        <time>2022-07-17T09:38:59.000Z</time>
      </trkpt>
      <trkpt lat="47.2681" lon="-2.32663">
        <ele>11.199999809265</ele>
        <time>2022-07-17T09:39:00.000Z</time>
      </trkpt>
      <trkpt lat="47.26802" lon="-2.32686">
        <ele>11.199999809265</ele>
        <time>2022-07-17T09:39:03.000Z</time>
      </trkpt>
      <trkpt lat="47.26807" lon="-2.3271">
        <ele>11.199999809265</ele>
        <time>2022-07-17T09:39:06.000Z</time>
      </trkpt>
      <trkpt lat="47.26818" lon="-2.32733">
        <ele>11.199999809265</ele>
        <time>2022-07-17T09:39:09.000Z</time>
      </trkpt>
      <trkpt lat="47.26822" lon="-2.32742">
        <ele>11.199999809265</ele>
        <time>2022-07-17T09:39:10.000Z</time>
      </trkpt>
      <trkpt lat="47.26833" lon="-2.32772">
        <ele>10.800000190735</ele>
        <time>2022-07-17T09:39:13.000Z</time>
      </trkpt>
      <trkpt lat="47.26836" lon="-2.32783">
        <ele>10.199999809265</ele>
        <time>2022-07-17T09:39:14.000Z</time>
      </trkpt>
      <trkpt lat="47.26839" lon="-2.32794">
        <ele>9.8000001907349</ele>
        <time>2022-07-17T09:39:15.000Z</time>
      </trkpt>
      <trkpt lat="47.26841" lon="-2.32806">
        <ele>9.1999998092651</ele>
        <time>2022-07-17T09:39:16.000Z</time>
      </trkpt>
      <trkpt lat="47.26844" lon="-2.32816">
        <ele>8.3999996185303</ele>
        <time>2022-07-17T09:39:17.000Z</time>
      </trkpt>
      <trkpt lat="47.26848" lon="-2.32826">
        <ele>7.8000001907349</ele>
        <time>2022-07-17T09:39:18.000Z</time>
      </trkpt>
      <trkpt lat="47.26852" lon="-2.32836">
        <ele>7</ele>
        <time>2022-07-17T09:39:19.000Z</time>
      </trkpt>
      <trkpt lat="47.26855" lon="-2.32846">
        <ele>6.1999998092651</ele>
        <time>2022-07-17T09:39:20.000Z</time>
      </trkpt>
      <trkpt lat="47.26859" lon="-2.32855">
        <ele>5.5999999046326</ele>
        <time>2022-07-17T09:39:21.000Z</time>
      </trkpt>
      <trkpt lat="47.26861" lon="-2.32862">
        <ele>4.8000001907349</ele>
        <time>2022-07-17T09:39:22.000Z</time>
      </trkpt>
      <trkpt lat="47.26861" lon="-2.32869">
        <ele>4</ele>
        <time>2022-07-17T09:39:23.000Z</time>
      </trkpt>
      <trkpt lat="47.2686" lon="-2.32875">
        <ele>3.2000000476837</ele>
        <time>2022-07-17T09:39:24.000Z</time>
      </trkpt>
      <trkpt lat="47.26858" lon="-2.32879">
        <ele>2.4000000953674</ele>
        <time>2022-07-17T09:39:25.000Z</time>
      </trkpt>
      <trkpt lat="47.26854" lon="-2.32881">
        <ele>1.6000000238419</ele>
        <time>2022-07-17T09:39:26.000Z</time>
      </trkpt>
      <trkpt lat="47.26849" lon="-2.32883">
        <ele>1.6000000238419</ele>
        <time>2022-07-17T09:39:27.000Z</time>
      </trkpt>
      <trkpt lat="47.26839" lon="-2.32886">
        <ele>1.6000000238419</ele>
        <time>2022-07-17T09:39:29.000Z</time>
      </trkpt>
      <trkpt lat="47.26828" lon="-2.32892">
        <ele>1.2000000476837</ele>
        <time>2022-07-17T09:39:31.000Z</time>
      </trkpt>
      <trkpt lat="47.26823" lon="-2.32896">
        <ele>0.80000001192093</ele>
        <time>2022-07-17T09:39:32.000Z</time>
      </trkpt>
      <trkpt lat="47.26817" lon="-2.32901">
        <ele>4.6</ele>
        <time>2022-07-17T09:39:33.000Z</time>
      </trkpt>
      <trkpt lat="47.26813" lon="-2.32906">
        <ele>-0.40000000596046</ele>
        <time>2022-07-17T09:39:34.000Z</time>
      </trkpt>
      <trkpt lat="47.26807" lon="-2.32911">
        <ele>-0.40000000596046</ele>
        <time>2022-07-17T09:39:35.000Z</time>
      </trkpt>
      <trkpt lat="47.26787" lon="-2.32925">
        <ele>-0.40000000596046</ele>
        <time>2022-07-17T09:39:39.000Z</time>
      </trkpt>
      <trkpt lat="47.26782" lon="-2.3293">
        <ele>-0.40000000596046</ele>
        <time>2022-07-17T09:39:40.000Z</time>
      </trkpt>
      <trkpt lat="47.26767" lon="-2.32947">
        <ele>-0.40000000596046</ele>
        <time>2022-07-17T09:39:43.000Z</time>
      </trkpt>
      <trkpt lat="47.26743" lon="-2.32976">
        <ele>-0.40000000596046</ele>
        <time>2022-07-17T09:39:48.000Z</time>
      </trkpt>
      <trkpt lat="47.2674" lon="-2.32984">
        <ele>-0.40000000596046</ele>
        <time>2022-07-17T09:39:49.000Z</time>
      </trkpt>
      <trkpt lat="47.26734" lon="-2.33015">
        <ele>-0.40000000596046</ele>
        <time>2022-07-17T09:39:53.000Z</time>
      </trkpt>
      <trkpt lat="47.26734" lon="-2.33022">
        <ele>-0.40000000596046</ele>
        <time>2022-07-17T09:39:54.000Z</time>
      </trkpt>
      <trkpt lat="47.26733" lon="-2.3303">
        <ele>-0.40000000596046</ele>
        <time>2022-07-17T09:39:55.000Z</time>
      </trkpt>
      <trkpt lat="47.26729" lon="-2.33045">
        <ele>-0.40000000596046</ele>
        <time>2022-07-17T09:39:57.000Z</time>
      </trkpt>
      <trkpt lat="47.26727" lon="-2.33053">
        <ele>-0.40000000596046</ele>
        <time>2022-07-17T09:39:58.000Z</time>
      </trkpt>
      <trkpt lat="47.26716" lon="-2.33075">
        <ele>-0.40000000596046</ele>
        <time>2022-07-17T09:40:01.000Z</time>
      </trkpt>
      <trkpt lat="47.26711" lon="-2.33081">
        <ele>-0.40000000596046</ele>
        <time>2022-07-17T09:40:02.000Z</time>
      </trkpt>
      <trkpt lat="47.26701" lon="-2.33094">
        <ele>-0.40000000596046</ele>
        <time>2022-07-17T09:40:04.000Z</time>
      </trkpt>
      <trkpt lat="47.26691" lon="-2.33103">
        <ele>-0.40000000596046</ele>
        <time>2022-07-17T09:40:06.000Z</time>
      </trkpt>
      <trkpt lat="47.26667" lon="-2.33126">
        <ele>-0.40000000596046</ele>
        <time>2022-07-17T09:40:11.000Z</time>
      </trkpt>
      <trkpt lat="47.26662" lon="-2.33131">
        <ele>-0.40000000596046</ele>
        <time>2022-07-17T09:40:12.000Z</time>
      </trkpt>
      <trkpt lat="47.26637" lon="-2.33152">
        <ele>-0.40000000596046</ele>
        <time>2022-07-17T09:40:18.000Z</time>
      </trkpt>
      <trkpt lat="47.26633" lon="-2.33154">
        <ele>-0.40000000596046</ele>
        <time>2022-07-17T09:40:19.000Z</time>
      </trkpt>
      <trkpt lat="47.26622" lon="-2.33155">
        <ele>-0.40000000596046</ele>
        <time>2022-07-17T09:40:22.000Z</time>
      </trkpt>
      <trkpt lat="47.26619" lon="-2.33154">
        <ele>-0.40000000596046</ele>
        <time>2022-07-17T09:40:23.000Z</time>
      </trkpt>
      <trkpt lat="47.26613" lon="-2.33153">
        <ele>-0.40000000596046</ele>
        <time>2022-07-17T09:40:26.000Z</time>
      </trkpt>
      <trkpt lat="47.26611" lon="-2.33154">
        <ele>-0.40000000596046</ele>
        <time>2022-07-17T09:40:27.000Z</time>
      </trkpt>
      <trkpt lat="47.2661" lon="-2.33154">
        <ele>-0.40000000596046</ele>
        <time>2022-07-17T09:40:28.000Z</time>
      </trkpt>
      <trkpt lat="47.26606" lon="-2.3316">
        <ele>-0.80000001192093</ele>
        <time>2022-07-17T09:40:31.000Z</time>
      </trkpt>
      <trkpt lat="47.26604" lon="-2.33163">
        <ele>-1.2000000476837</ele>
        <time>2022-07-17T09:40:32.000Z</time>
      </trkpt>
      <trkpt lat="47.26602" lon="-2.33167">
        <ele>-1.6000000238419</ele>
        <time>2022-07-17T09:40:33.000Z</time>
      </trkpt>
      <trkpt lat="47.266" lon="-2.33172">
        <ele>-2</ele>
        <time>2022-07-17T09:40:34.000Z</time>
      </trkpt>
      <trkpt lat="47.26598" lon="-2.33177">
        <ele>-2.4000000953674</ele>
        <time>2022-07-17T09:40:35.000Z</time>
      </trkpt>
      <trkpt lat="47.26595" lon="-2.33188">
        <ele>-2.4000000953674</ele>
        <time>2022-07-17T09:40:37.000Z</time>
      </trkpt>
      <trkpt lat="47.26587" lon="-2.33202">
        <ele>-2.4000000953674</ele>
        <time>2022-07-17T09:40:40.000Z</time>
      </trkpt>
      <trkpt lat="47.26574" lon="-2.33211">
        <ele>-2.4000000953674</ele>
        <time>2022-07-17T09:40:43.000Z</time>
      </trkpt>
      <trkpt lat="47.26565" lon="-2.33218">
        <ele>-2.4000000953674</ele>
        <time>2022-07-17T09:40:45.000Z</time>
      </trkpt>
      <trkpt lat="47.26535" lon="-2.33238">
        <ele>-2.4000000953674</ele>
        <time>2022-07-17T09:40:51.000Z</time>
      </trkpt>
      <trkpt lat="47.26525" lon="-2.33244">
        <ele>-2.4000000953674</ele>
        <time>2022-07-17T09:40:53.000Z</time>
      </trkpt>
      <trkpt lat="47.26512" lon="-2.33252">
        <ele>-2.4000000953674</ele>
        <time>2022-07-17T09:40:56.000Z</time>
      </trkpt>
      <trkpt lat="47.26503" lon="-2.3326">
        <ele>-2.4000000953674</ele>
        <time>2022-07-17T09:41:00.000Z</time>
      </trkpt>
      <trkpt lat="47.26502" lon="-2.33261">
        <ele>-2.4000000953674</ele>
        <time>2022-07-17T09:41:01.000Z</time>
      </trkpt>
      <trkpt lat="47.26501" lon="-2.33265">
        <ele>-2.4000000953674</ele>
        <time>2022-07-17T09:42:28.000Z</time>
      </trkpt>
      <trkpt lat="47.26501" lon="-2.33267">
        <ele>-2.4000000953674</ele>
        <time>2022-07-17T09:42:29.000Z</time>
      </trkpt>
      <trkpt lat="47.26504" lon="-2.33281">
        <ele>-2.4000000953674</ele>
        <time>2022-07-17T09:42:34.000Z</time>
      </trkpt>
      <trkpt lat="47.26511" lon="-2.33291">
        <ele>-2.4000000953674</ele>
        <time>2022-07-17T09:42:37.000Z</time>
      </trkpt>
      <trkpt lat="47.26514" lon="-2.33293">
        <ele>-2.4000000953674</ele>
        <time>2022-07-17T09:42:38.000Z</time>
      </trkpt>
      <trkpt lat="47.26524" lon="-2.33308">
        <ele>-2.4000000953674</ele>
        <time>2022-07-17T09:42:42.000Z</time>
      </trkpt>
      <trkpt lat="47.26525" lon="-2.33331">
        <ele>-2.4000000953674</ele>
        <time>2022-07-17T09:42:46.000Z</time>
      </trkpt>
      <trkpt lat="47.26525" lon="-2.33337">
        <ele>-2.4000000953674</ele>
        <time>2022-07-17T09:42:47.000Z</time>
      </trkpt>
      <trkpt lat="47.26529" lon="-2.33364">
        <ele>-2.4000000953674</ele>
        <time>2022-07-17T09:42:51.000Z</time>
      </trkpt>
      <trkpt lat="47.26531" lon="-2.3337">
        <ele>-2.4000000953674</ele>
        <time>2022-07-17T09:42:52.000Z</time>
      </trkpt>
      <trkpt lat="47.26543" lon="-2.33417">
        <ele>-2.4000000953674</ele>
        <time>2022-07-17T09:42:59.000Z</time>
      </trkpt>
      <trkpt lat="47.26553" lon="-2.33482">
        <ele>-2.4000000953674</ele>
        <time>2022-07-17T09:43:08.000Z</time>
      </trkpt>
      <trkpt lat="47.26555" lon="-2.33497">
        <ele>-2.4000000953674</ele>
        <time>2022-07-17T09:43:10.000Z</time>
      </trkpt>
      <trkpt lat="47.2656" lon="-2.33509">
        <ele>-2.4000000953674</ele>
        <time>2022-07-17T09:43:12.000Z</time>
      </trkpt>
      <trkpt lat="47.26566" lon="-2.33537">
        <ele>-2.4000000953674</ele>
        <time>2022-07-17T09:43:16.000Z</time>
      </trkpt>
      <trkpt lat="47.2657" lon="-2.33566">
        <ele>-2.4000000953674</ele>
        <time>2022-07-17T09:43:20.000Z</time>
      </trkpt>
      <trkpt lat="47.26571" lon="-2.33586">
        <ele>-2.4000000953674</ele>
        <time>2022-07-17T09:43:23.000Z</time>
      </trkpt>
      <trkpt lat="47.26572" lon="-2.33593">
        <ele>-2.4000000953674</ele>
        <time>2022-07-17T09:43:24.000Z</time>
      </trkpt>
      <trkpt lat="47.26573" lon="-2.33599">
        <ele>-2</ele>
        <time>2022-07-17T09:43:25.000Z</time>
      </trkpt>
      <trkpt lat="47.26574" lon="-2.33605">
        <ele>-1.6000000238419</ele>
        <time>2022-07-17T09:43:26.000Z</time>
      </trkpt>
      <trkpt lat="47.26575" lon="-2.33611">
        <ele>-1.2000000476837</ele>
        <time>2022-07-17T09:43:27.000Z</time>
      </trkpt>
      <trkpt lat="47.26576" lon="-2.33618">
        <ele>-0.80000001192093</ele>
        <time>2022-07-17T09:43:28.000Z</time>
      </trkpt>
      <trkpt lat="47.26577" lon="-2.33624">
        <ele>-0.40000000596046</ele>
        <time>2022-07-17T09:43:29.000Z</time>
      </trkpt>
      <trkpt lat="47.26582" lon="-2.3366">
        <ele>-0.40000000596046</ele>
        <time>2022-07-17T09:43:34.000Z</time>
      </trkpt>
      <trkpt lat="47.26585" lon="-2.33667">
        <ele>-0.40000000596046</ele>
        <time>2022-07-17T09:43:35.000Z</time>
      </trkpt>
      <trkpt lat="47.26588" lon="-2.33673">
        <ele>6.9</ele>
        <time>2022-07-17T09:43:36.000Z</time>
      </trkpt>
      <trkpt lat="47.26591" lon="-2.33679">
        <ele>0.40000000596046</ele>
        <time>2022-07-17T09:43:37.000Z</time>
      </trkpt>
      <trkpt lat="47.26594" lon="-2.33685">
        <ele>0.80000001192093</ele>
        <time>2022-07-17T09:43:38.000Z</time>
      </trkpt>
      <trkpt lat="47.26596" lon="-2.33691">
        <ele>1.3999999761581</ele>
        <time>2022-07-17T09:43:39.000Z</time>
      </trkpt>
      <trkpt lat="47.26599" lon="-2.33697">
        <ele>1.7999999523163</ele>
        <time>2022-07-17T09:43:40.000Z</time>
      </trkpt>
      <trkpt lat="47.26602" lon="-2.33703">
        <ele>1.7999999523163</ele>
        <time>2022-07-17T09:43:41.000Z</time>
      </trkpt>
      <trkpt lat="47.26604" lon="-2.33708">
        <ele>1.7999999523163</ele>
        <time>2022-07-17T09:43:42.000Z</time>
      </trkpt>
      <trkpt lat="47.26606" lon="-2.33731">
        <ele>1.7999999523163</ele>
        <time>2022-07-17T09:43:45.000Z</time>
      </trkpt>
      <trkpt lat="47.26605" lon="-2.33746">
        <ele>1.7999999523163</ele>
        <time>2022-07-17T09:43:47.000Z</time>
      </trkpt>
      <trkpt lat="47.26603" lon="-2.33766">
        <ele>2.2000000476837</ele>
        <time>2022-07-17T09:43:50.000Z</time>
      </trkpt>
      <trkpt lat="47.26602" lon="-2.33772">
        <ele>2.5999999046326</ele>
        <time>2022-07-17T09:43:51.000Z</time>
      </trkpt>
      <trkpt lat="47.26601" lon="-2.33779">
        <ele>3</ele>
        <time>2022-07-17T09:43:52.000Z</time>
      </trkpt>
      <trkpt lat="47.266" lon="-2.33785">
        <ele>3.4000000953674</ele>
        <time>2022-07-17T09:43:53.000Z</time>
      </trkpt>
      <trkpt lat="47.266" lon="-2.33792">
        <ele>3.7999999523163</ele>
        <time>2022-07-17T09:43:54.000Z</time>
      </trkpt>
      <trkpt lat="47.26596" lon="-2.33818">
        <ele>3.7999999523163</ele>
        <time>2022-07-17T09:43:58.000Z</time>
      </trkpt>
      <trkpt lat="47.26591" lon="-2.33863">
        <ele>3.7999999523163</ele>
        <time>2022-07-17T09:44:05.000Z</time>
      </trkpt>
      <trkpt lat="47.2659" lon="-2.3389">
        <ele>3.7999999523163</ele>
        <time>2022-07-17T09:44:10.000Z</time>
      </trkpt>
      <trkpt lat="47.26588" lon="-2.33916">
        <ele>3.7999999523163</ele>
        <time>2022-07-17T09:44:15.000Z</time>
      </trkpt>
      <trkpt lat="47.26587" lon="-2.33929">
        <ele>4.1999998092651</ele>
        <time>2022-07-17T09:44:17.000Z</time>
      </trkpt>
      <trkpt lat="47.26586" lon="-2.33937">
        <ele>4.5999999046326</ele>
        <time>2022-07-17T09:44:18.000Z</time>
      </trkpt>
      <trkpt lat="47.26585" lon="-2.33944">
        <ele>5</ele>
        <time>2022-07-17T09:44:19.000Z</time>
      </trkpt>
      <trkpt lat="47.26585" lon="-2.3395">
        <ele>5.4000000953674</ele>
        <time>2022-07-17T09:44:20.000Z</time>
      </trkpt>
      <trkpt lat="47.26584" lon="-2.33956">
        <ele>5.8000001907349</ele>
        <time>2022-07-17T09:44:21.000Z</time>
      </trkpt>
      <trkpt lat="47.26581" lon="-2.33986">
        <ele>5.8000001907349</ele>
        <time>2022-07-17T09:44:26.000Z</time>
      </trkpt>
      <trkpt lat="47.26579" lon="-2.33992">
        <ele>5.8000001907349</ele>
        <time>2022-07-17T09:44:27.000Z</time>
      </trkpt>
      <trkpt lat="47.26571" lon="-2.3403">
        <ele>5.8000001907349</ele>
        <time>2022-07-17T09:44:32.000Z</time>
      </trkpt>
      <trkpt lat="47.26572" lon="-2.34054">
        <ele>5.8000001907349</ele>
        <time>2022-07-17T09:44:36.000Z</time>
      </trkpt>
      <trkpt lat="47.26584" lon="-2.34062">
        <ele>5.8000001907349</ele>
        <time>2022-07-17T09:44:39.000Z</time>
      </trkpt>
      <trkpt lat="47.26588" lon="-2.34064">
        <ele>5.8000001907349</ele>
        <time>2022-07-17T09:44:40.000Z</time>
      </trkpt>
      <trkpt lat="47.26605" lon="-2.34075">
        <ele>5.8000001907349</ele>
        <time>2022-07-17T09:44:44.000Z</time>
      </trkpt>
      <trkpt lat="47.26617" lon="-2.34085">
        <ele>5.8000001907349</ele>
        <time>2022-07-17T09:44:47.000Z</time>
      </trkpt>
      <trkpt lat="47.26626" lon="-2.34092">
        <ele>5.8000001907349</ele>
        <time>2022-07-17T09:44:49.000Z</time>
      </trkpt>
      <trkpt lat="47.2664" lon="-2.34102">
        <ele>5.8000001907349</ele>
        <time>2022-07-17T09:44:52.000Z</time>
      </trkpt>
      <trkpt lat="47.2667" lon="-2.34124">
        <ele>5.8000001907349</ele>
        <time>2022-07-17T09:44:58.000Z</time>
      </trkpt>
      <trkpt lat="47.26685" lon="-2.34134">
        <ele>5.8000001907349</ele>
        <time>2022-07-17T09:45:01.000Z</time>
      </trkpt>
      <trkpt lat="47.26694" lon="-2.3414">
        <ele>5.8000001907349</ele>
        <time>2022-07-17T09:45:03.000Z</time>
      </trkpt>
      <trkpt lat="47.26701" lon="-2.34148">
        <ele>5.8000001907349</ele>
        <time>2022-07-17T09:45:05.000Z</time>
      </trkpt>
      <trkpt lat="47.26703" lon="-2.34153">
        <ele>5.8000001907349</ele>
        <time>2022-07-17T09:45:06.000Z</time>
      </trkpt>
      <trkpt lat="47.26702" lon="-2.34157">
        <ele>5.8000001907349</ele>
        <time>2022-07-17T09:45:07.000Z</time>
      </trkpt>
      <trkpt lat="47.26699" lon="-2.3416">
        <ele>5.8000001907349</ele>
        <time>2022-07-17T09:45:08.000Z</time>
      </trkpt>
      <trkpt lat="47.26688" lon="-2.34169">
        <ele>5.8000001907349</ele>
        <time>2022-07-17T09:45:11.000Z</time>
      </trkpt>
      <trkpt lat="47.26683" lon="-2.34173">
        <ele>5.8000001907349</ele>
        <time>2022-07-17T09:45:12.000Z</time>
      </trkpt>
      <trkpt lat="47.26654" lon="-2.34201">
        <ele>5.8000001907349</ele>
        <time>2022-07-17T09:45:19.000Z</time>
      </trkpt>
      <trkpt lat="47.26628" lon="-2.3423">
        <ele>5.8000001907349</ele>
        <time>2022-07-17T09:45:25.000Z</time>
      </trkpt>
      <trkpt lat="47.2661" lon="-2.34253">
        <ele>5.8000001907349</ele>
        <time>2022-07-17T09:45:29.000Z</time>
      </trkpt>
      <trkpt lat="47.266" lon="-2.34263">
        <ele>5.8000001907349</ele>
        <time>2022-07-17T09:45:31.000Z</time>
      </trkpt>
      <trkpt lat="47.26585" lon="-2.34282">
        <ele>5.8000001907349</ele>
        <time>2022-07-17T09:45:34.000Z</time>
      </trkpt>
      <trkpt lat="47.2657" lon="-2.34299">
        <ele>5.4000000953674</ele>
        <time>2022-07-17T09:45:37.000Z</time>
      </trkpt>
      <trkpt lat="47.26565" lon="-2.34306">
        <ele>5</ele>
        <time>2022-07-17T09:45:38.000Z</time>
      </trkpt>
      <trkpt lat="47.2656" lon="-2.34311">
        <ele>4.5999999046326</ele>
        <time>2022-07-17T09:45:39.000Z</time>
      </trkpt>
      <trkpt lat="47.26556" lon="-2.34316">
        <ele>4</ele>
        <time>2022-07-17T09:45:40.000Z</time>
      </trkpt>
      <trkpt lat="47.26554" lon="-2.34321">
        <ele>3.5999999046326</ele>
        <time>2022-07-17T09:45:41.000Z</time>
      </trkpt>
      <trkpt lat="47.26556" lon="-2.34339">
        <ele>3.5999999046326</ele>
        <time>2022-07-17T09:45:44.000Z</time>
      </trkpt>
      <trkpt lat="47.26563" lon="-2.34344">
        <ele>3.5999999046326</ele>
        <time>2022-07-17T09:45:47.000Z</time>
      </trkpt>
      <trkpt lat="47.26566" lon="-2.34344">
        <ele>3.5999999046326</ele>
        <time>2022-07-17T09:45:52.000Z</time>
      </trkpt>
      <trkpt lat="47.26569" lon="-2.34346">
        <ele>3.5999999046326</ele>
        <time>2022-07-17T09:45:54.000Z</time>
      </trkpt>
      <trkpt lat="47.26571" lon="-2.34355">
        <ele>3.5999999046326</ele>
        <time>2022-07-17T09:45:56.000Z</time>
      </trkpt>
      <trkpt lat="47.26574" lon="-2.34374">
        <ele>3.5999999046326</ele>
        <time>2022-07-17T09:45:59.000Z</time>
      </trkpt>
      <trkpt lat="47.26575" lon="-2.3438">
        <ele>3.5999999046326</ele>
        <time>2022-07-17T09:46:00.000Z</time>
      </trkpt>
      <trkpt lat="47.26577" lon="-2.34387">
        <ele>3.5999999046326</ele>
        <time>2022-07-17T09:46:01.000Z</time>
      </trkpt>
      <trkpt lat="47.26584" lon="-2.34419">
        <ele>3.5999999046326</ele>
        <time>2022-07-17T09:46:06.000Z</time>
      </trkpt>
      <trkpt lat="47.26583" lon="-2.34424">
        <ele>3.5999999046326</ele>
        <time>2022-07-17T09:46:07.000Z</time>
      </trkpt>
      <trkpt lat="47.26575" lon="-2.3444">
        <ele>3.5999999046326</ele>
        <time>2022-07-17T09:46:10.000Z</time>
      </trkpt>
      <trkpt lat="47.26573" lon="-2.34446">
        <ele>3.5999999046326</ele>
        <time>2022-07-17T09:46:11.000Z</time>
      </trkpt>
      <trkpt lat="47.26567" lon="-2.34457">
        <ele>3.5999999046326</ele>
        <time>2022-07-17T09:46:13.000Z</time>
      </trkpt>
      <trkpt lat="47.26558" lon="-2.34481">
        <ele>3.5999999046326</ele>
        <time>2022-07-17T09:46:17.000Z</time>
      </trkpt>
      <trkpt lat="47.26546" lon="-2.3451">
        <ele>3.5999999046326</ele>
        <time>2022-07-17T09:46:22.000Z</time>
      </trkpt>
      <trkpt lat="47.26547" lon="-2.34527">
        <ele>3.5999999046326</ele>
        <time>2022-07-17T09:46:26.000Z</time>
      </trkpt>
      <trkpt lat="47.26557" lon="-2.3454">
        <ele>3.5999999046326</ele>
        <time>2022-07-17T09:46:30.000Z</time>
      </trkpt>
      <trkpt lat="47.26576" lon="-2.34562">
        <ele>3.5999999046326</ele>
        <time>2022-07-17T09:46:36.000Z</time>
      </trkpt>
      <trkpt lat="47.26599" lon="-2.34585">
        <ele>3.5999999046326</ele>
        <time>2022-07-17T09:46:41.000Z</time>
      </trkpt>
      <trkpt lat="47.26631" lon="-2.34624">
        <ele>3.5999999046326</ele>
        <time>2022-07-17T09:46:48.000Z</time>
      </trkpt>
      <trkpt lat="47.26664" lon="-2.34664">
        <ele>3.5999999046326</ele>
        <time>2022-07-17T09:46:55.000Z</time>
      </trkpt>
      <trkpt lat="47.26692" lon="-2.34698">
        <ele>3.5999999046326</ele>
        <time>2022-07-17T09:47:02.000Z</time>
      </trkpt>
      <trkpt lat="47.26715" lon="-2.34728">
        <ele>3.5999999046326</ele>
        <time>2022-07-17T09:47:08.000Z</time>
      </trkpt>
      <trkpt lat="47.26746" lon="-2.34766">
        <ele>3.5999999046326</ele>
        <time>2022-07-17T09:47:15.000Z</time>
      </trkpt>
      <trkpt lat="47.2675" lon="-2.34771">
        <ele>3.5999999046326</ele>
        <time>2022-07-17T09:47:16.000Z</time>
      </trkpt>
      <trkpt lat="47.26767" lon="-2.34792">
        <ele>3.5999999046326</ele>
        <time>2022-07-17T09:47:21.000Z</time>
      </trkpt>
      <trkpt lat="47.26779" lon="-2.34806">
        <ele>3.5999999046326</ele>
        <time>2022-07-17T09:47:26.000Z</time>
      </trkpt>
      <trkpt lat="47.26785" lon="-2.34815">
        <ele>3.5999999046326</ele>
        <time>2022-07-17T09:47:31.000Z</time>
      </trkpt>
      <trkpt lat="47.26798" lon="-2.34837">
        <ele>3.5999999046326</ele>
        <time>2022-07-17T09:47:36.000Z</time>
      </trkpt>
      <trkpt lat="47.26818" lon="-2.34865">
        <ele>3.5999999046326</ele>
        <time>2022-07-17T09:47:41.000Z</time>
      </trkpt>
      <trkpt lat="47.26846" lon="-2.34908">
        <ele>3.5999999046326</ele>
        <time>2022-07-17T09:47:48.000Z</time>
      </trkpt>
      <trkpt lat="47.26863" lon="-2.34931">
        <ele>3.5999999046326</ele>
        <time>2022-07-17T09:47:52.000Z</time>
      </trkpt>
      <trkpt lat="47.2687" lon="-2.34943">
        <ele>3.5999999046326</ele>
        <time>2022-07-17T09:47:54.000Z</time>
      </trkpt>
      <trkpt lat="47.26906" lon="-2.34997">
        <ele>3.5999999046326</ele>
        <time>2022-07-17T09:48:03.000Z</time>
      </trkpt>
      <trkpt lat="47.26934" lon="-2.35038">
        <ele>3.5999999046326</ele>
        <time>2022-07-17T09:48:10.000Z</time>
      </trkpt>
      <trkpt lat="47.26943" lon="-2.35054">
        <ele>3.5999999046326</ele>
        <time>2022-07-17T09:48:14.000Z</time>
      </trkpt>
      <trkpt lat="47.2694" lon="-2.35066">
        <ele>3.5999999046326</ele>
        <time>2022-07-17T09:48:17.000Z</time>
      </trkpt>
      <trkpt lat="47.26945" lon="-2.35076">
        <ele>3.5999999046326</ele>
        <time>2022-07-17T09:48:20.000Z</time>
      </trkpt>
      <trkpt lat="47.2695" lon="-2.35079">
        <ele>3.5999999046326</ele>
        <time>2022-07-17T09:48:22.000Z</time>
      </trkpt>
      <trkpt lat="47.26957" lon="-2.35088">
        <ele>3.5999999046326</ele>
        <time>2022-07-17T09:48:25.000Z</time>
      </trkpt>
      <trkpt lat="47.26971" lon="-2.35111">
        <ele>3.5999999046326</ele>
        <time>2022-07-17T09:48:31.000Z</time>
      </trkpt>
      <trkpt lat="47.2699" lon="-2.3514">
        <ele>3.5999999046326</ele>
        <time>2022-07-17T09:48:39.000Z</time>
      </trkpt>
      <trkpt lat="47.27008" lon="-2.35167">
        <ele>3.5999999046326</ele>
        <time>2022-07-17T09:48:47.000Z</time>
      </trkpt>
      <trkpt lat="47.27021" lon="-2.35187">
        <ele>3.5999999046326</ele>
        <time>2022-07-17T09:48:54.000Z</time>
      </trkpt>
      <trkpt lat="47.27036" lon="-2.35209">
        <ele>3.5999999046326</ele>
        <time>2022-07-17T09:49:02.000Z</time>
      </trkpt>
      <trkpt lat="47.27048" lon="-2.35229">
        <ele>3.5999999046326</ele>
        <time>2022-07-17T09:49:09.000Z</time>
      </trkpt>
      <trkpt lat="47.27057" lon="-2.35242">
        <ele>3.5999999046326</ele>
        <time>2022-07-17T09:49:15.000Z</time>
      </trkpt>
      <trkpt lat="47.27058" lon="-2.35243">
        <ele>3.5999999046326</ele>
        <time>2022-07-17T09:49:16.000Z</time>
      </trkpt>
      <trkpt lat="47.27058" lon="-2.35244">
        <ele>3.5999999046326</ele>
        <time>2022-07-17T09:49:18.000Z</time>
      </trkpt>
      <trkpt lat="47.27056" lon="-2.35246">
        <ele>3.5999999046326</ele>
        <time>2022-07-17T09:49:33.000Z</time>
      </trkpt>
      <trkpt lat="47.27052" lon="-2.35249">
        <ele>3.5999999046326</ele>
        <time>2022-07-17T09:49:36.000Z</time>
      </trkpt>
      <trkpt lat="47.27051" lon="-2.35246">
        <ele>3.5999999046326</ele>
        <time>2022-07-17T09:49:38.000Z</time>
      </trkpt>
      <trkpt lat="47.27043" lon="-2.35236">
        <ele>3.5999999046326</ele>
        <time>2022-07-17T09:49:44.000Z</time>
      </trkpt>
      <trkpt lat="47.27037" lon="-2.35221">
        <ele>3.5999999046326</ele>
        <time>2022-07-17T09:49:50.000Z</time>
      </trkpt>
      <trkpt lat="47.27028" lon="-2.35208">
        <ele>3.5999999046326</ele>
        <time>2022-07-17T09:49:57.000Z</time>
      </trkpt>
      <trkpt lat="47.27021" lon="-2.35199">
        <ele>3.5999999046326</ele>
        <time>2022-07-17T09:50:03.000Z</time>
      </trkpt>
      <trkpt lat="47.2702" lon="-2.35195">
        <ele>3.5999999046326</ele>
        <time>2022-07-17T09:50:07.000Z</time>
      </trkpt>
      <trkpt lat="47.27016" lon="-2.35192">
        <ele>3.5999999046326</ele>
        <time>2022-07-17T09:50:37.000Z</time>
      </trkpt>
      <trkpt lat="47.27013" lon="-2.3519">
        <ele>3.5999999046326</ele>
        <time>2022-07-17T09:50:41.000Z</time>
      </trkpt>
      <trkpt lat="47.27013" lon="-2.35187">
        <ele>3.5999999046326</ele>
        <time>2022-07-17T09:51:12.000Z</time>
      </trkpt>
      <trkpt lat="47.27014" lon="-2.35185">
        <ele>3.5999999046326</ele>
        <time>2022-07-17T09:51:13.000Z</time>
      </trkpt>
      <trkpt lat="47.27015" lon="-2.35181">
        <ele>3.5999999046326</ele>
        <time>2022-07-17T09:51:15.000Z</time>
      </trkpt>
      <trkpt lat="47.27011" lon="-2.35174">
        <ele>3.5999999046326</ele>
        <time>2022-07-17T09:51:18.000Z</time>
      </trkpt>
      <trkpt lat="47.27008" lon="-2.35169">
        <ele>3.5999999046326</ele>
        <time>2022-07-17T09:51:20.000Z</time>
      </trkpt>
      <trkpt lat="47.27" lon="-2.35156">
        <ele>3.5999999046326</ele>
        <time>2022-07-17T09:51:24.000Z</time>
      </trkpt>
      <trkpt lat="47.26982" lon="-2.3513">
        <ele>3.5999999046326</ele>
        <time>2022-07-17T09:51:32.000Z</time>
      </trkpt>
      <trkpt lat="47.2697" lon="-2.35108">
        <ele>3.5999999046326</ele>
        <time>2022-07-17T09:51:38.000Z</time>
      </trkpt>
      <trkpt lat="47.26952" lon="-2.35082">
        <ele>3.5999999046326</ele>
        <time>2022-07-17T09:51:44.000Z</time>
      </trkpt>
      <trkpt lat="47.26938" lon="-2.35068">
        <ele>3.5999999046326</ele>
        <time>2022-07-17T09:51:48.000Z</time>
      </trkpt>
      <trkpt lat="47.26935" lon="-2.35063">
        <ele>3.5999999046326</ele>
        <time>2022-07-17T09:51:49.000Z</time>
      </trkpt>
      <trkpt lat="47.26911" lon="-2.35025">
        <ele>3.5999999046326</ele>
        <time>2022-07-17T09:51:57.000Z</time>
      </trkpt>
      <trkpt lat="47.26877" lon="-2.34973">
        <ele>3.5999999046326</ele>
        <time>2022-07-17T09:52:07.000Z</time>
      </trkpt>
      <trkpt lat="47.26841" lon="-2.34917">
        <ele>3.5999999046326</ele>
        <time>2022-07-17T09:52:17.000Z</time>
      </trkpt>
      <trkpt lat="47.26813" lon="-2.34877">
        <ele>3.5999999046326</ele>
        <time>2022-07-17T09:52:24.000Z</time>
      </trkpt>
      <trkpt lat="47.26782" lon="-2.34833">
        <ele>3.5999999046326</ele>
        <time>2022-07-17T09:52:32.000Z</time>
      </trkpt>
      <trkpt lat="47.26778" lon="-2.34828">
        <ele>3.5999999046326</ele>
        <time>2022-07-17T09:52:35.000Z</time>
      </trkpt>
      <trkpt lat="47.26774" lon="-2.34821">
        <ele>3.5999999046326</ele>
        <time>2022-07-17T09:52:41.000Z</time>
      </trkpt>
      <trkpt lat="47.26762" lon="-2.3481">
        <ele>3.5999999046326</ele>
        <time>2022-07-17T09:52:45.000Z</time>
      </trkpt>
      <trkpt lat="47.26754" lon="-2.34796">
        <ele>3.5999999046326</ele>
        <time>2022-07-17T09:52:48.000Z</time>
      </trkpt>
      <trkpt lat="47.2675" lon="-2.34792">
        <ele>3.5999999046326</ele>
        <time>2022-07-17T09:52:49.000Z</time>
      </trkpt>
      <trkpt lat="47.26722" lon="-2.34756">
        <ele>3.5999999046326</ele>
        <time>2022-07-17T09:52:56.000Z</time>
      </trkpt>
      <trkpt lat="47.26687" lon="-2.34714">
        <ele>3.5999999046326</ele>
        <time>2022-07-17T09:53:04.000Z</time>
      </trkpt>
      <trkpt lat="47.26656" lon="-2.34674">
        <ele>3.5999999046326</ele>
        <time>2022-07-17T09:53:11.000Z</time>
      </trkpt>
      <trkpt lat="47.26622" lon="-2.34635">
        <ele>3.5999999046326</ele>
        <time>2022-07-17T09:53:18.000Z</time>
      </trkpt>
      <trkpt lat="47.26584" lon="-2.34589">
        <ele>3.5999999046326</ele>
        <time>2022-07-17T09:53:26.000Z</time>
      </trkpt>
      <trkpt lat="47.26549" lon="-2.34553">
        <ele>3.5999999046326</ele>
        <time>2022-07-17T09:53:33.000Z</time>
      </trkpt>
      <trkpt lat="47.26513" lon="-2.3452">
        <ele>3.5999999046326</ele>
        <time>2022-07-17T09:53:40.000Z</time>
      </trkpt>
      <trkpt lat="47.26508" lon="-2.34516">
        <ele>3.5999999046326</ele>
        <time>2022-07-17T09:53:41.000Z</time>
      </trkpt>
      <trkpt lat="47.26473" lon="-2.34492">
        <ele>3.5999999046326</ele>
        <time>2022-07-17T09:53:47.000Z</time>
      </trkpt>
      <trkpt lat="47.2644" lon="-2.34468">
        <ele>3.5999999046326</ele>
        <time>2022-07-17T09:53:53.000Z</time>
      </trkpt>
      <trkpt lat="47.26402" lon="-2.34438">
        <ele>3.5999999046326</ele>
        <time>2022-07-17T09:54:00.000Z</time>
      </trkpt>
      <trkpt lat="47.26364" lon="-2.34405">
        <ele>3.5999999046326</ele>
        <time>2022-07-17T09:54:07.000Z</time>
      </trkpt>
      <trkpt lat="47.26337" lon="-2.34385">
        <ele>3.5999999046326</ele>
        <time>2022-07-17T09:54:12.000Z</time>
      </trkpt>
      <trkpt lat="47.26331" lon="-2.34384">
        <ele>3.5999999046326</ele>
        <time>2022-07-17T09:54:13.000Z</time>
      </trkpt>
      <trkpt lat="47.26316" lon="-2.34372">
        <ele>3.5999999046326</ele>
        <time>2022-07-17T09:54:16.000Z</time>
      </trkpt>
      <trkpt lat="47.263" lon="-2.34347">
        <ele>3.5999999046326</ele>
        <time>2022-07-17T09:54:20.000Z</time>
      </trkpt>
      <trkpt lat="47.26295" lon="-2.34342">
        <ele>3.5999999046326</ele>
        <time>2022-07-17T09:54:21.000Z</time>
      </trkpt>
      <trkpt lat="47.2627" lon="-2.34317">
        <ele>3.5999999046326</ele>
        <time>2022-07-17T09:54:26.000Z</time>
      </trkpt>
      <trkpt lat="47.26235" lon="-2.34279">
        <ele>3.5999999046326</ele>
        <time>2022-07-17T09:54:33.000Z</time>
      </trkpt>
      <trkpt lat="47.2621" lon="-2.34251">
        <ele>3.5999999046326</ele>
        <time>2022-07-17T09:54:38.000Z</time>
      </trkpt>
      <trkpt lat="47.26199" lon="-2.34239">
        <ele>3.5999999046326</ele>
        <time>2022-07-17T09:54:40.000Z</time>
      </trkpt>
      <trkpt lat="47.26168" lon="-2.34209">
        <ele>3.5999999046326</ele>
        <time>2022-07-17T09:54:46.000Z</time>
      </trkpt>
      <trkpt lat="47.26158" lon="-2.34199">
        <ele>3.5999999046326</ele>
        <time>2022-07-17T09:54:50.000Z</time>
      </trkpt>
      <trkpt lat="47.26155" lon="-2.34196">
        <ele>3.5999999046326</ele>
        <time>2022-07-17T09:54:55.000Z</time>
      </trkpt>
      <trkpt lat="47.26152" lon="-2.34194">
        <ele>3.5999999046326</ele>
        <time>2022-07-17T09:54:57.000Z</time>
      </trkpt>
      <trkpt lat="47.26144" lon="-2.34191">
        <ele>3.5999999046326</ele>
        <time>2022-07-17T09:54:59.000Z</time>
      </trkpt>
      <trkpt lat="47.26127" lon="-2.3418">
        <ele>3.5999999046326</ele>
        <time>2022-07-17T09:55:03.000Z</time>
      </trkpt>
      <trkpt lat="47.26109" lon="-2.34163">
        <ele>3.5999999046326</ele>
        <time>2022-07-17T09:55:07.000Z</time>
      </trkpt>
      <trkpt lat="47.26103" lon="-2.3416">
        <ele>3.5999999046326</ele>
        <time>2022-07-17T09:55:08.000Z</time>
      </trkpt>
      <trkpt lat="47.26068" lon="-2.34142">
        <ele>3.5999999046326</ele>
        <time>2022-07-17T09:55:14.000Z</time>
      </trkpt>
      <trkpt lat="47.26028" lon="-2.34122">
        <ele>3.5999999046326</ele>
        <time>2022-07-17T09:55:21.000Z</time>
      </trkpt>
      <trkpt lat="47.25983" lon="-2.34099">
        <ele>3.5999999046326</ele>
        <time>2022-07-17T09:55:29.000Z</time>
      </trkpt>
      <trkpt lat="47.25945" lon="-2.34082">
        <ele>3.5999999046326</ele>
        <time>2022-07-17T09:55:36.000Z</time>
      </trkpt>
      <trkpt lat="47.25911" lon="-2.34074">
        <ele>3.5999999046326</ele>
        <time>2022-07-17T09:55:42.000Z</time>
      </trkpt>
      <trkpt lat="47.25906" lon="-2.34071">
        <ele>3.5999999046326</ele>
        <time>2022-07-17T09:55:43.000Z</time>
      </trkpt>
      <trkpt lat="47.25899" lon="-2.34058">
        <ele>3.5999999046326</ele>
        <time>2022-07-17T09:55:45.000Z</time>
      </trkpt>
      <trkpt lat="47.259" lon="-2.34033">
        <ele>3.5999999046326</ele>
        <time>2022-07-17T09:55:48.000Z</time>
      </trkpt>
      <trkpt lat="47.25904" lon="-2.34018">
        <ele>3.5999999046326</ele>
        <time>2022-07-17T09:55:50.000Z</time>
      </trkpt>
      <trkpt lat="47.25906" lon="-2.34011">
        <ele>3.2000000476837</ele>
        <time>2022-07-17T09:55:51.000Z</time>
      </trkpt>
      <trkpt lat="47.25908" lon="-2.34003">
        <ele>2.7999999523163</ele>
        <time>2022-07-17T09:55:52.000Z</time>
      </trkpt>
      <trkpt lat="47.2591" lon="-2.33995">
        <ele>2.4000000953674</ele>
        <time>2022-07-17T09:55:53.000Z</time>
      </trkpt>
      <trkpt lat="47.25912" lon="-2.33988">
        <ele>2</ele>
        <time>2022-07-17T09:55:54.000Z</time>
      </trkpt>
      <trkpt lat="47.25914" lon="-2.3398">
        <ele>1.6000000238419</ele>
        <time>2022-07-17T09:55:55.000Z</time>
      </trkpt>
      <trkpt lat="47.25929" lon="-2.33946">
        <ele>1.6000000238419</ele>
        <time>2022-07-17T09:56:00.000Z</time>
      </trkpt>
      <trkpt lat="47.25945" lon="-2.33915">
        <ele>1.6000000238419</ele>
        <time>2022-07-17T09:56:05.000Z</time>
      </trkpt>
      <trkpt lat="47.25959" lon="-2.33904">
        <ele>1.6000000238419</ele>
        <time>2022-07-17T09:56:09.000Z</time>
      </trkpt>
      <trkpt lat="47.25968" lon="-2.33905">
        <ele>1.6000000238419</ele>
        <time>2022-07-17T09:56:12.000Z</time>
      </trkpt>
      <trkpt lat="47.25973" lon="-2.33894">
        <ele>1.6000000238419</ele>
        <time>2022-07-17T09:56:15.000Z</time>
      </trkpt>
      <trkpt lat="47.25974" lon="-2.33891">
        <ele>1.6000000238419</ele>
        <time>2022-07-17T09:56:16.000Z</time>
      </trkpt>
      <trkpt lat="47.2598" lon="-2.33874">
        <ele>1.6000000238419</ele>
        <time>2022-07-17T09:56:21.000Z</time>
      </trkpt>
      <trkpt lat="47.25989" lon="-2.33845">
        <ele>1.6000000238419</ele>
        <time>2022-07-17T09:56:26.000Z</time>
      </trkpt>
      <trkpt lat="47.26007" lon="-2.33797">
        <ele>1.6000000238419</ele>
        <time>2022-07-17T09:56:34.000Z</time>
      </trkpt>
      <trkpt lat="47.26015" lon="-2.33773">
        <ele>1.6000000238419</ele>
        <time>2022-07-17T09:56:38.000Z</time>
      </trkpt>
      <trkpt lat="47.26019" lon="-2.33761">
        <ele>1.6000000238419</ele>
        <time>2022-07-17T09:56:40.000Z</time>
      </trkpt>
      <trkpt lat="47.26027" lon="-2.33736">
        <ele>1.6000000238419</ele>
        <time>2022-07-17T09:56:44.000Z</time>
      </trkpt>
      <trkpt lat="47.26032" lon="-2.33724">
        <ele>1.6000000238419</ele>
        <time>2022-07-17T09:56:46.000Z</time>
      </trkpt>
      <trkpt lat="47.2604" lon="-2.33706">
        <ele>1.6000000238419</ele>
        <time>2022-07-17T09:56:49.000Z</time>
      </trkpt>
      <trkpt lat="47.26047" lon="-2.33688">
        <ele>1.6000000238419</ele>
        <time>2022-07-17T09:56:52.000Z</time>
      </trkpt>
      <trkpt lat="47.26061" lon="-2.33643">
        <ele>1.6000000238419</ele>
        <time>2022-07-17T09:56:59.000Z</time>
      </trkpt>
      <trkpt lat="47.26073" lon="-2.33608">
        <ele>1.6000000238419</ele>
        <time>2022-07-17T09:57:05.000Z</time>
      </trkpt>
      <trkpt lat="47.26089" lon="-2.3356">
        <ele>1.6000000238419</ele>
        <time>2022-07-17T09:57:13.000Z</time>
      </trkpt>
      <trkpt lat="47.26103" lon="-2.33525">
        <ele>1.6000000238419</ele>
        <time>2022-07-17T09:57:19.000Z</time>
      </trkpt>
      <trkpt lat="47.2612" lon="-2.33478">
        <ele>1.6000000238419</ele>
        <time>2022-07-17T09:57:27.000Z</time>
      </trkpt>
      <trkpt lat="47.26128" lon="-2.33457">
        <ele>1.6000000238419</ele>
        <time>2022-07-17T09:57:32.000Z</time>
      </trkpt>
      <trkpt lat="47.26133" lon="-2.33434">
        <ele>1.6000000238419</ele>
        <time>2022-07-17T09:57:38.000Z</time>
      </trkpt>
      <trkpt lat="47.26125" lon="-2.33416">
        <ele>1.6000000238419</ele>
        <time>2022-07-17T09:57:42.000Z</time>
      </trkpt>
      <trkpt lat="47.26119" lon="-2.3341">
        <ele>1.6000000238419</ele>
        <time>2022-07-17T09:57:44.000Z</time>
      </trkpt>
      <trkpt lat="47.26111" lon="-2.33401">
        <ele>1.6000000238419</ele>
        <time>2022-07-17T09:57:46.000Z</time>
      </trkpt>
      <trkpt lat="47.26108" lon="-2.33398">
        <ele>1.6000000238419</ele>
        <time>2022-07-17T09:57:47.000Z</time>
      </trkpt>
      <trkpt lat="47.26105" lon="-2.33392">
        <ele>1.6000000238419</ele>
        <time>2022-07-17T09:57:48.000Z</time>
      </trkpt>
      <trkpt lat="47.26092" lon="-2.33375">
        <ele>1.6000000238419</ele>
        <time>2022-07-17T09:57:52.000Z</time>
      </trkpt>
      <trkpt lat="47.26072" lon="-2.3334">
        <ele>1.6000000238419</ele>
        <time>2022-07-17T09:57:59.000Z</time>
      </trkpt>
      <trkpt lat="47.26056" lon="-2.33297">
        <ele>1.6000000238419</ele>
        <time>2022-07-17T09:58:06.000Z</time>
      </trkpt>
      <trkpt lat="47.2604" lon="-2.33251">
        <ele>1.6000000238419</ele>
        <time>2022-07-17T09:58:13.000Z</time>
      </trkpt>
      <trkpt lat="47.26024" lon="-2.33207">
        <ele>1.6000000238419</ele>
        <time>2022-07-17T09:58:20.000Z</time>
      </trkpt>
      <trkpt lat="47.26006" lon="-2.33156">
        <ele>1.6000000238419</ele>
        <time>2022-07-17T09:58:28.000Z</time>
      </trkpt>
      <trkpt lat="47.25997" lon="-2.33132">
        <ele>1.6000000238419</ele>
        <time>2022-07-17T09:58:32.000Z</time>
      </trkpt>
      <trkpt lat="47.25992" lon="-2.33114">
        <ele>1.6000000238419</ele>
        <time>2022-07-17T09:58:35.000Z</time>
      </trkpt>
      <trkpt lat="47.25984" lon="-2.3308">
        <ele>1.6000000238419</ele>
        <time>2022-07-17T09:58:40.000Z</time>
      </trkpt>
      <trkpt lat="47.25979" lon="-2.3307">
        <ele>1.6000000238419</ele>
        <time>2022-07-17T09:58:42.000Z</time>
      </trkpt>
      <trkpt lat="47.25971" lon="-2.33054">
        <ele>1.6000000238419</ele>
        <time>2022-07-17T09:58:45.000Z</time>
      </trkpt>
      <trkpt lat="47.25955" lon="-2.33007">
        <ele>1.6000000238419</ele>
        <time>2022-07-17T09:58:53.000Z</time>
      </trkpt>
      <trkpt lat="47.25941" lon="-2.32964">
        <ele>1.6000000238419</ele>
        <time>2022-07-17T09:59:00.000Z</time>
      </trkpt>
      <trkpt lat="47.25937" lon="-2.32952">
        <ele>1.6000000238419</ele>
        <time>2022-07-17T09:59:02.000Z</time>
      </trkpt>
      <trkpt lat="47.25928" lon="-2.32927">
        <ele>1.6000000238419</ele>
        <time>2022-07-17T09:59:06.000Z</time>
      </trkpt>
      <trkpt lat="47.25911" lon="-2.32883">
        <ele>1.6000000238419</ele>
        <time>2022-07-17T09:59:13.000Z</time>
      </trkpt>
      <trkpt lat="47.25892" lon="-2.32832">
        <ele>1.6000000238419</ele>
        <time>2022-07-17T09:59:21.000Z</time>
      </trkpt>
      <trkpt lat="47.25876" lon="-2.32781">
        <ele>1.6000000238419</ele>
        <time>2022-07-17T09:59:29.000Z</time>
      </trkpt>
      <trkpt lat="47.25864" lon="-2.32738">
        <ele>1.6000000238419</ele>
        <time>2022-07-17T09:59:36.000Z</time>
      </trkpt>
      <trkpt lat="47.25867" lon="-2.32713">
        <ele>1.6000000238419</ele>
        <time>2022-07-17T09:59:40.000Z</time>
      </trkpt>
      <trkpt lat="47.25881" lon="-2.32695">
        <ele>1.6000000238419</ele>
        <time>2022-07-17T09:59:44.000Z</time>
      </trkpt>
      <trkpt lat="47.25885" lon="-2.32692">
        <ele>1.2000000476837</ele>
        <time>2022-07-17T09:59:45.000Z</time>
      </trkpt>
      <trkpt lat="47.25889" lon="-2.32688">
        <ele>0.80000001192093</ele>
        <time>2022-07-17T09:59:46.000Z</time>
      </trkpt>
      <trkpt lat="47.25893" lon="-2.32685">
        <ele>0.40000000596046</ele>
        <time>2022-07-17T09:59:47.000Z</time>
      </trkpt>
      <trkpt lat="47.25897" lon="-2.32681">
        <ele>3.5</ele>
        <time>2022-07-17T09:59:48.000Z</time>
      </trkpt>
      <trkpt lat="47.25901" lon="-2.32678">
        <ele>-0.40000000596046</ele>
        <time>2022-07-17T09:59:49.000Z</time>
      </trkpt>
      <trkpt lat="47.25908" lon="-2.32671">
        <ele>-0.40000000596046</ele>
        <time>2022-07-17T09:59:51.000Z</time>
      </trkpt>
      <trkpt lat="47.25911" lon="-2.32666">
        <ele>-0.40000000596046</ele>
        <time>2022-07-17T09:59:52.000Z</time>
      </trkpt>
      <trkpt lat="47.25914" lon="-2.32647">
        <ele>-0.40000000596046</ele>
        <time>2022-07-17T09:59:55.000Z</time>
      </trkpt>
      <trkpt lat="47.25915" lon="-2.32626">
        <ele>-0.40000000596046</ele>
        <time>2022-07-17T09:59:59.000Z</time>
      </trkpt>
      <trkpt lat="47.25916" lon="-2.32623">
        <ele>-0.40000000596046</ele>
        <time>2022-07-17T10:00:00.000Z</time>
      </trkpt>
      <trkpt lat="47.25914" lon="-2.32616">
        <ele>-0.40000000596046</ele>
        <time>2022-07-17T10:00:02.000Z</time>
      </trkpt>
      <trkpt lat="47.25904" lon="-2.32602">
        <ele>-0.40000000596046</ele>
        <time>2022-07-17T10:00:06.000Z</time>
      </trkpt>
      <trkpt lat="47.25897" lon="-2.32595">
        <ele>-0.40000000596046</ele>
        <time>2022-07-17T10:00:08.000Z</time>
      </trkpt>
      <trkpt lat="47.2589" lon="-2.3259">
        <ele>-0.40000000596046</ele>
        <time>2022-07-17T10:00:10.000Z</time>
      </trkpt>
      <trkpt lat="47.25886" lon="-2.32588">
        <ele>-0.40000000596046</ele>
        <time>2022-07-17T10:00:11.000Z</time>
      </trkpt>
      <trkpt lat="47.25883" lon="-2.32584">
        <ele>-0.40000000596046</ele>
        <time>2022-07-17T10:00:12.000Z</time>
      </trkpt>
      <trkpt lat="47.25879" lon="-2.32574">
        <ele>-0.40000000596046</ele>
        <time>2022-07-17T10:00:14.000Z</time>
      </trkpt>
      <trkpt lat="47.25873" lon="-2.32565">
        <ele>-0.40000000596046</ele>
        <time>2022-07-17T10:00:16.000Z</time>
      </trkpt>
      <trkpt lat="47.25866" lon="-2.32557">
        <ele>-0.40000000596046</ele>
        <time>2022-07-17T10:00:18.000Z</time>
      </trkpt>
      <trkpt lat="47.2586" lon="-2.32548">
        <ele>-0.40000000596046</ele>
        <time>2022-07-17T10:00:20.000Z</time>
      </trkpt>
      <trkpt lat="47.25831" lon="-2.32505">
        <ele>-0.40000000596046</ele>
        <time>2022-07-17T10:00:30.000Z</time>
      </trkpt>
      <trkpt lat="47.25825" lon="-2.32487">
        <ele>-0.40000000596046</ele>
        <time>2022-07-17T10:00:34.000Z</time>
      </trkpt>
      <trkpt lat="47.25828" lon="-2.32485">
        <ele>-0.40000000596046</ele>
        <time>2022-07-17T10:00:35.000Z</time>
      </trkpt>
      <trkpt lat="47.25839" lon="-2.32485">
        <ele>-0.40000000596046</ele>
        <time>2022-07-17T10:00:38.000Z</time>
      </trkpt>
      <trkpt lat="47.25843" lon="-2.32485">
        <ele>-0.40000000596046</ele>
        <time>2022-07-17T10:00:39.000Z</time>
      </trkpt>
      <trkpt lat="47.25848" lon="-2.32485">
        <ele>-0.40000000596046</ele>
        <time>2022-07-17T10:00:40.000Z</time>
      </trkpt>
      <trkpt lat="47.2587" lon="-2.32486">
        <ele>-0.40000000596046</ele>
        <time>2022-07-17T10:00:45.000Z</time>
      </trkpt>
      <trkpt lat="47.25883" lon="-2.32486">
        <ele>-0.40000000596046</ele>
        <time>2022-07-17T10:00:48.000Z</time>
      </trkpt>
      <trkpt lat="47.25888" lon="-2.32479">
        <ele>-0.40000000596046</ele>
        <time>2022-07-17T10:00:50.000Z</time>
      </trkpt>
      <trkpt lat="47.25888" lon="-2.32475">
        <ele>-0.40000000596046</ele>
        <time>2022-07-17T10:00:52.000Z</time>
      </trkpt>
      <trkpt lat="47.25889" lon="-2.32474">
        <ele>-0.40000000596046</ele>
        <time>2022-07-17T10:00:53.000Z</time>
      </trkpt>
      <trkpt lat="47.25893" lon="-2.32462">
        <ele>-0.40000000596046</ele>
        <time>2022-07-17T10:00:57.000Z</time>
      </trkpt>
      <trkpt lat="47.25895" lon="-2.32459">
        <ele>-0.40000000596046</ele>
        <time>2022-07-17T10:00:58.000Z</time>
      </trkpt>
      <trkpt lat="47.25915" lon="-2.3244">
        <ele>-0.40000000596046</ele>
        <time>2022-07-17T10:01:04.000Z</time>
      </trkpt>
      <trkpt lat="47.25938" lon="-2.32411">
        <ele>-0.40000000596046</ele>
        <time>2022-07-17T10:01:11.000Z</time>
      </trkpt>
      <trkpt lat="47.25941" lon="-2.32408">
        <ele>-0.40000000596046</ele>
        <time>2022-07-17T10:01:12.000Z</time>
      </trkpt>
      <trkpt lat="47.25965" lon="-2.32377">
        <ele>-0.40000000596046</ele>
        <time>2022-07-17T10:01:19.000Z</time>
      </trkpt>
      <trkpt lat="47.25995" lon="-2.32339">
        <ele>-0.40000000596046</ele>
        <time>2022-07-17T10:01:28.000Z</time>
      </trkpt>
      <trkpt lat="47.26012" lon="-2.32318">
        <ele>-0.40000000596046</ele>
        <time>2022-07-17T10:01:33.000Z</time>
      </trkpt>
      <trkpt lat="47.26018" lon="-2.3231">
        <ele>-0.40000000596046</ele>
        <time>2022-07-17T10:01:35.000Z</time>
      </trkpt>
      <trkpt lat="47.26028" lon="-2.32298">
        <ele>-0.40000000596046</ele>
        <time>2022-07-17T10:01:38.000Z</time>
      </trkpt>
      <trkpt lat="47.26042" lon="-2.32283">
        <ele>-0.40000000596046</ele>
        <time>2022-07-17T10:01:42.000Z</time>
      </trkpt>
      <trkpt lat="47.26062" lon="-2.32257">
        <ele>-0.40000000596046</ele>
        <time>2022-07-17T10:01:48.000Z</time>
      </trkpt>
      <trkpt lat="47.26079" lon="-2.32238">
        <ele>-0.40000000596046</ele>
        <time>2022-07-17T10:01:53.000Z</time>
      </trkpt>
      <trkpt lat="47.26082" lon="-2.32233">
        <ele>-0.40000000596046</ele>
        <time>2022-07-17T10:01:54.000Z</time>
      </trkpt>
      <trkpt lat="47.26098" lon="-2.32209">
        <ele>-0.40000000596046</ele>
        <time>2022-07-17T10:01:59.000Z</time>
      </trkpt>
      <trkpt lat="47.26101" lon="-2.32203">
        <ele>-0.40000000596046</ele>
        <time>2022-07-17T10:02:00.000Z</time>
      </trkpt>
      <trkpt lat="47.2612" lon="-2.32157">
        <ele>-0.40000000596046</ele>
        <time>2022-07-17T10:02:08.000Z</time>
      </trkpt>
      <trkpt lat="47.26128" lon="-2.32139">
        <ele>-0.40000000596046</ele>
        <time>2022-07-17T10:02:11.000Z</time>
      </trkpt>
      <trkpt lat="47.26133" lon="-2.32121">
        <ele>-0.40000000596046</ele>
        <time>2022-07-17T10:02:14.000Z</time>
      </trkpt>
      <trkpt lat="47.26144" lon="-2.32088">
        <ele>-0.40000000596046</ele>
        <time>2022-07-17T10:02:20.000Z</time>
      </trkpt>
      <trkpt lat="47.26154" lon="-2.32057">
        <ele>-0.40000000596046</ele>
        <time>2022-07-17T10:02:26.000Z</time>
      </trkpt>
      <trkpt lat="47.26163" lon="-2.32031">
        <ele>-0.40000000596046</ele>
        <time>2022-07-17T10:02:32.000Z</time>
      </trkpt>
      <trkpt lat="47.26178" lon="-2.32023">
        <ele>-0.40000000596046</ele>
        <time>2022-07-17T10:02:37.000Z</time>
      </trkpt>
      <trkpt lat="47.2619" lon="-2.32025">
        <ele>-0.40000000596046</ele>
        <time>2022-07-17T10:02:41.000Z</time>
      </trkpt>
      <trkpt lat="47.26196" lon="-2.32025">
        <ele>-0.40000000596046</ele>
        <time>2022-07-17T10:02:45.000Z</time>
      </trkpt>
      <trkpt lat="47.26197" lon="-2.32023">
        <ele>-0.40000000596046</ele>
        <time>2022-07-17T10:02:46.000Z</time>
      </trkpt>
      <trkpt lat="47.26201" lon="-2.3201">
        <ele>-0.40000000596046</ele>
        <time>2022-07-17T10:02:50.000Z</time>
      </trkpt>
      <trkpt lat="47.26203" lon="-2.32008">
        <ele>-0.40000000596046</ele>
        <time>2022-07-17T10:02:51.000Z</time>
      </trkpt>
      <trkpt lat="47.26214" lon="-2.31998">
        <ele>-0.40000000596046</ele>
        <time>2022-07-17T10:02:55.000Z</time>
      </trkpt>
      <trkpt lat="47.26216" lon="-2.31995">
        <ele>-0.40000000596046</ele>
        <time>2022-07-17T10:02:56.000Z</time>
      </trkpt>
      <trkpt lat="47.26228" lon="-2.3198">
        <ele>-0.40000000596046</ele>
        <time>2022-07-17T10:03:00.000Z</time>
      </trkpt>
      <trkpt lat="47.26231" lon="-2.31976">
        <ele>-0.40000000596046</ele>
        <time>2022-07-17T10:03:01.000Z</time>
      </trkpt>
      <trkpt lat="47.26243" lon="-2.31967">
        <ele>-0.40000000596046</ele>
        <time>2022-07-17T10:03:04.000Z</time>
      </trkpt>
      <trkpt lat="47.2625" lon="-2.31961">
        <ele>-0.40000000596046</ele>
        <time>2022-07-17T10:03:06.000Z</time>
      </trkpt>
      <trkpt lat="47.26259" lon="-2.31945">
        <ele>-0.40000000596046</ele>
        <time>2022-07-17T10:03:10.000Z</time>
      </trkpt>
      <trkpt lat="47.26269" lon="-2.31928">
        <ele>-0.40000000596046</ele>
        <time>2022-07-17T10:03:15.000Z</time>
      </trkpt>
      <trkpt lat="47.26279" lon="-2.31913">
        <ele>-0.40000000596046</ele>
        <time>2022-07-17T10:03:19.000Z</time>
      </trkpt>
      <trkpt lat="47.263" lon="-2.31888">
        <ele>-0.40000000596046</ele>
        <time>2022-07-17T10:03:26.000Z</time>
      </trkpt>
      <trkpt lat="47.263" lon="-2.31867">
        <ele>-0.40000000596046</ele>
        <time>2022-07-17T10:03:30.000Z</time>
      </trkpt>
      <trkpt lat="47.263" lon="-2.3184">
        <ele>-0.40000000596046</ele>
        <time>2022-07-17T10:03:34.000Z</time>
      </trkpt>
      <trkpt lat="47.26301" lon="-2.31829">
        <ele>-0.40000000596046</ele>
        <time>2022-07-17T10:03:36.000Z</time>
      </trkpt>
      <trkpt lat="47.26303" lon="-2.31788">
        <ele>-0.40000000596046</ele>
        <time>2022-07-17T10:03:43.000Z</time>
      </trkpt>
      <trkpt lat="47.26301" lon="-2.31739">
        <ele>-0.40000000596046</ele>
        <time>2022-07-17T10:03:51.000Z</time>
      </trkpt>
      <trkpt lat="47.26306" lon="-2.31718">
        <ele>-0.40000000596046</ele>
        <time>2022-07-17T10:03:55.000Z</time>
      </trkpt>
      <trkpt lat="47.26319" lon="-2.31711">
        <ele>-0.40000000596046</ele>
        <time>2022-07-17T10:03:59.000Z</time>
      </trkpt>
      <trkpt lat="47.26332" lon="-2.31702">
        <ele>-0.40000000596046</ele>
        <time>2022-07-17T10:04:04.000Z</time>
      </trkpt>
      <trkpt lat="47.26335" lon="-2.31689">
        <ele>-0.40000000596046</ele>
        <time>2022-07-17T10:04:07.000Z</time>
      </trkpt>
      <trkpt lat="47.26344" lon="-2.31685">
        <ele>6.7</ele>
        <time>2022-07-17T10:04:10.000Z</time>
      </trkpt>
      <trkpt lat="47.26347" lon="-2.31684">
        <ele>0.40000000596046</ele>
        <time>2022-07-17T10:04:11.000Z</time>
      </trkpt>
      <trkpt lat="47.26349" lon="-2.31682">
        <ele>0.80000001192093</ele>
        <time>2022-07-17T10:04:12.000Z</time>
      </trkpt>
      <trkpt lat="47.26352" lon="-2.31681">
        <ele>1.6000000238419</ele>
        <time>2022-07-17T10:04:13.000Z</time>
      </trkpt>
      <trkpt lat="47.26358" lon="-2.31679">
        <ele>1.6000000238419</ele>
        <time>2022-07-17T10:04:15.000Z</time>
      </trkpt>
      <trkpt lat="47.26377" lon="-2.31671">
        <ele>1.6000000238419</ele>
        <time>2022-07-17T10:04:21.000Z</time>
      </trkpt>
      <trkpt lat="47.26394" lon="-2.31661">
        <ele>1.6000000238419</ele>
        <time>2022-07-17T10:04:27.000Z</time>
      </trkpt>
      <trkpt lat="47.26409" lon="-2.31652">
        <ele>1.6000000238419</ele>
        <time>2022-07-17T10:04:33.000Z</time>
      </trkpt>
      <trkpt lat="47.26411" lon="-2.31647">
        <ele>1.6000000238419</ele>
        <time>2022-07-17T10:04:34.000Z</time>
      </trkpt>
      <trkpt lat="47.26411" lon="-2.3164">
        <ele>1.6000000238419</ele>
        <time>2022-07-17T10:04:36.000Z</time>
      </trkpt>
      <trkpt lat="47.2641" lon="-2.31628">
        <ele>2</ele>
        <time>2022-07-17T10:04:39.000Z</time>
      </trkpt>
      <trkpt lat="47.2641" lon="-2.31623">
        <ele>2.4000000953674</ele>
        <time>2022-07-17T10:04:40.000Z</time>
      </trkpt>
      <trkpt lat="47.2641" lon="-2.3162">
        <ele>3</ele>
        <time>2022-07-17T10:04:41.000Z</time>
      </trkpt>
      <trkpt lat="47.2641" lon="-2.31615">
        <ele>3.4000000953674</ele>
        <time>2022-07-17T10:04:42.000Z</time>
      </trkpt>
      <trkpt lat="47.2641" lon="-2.31611">
        <ele>3.7999999523163</ele>
        <time>2022-07-17T10:04:43.000Z</time>
      </trkpt>
      <trkpt lat="47.26411" lon="-2.31586">
        <ele>3.7999999523163</ele>
        <time>2022-07-17T10:04:49.000Z</time>
      </trkpt>
      <trkpt lat="47.26411" lon="-2.31568">
        <ele>3.7999999523163</ele>
        <time>2022-07-17T10:04:53.000Z</time>
      </trkpt>
      <trkpt lat="47.26413" lon="-2.31554">
        <ele>3.7999999523163</ele>
        <time>2022-07-17T10:04:58.000Z</time>
      </trkpt>
      <trkpt lat="47.26418" lon="-2.31552">
        <ele>3.7999999523163</ele>
        <time>2022-07-17T10:05:02.000Z</time>
      </trkpt>
      <trkpt lat="47.26418" lon="-2.31553">
        <ele>3.7999999523163</ele>
        <time>2022-07-17T10:05:03.000Z</time>
      </trkpt>
    </trkseg>
  </trk>
</gpx>